<?xml version='1.0' encoding='UTF-8'?><gpx version="1.1" creator="JPX - https://github.com/jenetics/jpx" xmlns="http://www.topografix.com/GPX/1/1"><trk><trkseg><trkpt lat="42.4175833" lon="11.2806841"><ele>7.000000000000001</ele><time>2026-04-06T06:20:34.278Z</time></trkpt><trkpt lat="42.4174959" lon="11.2806597"><ele>7.0</ele><time>2026-04-06T06:20:37.278Z</time></trkpt><trkpt lat="42.417409" lon="11.2806701"><ele>7.0</ele><time>2026-04-06T06:20:39.277Z</time></trkpt><trkpt lat="42.4173306" lon="11.2806851"><ele>7.0</ele><time>2026-04-06T06:20:41.277Z</time></trkpt><trkpt lat="42.4172536" lon="11.280701"><ele>7.000000000000001</ele><time>2026-04-06T06:20:43.277Z</time></trkpt><trkpt lat="42.4171699" lon="11.2807229"><ele>7.0</ele><time>2026-04-06T06:20:45.278Z</time></trkpt><trkpt lat="42.4170862" lon="11.2807365"><ele>7.000000000000001</ele><time>2026-04-06T06:20:47.277Z</time></trkpt><trkpt lat="42.41701" lon="11.2807524"><ele>7.0</ele><time>2026-04-06T06:20:49.277Z</time></trkpt><trkpt lat="42.4169417" lon="11.2807539"><ele>7.0</ele><time>2026-04-06T06:20:51.278Z</time></trkpt><trkpt lat="42.416871" lon="11.2807042"><ele>7.0</ele><time>2026-04-06T06:20:53.279Z</time></trkpt><trkpt lat="42.4167728" lon="11.2806252"><ele>7.000000000000001</ele><time>2026-04-06T06:20:55.278Z</time></trkpt><trkpt lat="42.4167149" lon="11.2805817"><ele>7.0</ele><time>2026-04-06T06:20:56.278Z</time></trkpt><trkpt lat="42.4166416" lon="11.280559"><ele>7.0</ele><time>2026-04-06T06:20:57.281Z</time></trkpt><trkpt lat="42.4165464" lon="11.2805278"><ele>6.999999999999999</ele><time>2026-04-06T06:20:58.279Z</time></trkpt><trkpt lat="42.416441" lon="11.2805156"><ele>6.999999999999999</ele><time>2026-04-06T06:20:59.284Z</time></trkpt><trkpt lat="42.4163375" lon="11.2804969"><ele>7.0</ele><time>2026-04-06T06:21:00.279Z</time></trkpt><trkpt lat="42.4162328" lon="11.2804668"><ele>7.0</ele><time>2026-04-06T06:21:01.276Z</time></trkpt><trkpt lat="42.4161381" lon="11.2804409"><ele>6.8</ele><time>2026-04-06T06:21:02.28Z</time></trkpt><trkpt lat="42.4160368" lon="11.2804124"><ele>6.6</ele><time>2026-04-06T06:21:03.281Z</time></trkpt><trkpt lat="42.4159535" lon="11.2803846"><ele>6.3999999999999995</ele><time>2026-04-06T06:21:04.28Z</time></trkpt><trkpt lat="42.4158339" lon="11.2803373"><ele>6.199999999999999</ele><time>2026-04-06T06:21:06.278Z</time></trkpt><trkpt lat="42.4157604" lon="11.2802611"><ele>6.0</ele><time>2026-04-06T06:21:08.279Z</time></trkpt><trkpt lat="42.4157647" lon="11.2801392"><ele>6.0</ele><time>2026-04-06T06:21:10.278Z</time></trkpt><trkpt lat="42.4158108" lon="11.2800374"><ele>6.0</ele><time>2026-04-06T06:21:12.277Z</time></trkpt><trkpt lat="42.4158801" lon="11.2799655"><ele>6.0</ele><time>2026-04-06T06:21:14.278Z</time></trkpt><trkpt lat="42.4159539" lon="11.2798923"><ele>6.0</ele><time>2026-04-06T06:21:16.279Z</time></trkpt><trkpt lat="42.4160385" lon="11.2797964"><ele>6.0</ele><time>2026-04-06T06:21:18.279Z</time></trkpt><trkpt lat="42.4161178" lon="11.2797146"><ele>5.0</ele><time>2026-04-06T06:21:20.277Z</time></trkpt><trkpt lat="42.4161998" lon="11.2796272"><ele>3.9999999999999996</ele><time>2026-04-06T06:21:22.279Z</time></trkpt><trkpt lat="42.4162811" lon="11.2795348"><ele>3.0</ele><time>2026-04-06T06:21:24.28Z</time></trkpt><trkpt lat="42.4163713" lon="11.2794792"><ele>2.0</ele><time>2026-04-06T06:21:26.279Z</time></trkpt><trkpt lat="42.4164722" lon="11.2794796"><ele>1.0</ele><time>2026-04-06T06:21:28.28Z</time></trkpt><trkpt lat="42.4165353" lon="11.2794735"><ele>1.0</ele><time>2026-04-06T06:21:30.28Z</time></trkpt><trkpt lat="42.4161843" lon="11.2793217"><ele>1.0</ele><time>2026-04-06T06:27:36.278Z</time></trkpt><trkpt lat="42.4162549" lon="11.2793118"><ele>1.0</ele><time>2026-04-06T06:27:39.28Z</time></trkpt><trkpt lat="42.4163122" lon="11.279367"><ele>0.9999999999999999</ele><time>2026-04-06T06:27:42.279Z</time></trkpt><trkpt lat="42.4163632" lon="11.2794235"><ele>1.0</ele><time>2026-04-06T06:27:45.276Z</time></trkpt><trkpt lat="42.4164499" lon="11.2794558"><ele>1.0</ele><time>2026-04-06T06:27:48.279Z</time></trkpt><trkpt lat="42.4165447" lon="11.2794548"><ele>1.0</ele><time>2026-04-06T06:27:50.28Z</time></trkpt><trkpt lat="42.4166197" lon="11.2794463"><ele>0.9999999999999999</ele><time>2026-04-06T06:27:52.278Z</time></trkpt><trkpt lat="42.4167343" lon="11.2793989"><ele>1.0</ele><time>2026-04-06T06:27:54.279Z</time></trkpt><trkpt lat="42.4168018" lon="11.2793584"><ele>0.9999999999999999</ele><time>2026-04-06T06:27:55.281Z</time></trkpt><trkpt lat="42.4168681" lon="11.2793007"><ele>1.0</ele><time>2026-04-06T06:27:56.277Z</time></trkpt><trkpt lat="42.4169257" lon="11.2792404"><ele>1.0</ele><time>2026-04-06T06:27:57.278Z</time></trkpt><trkpt lat="42.4170006" lon="11.2791228"><ele>1.0</ele><time>2026-04-06T06:27:59.278Z</time></trkpt><trkpt lat="42.4170446" lon="11.279035"><ele>0.9999999999999999</ele><time>2026-04-06T06:28:01.279Z</time></trkpt><trkpt lat="42.4170864" lon="11.2789554"><ele>1.0</ele><time>2026-04-06T06:28:59.281Z</time></trkpt><trkpt lat="42.4171179" lon="11.2788784"><ele>1.0</ele><time>2026-04-06T06:29:02.28Z</time></trkpt><trkpt lat="42.4170467" lon="11.2789085"><ele>1.0</ele><time>2026-04-06T06:29:22.279Z</time></trkpt><trkpt lat="42.4169993" lon="11.2789909"><ele>1.0</ele><time>2026-04-06T06:29:25.278Z</time></trkpt><trkpt lat="42.4169888" lon="11.2791125"><ele>1.0</ele><time>2026-04-06T06:29:28.279Z</time></trkpt><trkpt lat="42.4169332" lon="11.2792089"><ele>1.0</ele><time>2026-04-06T06:29:30.283Z</time></trkpt><trkpt lat="42.4168551" lon="11.2793285"><ele>0.9999999999999999</ele><time>2026-04-06T06:29:32.28Z</time></trkpt><trkpt lat="42.4167992" lon="11.2793918"><ele>1.0</ele><time>2026-04-06T06:29:34.28Z</time></trkpt><trkpt lat="42.4167268" lon="11.2794238"><ele>1.0</ele><time>2026-04-06T06:29:36.278Z</time></trkpt><trkpt lat="42.4166157" lon="11.2794463"><ele>1.0</ele><time>2026-04-06T06:29:38.28Z</time></trkpt><trkpt lat="42.4165506" lon="11.2794553"><ele>0.9999999999999999</ele><time>2026-04-06T06:29:39.279Z</time></trkpt><trkpt lat="42.4164749" lon="11.2794587"><ele>1.0</ele><time>2026-04-06T06:29:40.281Z</time></trkpt><trkpt lat="42.4163943" lon="11.2794594"><ele>0.9999999999999999</ele><time>2026-04-06T06:29:41.28Z</time></trkpt><trkpt lat="42.4163176" lon="11.2794706"><ele>1.0</ele><time>2026-04-06T06:29:42.278Z</time></trkpt><trkpt lat="42.4162407" lon="11.2794866"><ele>1.0</ele><time>2026-04-06T06:29:43.278Z</time></trkpt><trkpt lat="42.4161684" lon="11.2795222"><ele>1.0</ele><time>2026-04-06T06:29:44.278Z</time></trkpt><trkpt lat="42.4160942" lon="11.2795866"><ele>0.9999999999999999</ele><time>2026-04-06T06:29:45.28Z</time></trkpt><trkpt lat="42.4160189" lon="11.2796772"><ele>1.0</ele><time>2026-04-06T06:29:46.277Z</time></trkpt><trkpt lat="42.415946" lon="11.2797631"><ele>1.8333333333333333</ele><time>2026-04-06T06:29:47.277Z</time></trkpt><trkpt lat="42.4158776" lon="11.2798508"><ele>2.6666666666666665</ele><time>2026-04-06T06:29:48.277Z</time></trkpt><trkpt lat="42.4158256" lon="11.279913"><ele>3.5</ele><time>2026-04-06T06:29:49.277Z</time></trkpt><trkpt lat="42.4157712" lon="11.2799849"><ele>4.333333333333333</ele><time>2026-04-06T06:29:50.278Z</time></trkpt><trkpt lat="42.4157128" lon="11.280097"><ele>5.166666666666667</ele><time>2026-04-06T06:29:52.277Z</time></trkpt><trkpt lat="42.4156886" lon="11.2801926"><ele>6.0</ele><time>2026-04-06T06:29:55.28Z</time></trkpt><trkpt lat="42.4157274" lon="11.2802756"><ele>6.0</ele><time>2026-04-06T06:30:07.279Z</time></trkpt><trkpt lat="42.4158323" lon="11.2803596"><ele>6.0</ele><time>2026-04-06T06:30:09.278Z</time></trkpt><trkpt lat="42.4159198" lon="11.2803777"><ele>6.0</ele><time>2026-04-06T06:30:10.28Z</time></trkpt><trkpt lat="42.4160184" lon="11.2804058"><ele>6.0</ele><time>2026-04-06T06:30:11.278Z</time></trkpt><trkpt lat="42.416108" lon="11.280452"><ele>6.0</ele><time>2026-04-06T06:30:12.276Z</time></trkpt><trkpt lat="42.4162046" lon="11.2804806"><ele>6.0</ele><time>2026-04-06T06:30:13.28Z</time></trkpt><trkpt lat="42.4162982" lon="11.2804956"><ele>6.0</ele><time>2026-04-06T06:30:14.277Z</time></trkpt><trkpt lat="42.4163908" lon="11.2805222"><ele>6.0</ele><time>2026-04-06T06:30:15.277Z</time></trkpt><trkpt lat="42.4164795" lon="11.2805325"><ele>6.0</ele><time>2026-04-06T06:30:16.282Z</time></trkpt><trkpt lat="42.4165771" lon="11.2805611"><ele>6.0</ele><time>2026-04-06T06:30:17.279Z</time></trkpt><trkpt lat="42.4166659" lon="11.2806084"><ele>6.199999999999999</ele><time>2026-04-06T06:30:18.277Z</time></trkpt><trkpt lat="42.4167558" lon="11.2806605"><ele>6.3999999999999995</ele><time>2026-04-06T06:30:19.281Z</time></trkpt><trkpt lat="42.4168437" lon="11.2807012"><ele>6.6</ele><time>2026-04-06T06:30:20.278Z</time></trkpt><trkpt lat="42.4169273" lon="11.2807439"><ele>6.8</ele><time>2026-04-06T06:30:21.278Z</time></trkpt><trkpt lat="42.4170384" lon="11.2807342"><ele>7.0</ele><time>2026-04-06T06:30:22.278Z</time></trkpt><trkpt lat="42.4171467" lon="11.2807171"><ele>7.0</ele><time>2026-04-06T06:30:23.278Z</time></trkpt><trkpt lat="42.4172577" lon="11.2806911"><ele>6.999999999999999</ele><time>2026-04-06T06:30:24.277Z</time></trkpt><trkpt lat="42.4173596" lon="11.2806658"><ele>6.999999999999999</ele><time>2026-04-06T06:30:25.278Z</time></trkpt><trkpt lat="42.4174533" lon="11.2806562"><ele>7.0</ele><time>2026-04-06T06:30:26.278Z</time></trkpt><trkpt lat="42.4175347" lon="11.280685"><ele>7.0</ele><time>2026-04-06T06:30:27.278Z</time></trkpt><trkpt lat="42.4175955" lon="11.2807442"><ele>7.0</ele><time>2026-04-06T06:30:28.278Z</time></trkpt><trkpt lat="42.4176373" lon="11.2808226"><ele>7.0</ele><time>2026-04-06T06:30:29.278Z</time></trkpt><trkpt lat="42.4176655" lon="11.2809258"><ele>7.0</ele><time>2026-04-06T06:30:30.278Z</time></trkpt><trkpt lat="42.4176918" lon="11.2810213"><ele>7.0</ele><time>2026-04-06T06:30:31.278Z</time></trkpt><trkpt lat="42.4177401" lon="11.2811023"><ele>7.0</ele><time>2026-04-06T06:30:32.278Z</time></trkpt><trkpt lat="42.4177961" lon="11.281143"><ele>7.0</ele><time>2026-04-06T06:30:33.278Z</time></trkpt><trkpt lat="42.4178586" lon="11.2811566"><ele>7.0</ele><time>2026-04-06T06:30:34.278Z</time></trkpt><trkpt lat="42.4179762" lon="11.2811391"><ele>7.333333333333334</ele><time>2026-04-06T06:30:36.278Z</time></trkpt><trkpt lat="42.4180477" lon="11.2811895"><ele>7.666666666666667</ele><time>2026-04-06T06:30:39.278Z</time></trkpt><trkpt lat="42.4180586" lon="11.2812842"><ele>8.0</ele><time>2026-04-06T06:30:41.277Z</time></trkpt><trkpt lat="42.4180742" lon="11.2814255"><ele>8.333333333333334</ele><time>2026-04-06T06:30:43.278Z</time></trkpt><trkpt lat="42.4180787" lon="11.2815122"><ele>8.666666666666666</ele><time>2026-04-06T06:30:44.278Z</time></trkpt><trkpt lat="42.4180818" lon="11.2816052"><ele>9.0</ele><time>2026-04-06T06:30:45.278Z</time></trkpt><trkpt lat="42.4180966" lon="11.2816948"><ele>7.833333333333333</ele><time>2026-04-06T06:30:46.278Z</time></trkpt><trkpt lat="42.418116" lon="11.2817763"><ele>6.666666666666667</ele><time>2026-04-06T06:30:47.277Z</time></trkpt><trkpt lat="42.418152" lon="11.281867"><ele>5.5</ele><time>2026-04-06T06:30:49.277Z</time></trkpt><trkpt lat="42.418214" lon="11.2819347"><ele>4.333333333333333</ele><time>2026-04-06T06:30:51.278Z</time></trkpt><trkpt lat="42.4183142" lon="11.2820039"><ele>3.1666666666666665</ele><time>2026-04-06T06:30:53.278Z</time></trkpt><trkpt lat="42.418374" lon="11.2820322"><ele>2.0</ele><time>2026-04-06T06:30:54.278Z</time></trkpt><trkpt lat="42.4184466" lon="11.2820522"><ele>1.9999999999999998</ele><time>2026-04-06T06:30:55.278Z</time></trkpt><trkpt lat="42.418515" lon="11.28205"><ele>2.0</ele><time>2026-04-06T06:30:56.277Z</time></trkpt><trkpt lat="42.4186291" lon="11.2820572"><ele>2.0</ele><time>2026-04-06T06:30:58.278Z</time></trkpt><trkpt lat="42.4187274" lon="11.2820498"><ele>2.0</ele><time>2026-04-06T06:31:00.277Z</time></trkpt><trkpt lat="42.4188049" lon="11.2820407"><ele>1.9999999999999998</ele><time>2026-04-06T06:31:02.278Z</time></trkpt><trkpt lat="42.41889" lon="11.2820373"><ele>2.0</ele><time>2026-04-06T06:31:04.277Z</time></trkpt><trkpt lat="42.4189636" lon="11.2820536"><ele>1.4000000000000001</ele><time>2026-04-06T06:31:07.277Z</time></trkpt><trkpt lat="42.4190443" lon="11.2821203"><ele>0.8000000000000002</ele><time>2026-04-06T06:31:20.278Z</time></trkpt><trkpt lat="42.4191857" lon="11.2821582"><ele>0.19999999999999996</ele><time>2026-04-06T06:31:22.278Z</time></trkpt><trkpt lat="42.4192804" lon="11.2821607"><ele>-0.4</ele><time>2026-04-06T06:31:23.278Z</time></trkpt><trkpt lat="42.4193861" lon="11.2821522"><ele>-1.0</ele><time>2026-04-06T06:31:24.278Z</time></trkpt><trkpt lat="42.4194976" lon="11.2821337"><ele>-1.0</ele><time>2026-04-06T06:31:25.277Z</time></trkpt><trkpt lat="42.4195957" lon="11.282123"><ele>-1.0</ele><time>2026-04-06T06:31:26.278Z</time></trkpt><trkpt lat="42.4196826" lon="11.2821261"><ele>-1.0</ele><time>2026-04-06T06:31:27.278Z</time></trkpt><trkpt lat="42.4197757" lon="11.2821679"><ele>-1.0</ele><time>2026-04-06T06:31:28.277Z</time></trkpt><trkpt lat="42.4198717" lon="11.2822423"><ele>-1.0</ele><time>2026-04-06T06:31:29.277Z</time></trkpt><trkpt lat="42.4199761" lon="11.2823319"><ele>0.25</ele><time>2026-04-06T06:31:30.277Z</time></trkpt><trkpt lat="42.4200984" lon="11.2824072"><ele>1.5</ele><time>2026-04-06T06:31:31.278Z</time></trkpt><trkpt lat="42.4202186" lon="11.2824535"><ele>2.75</ele><time>2026-04-06T06:31:32.278Z</time></trkpt><trkpt lat="42.4203293" lon="11.2824779"><ele>4.0</ele><time>2026-04-06T06:31:33.277Z</time></trkpt><trkpt lat="42.4204431" lon="11.2824676"><ele>4.0</ele><time>2026-04-06T06:31:34.278Z</time></trkpt><trkpt lat="42.4205411" lon="11.2824335"><ele>4.0</ele><time>2026-04-06T06:31:35.278Z</time></trkpt><trkpt lat="42.4206277" lon="11.282386"><ele>4.0</ele><time>2026-04-06T06:31:36.278Z</time></trkpt><trkpt lat="42.4207004" lon="11.282345"><ele>4.0</ele><time>2026-04-06T06:31:37.278Z</time></trkpt><trkpt lat="42.4208072" lon="11.2822986"><ele>4.0</ele><time>2026-04-06T06:31:39.277Z</time></trkpt><trkpt lat="42.4209084" lon="11.2822969"><ele>4.0</ele><time>2026-04-06T06:31:41.277Z</time></trkpt><trkpt lat="42.4209909" lon="11.2823409"><ele>4.0</ele><time>2026-04-06T06:31:43.277Z</time></trkpt><trkpt lat="42.4210665" lon="11.2823839"><ele>4.0</ele><time>2026-04-06T06:31:45.278Z</time></trkpt><trkpt lat="42.4212247" lon="11.2824296"><ele>4.0</ele><time>2026-04-06T06:31:47.278Z</time></trkpt><trkpt lat="42.4213311" lon="11.2824137"><ele>4.0</ele><time>2026-04-06T06:31:48.277Z</time></trkpt><trkpt lat="42.4214368" lon="11.2823724"><ele>3.25</ele><time>2026-04-06T06:31:49.278Z</time></trkpt><trkpt lat="42.42155" lon="11.2823262"><ele>2.5</ele><time>2026-04-06T06:31:50.278Z</time></trkpt><trkpt lat="42.4216689" lon="11.2822793"><ele>1.75</ele><time>2026-04-06T06:31:51.278Z</time></trkpt><trkpt lat="42.4217896" lon="11.2822287"><ele>1.0</ele><time>2026-04-06T06:31:52.277Z</time></trkpt><trkpt lat="42.4219215" lon="11.2821759"><ele>1.0</ele><time>2026-04-06T06:31:53.278Z</time></trkpt><trkpt lat="42.4220509" lon="11.2821238"><ele>1.0</ele><time>2026-04-06T06:31:54.278Z</time></trkpt><trkpt lat="42.4221872" lon="11.2820721"><ele>1.0</ele><time>2026-04-06T06:31:55.278Z</time></trkpt><trkpt lat="42.4223263" lon="11.2820183"><ele>1.0</ele><time>2026-04-06T06:31:56.278Z</time></trkpt><trkpt lat="42.422458" lon="11.2819715"><ele>1.25</ele><time>2026-04-06T06:31:57.278Z</time></trkpt><trkpt lat="42.4225954" lon="11.2819267"><ele>1.5</ele><time>2026-04-06T06:31:58.277Z</time></trkpt><trkpt lat="42.4227361" lon="11.2818928"><ele>1.75</ele><time>2026-04-06T06:31:59.278Z</time></trkpt><trkpt lat="42.4228825" lon="11.2818669"><ele>2.0</ele><time>2026-04-06T06:32:00.278Z</time></trkpt><trkpt lat="42.4230325" lon="11.2818461"><ele>2.6666666666666665</ele><time>2026-04-06T06:32:01.278Z</time></trkpt><trkpt lat="42.4231871" lon="11.2818298"><ele>3.333333333333333</ele><time>2026-04-06T06:32:02.278Z</time></trkpt><trkpt lat="42.423347" lon="11.2818157"><ele>4.0</ele><time>2026-04-06T06:32:03.278Z</time></trkpt><trkpt lat="42.4235109" lon="11.2818017"><ele>4.0</ele><time>2026-04-06T06:32:04.277Z</time></trkpt><trkpt lat="42.4236855" lon="11.2817861"><ele>4.0</ele><time>2026-04-06T06:32:05.277Z</time></trkpt><trkpt lat="42.4238538" lon="11.2817778"><ele>4.0</ele><time>2026-04-06T06:32:06.277Z</time></trkpt><trkpt lat="42.4240231" lon="11.2817656"><ele>5.0</ele><time>2026-04-06T06:32:07.278Z</time></trkpt><trkpt lat="42.4241938" lon="11.2817552"><ele>6.0</ele><time>2026-04-06T06:32:08.277Z</time></trkpt><trkpt lat="42.4243676" lon="11.2817428"><ele>7.0</ele><time>2026-04-06T06:32:09.278Z</time></trkpt><trkpt lat="42.4245436" lon="11.2817268"><ele>6.333333333333334</ele><time>2026-04-06T06:32:10.278Z</time></trkpt><trkpt lat="42.4247202" lon="11.2817116"><ele>5.666666666666667</ele><time>2026-04-06T06:32:11.278Z</time></trkpt><trkpt lat="42.4249041" lon="11.2816933"><ele>5.0</ele><time>2026-04-06T06:32:12.278Z</time></trkpt><trkpt lat="42.4250793" lon="11.281682"><ele>5.0</ele><time>2026-04-06T06:32:13.277Z</time></trkpt><trkpt lat="42.4252569" lon="11.2816742"><ele>5.0</ele><time>2026-04-06T06:32:14.278Z</time></trkpt><trkpt lat="42.4254333" lon="11.2816582"><ele>5.0</ele><time>2026-04-06T06:32:15.278Z</time></trkpt><trkpt lat="42.4256027" lon="11.2816475"><ele>4.75</ele><time>2026-04-06T06:32:16.278Z</time></trkpt><trkpt lat="42.4257609" lon="11.2816352"><ele>4.5</ele><time>2026-04-06T06:32:17.278Z</time></trkpt><trkpt lat="42.4259076" lon="11.2816267"><ele>4.25</ele><time>2026-04-06T06:32:18.278Z</time></trkpt><trkpt lat="42.4260464" lon="11.2816209"><ele>4.0</ele><time>2026-04-06T06:32:19.278Z</time></trkpt><trkpt lat="42.4261853" lon="11.2816236"><ele>3.25</ele><time>2026-04-06T06:32:20.277Z</time></trkpt><trkpt lat="42.4263215" lon="11.2816435"><ele>2.5</ele><time>2026-04-06T06:32:21.278Z</time></trkpt><trkpt lat="42.4264604" lon="11.2816829"><ele>1.75</ele><time>2026-04-06T06:32:22.278Z</time></trkpt><trkpt lat="42.4265963" lon="11.2817435"><ele>1.0</ele><time>2026-04-06T06:32:23.277Z</time></trkpt><trkpt lat="42.4267285" lon="11.2818411"><ele>1.0</ele><time>2026-04-06T06:32:24.278Z</time></trkpt><trkpt lat="42.4268597" lon="11.2819605"><ele>1.0</ele><time>2026-04-06T06:32:25.278Z</time></trkpt><trkpt lat="42.4269875" lon="11.2820937"><ele>1.0</ele><time>2026-04-06T06:32:26.278Z</time></trkpt><trkpt lat="42.4271192" lon="11.282236"><ele>1.6666666666666665</ele><time>2026-04-06T06:32:27.277Z</time></trkpt><trkpt lat="42.427257" lon="11.2823802"><ele>2.3333333333333335</ele><time>2026-04-06T06:32:28.278Z</time></trkpt><trkpt lat="42.4273926" lon="11.2825306"><ele>3.0</ele><time>2026-04-06T06:32:29.277Z</time></trkpt><trkpt lat="42.4275291" lon="11.282676"><ele>3.0</ele><time>2026-04-06T06:32:30.277Z</time></trkpt><trkpt lat="42.4276674" lon="11.2828273"><ele>3.0</ele><time>2026-04-06T06:32:31.278Z</time></trkpt><trkpt lat="42.4278039" lon="11.2829805"><ele>3.0</ele><time>2026-04-06T06:32:32.278Z</time></trkpt><trkpt lat="42.4279367" lon="11.2831353"><ele>2.3333333333333335</ele><time>2026-04-06T06:32:33.278Z</time></trkpt><trkpt lat="42.4280719" lon="11.2832838"><ele>1.6666666666666665</ele><time>2026-04-06T06:32:34.277Z</time></trkpt><trkpt lat="42.4282098" lon="11.2834285"><ele>1.0</ele><time>2026-04-06T06:32:35.278Z</time></trkpt><trkpt lat="42.4283471" lon="11.2835845"><ele>1.0</ele><time>2026-04-06T06:32:36.278Z</time></trkpt><trkpt lat="42.4284855" lon="11.2837351"><ele>1.0</ele><time>2026-04-06T06:32:37.277Z</time></trkpt><trkpt lat="42.4286196" lon="11.2838843"><ele>1.0</ele><time>2026-04-06T06:32:38.278Z</time></trkpt><trkpt lat="42.4287478" lon="11.2840201"><ele>1.0</ele><time>2026-04-06T06:32:39.278Z</time></trkpt><trkpt lat="42.4288634" lon="11.2841496"><ele>1.0</ele><time>2026-04-06T06:32:40.278Z</time></trkpt><trkpt lat="42.4289802" lon="11.2842762"><ele>1.0</ele><time>2026-04-06T06:32:41.278Z</time></trkpt><trkpt lat="42.4290996" lon="11.2844112"><ele>1.0</ele><time>2026-04-06T06:32:42.278Z</time></trkpt><trkpt lat="42.4292134" lon="11.2845402"><ele>1.0</ele><time>2026-04-06T06:32:43.277Z</time></trkpt><trkpt lat="42.4293228" lon="11.2846625"><ele>1.0</ele><time>2026-04-06T06:32:44.277Z</time></trkpt><trkpt lat="42.429422" lon="11.2847792"><ele>1.0</ele><time>2026-04-06T06:32:45.278Z</time></trkpt><trkpt lat="42.4294984" lon="11.2848963"><ele>1.6</ele><time>2026-04-06T06:32:46.277Z</time></trkpt><trkpt lat="42.4295539" lon="11.2850057"><ele>2.2</ele><time>2026-04-06T06:32:47.278Z</time></trkpt><trkpt lat="42.4295959" lon="11.285113"><ele>2.8000000000000003</ele><time>2026-04-06T06:32:48.278Z</time></trkpt><trkpt lat="42.4296316" lon="11.2852241"><ele>3.4000000000000004</ele><time>2026-04-06T06:32:49.277Z</time></trkpt><trkpt lat="42.4296746" lon="11.2853392"><ele>4.0</ele><time>2026-04-06T06:32:50.278Z</time></trkpt><trkpt lat="42.4297127" lon="11.2854652"><ele>4.0</ele><time>2026-04-06T06:32:51.278Z</time></trkpt><trkpt lat="42.4297537" lon="11.2855888"><ele>4.0</ele><time>2026-04-06T06:32:52.278Z</time></trkpt><trkpt lat="42.429802" lon="11.2857199"><ele>4.0</ele><time>2026-04-06T06:32:53.278Z</time></trkpt><trkpt lat="42.4298414" lon="11.285873"><ele>4.0</ele><time>2026-04-06T06:32:54.277Z</time></trkpt><trkpt lat="42.429863" lon="11.2860211"><ele>4.0</ele><time>2026-04-06T06:32:55.277Z</time></trkpt><trkpt lat="42.4298594" lon="11.2861722"><ele>4.4</ele><time>2026-04-06T06:32:56.278Z</time></trkpt><trkpt lat="42.4298324" lon="11.2863058"><ele>4.800000000000001</ele><time>2026-04-06T06:32:57.277Z</time></trkpt><trkpt lat="42.4297894" lon="11.2864242"><ele>5.199999999999999</ele><time>2026-04-06T06:32:58.278Z</time></trkpt><trkpt lat="42.4297319" lon="11.2865257"><ele>5.6</ele><time>2026-04-06T06:32:59.278Z</time></trkpt><trkpt lat="42.4296611" lon="11.2866135"><ele>6.0</ele><time>2026-04-06T06:33:00.278Z</time></trkpt><trkpt lat="42.4295723" lon="11.2866948"><ele>7.5</ele><time>2026-04-06T06:33:01.278Z</time></trkpt><trkpt lat="42.4294708" lon="11.2867625"><ele>9.0</ele><time>2026-04-06T06:33:02.277Z</time></trkpt><trkpt lat="42.4293535" lon="11.2868175"><ele>10.5</ele><time>2026-04-06T06:33:03.278Z</time></trkpt><trkpt lat="42.4292376" lon="11.2868576"><ele>12.0</ele><time>2026-04-06T06:33:04.278Z</time></trkpt><trkpt lat="42.4291111" lon="11.2868568"><ele>12.0</ele><time>2026-04-06T06:33:05.278Z</time></trkpt><trkpt lat="42.4289896" lon="11.286843"><ele>12.0</ele><time>2026-04-06T06:33:06.277Z</time></trkpt><trkpt lat="42.4288836" lon="11.2867996"><ele>12.0</ele><time>2026-04-06T06:33:07.278Z</time></trkpt><trkpt lat="42.4287871" lon="11.2867378"><ele>12.0</ele><time>2026-04-06T06:33:08.277Z</time></trkpt><trkpt lat="42.4287206" lon="11.2866585"><ele>12.0</ele><time>2026-04-06T06:33:09.278Z</time></trkpt><trkpt lat="42.4286782" lon="11.2865695"><ele>12.2</ele><time>2026-04-06T06:33:10.277Z</time></trkpt><trkpt lat="42.4286615" lon="11.2864735"><ele>12.399999999999999</ele><time>2026-04-06T06:33:11.278Z</time></trkpt><trkpt lat="42.4286951" lon="11.2863086"><ele>12.600000000000001</ele><time>2026-04-06T06:33:13.277Z</time></trkpt><trkpt lat="42.4287536" lon="11.2862424"><ele>12.8</ele><time>2026-04-06T06:33:14.278Z</time></trkpt><trkpt lat="42.4288317" lon="11.2861918"><ele>13.0</ele><time>2026-04-06T06:33:15.278Z</time></trkpt><trkpt lat="42.4289295" lon="11.2861439"><ele>12.5</ele><time>2026-04-06T06:33:16.278Z</time></trkpt><trkpt lat="42.4290413" lon="11.2860884"><ele>12.0</ele><time>2026-04-06T06:33:17.277Z</time></trkpt><trkpt lat="42.4291659" lon="11.2860228"><ele>11.5</ele><time>2026-04-06T06:33:18.277Z</time></trkpt><trkpt lat="42.429302" lon="11.2859526"><ele>11.0</ele><time>2026-04-06T06:33:19.278Z</time></trkpt><trkpt lat="42.4294504" lon="11.2858719"><ele>11.0</ele><time>2026-04-06T06:33:20.277Z</time></trkpt><trkpt lat="42.4296037" lon="11.2857938"><ele>11.0</ele><time>2026-04-06T06:33:21.278Z</time></trkpt><trkpt lat="42.429769" lon="11.2856996"><ele>11.0</ele><time>2026-04-06T06:33:22.278Z</time></trkpt><trkpt lat="42.4299423" lon="11.2855945"><ele>8.666666666666666</ele><time>2026-04-06T06:33:23.277Z</time></trkpt><trkpt lat="42.4301286" lon="11.2854678"><ele>6.333333333333333</ele><time>2026-04-06T06:33:24.278Z</time></trkpt><trkpt lat="42.4303157" lon="11.2853264"><ele>4.0</ele><time>2026-04-06T06:33:25.277Z</time></trkpt><trkpt lat="42.4305064" lon="11.2851747"><ele>3.5</ele><time>2026-04-06T06:33:26.278Z</time></trkpt><trkpt lat="42.4306979" lon="11.2850086"><ele>3.0</ele><time>2026-04-06T06:33:27.278Z</time></trkpt><trkpt lat="42.430894" lon="11.2848242"><ele>3.0</ele><time>2026-04-06T06:33:28.278Z</time></trkpt><trkpt lat="42.4310873" lon="11.284641"><ele>3.0</ele><time>2026-04-06T06:33:29.278Z</time></trkpt><trkpt lat="42.4312844" lon="11.2844512"><ele>3.0</ele><time>2026-04-06T06:33:30.278Z</time></trkpt><trkpt lat="42.4314833" lon="11.2842567"><ele>3.0</ele><time>2026-04-06T06:33:31.278Z</time></trkpt><trkpt lat="42.4316814" lon="11.2840672"><ele>2.0</ele><time>2026-04-06T06:33:32.278Z</time></trkpt><trkpt lat="42.4318796" lon="11.2838735"><ele>1.0</ele><time>2026-04-06T06:33:33.278Z</time></trkpt><trkpt lat="42.432082" lon="11.2836802"><ele>2.0</ele><time>2026-04-06T06:33:34.277Z</time></trkpt><trkpt lat="42.4322854" lon="11.2834818"><ele>3.0</ele><time>2026-04-06T06:33:35.277Z</time></trkpt><trkpt lat="42.4324841" lon="11.2832892"><ele>2.0</ele><time>2026-04-06T06:33:36.278Z</time></trkpt><trkpt lat="42.4326824" lon="11.2830952"><ele>1.0</ele><time>2026-04-06T06:33:37.277Z</time></trkpt><trkpt lat="42.4328811" lon="11.2829021"><ele>1.5</ele><time>2026-04-06T06:33:38.277Z</time></trkpt><trkpt lat="42.4330778" lon="11.2827062"><ele>2.0</ele><time>2026-04-06T06:33:39.278Z</time></trkpt><trkpt lat="42.4332769" lon="11.2825102"><ele>2.0</ele><time>2026-04-06T06:33:40.278Z</time></trkpt><trkpt lat="42.4334758" lon="11.2823135"><ele>2.0</ele><time>2026-04-06T06:33:41.277Z</time></trkpt><trkpt lat="42.4336727" lon="11.2821237"><ele>1.0</ele><time>2026-04-06T06:33:42.277Z</time></trkpt><trkpt lat="42.4338689" lon="11.2819267"><ele>0.0</ele><time>2026-04-06T06:33:43.278Z</time></trkpt><trkpt lat="42.4340636" lon="11.2817331"><ele>0.0</ele><time>2026-04-06T06:33:44.277Z</time></trkpt><trkpt lat="42.4342579" lon="11.2815404"><ele>0.0</ele><time>2026-04-06T06:33:45.278Z</time></trkpt><trkpt lat="42.4344499" lon="11.2813504"><ele>1.5</ele><time>2026-04-06T06:33:46.278Z</time></trkpt><trkpt lat="42.4346449" lon="11.2811613"><ele>3.0</ele><time>2026-04-06T06:33:47.278Z</time></trkpt><trkpt lat="42.4348367" lon="11.2809706"><ele>3.0</ele><time>2026-04-06T06:33:48.277Z</time></trkpt><trkpt lat="42.4350244" lon="11.2807856"><ele>3.0</ele><time>2026-04-06T06:33:49.277Z</time></trkpt><trkpt lat="42.4352101" lon="11.2806065"><ele>2.5</ele><time>2026-04-06T06:33:50.277Z</time></trkpt><trkpt lat="42.4353905" lon="11.2804218"><ele>2.0</ele><time>2026-04-06T06:33:51.278Z</time></trkpt><trkpt lat="42.4355719" lon="11.2802411"><ele>1.6666666666666665</ele><time>2026-04-06T06:33:52.278Z</time></trkpt><trkpt lat="42.4357485" lon="11.2800643"><ele>1.3333333333333333</ele><time>2026-04-06T06:33:53.278Z</time></trkpt><trkpt lat="42.4359217" lon="11.2798795"><ele>1.0</ele><time>2026-04-06T06:33:54.278Z</time></trkpt><trkpt lat="42.4360911" lon="11.2796882"><ele>0.3333333333333333</ele><time>2026-04-06T06:33:55.278Z</time></trkpt><trkpt lat="42.436257" lon="11.2794859"><ele>-0.3333333333333333</ele><time>2026-04-06T06:33:56.277Z</time></trkpt><trkpt lat="42.4364169" lon="11.2792725"><ele>-1.0</ele><time>2026-04-06T06:33:57.278Z</time></trkpt><trkpt lat="42.4365713" lon="11.2790499"><ele>0.5</ele><time>2026-04-06T06:33:58.278Z</time></trkpt><trkpt lat="42.4367206" lon="11.2788203"><ele>2.0</ele><time>2026-04-06T06:33:59.278Z</time></trkpt><trkpt lat="42.4368685" lon="11.2785786"><ele>2.0</ele><time>2026-04-06T06:34:00.277Z</time></trkpt><trkpt lat="42.4370101" lon="11.2783375"><ele>2.0</ele><time>2026-04-06T06:34:01.278Z</time></trkpt><trkpt lat="42.4371486" lon="11.2780854"><ele>1.5</ele><time>2026-04-06T06:34:02.277Z</time></trkpt><trkpt lat="42.4372829" lon="11.2778253"><ele>1.0</ele><time>2026-04-06T06:34:03.278Z</time></trkpt><trkpt lat="42.4374131" lon="11.2775578"><ele>1.0</ele><time>2026-04-06T06:34:04.278Z</time></trkpt><trkpt lat="42.4375361" lon="11.2772786"><ele>1.0</ele><time>2026-04-06T06:34:05.277Z</time></trkpt><trkpt lat="42.4376485" lon="11.2769922"><ele>0.0</ele><time>2026-04-06T06:34:06.278Z</time></trkpt><trkpt lat="42.437755" lon="11.276698"><ele>-1.0</ele><time>2026-04-06T06:34:07.278Z</time></trkpt><trkpt lat="42.4378521" lon="11.2763947"><ele>-1.5</ele><time>2026-04-06T06:34:08.278Z</time></trkpt><trkpt lat="42.437941" lon="11.2760839"><ele>-2.0</ele><time>2026-04-06T06:34:09.278Z</time></trkpt><trkpt lat="42.4380295" lon="11.2757729"><ele>-0.5</ele><time>2026-04-06T06:34:10.278Z</time></trkpt><trkpt lat="42.4381158" lon="11.2754605"><ele>1.0</ele><time>2026-04-06T06:34:11.277Z</time></trkpt><trkpt lat="42.438199" lon="11.2751462"><ele>1.0</ele><time>2026-04-06T06:34:12.278Z</time></trkpt><trkpt lat="42.438283" lon="11.2748321"><ele>1.0</ele><time>2026-04-06T06:34:13.278Z</time></trkpt><trkpt lat="42.4383671" lon="11.2745152"><ele>0.5</ele><time>2026-04-06T06:34:14.278Z</time></trkpt><trkpt lat="42.4384513" lon="11.2742007"><ele>0.0</ele><time>2026-04-06T06:34:15.278Z</time></trkpt><trkpt lat="42.4385364" lon="11.2738867"><ele>0.0</ele><time>2026-04-06T06:34:16.278Z</time></trkpt><trkpt lat="42.4386203" lon="11.2735701"><ele>0.0</ele><time>2026-04-06T06:34:17.278Z</time></trkpt><trkpt lat="42.4387029" lon="11.2732532"><ele>0.5</ele><time>2026-04-06T06:34:18.278Z</time></trkpt><trkpt lat="42.4387862" lon="11.2729391"><ele>1.0</ele><time>2026-04-06T06:34:19.277Z</time></trkpt><trkpt lat="42.4388703" lon="11.2726229"><ele>1.0</ele><time>2026-04-06T06:34:20.278Z</time></trkpt><trkpt lat="42.4389515" lon="11.2723065"><ele>1.0</ele><time>2026-04-06T06:34:21.278Z</time></trkpt><trkpt lat="42.4390337" lon="11.271989"><ele>1.0</ele><time>2026-04-06T06:34:22.278Z</time></trkpt><trkpt lat="42.4391173" lon="11.2716705"><ele>1.0</ele><time>2026-04-06T06:34:23.278Z</time></trkpt><trkpt lat="42.4392011" lon="11.2713543"><ele>0.5</ele><time>2026-04-06T06:34:24.278Z</time></trkpt><trkpt lat="42.4392841" lon="11.2710404"><ele>0.0</ele><time>2026-04-06T06:34:25.278Z</time></trkpt><trkpt lat="42.4393688" lon="11.2707276"><ele>-0.5</ele><time>2026-04-06T06:34:26.278Z</time></trkpt><trkpt lat="42.4394541" lon="11.2704151"><ele>-1.0</ele><time>2026-04-06T06:34:27.278Z</time></trkpt><trkpt lat="42.4395405" lon="11.270102"><ele>-1.0</ele><time>2026-04-06T06:34:28.277Z</time></trkpt><trkpt lat="42.4396257" lon="11.2697843"><ele>-1.0</ele><time>2026-04-06T06:34:29.278Z</time></trkpt><trkpt lat="42.4397106" lon="11.269469"><ele>-1.0</ele><time>2026-04-06T06:34:30.277Z</time></trkpt><trkpt lat="42.4397952" lon="11.2691525"><ele>-1.0</ele><time>2026-04-06T06:34:31.278Z</time></trkpt><trkpt lat="42.4398777" lon="11.2688354"><ele>-1.0</ele><time>2026-04-06T06:34:32.278Z</time></trkpt><trkpt lat="42.4399603" lon="11.2685207"><ele>-1.0</ele><time>2026-04-06T06:34:33.277Z</time></trkpt><trkpt lat="42.4400417" lon="11.2682048"><ele>-0.5</ele><time>2026-04-06T06:34:34.277Z</time></trkpt><trkpt lat="42.4401213" lon="11.2678919"><ele>0.0</ele><time>2026-04-06T06:34:35.277Z</time></trkpt><trkpt lat="42.4402038" lon="11.2675749"><ele>0.5</ele><time>2026-04-06T06:34:36.277Z</time></trkpt><trkpt lat="42.4402885" lon="11.2672597"><ele>1.0</ele><time>2026-04-06T06:34:37.277Z</time></trkpt><trkpt lat="42.4403723" lon="11.2669445"><ele>1.0</ele><time>2026-04-06T06:34:38.278Z</time></trkpt><trkpt lat="42.4404555" lon="11.2666315"><ele>1.0</ele><time>2026-04-06T06:34:39.277Z</time></trkpt><trkpt lat="42.440539" lon="11.2663151"><ele>0.5</ele><time>2026-04-06T06:34:40.278Z</time></trkpt><trkpt lat="42.4406256" lon="11.2660139"><ele>0.0</ele><time>2026-04-06T06:34:41.277Z</time></trkpt><trkpt lat="42.4407044" lon="11.2657049"><ele>0.0</ele><time>2026-04-06T06:34:42.278Z</time></trkpt><trkpt lat="42.4407888" lon="11.2653965"><ele>0.0</ele><time>2026-04-06T06:34:43.277Z</time></trkpt><trkpt lat="42.4408766" lon="11.2650988"><ele>0.0</ele><time>2026-04-06T06:34:44.277Z</time></trkpt><trkpt lat="42.4409754" lon="11.2648003"><ele>0.0</ele><time>2026-04-06T06:34:45.278Z</time></trkpt><trkpt lat="42.4410838" lon="11.2645052"><ele>0.0</ele><time>2026-04-06T06:34:46.277Z</time></trkpt><trkpt lat="42.4412047" lon="11.2642205"><ele>0.0</ele><time>2026-04-06T06:34:47.277Z</time></trkpt><trkpt lat="42.4413369" lon="11.2639419"><ele>1.0</ele><time>2026-04-06T06:34:48.278Z</time></trkpt><trkpt lat="42.4414753" lon="11.2636695"><ele>2.0</ele><time>2026-04-06T06:34:49.278Z</time></trkpt><trkpt lat="42.4416217" lon="11.2634061"><ele>2.0</ele><time>2026-04-06T06:34:50.278Z</time></trkpt><trkpt lat="42.4417769" lon="11.2631552"><ele>2.0</ele><time>2026-04-06T06:34:51.278Z</time></trkpt><trkpt lat="42.4419398" lon="11.2629205"><ele>2.0</ele><time>2026-04-06T06:34:52.278Z</time></trkpt><trkpt lat="42.4421112" lon="11.2626949"><ele>2.0</ele><time>2026-04-06T06:34:53.278Z</time></trkpt><trkpt lat="42.4422898" lon="11.2624815"><ele>2.5</ele><time>2026-04-06T06:34:54.278Z</time></trkpt><trkpt lat="42.4424709" lon="11.2622813"><ele>3.0</ele><time>2026-04-06T06:34:55.278Z</time></trkpt><trkpt lat="42.4426488" lon="11.262102"><ele>3.0</ele><time>2026-04-06T06:34:56.278Z</time></trkpt><trkpt lat="42.4428191" lon="11.2619392"><ele>3.0</ele><time>2026-04-06T06:34:57.278Z</time></trkpt><trkpt lat="42.4429849" lon="11.2617881"><ele>3.0</ele><time>2026-04-06T06:34:58.278Z</time></trkpt><trkpt lat="42.4431482" lon="11.2616385"><ele>3.666666666666667</ele><time>2026-04-06T06:34:59.278Z</time></trkpt><trkpt lat="42.4433057" lon="11.261497"><ele>4.333333333333334</ele><time>2026-04-06T06:35:00.278Z</time></trkpt><trkpt lat="42.443464" lon="11.2613484"><ele>5.0</ele><time>2026-04-06T06:35:01.278Z</time></trkpt><trkpt lat="42.4436271" lon="11.2612016"><ele>5.0</ele><time>2026-04-06T06:35:02.277Z</time></trkpt><trkpt lat="42.4437871" lon="11.261056"><ele>5.0</ele><time>2026-04-06T06:35:03.278Z</time></trkpt><trkpt lat="42.4439515" lon="11.260902"><ele>5.0</ele><time>2026-04-06T06:35:04.277Z</time></trkpt><trkpt lat="42.4441167" lon="11.2607486"><ele>5.333333333333334</ele><time>2026-04-06T06:35:05.278Z</time></trkpt><trkpt lat="42.4442835" lon="11.2605915"><ele>5.666666666666667</ele><time>2026-04-06T06:35:06.277Z</time></trkpt><trkpt lat="42.4444502" lon="11.2604348"><ele>6.0</ele><time>2026-04-06T06:35:07.278Z</time></trkpt><trkpt lat="42.4446185" lon="11.2602759"><ele>7.333333333333334</ele><time>2026-04-06T06:35:08.278Z</time></trkpt><trkpt lat="42.4447927" lon="11.2601226"><ele>8.666666666666668</ele><time>2026-04-06T06:35:09.278Z</time></trkpt><trkpt lat="42.4449647" lon="11.2599665"><ele>10.0</ele><time>2026-04-06T06:35:10.277Z</time></trkpt><trkpt lat="42.4451395" lon="11.2598108"><ele>10.0</ele><time>2026-04-06T06:35:11.278Z</time></trkpt><trkpt lat="42.4453108" lon="11.2596579"><ele>10.0</ele><time>2026-04-06T06:35:12.278Z</time></trkpt><trkpt lat="42.4454727" lon="11.2595092"><ele>10.0</ele><time>2026-04-06T06:35:13.277Z</time></trkpt><trkpt lat="42.4456256" lon="11.2593722"><ele>10.0</ele><time>2026-04-06T06:35:14.277Z</time></trkpt><trkpt lat="42.4457688" lon="11.2592497"><ele>10.0</ele><time>2026-04-06T06:35:15.277Z</time></trkpt><trkpt lat="42.4459024" lon="11.2591375"><ele>10.0</ele><time>2026-04-06T06:35:16.278Z</time></trkpt><trkpt lat="42.4460357" lon="11.2590618"><ele>10.0</ele><time>2026-04-06T06:35:17.278Z</time></trkpt><trkpt lat="42.4461702" lon="11.2590142"><ele>10.0</ele><time>2026-04-06T06:35:18.278Z</time></trkpt><trkpt lat="42.446304" lon="11.2590017"><ele>10.0</ele><time>2026-04-06T06:35:19.278Z</time></trkpt><trkpt lat="42.4464363" lon="11.2590272"><ele>10.0</ele><time>2026-04-06T06:35:20.277Z</time></trkpt><trkpt lat="42.4465621" lon="11.2590895"><ele>10.5</ele><time>2026-04-06T06:35:21.278Z</time></trkpt><trkpt lat="42.4466724" lon="11.2591886"><ele>11.0</ele><time>2026-04-06T06:35:22.278Z</time></trkpt><trkpt lat="42.4467801" lon="11.2592816"><ele>11.5</ele><time>2026-04-06T06:35:23.278Z</time></trkpt><trkpt lat="42.4469018" lon="11.2593312"><ele>12.0</ele><time>2026-04-06T06:35:24.278Z</time></trkpt><trkpt lat="42.4470257" lon="11.2593338"><ele>12.25</ele><time>2026-04-06T06:35:25.278Z</time></trkpt><trkpt lat="42.4471418" lon="11.259286"><ele>12.5</ele><time>2026-04-06T06:35:26.278Z</time></trkpt><trkpt lat="42.4472402" lon="11.2591924"><ele>12.75</ele><time>2026-04-06T06:35:27.278Z</time></trkpt><trkpt lat="42.4473199" lon="11.2590587"><ele>13.0</ele><time>2026-04-06T06:35:28.278Z</time></trkpt><trkpt lat="42.4473626" lon="11.258902"><ele>13.0</ele><time>2026-04-06T06:35:29.278Z</time></trkpt><trkpt lat="42.4473638" lon="11.2587408"><ele>13.0</ele><time>2026-04-06T06:35:30.278Z</time></trkpt><trkpt lat="42.4473357" lon="11.2585666"><ele>13.0</ele><time>2026-04-06T06:35:31.278Z</time></trkpt><trkpt lat="42.4472733" lon="11.2583982"><ele>13.0</ele><time>2026-04-06T06:35:32.278Z</time></trkpt><trkpt lat="42.4471894" lon="11.2582251"><ele>12.333333333333332</ele><time>2026-04-06T06:35:33.278Z</time></trkpt><trkpt lat="42.4470942" lon="11.2580472"><ele>11.666666666666666</ele><time>2026-04-06T06:35:34.277Z</time></trkpt><trkpt lat="42.4469998" lon="11.2578678"><ele>11.0</ele><time>2026-04-06T06:35:35.277Z</time></trkpt><trkpt lat="42.4469086" lon="11.2576888"><ele>11.0</ele><time>2026-04-06T06:35:36.278Z</time></trkpt><trkpt lat="42.4468219" lon="11.2575145"><ele>11.0</ele><time>2026-04-06T06:35:37.278Z</time></trkpt><trkpt lat="42.4467395" lon="11.257334"><ele>11.0</ele><time>2026-04-06T06:35:38.278Z</time></trkpt><trkpt lat="42.4466623" lon="11.2571488"><ele>10.0</ele><time>2026-04-06T06:35:39.278Z</time></trkpt><trkpt lat="42.4465938" lon="11.2569539"><ele>9.0</ele><time>2026-04-06T06:35:40.277Z</time></trkpt><trkpt lat="42.4465343" lon="11.2567482"><ele>8.0</ele><time>2026-04-06T06:35:41.277Z</time></trkpt><trkpt lat="42.4464853" lon="11.2565314"><ele>8.333333333333332</ele><time>2026-04-06T06:35:42.277Z</time></trkpt><trkpt lat="42.4464484" lon="11.2563252"><ele>8.666666666666666</ele><time>2026-04-06T06:35:43.277Z</time></trkpt><trkpt lat="42.4464209" lon="11.2561206"><ele>9.0</ele><time>2026-04-06T06:35:44.278Z</time></trkpt><trkpt lat="42.4463951" lon="11.2559176"><ele>9.0</ele><time>2026-04-06T06:35:45.277Z</time></trkpt><trkpt lat="42.4463731" lon="11.2557102"><ele>9.0</ele><time>2026-04-06T06:35:46.278Z</time></trkpt><trkpt lat="42.4463539" lon="11.2555053"><ele>9.0</ele><time>2026-04-06T06:35:47.278Z</time></trkpt><trkpt lat="42.4463292" lon="11.2552912"><ele>9.333333333333334</ele><time>2026-04-06T06:35:48.278Z</time></trkpt><trkpt lat="42.4463017" lon="11.2550711"><ele>9.666666666666668</ele><time>2026-04-06T06:35:49.277Z</time></trkpt><trkpt lat="42.4462778" lon="11.2548465"><ele>10.0</ele><time>2026-04-06T06:35:50.278Z</time></trkpt><trkpt lat="42.4462576" lon="11.254615"><ele>9.0</ele><time>2026-04-06T06:35:51.277Z</time></trkpt><trkpt lat="42.4462378" lon="11.2543784"><ele>8.0</ele><time>2026-04-06T06:35:52.278Z</time></trkpt><trkpt lat="42.446215" lon="11.2541406"><ele>7.0</ele><time>2026-04-06T06:35:53.277Z</time></trkpt><trkpt lat="42.446205" lon="11.2538963"><ele>6.666666666666667</ele><time>2026-04-06T06:35:54.278Z</time></trkpt><trkpt lat="42.4462041" lon="11.253652"><ele>6.333333333333334</ele><time>2026-04-06T06:35:55.278Z</time></trkpt><trkpt lat="42.446219" lon="11.253405"><ele>6.0</ele><time>2026-04-06T06:35:56.278Z</time></trkpt><trkpt lat="42.4462449" lon="11.2531632"><ele>6.0</ele><time>2026-04-06T06:35:57.277Z</time></trkpt><trkpt lat="42.4462876" lon="11.2529161"><ele>6.0</ele><time>2026-04-06T06:35:58.277Z</time></trkpt><trkpt lat="42.446339" lon="11.252668"><ele>6.0</ele><time>2026-04-06T06:35:59.277Z</time></trkpt><trkpt lat="42.4463983" lon="11.2524126"><ele>6.0</ele><time>2026-04-06T06:36:00.277Z</time></trkpt><trkpt lat="42.4464612" lon="11.2521573"><ele>6.0</ele><time>2026-04-06T06:36:01.277Z</time></trkpt><trkpt lat="42.4465257" lon="11.2518993"><ele>6.0</ele><time>2026-04-06T06:36:02.278Z</time></trkpt><trkpt lat="42.4465905" lon="11.2516358"><ele>6.0</ele><time>2026-04-06T06:36:03.278Z</time></trkpt><trkpt lat="42.4466505" lon="11.2513761"><ele>6.0</ele><time>2026-04-06T06:36:04.278Z</time></trkpt><trkpt lat="42.4467023" lon="11.2511151"><ele>6.0</ele><time>2026-04-06T06:36:05.278Z</time></trkpt><trkpt lat="42.4467391" lon="11.2508543"><ele>6.333333333333334</ele><time>2026-04-06T06:36:06.278Z</time></trkpt><trkpt lat="42.4467655" lon="11.2505875"><ele>6.666666666666667</ele><time>2026-04-06T06:36:07.278Z</time></trkpt><trkpt lat="42.4467764" lon="11.2503318"><ele>7.0</ele><time>2026-04-06T06:36:08.277Z</time></trkpt><trkpt lat="42.4467777" lon="11.250093"><ele>7.0</ele><time>2026-04-06T06:36:09.278Z</time></trkpt><trkpt lat="42.446778" lon="11.2498701"><ele>7.0</ele><time>2026-04-06T06:36:10.277Z</time></trkpt><trkpt lat="42.4467734" lon="11.2496729"><ele>7.0</ele><time>2026-04-06T06:36:11.277Z</time></trkpt><trkpt lat="42.4467725" lon="11.2495045"><ele>7.0</ele><time>2026-04-06T06:36:12.278Z</time></trkpt><trkpt lat="42.4467846" lon="11.2493535"><ele>6.8</ele><time>2026-04-06T06:36:13.278Z</time></trkpt><trkpt lat="42.4468141" lon="11.2492293"><ele>6.6</ele><time>2026-04-06T06:36:14.278Z</time></trkpt><trkpt lat="42.4468632" lon="11.2491294"><ele>6.3999999999999995</ele><time>2026-04-06T06:36:15.278Z</time></trkpt><trkpt lat="42.4469245" lon="11.2490628"><ele>6.199999999999999</ele><time>2026-04-06T06:36:16.278Z</time></trkpt><trkpt lat="42.4470066" lon="11.2490179"><ele>6.0</ele><time>2026-04-06T06:36:17.278Z</time></trkpt><trkpt lat="42.4471031" lon="11.2489855"><ele>5.6</ele><time>2026-04-06T06:36:18.277Z</time></trkpt><trkpt lat="42.4472129" lon="11.2489556"><ele>5.199999999999999</ele><time>2026-04-06T06:36:19.277Z</time></trkpt><trkpt lat="42.4473202" lon="11.2489195"><ele>4.800000000000001</ele><time>2026-04-06T06:36:20.278Z</time></trkpt><trkpt lat="42.4474228" lon="11.2488685"><ele>4.4</ele><time>2026-04-06T06:36:21.277Z</time></trkpt><trkpt lat="42.4475178" lon="11.2487941"><ele>4.0</ele><time>2026-04-06T06:36:22.278Z</time></trkpt><trkpt lat="42.4476085" lon="11.2487103"><ele>4.0</ele><time>2026-04-06T06:36:23.278Z</time></trkpt><trkpt lat="42.447695" lon="11.2486187"><ele>4.0</ele><time>2026-04-06T06:36:24.278Z</time></trkpt><trkpt lat="42.4477774" lon="11.2485191"><ele>4.0</ele><time>2026-04-06T06:36:25.278Z</time></trkpt><trkpt lat="42.4478601" lon="11.2484182"><ele>4.0</ele><time>2026-04-06T06:36:26.278Z</time></trkpt><trkpt lat="42.447941" lon="11.2483243"><ele>4.0</ele><time>2026-04-06T06:36:27.278Z</time></trkpt><trkpt lat="42.4480135" lon="11.2482402"><ele>4.166666666666666</ele><time>2026-04-06T06:36:28.278Z</time></trkpt><trkpt lat="42.4480757" lon="11.2481643"><ele>4.333333333333333</ele><time>2026-04-06T06:36:29.278Z</time></trkpt><trkpt lat="42.4481324" lon="11.2480978"><ele>4.5</ele><time>2026-04-06T06:36:30.278Z</time></trkpt><trkpt lat="42.4481976" lon="11.2480444"><ele>4.666666666666667</ele><time>2026-04-06T06:36:32.278Z</time></trkpt><trkpt lat="42.4482196" lon="11.2478959"><ele>4.833333333333334</ele><time>2026-04-06T06:36:44.278Z</time></trkpt><trkpt lat="42.4481909" lon="11.24779"><ele>5.0</ele><time>2026-04-06T06:36:45.278Z</time></trkpt><trkpt lat="42.4481528" lon="11.2476763"><ele>5.4</ele><time>2026-04-06T06:36:46.278Z</time></trkpt><trkpt lat="42.4481115" lon="11.2475419"><ele>5.8</ele><time>2026-04-06T06:36:47.277Z</time></trkpt><trkpt lat="42.4480691" lon="11.2474003"><ele>6.199999999999999</ele><time>2026-04-06T06:36:48.278Z</time></trkpt><trkpt lat="42.4480291" lon="11.2472705"><ele>6.6</ele><time>2026-04-06T06:36:49.278Z</time></trkpt><trkpt lat="42.4479881" lon="11.2471536"><ele>7.0</ele><time>2026-04-06T06:36:50.278Z</time></trkpt><trkpt lat="42.4479492" lon="11.247033"><ele>7.000000000000001</ele><time>2026-04-06T06:36:51.278Z</time></trkpt><trkpt lat="42.4479102" lon="11.2469155"><ele>7.0</ele><time>2026-04-06T06:36:52.277Z</time></trkpt><trkpt lat="42.4478717" lon="11.2468084"><ele>7.0</ele><time>2026-04-06T06:36:53.278Z</time></trkpt><trkpt lat="42.4478476" lon="11.2466989"><ele>7.0</ele><time>2026-04-06T06:36:54.278Z</time></trkpt><trkpt lat="42.4478361" lon="11.2466025"><ele>7.000000000000001</ele><time>2026-04-06T06:36:55.278Z</time></trkpt><trkpt lat="42.4478275" lon="11.246501"><ele>7.0</ele><time>2026-04-06T06:36:56.278Z</time></trkpt><trkpt lat="42.4478179" lon="11.2463767"><ele>6.25</ele><time>2026-04-06T06:36:57.278Z</time></trkpt><trkpt lat="42.4477995" lon="11.246241"><ele>5.5</ele><time>2026-04-06T06:36:58.278Z</time></trkpt><trkpt lat="42.4477741" lon="11.2460988"><ele>4.75</ele><time>2026-04-06T06:36:59.278Z</time></trkpt><trkpt lat="42.4477396" lon="11.2459476"><ele>4.0</ele><time>2026-04-06T06:37:00.277Z</time></trkpt><trkpt lat="42.4477033" lon="11.2457793"><ele>4.0</ele><time>2026-04-06T06:37:01.278Z</time></trkpt><trkpt lat="42.4476649" lon="11.2455999"><ele>4.0</ele><time>2026-04-06T06:37:02.278Z</time></trkpt><trkpt lat="42.4476263" lon="11.2454017"><ele>4.0</ele><time>2026-04-06T06:37:03.277Z</time></trkpt><trkpt lat="42.4475843" lon="11.2451951"><ele>4.0</ele><time>2026-04-06T06:37:04.278Z</time></trkpt><trkpt lat="42.4475385" lon="11.2449736"><ele>3.6666666666666665</ele><time>2026-04-06T06:37:05.278Z</time></trkpt><trkpt lat="42.4474928" lon="11.2447495"><ele>3.333333333333333</ele><time>2026-04-06T06:37:06.278Z</time></trkpt><trkpt lat="42.4474468" lon="11.2445262"><ele>3.0</ele><time>2026-04-06T06:37:07.278Z</time></trkpt><trkpt lat="42.4473986" lon="11.2443077"><ele>3.0</ele><time>2026-04-06T06:37:08.278Z</time></trkpt><trkpt lat="42.4473546" lon="11.2441051"><ele>3.0</ele><time>2026-04-06T06:37:09.278Z</time></trkpt><trkpt lat="42.4473128" lon="11.2439256"><ele>3.0</ele><time>2026-04-06T06:37:10.278Z</time></trkpt><trkpt lat="42.4472762" lon="11.2437671"><ele>3.0</ele><time>2026-04-06T06:37:11.277Z</time></trkpt><trkpt lat="42.4472408" lon="11.2436185"><ele>2.75</ele><time>2026-04-06T06:37:12.278Z</time></trkpt><trkpt lat="42.4472032" lon="11.243481"><ele>2.5</ele><time>2026-04-06T06:37:13.277Z</time></trkpt><trkpt lat="42.4471584" lon="11.2433371"><ele>2.25</ele><time>2026-04-06T06:37:14.277Z</time></trkpt><trkpt lat="42.4471067" lon="11.243185"><ele>2.0</ele><time>2026-04-06T06:37:15.277Z</time></trkpt><trkpt lat="42.447046" lon="11.2430243"><ele>2.75</ele><time>2026-04-06T06:37:16.278Z</time></trkpt><trkpt lat="42.4469797" lon="11.2428586"><ele>3.5</ele><time>2026-04-06T06:37:17.278Z</time></trkpt><trkpt lat="42.4469085" lon="11.2426846"><ele>4.25</ele><time>2026-04-06T06:37:18.278Z</time></trkpt><trkpt lat="42.4468356" lon="11.2425001"><ele>5.0</ele><time>2026-04-06T06:37:19.278Z</time></trkpt><trkpt lat="42.4467587" lon="11.2423165"><ele>5.0</ele><time>2026-04-06T06:37:20.278Z</time></trkpt><trkpt lat="42.4466794" lon="11.2421351"><ele>5.0</ele><time>2026-04-06T06:37:21.277Z</time></trkpt><trkpt lat="42.446602" lon="11.2419523"><ele>5.0</ele><time>2026-04-06T06:37:22.278Z</time></trkpt><trkpt lat="42.4465189" lon="11.2417595"><ele>5.0</ele><time>2026-04-06T06:37:23.277Z</time></trkpt><trkpt lat="42.446434" lon="11.241563"><ele>5.0</ele><time>2026-04-06T06:37:24.278Z</time></trkpt><trkpt lat="42.4463475" lon="11.2413628"><ele>5.0</ele><time>2026-04-06T06:37:25.277Z</time></trkpt><trkpt lat="42.4462585" lon="11.2411585"><ele>5.0</ele><time>2026-04-06T06:37:26.278Z</time></trkpt><trkpt lat="42.446167" lon="11.2409498"><ele>5.0</ele><time>2026-04-06T06:37:27.278Z</time></trkpt><trkpt lat="42.4460771" lon="11.24074"><ele>5.0</ele><time>2026-04-06T06:37:28.278Z</time></trkpt><trkpt lat="42.4459904" lon="11.2405347"><ele>5.0</ele><time>2026-04-06T06:37:29.277Z</time></trkpt><trkpt lat="42.4459048" lon="11.2403331"><ele>5.0</ele><time>2026-04-06T06:37:30.278Z</time></trkpt><trkpt lat="42.4458195" lon="11.2401319"><ele>5.0</ele><time>2026-04-06T06:37:31.278Z</time></trkpt><trkpt lat="42.4457345" lon="11.2399258"><ele>5.333333333333334</ele><time>2026-04-06T06:37:32.277Z</time></trkpt><trkpt lat="42.4456547" lon="11.2397126"><ele>5.666666666666667</ele><time>2026-04-06T06:37:33.277Z</time></trkpt><trkpt lat="42.4455819" lon="11.2394955"><ele>6.0</ele><time>2026-04-06T06:37:34.278Z</time></trkpt><trkpt lat="42.4455165" lon="11.2392733"><ele>4.666666666666667</ele><time>2026-04-06T06:37:35.277Z</time></trkpt><trkpt lat="42.445456" lon="11.2390566"><ele>3.333333333333333</ele><time>2026-04-06T06:37:36.278Z</time></trkpt><trkpt lat="42.4454037" lon="11.2388452"><ele>2.0</ele><time>2026-04-06T06:37:37.278Z</time></trkpt><trkpt lat="42.4453518" lon="11.2386274"><ele>2.0</ele><time>2026-04-06T06:37:38.278Z</time></trkpt><trkpt lat="42.4453052" lon="11.2384055"><ele>2.0</ele><time>2026-04-06T06:37:39.278Z</time></trkpt><trkpt lat="42.4452625" lon="11.2381822"><ele>2.0</ele><time>2026-04-06T06:37:40.278Z</time></trkpt><trkpt lat="42.4452263" lon="11.2379509"><ele>2.6666666666666665</ele><time>2026-04-06T06:37:41.277Z</time></trkpt><trkpt lat="42.4451955" lon="11.2377128"><ele>3.333333333333333</ele><time>2026-04-06T06:37:42.278Z</time></trkpt><trkpt lat="42.4451638" lon="11.2374686"><ele>4.0</ele><time>2026-04-06T06:37:43.278Z</time></trkpt><trkpt lat="42.4451321" lon="11.2372161"><ele>4.0</ele><time>2026-04-06T06:37:44.278Z</time></trkpt><trkpt lat="42.4450991" lon="11.2369586"><ele>4.0</ele><time>2026-04-06T06:37:45.277Z</time></trkpt><trkpt lat="42.4450697" lon="11.2366966"><ele>4.0</ele><time>2026-04-06T06:37:46.278Z</time></trkpt><trkpt lat="42.4450398" lon="11.2364299"><ele>4.0</ele><time>2026-04-06T06:37:47.278Z</time></trkpt><trkpt lat="42.4450084" lon="11.236162"><ele>4.0</ele><time>2026-04-06T06:37:48.277Z</time></trkpt><trkpt lat="42.4449753" lon="11.2358892"><ele>4.0</ele><time>2026-04-06T06:37:49.278Z</time></trkpt><trkpt lat="42.4449444" lon="11.235618"><ele>4.333333333333333</ele><time>2026-04-06T06:37:50.278Z</time></trkpt><trkpt lat="42.4449127" lon="11.2353479"><ele>4.666666666666667</ele><time>2026-04-06T06:37:51.277Z</time></trkpt><trkpt lat="42.4448802" lon="11.2350887"><ele>5.0</ele><time>2026-04-06T06:37:52.278Z</time></trkpt><trkpt lat="42.4448489" lon="11.2348474"><ele>5.666666666666667</ele><time>2026-04-06T06:37:53.278Z</time></trkpt><trkpt lat="42.44482" lon="11.234616"><ele>6.333333333333334</ele><time>2026-04-06T06:37:54.278Z</time></trkpt><trkpt lat="42.4447927" lon="11.2343966"><ele>7.0</ele><time>2026-04-06T06:37:55.278Z</time></trkpt><trkpt lat="42.4447683" lon="11.2341894"><ele>7.0</ele><time>2026-04-06T06:37:56.278Z</time></trkpt><trkpt lat="42.4447459" lon="11.233987"><ele>7.0</ele><time>2026-04-06T06:37:57.278Z</time></trkpt><trkpt lat="42.4447219" lon="11.2337949"><ele>7.0</ele><time>2026-04-06T06:37:58.278Z</time></trkpt><trkpt lat="42.4447006" lon="11.2336054"><ele>7.0</ele><time>2026-04-06T06:37:59.278Z</time></trkpt><trkpt lat="42.4446807" lon="11.2334323"><ele>7.0</ele><time>2026-04-06T06:38:00.278Z</time></trkpt><trkpt lat="42.4446611" lon="11.2332694"><ele>6.999999999999999</ele><time>2026-04-06T06:38:01.278Z</time></trkpt><trkpt lat="42.444644" lon="11.2331247"><ele>6.999999999999999</ele><time>2026-04-06T06:38:02.278Z</time></trkpt><trkpt lat="42.4446332" lon="11.2329972"><ele>7.0</ele><time>2026-04-06T06:38:03.278Z</time></trkpt><trkpt lat="42.4446275" lon="11.2328845"><ele>7.0</ele><time>2026-04-06T06:38:04.277Z</time></trkpt><trkpt lat="42.4446369" lon="11.2327746"><ele>7.0</ele><time>2026-04-06T06:38:05.278Z</time></trkpt><trkpt lat="42.4446717" lon="11.2326704"><ele>6.999999999999999</ele><time>2026-04-06T06:38:06.278Z</time></trkpt><trkpt lat="42.4447302" lon="11.2325802"><ele>6.999999999999999</ele><time>2026-04-06T06:38:07.278Z</time></trkpt><trkpt lat="42.4448018" lon="11.2325058"><ele>7.0</ele><time>2026-04-06T06:38:08.278Z</time></trkpt><trkpt lat="42.4448989" lon="11.2324617"><ele>7.0</ele><time>2026-04-06T06:38:09.278Z</time></trkpt><trkpt lat="42.445017" lon="11.2324322"><ele>7.0</ele><time>2026-04-06T06:38:10.278Z</time></trkpt><trkpt lat="42.4451515" lon="11.2323935"><ele>7.0</ele><time>2026-04-06T06:38:11.278Z</time></trkpt><trkpt lat="42.4452935" lon="11.2323447"><ele>7.0</ele><time>2026-04-06T06:38:12.278Z</time></trkpt><trkpt lat="42.4454291" lon="11.2323026"><ele>7.0</ele><time>2026-04-06T06:38:13.278Z</time></trkpt><trkpt lat="42.4455516" lon="11.2322574"><ele>5.8</ele><time>2026-04-06T06:38:14.277Z</time></trkpt><trkpt lat="42.4456688" lon="11.2322198"><ele>4.6</ele><time>2026-04-06T06:38:15.278Z</time></trkpt><trkpt lat="42.4457776" lon="11.2321833"><ele>3.4</ele><time>2026-04-06T06:38:16.278Z</time></trkpt><trkpt lat="42.4458771" lon="11.2321524"><ele>2.2</ele><time>2026-04-06T06:38:17.278Z</time></trkpt><trkpt lat="42.4459643" lon="11.2321034"><ele>1.0</ele><time>2026-04-06T06:38:18.278Z</time></trkpt><trkpt lat="42.4460373" lon="11.2320301"><ele>0.9999999999999999</ele><time>2026-04-06T06:38:19.278Z</time></trkpt><trkpt lat="42.4460944" lon="11.2319395"><ele>1.0</ele><time>2026-04-06T06:38:20.278Z</time></trkpt><trkpt lat="42.4461523" lon="11.2318535"><ele>1.0</ele><time>2026-04-06T06:38:21.277Z</time></trkpt><trkpt lat="42.446225" lon="11.231799"><ele>1.0</ele><time>2026-04-06T06:38:22.278Z</time></trkpt><trkpt lat="42.4462968" lon="11.2317702"><ele>0.9999999999999999</ele><time>2026-04-06T06:38:23.278Z</time></trkpt><trkpt lat="42.4463511" lon="11.2317211"><ele>1.0</ele><time>2026-04-06T06:38:24.278Z</time></trkpt><trkpt lat="42.446379" lon="11.2316436"><ele>0.8333333333333333</ele><time>2026-04-06T06:38:25.277Z</time></trkpt><trkpt lat="42.4463759" lon="11.2315393"><ele>0.6666666666666666</ele><time>2026-04-06T06:38:26.278Z</time></trkpt><trkpt lat="42.4463506" lon="11.231412"><ele>0.5</ele><time>2026-04-06T06:38:27.277Z</time></trkpt><trkpt lat="42.4463204" lon="11.2312779"><ele>0.3333333333333333</ele><time>2026-04-06T06:38:28.278Z</time></trkpt><trkpt lat="42.4462949" lon="11.2311509"><ele>0.16666666666666666</ele><time>2026-04-06T06:38:29.277Z</time></trkpt><trkpt lat="42.4462807" lon="11.2310576"><ele>0.0</ele><time>2026-04-06T06:38:30.278Z</time></trkpt><trkpt lat="42.4462765" lon="11.2309517"><ele>-0.3333333333333333</ele><time>2026-04-06T06:38:32.278Z</time></trkpt><trkpt lat="42.4463439" lon="11.2308862"><ele>-0.6666666666666666</ele><time>2026-04-06T06:38:35.277Z</time></trkpt><trkpt lat="42.4464178" lon="11.2308503"><ele>-1.0</ele><time>2026-04-06T06:38:38.278Z</time></trkpt><trkpt lat="42.4464546" lon="11.2307626"><ele>-1.3333333333333333</ele><time>2026-04-06T06:38:41.277Z</time></trkpt><trkpt lat="42.4464449" lon="11.230668"><ele>-1.6666666666666665</ele><time>2026-04-06T06:38:43.278Z</time></trkpt><trkpt lat="42.4464206" lon="11.2305413"><ele>-2.0</ele><time>2026-04-06T06:38:45.278Z</time></trkpt><trkpt lat="42.446401" lon="11.2304558"><ele>-1.9999999999999998</ele><time>2026-04-06T06:38:46.278Z</time></trkpt><trkpt lat="42.44638" lon="11.2303593"><ele>-2.0</ele><time>2026-04-06T06:38:47.278Z</time></trkpt><trkpt lat="42.4463587" lon="11.230254"><ele>-2.0</ele><time>2026-04-06T06:38:48.278Z</time></trkpt><trkpt lat="42.4463408" lon="11.2301531"><ele>-2.0</ele><time>2026-04-06T06:38:49.278Z</time></trkpt><trkpt lat="42.4463089" lon="11.2300115"><ele>-1.9999999999999998</ele><time>2026-04-06T06:38:51.278Z</time></trkpt><trkpt lat="42.4462995" lon="11.2299119"><ele>-2.0</ele><time>2026-04-06T06:38:53.277Z</time></trkpt><trkpt lat="42.4462796" lon="11.2297958"><ele>-2.0</ele><time>2026-04-06T06:38:55.278Z</time></trkpt><trkpt lat="42.4462471" lon="11.2296504"><ele>-2.0</ele><time>2026-04-06T06:38:57.278Z</time></trkpt><trkpt lat="42.4461989" lon="11.2295423"><ele>-2.0</ele><time>2026-04-06T06:38:59.278Z</time></trkpt><trkpt lat="42.4461124" lon="11.2295318"><ele>-2.0</ele><time>2026-04-06T06:39:01.278Z</time></trkpt><trkpt lat="42.4460202" lon="11.2295726"><ele>-2.0</ele><time>2026-04-06T06:39:03.277Z</time></trkpt><trkpt lat="42.445942" lon="11.2295674"><ele>-1.9999999999999998</ele><time>2026-04-06T06:39:05.278Z</time></trkpt><trkpt lat="42.4459017" lon="11.2294731"><ele>-2.0</ele><time>2026-04-06T06:39:07.278Z</time></trkpt><trkpt lat="42.4459023" lon="11.2293873"><ele>-2.0</ele><time>2026-04-06T06:39:09.278Z</time></trkpt><trkpt lat="42.4458799" lon="11.2292774"><ele>-2.0</ele><time>2026-04-06T06:39:14.277Z</time></trkpt><trkpt lat="42.4458885" lon="11.2291854"><ele>-1.9999999999999998</ele><time>2026-04-06T06:39:17.278Z</time></trkpt><trkpt lat="42.4459864" lon="11.2291422"><ele>-2.0</ele><time>2026-04-06T06:39:19.277Z</time></trkpt><trkpt lat="42.4460497" lon="11.229119"><ele>-1.9999999999999998</ele><time>2026-04-06T06:39:20.278Z</time></trkpt><trkpt lat="42.446112" lon="11.2290985"><ele>-2.0</ele><time>2026-04-06T06:39:21.278Z</time></trkpt><trkpt lat="42.4462135" lon="11.2290631"><ele>-2.0</ele><time>2026-04-06T06:39:23.278Z</time></trkpt><trkpt lat="42.4462918" lon="11.2290552"><ele>-2.0</ele><time>2026-04-06T06:39:25.278Z</time></trkpt><trkpt lat="42.4463639" lon="11.2290591"><ele>-1.9999999999999998</ele><time>2026-04-06T06:39:30.278Z</time></trkpt><trkpt lat="42.4464335" lon="11.2290334"><ele>-2.0</ele><time>2026-04-06T06:39:35.278Z</time></trkpt><trkpt lat="42.4464027" lon="11.2288919"><ele>-2.4000000000000004</ele><time>2026-04-06T06:39:37.278Z</time></trkpt><trkpt lat="42.4463841" lon="11.2287922"><ele>-2.8000000000000003</ele><time>2026-04-06T06:39:38.277Z</time></trkpt><trkpt lat="42.4463631" lon="11.2286741"><ele>-3.2</ele><time>2026-04-06T06:39:39.278Z</time></trkpt><trkpt lat="42.4463429" lon="11.2285477"><ele>-3.6</ele><time>2026-04-06T06:39:40.278Z</time></trkpt><trkpt lat="42.4463205" lon="11.2284085"><ele>-4.0</ele><time>2026-04-06T06:39:41.277Z</time></trkpt><trkpt lat="42.4462959" lon="11.2282674"><ele>-3.4999999999999996</ele><time>2026-04-06T06:39:42.278Z</time></trkpt><trkpt lat="42.4462696" lon="11.2281336"><ele>-3.0</ele><time>2026-04-06T06:39:43.278Z</time></trkpt><trkpt lat="42.4462485" lon="11.22801"><ele>-2.5</ele><time>2026-04-06T06:39:44.278Z</time></trkpt><trkpt lat="42.4462266" lon="11.2278971"><ele>-2.0</ele><time>2026-04-06T06:39:45.278Z</time></trkpt><trkpt lat="42.4462103" lon="11.2278004"><ele>-1.5</ele><time>2026-04-06T06:39:46.278Z</time></trkpt><trkpt lat="42.4461879" lon="11.2276995"><ele>-1.0</ele><time>2026-04-06T06:39:47.278Z</time></trkpt><trkpt lat="42.4461597" lon="11.2275792"><ele>-1.0</ele><time>2026-04-06T06:39:48.278Z</time></trkpt><trkpt lat="42.4461235" lon="11.2274391"><ele>-1.0</ele><time>2026-04-06T06:39:49.278Z</time></trkpt><trkpt lat="42.446086" lon="11.2272925"><ele>-1.0</ele><time>2026-04-06T06:39:50.278Z</time></trkpt><trkpt lat="42.4460446" lon="11.2271438"><ele>-1.0</ele><time>2026-04-06T06:39:51.277Z</time></trkpt><trkpt lat="42.4460032" lon="11.2269901"><ele>-1.5</ele><time>2026-04-06T06:39:52.277Z</time></trkpt><trkpt lat="42.4459555" lon="11.2268303"><ele>-2.0</ele><time>2026-04-06T06:39:53.278Z</time></trkpt><trkpt lat="42.4459107" lon="11.226676"><ele>-2.5</ele><time>2026-04-06T06:39:54.277Z</time></trkpt><trkpt lat="42.4458613" lon="11.226535"><ele>-3.0</ele><time>2026-04-06T06:39:55.278Z</time></trkpt><trkpt lat="42.4458135" lon="11.2264082"><ele>-3.2</ele><time>2026-04-06T06:39:56.278Z</time></trkpt><trkpt lat="42.4457673" lon="11.2262866"><ele>-3.4</ele><time>2026-04-06T06:39:57.278Z</time></trkpt><trkpt lat="42.4457284" lon="11.2261605"><ele>-3.6000000000000005</ele><time>2026-04-06T06:39:58.277Z</time></trkpt><trkpt lat="42.4456898" lon="11.2260184"><ele>-3.8000000000000003</ele><time>2026-04-06T06:39:59.278Z</time></trkpt><trkpt lat="42.4456404" lon="11.2258637"><ele>-4.0</ele><time>2026-04-06T06:40:00.277Z</time></trkpt><trkpt lat="42.4455822" lon="11.2256885"><ele>-3.75</ele><time>2026-04-06T06:40:01.277Z</time></trkpt><trkpt lat="42.4455194" lon="11.2255117"><ele>-3.5</ele><time>2026-04-06T06:40:02.277Z</time></trkpt><trkpt lat="42.4454545" lon="11.2253394"><ele>-3.25</ele><time>2026-04-06T06:40:03.277Z</time></trkpt><trkpt lat="42.445395" lon="11.2251817"><ele>-3.0</ele><time>2026-04-06T06:40:04.278Z</time></trkpt><trkpt lat="42.4453419" lon="11.2250485"><ele>-3.0</ele><time>2026-04-06T06:40:05.278Z</time></trkpt><trkpt lat="42.4453022" lon="11.2249492"><ele>-3.0</ele><time>2026-04-06T06:40:06.278Z</time></trkpt><trkpt lat="42.445275" lon="11.2248623"><ele>-3.0</ele><time>2026-04-06T06:40:07.278Z</time></trkpt><trkpt lat="42.4452294" lon="11.2247407"><ele>-3.0</ele><time>2026-04-06T06:40:09.277Z</time></trkpt><trkpt lat="42.4451745" lon="11.2245848"><ele>-3.0</ele><time>2026-04-06T06:40:11.277Z</time></trkpt><trkpt lat="42.445137" lon="11.224493"><ele>-3.0</ele><time>2026-04-06T06:40:12.278Z</time></trkpt><trkpt lat="42.4450974" lon="11.2243838"><ele>-3.0</ele><time>2026-04-06T06:40:13.277Z</time></trkpt><trkpt lat="42.4450519" lon="11.2242659"><ele>-3.0</ele><time>2026-04-06T06:40:14.278Z</time></trkpt><trkpt lat="42.4450029" lon="11.224137"><ele>-3.0</ele><time>2026-04-06T06:40:15.278Z</time></trkpt><trkpt lat="42.4449476" lon="11.2239998"><ele>-3.0</ele><time>2026-04-06T06:40:16.277Z</time></trkpt><trkpt lat="42.444889" lon="11.2238518"><ele>-3.0</ele><time>2026-04-06T06:40:17.278Z</time></trkpt><trkpt lat="42.4448387" lon="11.2237208"><ele>-3.0</ele><time>2026-04-06T06:40:18.278Z</time></trkpt><trkpt lat="42.4447923" lon="11.2236057"><ele>-3.0</ele><time>2026-04-06T06:40:19.278Z</time></trkpt><trkpt lat="42.4447556" lon="11.2235092"><ele>-3.0</ele><time>2026-04-06T06:40:20.278Z</time></trkpt><trkpt lat="42.4447266" lon="11.2234296"><ele>-3.0</ele><time>2026-04-06T06:40:21.277Z</time></trkpt><trkpt lat="42.4446698" lon="11.2232809"><ele>-3.0</ele><time>2026-04-06T06:40:23.278Z</time></trkpt><trkpt lat="42.4446375" lon="11.2231974"><ele>-3.0</ele><time>2026-04-06T06:40:24.277Z</time></trkpt><trkpt lat="42.444601" lon="11.2231075"><ele>-3.0</ele><time>2026-04-06T06:40:25.278Z</time></trkpt><trkpt lat="42.4445621" lon="11.2230103"><ele>-3.0</ele><time>2026-04-06T06:40:26.278Z</time></trkpt><trkpt lat="42.4445252" lon="11.2229097"><ele>-3.0</ele><time>2026-04-06T06:40:27.277Z</time></trkpt><trkpt lat="42.4444863" lon="11.2228065"><ele>-3.0</ele><time>2026-04-06T06:40:28.278Z</time></trkpt><trkpt lat="42.4444491" lon="11.2227023"><ele>-2.8571428571428568</ele><time>2026-04-06T06:40:29.278Z</time></trkpt><trkpt lat="42.4444091" lon="11.2226074"><ele>-2.7142857142857144</ele><time>2026-04-06T06:40:30.278Z</time></trkpt><trkpt lat="42.4443703" lon="11.2225126"><ele>-2.571428571428571</ele><time>2026-04-06T06:40:31.278Z</time></trkpt><trkpt lat="42.4443367" lon="11.2224215"><ele>-2.4285714285714284</ele><time>2026-04-06T06:40:32.278Z</time></trkpt><trkpt lat="42.4443046" lon="11.2223333"><ele>-2.2857142857142856</ele><time>2026-04-06T06:40:33.277Z</time></trkpt><trkpt lat="42.4442729" lon="11.2222508"><ele>-2.142857142857143</ele><time>2026-04-06T06:40:34.277Z</time></trkpt><trkpt lat="42.4442417" lon="11.2221665"><ele>-2.0</ele><time>2026-04-06T06:40:35.278Z</time></trkpt><trkpt lat="42.4442118" lon="11.2220845"><ele>-1.9999999999999998</ele><time>2026-04-06T06:40:36.278Z</time></trkpt><trkpt lat="42.4441813" lon="11.2220057"><ele>-2.0</ele><time>2026-04-06T06:40:37.278Z</time></trkpt><trkpt lat="42.4441535" lon="11.2219239"><ele>-2.0</ele><time>2026-04-06T06:40:38.277Z</time></trkpt><trkpt lat="42.4440985" lon="11.2217638"><ele>-2.0</ele><time>2026-04-06T06:40:40.278Z</time></trkpt><trkpt lat="42.4440642" lon="11.2216738"><ele>-1.9999999999999998</ele><time>2026-04-06T06:40:41.277Z</time></trkpt><trkpt lat="42.4440255" lon="11.22157"><ele>-2.0</ele><time>2026-04-06T06:40:42.277Z</time></trkpt><trkpt lat="42.4439861" lon="11.2214543"><ele>-2.2</ele><time>2026-04-06T06:40:43.277Z</time></trkpt><trkpt lat="42.4439398" lon="11.2213278"><ele>-2.4000000000000004</ele><time>2026-04-06T06:40:44.278Z</time></trkpt><trkpt lat="42.4438912" lon="11.2211991"><ele>-2.5999999999999996</ele><time>2026-04-06T06:40:45.278Z</time></trkpt><trkpt lat="42.4438427" lon="11.2210639"><ele>-2.8</ele><time>2026-04-06T06:40:46.278Z</time></trkpt><trkpt lat="42.4437997" lon="11.2209414"><ele>-3.0</ele><time>2026-04-06T06:40:47.277Z</time></trkpt><trkpt lat="42.4437588" lon="11.2208287"><ele>-2.6</ele><time>2026-04-06T06:40:48.278Z</time></trkpt><trkpt lat="42.4437255" lon="11.2207326"><ele>-2.1999999999999997</ele><time>2026-04-06T06:40:49.277Z</time></trkpt><trkpt lat="42.44368" lon="11.2206151"><ele>-1.8</ele><time>2026-04-06T06:40:51.278Z</time></trkpt><trkpt lat="42.443629" lon="11.2204834"><ele>-1.4</ele><time>2026-04-06T06:40:53.278Z</time></trkpt><trkpt lat="42.4435972" lon="11.2203922"><ele>-1.0</ele><time>2026-04-06T06:40:54.277Z</time></trkpt><trkpt lat="42.4435571" lon="11.2202829"><ele>-1.0</ele><time>2026-04-06T06:40:55.278Z</time></trkpt><trkpt lat="42.4435127" lon="11.2201626"><ele>-1.0</ele><time>2026-04-06T06:40:56.278Z</time></trkpt><trkpt lat="42.4434698" lon="11.2200385"><ele>-1.0</ele><time>2026-04-06T06:40:57.278Z</time></trkpt><trkpt lat="42.4434216" lon="11.2199065"><ele>-1.0</ele><time>2026-04-06T06:40:58.278Z</time></trkpt><trkpt lat="42.4433684" lon="11.2197603"><ele>-1.0</ele><time>2026-04-06T06:40:59.278Z</time></trkpt><trkpt lat="42.4433113" lon="11.2196074"><ele>-1.25</ele><time>2026-04-06T06:41:00.278Z</time></trkpt><trkpt lat="42.4432505" lon="11.219452"><ele>-1.5</ele><time>2026-04-06T06:41:01.278Z</time></trkpt><trkpt lat="42.4431904" lon="11.2192867"><ele>-1.75</ele><time>2026-04-06T06:41:02.278Z</time></trkpt><trkpt lat="42.4431362" lon="11.2191368"><ele>-2.0</ele><time>2026-04-06T06:41:03.277Z</time></trkpt><trkpt lat="42.4430923" lon="11.2190084"><ele>-2.2</ele><time>2026-04-06T06:41:04.278Z</time></trkpt><trkpt lat="42.4430525" lon="11.2188866"><ele>-2.4000000000000004</ele><time>2026-04-06T06:41:05.278Z</time></trkpt><trkpt lat="42.4430277" lon="11.2187719"><ele>-2.5999999999999996</ele><time>2026-04-06T06:41:06.278Z</time></trkpt><trkpt lat="42.4430228" lon="11.218657"><ele>-2.8</ele><time>2026-04-06T06:41:07.278Z</time></trkpt><trkpt lat="42.4430342" lon="11.2185374"><ele>-3.0</ele><time>2026-04-06T06:41:08.278Z</time></trkpt><trkpt lat="42.4430587" lon="11.2184177"><ele>-3.0</ele><time>2026-04-06T06:41:09.277Z</time></trkpt><trkpt lat="42.443082" lon="11.2182997"><ele>-3.0</ele><time>2026-04-06T06:41:10.278Z</time></trkpt><trkpt lat="42.4430935" lon="11.2181712"><ele>-3.0</ele><time>2026-04-06T06:41:11.278Z</time></trkpt><trkpt lat="42.4430802" lon="11.2180353"><ele>-3.0</ele><time>2026-04-06T06:41:12.277Z</time></trkpt><trkpt lat="42.4430502" lon="11.2178957"><ele>-3.0</ele><time>2026-04-06T06:41:13.278Z</time></trkpt><trkpt lat="42.443014" lon="11.217757"><ele>-3.1666666666666665</ele><time>2026-04-06T06:41:14.277Z</time></trkpt><trkpt lat="42.4429821" lon="11.2176316"><ele>-3.333333333333333</ele><time>2026-04-06T06:41:15.278Z</time></trkpt><trkpt lat="42.4429549" lon="11.2175356"><ele>-3.5</ele><time>2026-04-06T06:41:16.277Z</time></trkpt><trkpt lat="42.4429187" lon="11.2174074"><ele>-3.6666666666666665</ele><time>2026-04-06T06:41:18.278Z</time></trkpt><trkpt lat="42.4428711" lon="11.2172912"><ele>-3.833333333333333</ele><time>2026-04-06T06:41:20.278Z</time></trkpt><trkpt lat="42.4428261" lon="11.2172199"><ele>-4.0</ele><time>2026-04-06T06:41:21.278Z</time></trkpt><trkpt lat="42.4427554" lon="11.2171513"><ele>-4.0</ele><time>2026-04-06T06:41:22.278Z</time></trkpt><trkpt lat="42.4426839" lon="11.2170805"><ele>-4.0</ele><time>2026-04-06T06:41:23.278Z</time></trkpt><trkpt lat="42.4426138" lon="11.2169899"><ele>-4.0</ele><time>2026-04-06T06:41:24.278Z</time></trkpt><trkpt lat="42.4425635" lon="11.2168814"><ele>-4.0</ele><time>2026-04-06T06:41:25.278Z</time></trkpt><trkpt lat="42.4425165" lon="11.2167558"><ele>-4.0</ele><time>2026-04-06T06:41:26.277Z</time></trkpt><trkpt lat="42.4424721" lon="11.2166244"><ele>-3.9999999999999996</ele><time>2026-04-06T06:41:27.278Z</time></trkpt><trkpt lat="42.442434" lon="11.2165199"><ele>-4.0</ele><time>2026-04-06T06:41:28.277Z</time></trkpt><trkpt lat="42.4424015" lon="11.216426"><ele>-4.0</ele><time>2026-04-06T06:41:29.277Z</time></trkpt><trkpt lat="42.4423687" lon="11.2163348"><ele>-4.0</ele><time>2026-04-06T06:41:30.278Z</time></trkpt><trkpt lat="42.4423304" lon="11.216235"><ele>-3.9999999999999996</ele><time>2026-04-06T06:41:31.277Z</time></trkpt><trkpt lat="42.4422886" lon="11.216121"><ele>-4.0</ele><time>2026-04-06T06:41:32.277Z</time></trkpt><trkpt lat="42.4422527" lon="11.2159928"><ele>-3.5</ele><time>2026-04-06T06:41:33.278Z</time></trkpt><trkpt lat="42.4422089" lon="11.2158477"><ele>-3.0</ele><time>2026-04-06T06:41:34.277Z</time></trkpt><trkpt lat="42.4421623" lon="11.2157066"><ele>-2.5</ele><time>2026-04-06T06:41:35.278Z</time></trkpt><trkpt lat="42.4421175" lon="11.2155647"><ele>-2.0</ele><time>2026-04-06T06:41:36.278Z</time></trkpt><trkpt lat="42.4420654" lon="11.2154277"><ele>-1.25</ele><time>2026-04-06T06:41:37.277Z</time></trkpt><trkpt lat="42.4420201" lon="11.2152891"><ele>-0.5</ele><time>2026-04-06T06:41:38.277Z</time></trkpt><trkpt lat="42.4419849" lon="11.2151391"><ele>0.25</ele><time>2026-04-06T06:41:39.278Z</time></trkpt><trkpt lat="42.4419522" lon="11.2149787"><ele>1.0</ele><time>2026-04-06T06:41:40.278Z</time></trkpt><trkpt lat="42.4419174" lon="11.2148082"><ele>1.0</ele><time>2026-04-06T06:41:41.277Z</time></trkpt><trkpt lat="42.4418734" lon="11.2146408"><ele>1.0</ele><time>2026-04-06T06:41:42.278Z</time></trkpt><trkpt lat="42.4418314" lon="11.2144729"><ele>1.0</ele><time>2026-04-06T06:41:43.278Z</time></trkpt><trkpt lat="42.4417955" lon="11.2143153"><ele>1.0</ele><time>2026-04-06T06:41:44.278Z</time></trkpt><trkpt lat="42.4417608" lon="11.2141768"><ele>0.9999999999999999</ele><time>2026-04-06T06:41:45.278Z</time></trkpt><trkpt lat="42.4417213" lon="11.2140429"><ele>1.0</ele><time>2026-04-06T06:41:46.278Z</time></trkpt><trkpt lat="42.4416999" lon="11.2139454"><ele>1.0</ele><time>2026-04-06T06:41:47.277Z</time></trkpt><trkpt lat="42.4416773" lon="11.2138609"><ele>1.0</ele><time>2026-04-06T06:41:48.278Z</time></trkpt><trkpt lat="42.4416437" lon="11.2137421"><ele>0.9999999999999999</ele><time>2026-04-06T06:41:50.278Z</time></trkpt><trkpt lat="42.4416078" lon="11.2136163"><ele>1.0</ele><time>2026-04-06T06:41:52.278Z</time></trkpt><trkpt lat="42.4415589" lon="11.2134546"><ele>0.9999999999999999</ele><time>2026-04-06T06:41:54.278Z</time></trkpt><trkpt lat="42.4415295" lon="11.2133626"><ele>1.0</ele><time>2026-04-06T06:41:55.278Z</time></trkpt><trkpt lat="42.4414982" lon="11.2132624"><ele>1.0</ele><time>2026-04-06T06:41:56.277Z</time></trkpt><trkpt lat="42.4414574" lon="11.2131634"><ele>1.0</ele><time>2026-04-06T06:41:57.278Z</time></trkpt><trkpt lat="42.4414114" lon="11.2130736"><ele>0.9999999999999999</ele><time>2026-04-06T06:41:58.278Z</time></trkpt><trkpt lat="42.4413601" lon="11.2129784"><ele>1.0</ele><time>2026-04-06T06:41:59.278Z</time></trkpt><trkpt lat="42.4412989" lon="11.2128847"><ele>0.9999999999999999</ele><time>2026-04-06T06:42:00.278Z</time></trkpt><trkpt lat="42.4412381" lon="11.2127853"><ele>1.0</ele><time>2026-04-06T06:42:01.278Z</time></trkpt><trkpt lat="42.4411799" lon="11.2126936"><ele>1.0</ele><time>2026-04-06T06:42:02.278Z</time></trkpt><trkpt lat="42.4411247" lon="11.2126064"><ele>1.0</ele><time>2026-04-06T06:42:03.277Z</time></trkpt><trkpt lat="42.4410673" lon="11.2125159"><ele>0.9999999999999999</ele><time>2026-04-06T06:42:04.278Z</time></trkpt><trkpt lat="42.4410082" lon="11.2124285"><ele>1.0</ele><time>2026-04-06T06:42:05.278Z</time></trkpt><trkpt lat="42.4409446" lon="11.2123352"><ele>0.20000000000000007</ele><time>2026-04-06T06:42:06.278Z</time></trkpt><trkpt lat="42.4408789" lon="11.2122414"><ele>-0.5999999999999999</ele><time>2026-04-06T06:42:07.278Z</time></trkpt><trkpt lat="42.4408127" lon="11.2121391"><ele>-1.4</ele><time>2026-04-06T06:42:08.277Z</time></trkpt><trkpt lat="42.4407433" lon="11.2120292"><ele>-2.1999999999999997</ele><time>2026-04-06T06:42:09.277Z</time></trkpt><trkpt lat="42.4406761" lon="11.2119148"><ele>-3.0</ele><time>2026-04-06T06:42:10.278Z</time></trkpt><trkpt lat="42.4406093" lon="11.2118037"><ele>-3.0</ele><time>2026-04-06T06:42:11.277Z</time></trkpt><trkpt lat="42.4405493" lon="11.2117029"><ele>-3.0</ele><time>2026-04-06T06:42:12.278Z</time></trkpt><trkpt lat="42.4404984" lon="11.2116163"><ele>-3.0</ele><time>2026-04-06T06:42:13.278Z</time></trkpt><trkpt lat="42.4404594" lon="11.2115338"><ele>-3.0</ele><time>2026-04-06T06:42:14.278Z</time></trkpt><trkpt lat="42.4404219" lon="11.2114494"><ele>-3.0</ele><time>2026-04-06T06:42:15.278Z</time></trkpt><trkpt lat="42.4403828" lon="11.2113496"><ele>-3.0</ele><time>2026-04-06T06:42:16.277Z</time></trkpt><trkpt lat="42.4403464" lon="11.2112491"><ele>-2.4</ele><time>2026-04-06T06:42:17.278Z</time></trkpt><trkpt lat="42.4403023" lon="11.2111473"><ele>-1.7999999999999998</ele><time>2026-04-06T06:42:18.277Z</time></trkpt><trkpt lat="42.4402516" lon="11.2110482"><ele>-1.2</ele><time>2026-04-06T06:42:19.278Z</time></trkpt><trkpt lat="42.4401978" lon="11.2109454"><ele>-0.6</ele><time>2026-04-06T06:42:20.278Z</time></trkpt><trkpt lat="42.4401424" lon="11.2108489"><ele>0.0</ele><time>2026-04-06T06:42:21.278Z</time></trkpt><trkpt lat="42.4400777" lon="11.2107505"><ele>-0.6</ele><time>2026-04-06T06:42:22.278Z</time></trkpt><trkpt lat="42.4400078" lon="11.2106413"><ele>-1.2</ele><time>2026-04-06T06:42:23.278Z</time></trkpt><trkpt lat="42.4399355" lon="11.2105361"><ele>-1.7999999999999998</ele><time>2026-04-06T06:42:24.277Z</time></trkpt><trkpt lat="42.4398623" lon="11.2104274"><ele>-2.4</ele><time>2026-04-06T06:42:25.278Z</time></trkpt><trkpt lat="42.4397913" lon="11.2103209"><ele>-3.0</ele><time>2026-04-06T06:42:26.278Z</time></trkpt><trkpt lat="42.4397229" lon="11.2102207"><ele>-3.0</ele><time>2026-04-06T06:42:27.278Z</time></trkpt><trkpt lat="42.4396552" lon="11.2101213"><ele>-3.0</ele><time>2026-04-06T06:42:28.277Z</time></trkpt><trkpt lat="42.4395911" lon="11.2100309"><ele>-3.0</ele><time>2026-04-06T06:42:29.278Z</time></trkpt><trkpt lat="42.4395301" lon="11.2099527"><ele>-3.0</ele><time>2026-04-06T06:42:30.278Z</time></trkpt><trkpt lat="42.439474" lon="11.2098796"><ele>-3.0</ele><time>2026-04-06T06:42:31.278Z</time></trkpt><trkpt lat="42.4394211" lon="11.2098122"><ele>-3.0</ele><time>2026-04-06T06:42:32.277Z</time></trkpt><trkpt lat="42.4393724" lon="11.2097449"><ele>-2.8571428571428568</ele><time>2026-04-06T06:42:33.278Z</time></trkpt><trkpt lat="42.4393259" lon="11.2096731"><ele>-2.7142857142857144</ele><time>2026-04-06T06:42:34.277Z</time></trkpt><trkpt lat="42.4392857" lon="11.2095989"><ele>-2.571428571428571</ele><time>2026-04-06T06:42:35.277Z</time></trkpt><trkpt lat="42.4392492" lon="11.2095282"><ele>-2.4285714285714284</ele><time>2026-04-06T06:42:36.278Z</time></trkpt><trkpt lat="42.4392066" lon="11.2094539"><ele>-2.2857142857142856</ele><time>2026-04-06T06:42:37.278Z</time></trkpt><trkpt lat="42.4391498" lon="11.2093717"><ele>-2.142857142857143</ele><time>2026-04-06T06:42:38.278Z</time></trkpt><trkpt lat="42.4390831" lon="11.2092803"><ele>-2.0</ele><time>2026-04-06T06:42:39.277Z</time></trkpt><trkpt lat="42.4390063" lon="11.2091787"><ele>-2.0</ele><time>2026-04-06T06:42:40.278Z</time></trkpt><trkpt lat="42.4389213" lon="11.2090727"><ele>-2.0</ele><time>2026-04-06T06:42:41.277Z</time></trkpt><trkpt lat="42.4388301" lon="11.2089606"><ele>-2.0</ele><time>2026-04-06T06:42:42.277Z</time></trkpt><trkpt lat="42.4387369" lon="11.208833"><ele>-2.0</ele><time>2026-04-06T06:42:43.278Z</time></trkpt><trkpt lat="42.4386433" lon="11.2087106"><ele>-1.5</ele><time>2026-04-06T06:42:44.278Z</time></trkpt><trkpt lat="42.438551" lon="11.2085907"><ele>-1.0</ele><time>2026-04-06T06:42:45.278Z</time></trkpt><trkpt lat="42.4384617" lon="11.2084729"><ele>-0.5</ele><time>2026-04-06T06:42:46.277Z</time></trkpt><trkpt lat="42.4383681" lon="11.2083595"><ele>0.0</ele><time>2026-04-06T06:42:47.278Z</time></trkpt><trkpt lat="42.4382823" lon="11.2082619"><ele>0.0</ele><time>2026-04-06T06:42:48.277Z</time></trkpt><trkpt lat="42.4382086" lon="11.2081734"><ele>0.0</ele><time>2026-04-06T06:42:49.277Z</time></trkpt><trkpt lat="42.4381419" lon="11.2081037"><ele>0.0</ele><time>2026-04-06T06:42:50.278Z</time></trkpt><trkpt lat="42.4380837" lon="11.2080353"><ele>0.0</ele><time>2026-04-06T06:42:51.277Z</time></trkpt><trkpt lat="42.4380299" lon="11.2079709"><ele>0.0</ele><time>2026-04-06T06:42:52.277Z</time></trkpt><trkpt lat="42.4379714" lon="11.2078986"><ele>0.0</ele><time>2026-04-06T06:42:53.278Z</time></trkpt><trkpt lat="42.4378966" lon="11.207817"><ele>0.5</ele><time>2026-04-06T06:42:54.277Z</time></trkpt><trkpt lat="42.4378173" lon="11.2077164"><ele>1.0</ele><time>2026-04-06T06:42:55.278Z</time></trkpt><trkpt lat="42.4377251" lon="11.2076127"><ele>1.5</ele><time>2026-04-06T06:42:56.277Z</time></trkpt><trkpt lat="42.4376261" lon="11.2075027"><ele>2.0</ele><time>2026-04-06T06:42:57.277Z</time></trkpt><trkpt lat="42.4375233" lon="11.2073858"><ele>1.25</ele><time>2026-04-06T06:42:58.277Z</time></trkpt><trkpt lat="42.4374252" lon="11.2072642"><ele>0.5</ele><time>2026-04-06T06:42:59.277Z</time></trkpt><trkpt lat="42.4373261" lon="11.2071395"><ele>-0.25</ele><time>2026-04-06T06:43:00.277Z</time></trkpt><trkpt lat="42.4372294" lon="11.2070216"><ele>-1.0</ele><time>2026-04-06T06:43:01.278Z</time></trkpt><trkpt lat="42.4371345" lon="11.2069049"><ele>-1.0</ele><time>2026-04-06T06:43:02.278Z</time></trkpt><trkpt lat="42.4370461" lon="11.2068006"><ele>-1.0</ele><time>2026-04-06T06:43:03.278Z</time></trkpt><trkpt lat="42.4369613" lon="11.2067001"><ele>-1.0</ele><time>2026-04-06T06:43:04.278Z</time></trkpt><trkpt lat="42.4368853" lon="11.2066138"><ele>-1.0</ele><time>2026-04-06T06:43:05.278Z</time></trkpt><trkpt lat="42.4368205" lon="11.2065318"><ele>-1.0</ele><time>2026-04-06T06:43:06.278Z</time></trkpt><trkpt lat="42.4367574" lon="11.206456"><ele>-1.6</ele><time>2026-04-06T06:43:07.277Z</time></trkpt><trkpt lat="42.4366996" lon="11.2063676"><ele>-2.2</ele><time>2026-04-06T06:43:08.278Z</time></trkpt><trkpt lat="42.4366491" lon="11.2062707"><ele>-2.8000000000000003</ele><time>2026-04-06T06:43:09.278Z</time></trkpt><trkpt lat="42.436587" lon="11.2061726"><ele>-3.4000000000000004</ele><time>2026-04-06T06:43:10.278Z</time></trkpt><trkpt lat="42.4365045" lon="11.2060887"><ele>-4.0</ele><time>2026-04-06T06:43:11.278Z</time></trkpt><trkpt lat="42.4364225" lon="11.2060102"><ele>-3.9999999999999996</ele><time>2026-04-06T06:43:12.278Z</time></trkpt><trkpt lat="42.4363483" lon="11.2059415"><ele>-4.0</ele><time>2026-04-06T06:43:13.278Z</time></trkpt><trkpt lat="42.4362753" lon="11.2058838"><ele>-4.0</ele><time>2026-04-06T06:43:14.278Z</time></trkpt><trkpt lat="42.4362036" lon="11.2058367"><ele>-4.0</ele><time>2026-04-06T06:43:15.277Z</time></trkpt><trkpt lat="42.4361335" lon="11.205806"><ele>-3.9999999999999996</ele><time>2026-04-06T06:43:16.277Z</time></trkpt><trkpt lat="42.4360671" lon="11.205804"><ele>-4.0</ele><time>2026-04-06T06:43:17.277Z</time></trkpt><trkpt lat="42.4359633" lon="11.2058781"><ele>-3.833333333333333</ele><time>2026-04-06T06:43:19.277Z</time></trkpt><trkpt lat="42.4358986" lon="11.2060037"><ele>-3.6666666666666665</ele><time>2026-04-06T06:43:21.278Z</time></trkpt><trkpt lat="42.4358405" lon="11.2061165"><ele>-3.5</ele><time>2026-04-06T06:43:23.278Z</time></trkpt><trkpt lat="42.4357832" lon="11.2061577"><ele>-3.333333333333333</ele><time>2026-04-06T06:43:26.277Z</time></trkpt><trkpt lat="42.4357173" lon="11.2061205"><ele>-3.1666666666666665</ele><time>2026-04-06T06:43:28.278Z</time></trkpt><trkpt lat="42.4356652" lon="11.2060705"><ele>-3.0</ele><time>2026-04-06T06:43:29.277Z</time></trkpt><trkpt lat="42.4355958" lon="11.206002"><ele>-3.0</ele><time>2026-04-06T06:43:30.278Z</time></trkpt><trkpt lat="42.4355246" lon="11.205928"><ele>-3.0</ele><time>2026-04-06T06:43:31.277Z</time></trkpt><trkpt lat="42.4354415" lon="11.2058414"><ele>-3.0</ele><time>2026-04-06T06:43:32.277Z</time></trkpt><trkpt lat="42.4353527" lon="11.2057557"><ele>-3.0</ele><time>2026-04-06T06:43:33.277Z</time></trkpt><trkpt lat="42.4352593" lon="11.2056591"><ele>-3.0</ele><time>2026-04-06T06:43:34.278Z</time></trkpt><trkpt lat="42.4351593" lon="11.2055494"><ele>-3.5</ele><time>2026-04-06T06:43:35.278Z</time></trkpt><trkpt lat="42.4350569" lon="11.2054383"><ele>-4.0</ele><time>2026-04-06T06:43:36.278Z</time></trkpt><trkpt lat="42.4349452" lon="11.2053169"><ele>-4.5</ele><time>2026-04-06T06:43:37.277Z</time></trkpt><trkpt lat="42.4348197" lon="11.2051948"><ele>-5.0</ele><time>2026-04-06T06:43:38.278Z</time></trkpt><trkpt lat="42.4346958" lon="11.2050723"><ele>-5.0</ele><time>2026-04-06T06:43:39.278Z</time></trkpt><trkpt lat="42.4345668" lon="11.2049378"><ele>-5.0</ele><time>2026-04-06T06:43:40.278Z</time></trkpt><trkpt lat="42.4344294" lon="11.2048022"><ele>-5.0</ele><time>2026-04-06T06:43:41.278Z</time></trkpt><trkpt lat="42.43429" lon="11.2046588"><ele>-5.0</ele><time>2026-04-06T06:43:42.277Z</time></trkpt><trkpt lat="42.4341461" lon="11.2045133"><ele>-5.0</ele><time>2026-04-06T06:43:43.277Z</time></trkpt><trkpt lat="42.4340018" lon="11.2043665"><ele>-5.0</ele><time>2026-04-06T06:43:44.278Z</time></trkpt><trkpt lat="42.4338592" lon="11.2042229"><ele>-5.0</ele><time>2026-04-06T06:43:45.278Z</time></trkpt><trkpt lat="42.4337108" lon="11.2040731"><ele>-5.0</ele><time>2026-04-06T06:43:46.278Z</time></trkpt><trkpt lat="42.43356" lon="11.2039182"><ele>-5.0</ele><time>2026-04-06T06:43:47.278Z</time></trkpt><trkpt lat="42.4334114" lon="11.2037612"><ele>-5.0</ele><time>2026-04-06T06:43:48.277Z</time></trkpt><trkpt lat="42.4332575" lon="11.2036048"><ele>-5.0</ele><time>2026-04-06T06:43:49.277Z</time></trkpt><trkpt lat="42.4331011" lon="11.2034437"><ele>-5.0</ele><time>2026-04-06T06:43:50.278Z</time></trkpt><trkpt lat="42.4329436" lon="11.2032823"><ele>-5.0</ele><time>2026-04-06T06:43:51.277Z</time></trkpt><trkpt lat="42.4327858" lon="11.2031177"><ele>-5.0</ele><time>2026-04-06T06:43:52.278Z</time></trkpt><trkpt lat="42.4326228" lon="11.2029578"><ele>-5.0</ele><time>2026-04-06T06:43:53.278Z</time></trkpt><trkpt lat="42.4324631" lon="11.2027912"><ele>-5.0</ele><time>2026-04-06T06:43:54.278Z</time></trkpt><trkpt lat="42.4323038" lon="11.2026238"><ele>-5.0</ele><time>2026-04-06T06:43:55.278Z</time></trkpt></trkseg><trkseg><trkpt lat="42.4286687" lon="11.1987301"><ele>-0.9999999999999999</ele><time>2026-04-06T06:44:49.28Z</time></trkpt><trkpt lat="42.4286062" lon="11.198639"><ele>-1.0</ele><time>2026-04-06T06:44:52.279Z</time></trkpt><trkpt lat="42.4285457" lon="11.1985593"><ele>-1.0</ele><time>2026-04-06T06:44:55.279Z</time></trkpt><trkpt lat="42.4284844" lon="11.1984876"><ele>-1.0</ele><time>2026-04-06T06:44:59.279Z</time></trkpt><trkpt lat="42.4284164" lon="11.1983945"><ele>-0.9999999999999999</ele><time>2026-04-06T06:45:01.28Z</time></trkpt><trkpt lat="42.4283782" lon="11.1983191"><ele>-1.0</ele><time>2026-04-06T06:45:02.28Z</time></trkpt><trkpt lat="42.4283355" lon="11.1982294"><ele>-1.2000000000000002</ele><time>2026-04-06T06:45:03.28Z</time></trkpt><trkpt lat="42.4282921" lon="11.1981278"><ele>-1.4000000000000001</ele><time>2026-04-06T06:45:04.28Z</time></trkpt><trkpt lat="42.4282401" lon="11.1980166"><ele>-1.6</ele><time>2026-04-06T06:45:05.28Z</time></trkpt><trkpt lat="42.4281864" lon="11.1978923"><ele>-1.8</ele><time>2026-04-06T06:45:06.28Z</time></trkpt><trkpt lat="42.4281313" lon="11.1977534"><ele>-2.0</ele><time>2026-04-06T06:45:07.28Z</time></trkpt><trkpt lat="42.4280758" lon="11.1976148"><ele>-2.0</ele><time>2026-04-06T06:45:08.28Z</time></trkpt><trkpt lat="42.4280227" lon="11.1974704"><ele>-2.0</ele><time>2026-04-06T06:45:09.28Z</time></trkpt><trkpt lat="42.4279707" lon="11.1973265"><ele>-2.0</ele><time>2026-04-06T06:45:10.28Z</time></trkpt><trkpt lat="42.4279232" lon="11.1971856"><ele>-2.0</ele><time>2026-04-06T06:45:11.28Z</time></trkpt><trkpt lat="42.4278906" lon="11.1970515"><ele>-1.857142857142857</ele><time>2026-04-06T06:45:12.28Z</time></trkpt><trkpt lat="42.4278635" lon="11.1969354"><ele>-1.714285714285714</ele><time>2026-04-06T06:45:13.279Z</time></trkpt><trkpt lat="42.4278358" lon="11.19684"><ele>-1.5714285714285714</ele><time>2026-04-06T06:45:14.28Z</time></trkpt><trkpt lat="42.4278006" lon="11.19676"><ele>-1.4285714285714284</ele><time>2026-04-06T06:45:15.279Z</time></trkpt><trkpt lat="42.4277465" lon="11.1967112"><ele>-1.2857142857142856</ele><time>2026-04-06T06:45:16.28Z</time></trkpt><trkpt lat="42.4276851" lon="11.1966853"><ele>-1.1428571428571428</ele><time>2026-04-06T06:45:17.279Z</time></trkpt><trkpt lat="42.4276016" lon="11.1966859"><ele>-1.0</ele><time>2026-04-06T06:45:18.28Z</time></trkpt><trkpt lat="42.4275077" lon="11.1967063"><ele>-1.0</ele><time>2026-04-06T06:45:19.28Z</time></trkpt><trkpt lat="42.4274067" lon="11.1967338"><ele>-1.0</ele><time>2026-04-06T06:45:20.28Z</time></trkpt><trkpt lat="42.4273024" lon="11.1967588"><ele>-1.0</ele><time>2026-04-06T06:45:21.28Z</time></trkpt><trkpt lat="42.4271988" lon="11.1967842"><ele>-1.0</ele><time>2026-04-06T06:45:22.279Z</time></trkpt><trkpt lat="42.4270822" lon="11.1968162"><ele>-1.0</ele><time>2026-04-06T06:45:23.28Z</time></trkpt><trkpt lat="42.4269655" lon="11.1968478"><ele>-0.6000000000000001</ele><time>2026-04-06T06:45:24.28Z</time></trkpt><trkpt lat="42.4268481" lon="11.1968843"><ele>-0.20000000000000007</ele><time>2026-04-06T06:45:25.279Z</time></trkpt><trkpt lat="42.4267303" lon="11.1969233"><ele>0.20000000000000007</ele><time>2026-04-06T06:45:26.279Z</time></trkpt><trkpt lat="42.4266251" lon="11.1969651"><ele>0.6000000000000001</ele><time>2026-04-06T06:45:27.28Z</time></trkpt><trkpt lat="42.4265385" lon="11.1969965"><ele>1.0</ele><time>2026-04-06T06:45:28.28Z</time></trkpt><trkpt lat="42.4264659" lon="11.1970244"><ele>1.0</ele><time>2026-04-06T06:45:29.28Z</time></trkpt><trkpt lat="42.4263695" lon="11.1970132"><ele>1.0</ele><time>2026-04-06T06:45:31.279Z</time></trkpt><trkpt lat="42.4263646" lon="11.1968913"><ele>1.0</ele><time>2026-04-06T06:45:34.28Z</time></trkpt><trkpt lat="42.4264119" lon="11.1967898"><ele>1.0</ele><time>2026-04-06T06:45:36.28Z</time></trkpt><trkpt lat="42.4263963" lon="11.1966781"><ele>1.0</ele><time>2026-04-06T06:45:38.28Z</time></trkpt><trkpt lat="42.4263037" lon="11.1965775"><ele>1.5</ele><time>2026-04-06T06:45:40.279Z</time></trkpt><trkpt lat="42.4262448" lon="11.1965266"><ele>2.0</ele><time>2026-04-06T06:45:41.28Z</time></trkpt><trkpt lat="42.4261842" lon="11.1964659"><ele>2.5</ele><time>2026-04-06T06:45:42.28Z</time></trkpt><trkpt lat="42.426122" lon="11.1964042"><ele>3.0</ele><time>2026-04-06T06:45:43.279Z</time></trkpt><trkpt lat="42.4260644" lon="11.1963362"><ele>3.4999999999999996</ele><time>2026-04-06T06:45:44.28Z</time></trkpt><trkpt lat="42.4260018" lon="11.1962699"><ele>4.0</ele><time>2026-04-06T06:45:45.28Z</time></trkpt><trkpt lat="42.4259352" lon="11.1962016"><ele>5.5</ele><time>2026-04-06T06:45:46.279Z</time></trkpt><trkpt lat="42.4258663" lon="11.1961408"><ele>7.0</ele><time>2026-04-06T06:45:47.28Z</time></trkpt><trkpt lat="42.4258002" lon="11.196085"><ele>8.5</ele><time>2026-04-06T06:45:48.28Z</time></trkpt><trkpt lat="42.4257256" lon="11.1960293"><ele>10.0</ele><time>2026-04-06T06:45:49.279Z</time></trkpt><trkpt lat="42.4256446" lon="11.1959596"><ele>11.499999999999998</ele><time>2026-04-06T06:45:50.28Z</time></trkpt><trkpt lat="42.4255633" lon="11.1958937"><ele>13.0</ele><time>2026-04-06T06:45:51.28Z</time></trkpt><trkpt lat="42.4254802" lon="11.1958336"><ele>12.600000000000001</ele><time>2026-04-06T06:45:52.279Z</time></trkpt><trkpt lat="42.4253966" lon="11.1957729"><ele>12.200000000000001</ele><time>2026-04-06T06:45:53.28Z</time></trkpt><trkpt lat="42.4253165" lon="11.1957063"><ele>11.8</ele><time>2026-04-06T06:45:54.28Z</time></trkpt><trkpt lat="42.4252294" lon="11.1956563"><ele>11.4</ele><time>2026-04-06T06:45:55.28Z</time></trkpt><trkpt lat="42.4251331" lon="11.1956155"><ele>11.0</ele><time>2026-04-06T06:45:56.28Z</time></trkpt><trkpt lat="42.425029" lon="11.195585"><ele>15.25</ele><time>2026-04-06T06:45:57.279Z</time></trkpt><trkpt lat="42.4249208" lon="11.1955586"><ele>19.5</ele><time>2026-04-06T06:45:58.28Z</time></trkpt><trkpt lat="42.4248048" lon="11.1955321"><ele>23.75</ele><time>2026-04-06T06:45:59.279Z</time></trkpt><trkpt lat="42.424687" lon="11.1955066"><ele>28.0</ele><time>2026-04-06T06:46:00.28Z</time></trkpt><trkpt lat="42.4245721" lon="11.1954827"><ele>28.0</ele><time>2026-04-06T06:46:01.28Z</time></trkpt><trkpt lat="42.4244647" lon="11.195457"><ele>27.999999999999996</ele><time>2026-04-06T06:46:02.279Z</time></trkpt><trkpt lat="42.4243621" lon="11.195435"><ele>27.999999999999996</ele><time>2026-04-06T06:46:03.28Z</time></trkpt><trkpt lat="42.4242667" lon="11.1954101"><ele>28.0</ele><time>2026-04-06T06:46:04.28Z</time></trkpt><trkpt lat="42.4241677" lon="11.1953784"><ele>28.0</ele><time>2026-04-06T06:46:05.28Z</time></trkpt><trkpt lat="42.4240703" lon="11.1953392"><ele>28.000000000000004</ele><time>2026-04-06T06:46:06.28Z</time></trkpt><trkpt lat="42.4239821" lon="11.1952949"><ele>28.0</ele><time>2026-04-06T06:46:07.28Z</time></trkpt><trkpt lat="42.4239037" lon="11.1952506"><ele>28.0</ele><time>2026-04-06T06:46:08.28Z</time></trkpt><trkpt lat="42.4238303" lon="11.1952029"><ele>28.0</ele><time>2026-04-06T06:46:09.28Z</time></trkpt><trkpt lat="42.4237574" lon="11.1951515"><ele>28.000000000000004</ele><time>2026-04-06T06:46:10.279Z</time></trkpt><trkpt lat="42.4236855" lon="11.1950993"><ele>28.0</ele><time>2026-04-06T06:46:11.279Z</time></trkpt><trkpt lat="42.4236164" lon="11.1950424"><ele>29.000000000000004</ele><time>2026-04-06T06:46:12.279Z</time></trkpt><trkpt lat="42.42355" lon="11.1949824"><ele>30.0</ele><time>2026-04-06T06:46:13.279Z</time></trkpt><trkpt lat="42.4234858" lon="11.1949222"><ele>31.0</ele><time>2026-04-06T06:46:14.28Z</time></trkpt><trkpt lat="42.4234231" lon="11.1948618"><ele>32.0</ele><time>2026-04-06T06:46:15.279Z</time></trkpt><trkpt lat="42.4233586" lon="11.1947899"><ele>33.0</ele><time>2026-04-06T06:46:16.279Z</time></trkpt><trkpt lat="42.423293" lon="11.1947083"><ele>34.0</ele><time>2026-04-06T06:46:17.28Z</time></trkpt><trkpt lat="42.4232231" lon="11.1946177"><ele>34.0</ele><time>2026-04-06T06:46:18.28Z</time></trkpt><trkpt lat="42.423148" lon="11.1945232"><ele>34.0</ele><time>2026-04-06T06:46:19.28Z</time></trkpt><trkpt lat="42.4230718" lon="11.1944175"><ele>34.0</ele><time>2026-04-06T06:46:20.28Z</time></trkpt><trkpt lat="42.4229908" lon="11.1943101"><ele>34.0</ele><time>2026-04-06T06:46:21.28Z</time></trkpt><trkpt lat="42.4229073" lon="11.1941944"><ele>34.0</ele><time>2026-04-06T06:46:22.28Z</time></trkpt><trkpt lat="42.4228207" lon="11.194067"><ele>31.75</ele><time>2026-04-06T06:46:23.28Z</time></trkpt><trkpt lat="42.4227399" lon="11.193929"><ele>29.5</ele><time>2026-04-06T06:46:24.28Z</time></trkpt><trkpt lat="42.4226587" lon="11.1937908"><ele>27.25</ele><time>2026-04-06T06:46:25.28Z</time></trkpt><trkpt lat="42.4225812" lon="11.1936516"><ele>25.0</ele><time>2026-04-06T06:46:26.28Z</time></trkpt><trkpt lat="42.4225105" lon="11.1935065"><ele>25.0</ele><time>2026-04-06T06:46:27.28Z</time></trkpt><trkpt lat="42.4224382" lon="11.1933605"><ele>25.0</ele><time>2026-04-06T06:46:28.28Z</time></trkpt><trkpt lat="42.4223679" lon="11.193216"><ele>25.0</ele><time>2026-04-06T06:46:29.28Z</time></trkpt><trkpt lat="42.422285" lon="11.1930845"><ele>25.0</ele><time>2026-04-06T06:46:30.28Z</time></trkpt><trkpt lat="42.4221954" lon="11.1929555"><ele>23.75</ele><time>2026-04-06T06:46:31.279Z</time></trkpt><trkpt lat="42.4220995" lon="11.1928282"><ele>22.5</ele><time>2026-04-06T06:46:32.28Z</time></trkpt><trkpt lat="42.4220036" lon="11.1927037"><ele>21.25</ele><time>2026-04-06T06:46:33.28Z</time></trkpt><trkpt lat="42.4219185" lon="11.1925792"><ele>20.0</ele><time>2026-04-06T06:46:34.28Z</time></trkpt><trkpt lat="42.4218332" lon="11.1924615"><ele>20.0</ele><time>2026-04-06T06:46:35.279Z</time></trkpt><trkpt lat="42.4217405" lon="11.1923427"><ele>20.0</ele><time>2026-04-06T06:46:36.28Z</time></trkpt><trkpt lat="42.4216478" lon="11.1922286"><ele>20.0</ele><time>2026-04-06T06:46:37.28Z</time></trkpt><trkpt lat="42.4215557" lon="11.192114"><ele>20.0</ele><time>2026-04-06T06:46:38.279Z</time></trkpt><trkpt lat="42.4214743" lon="11.1919986"><ele>19.8</ele><time>2026-04-06T06:46:39.28Z</time></trkpt><trkpt lat="42.4213967" lon="11.1918957"><ele>19.6</ele><time>2026-04-06T06:46:40.28Z</time></trkpt><trkpt lat="42.4213289" lon="11.1918016"><ele>19.4</ele><time>2026-04-06T06:46:41.28Z</time></trkpt><trkpt lat="42.4212481" lon="11.1917103"><ele>19.2</ele><time>2026-04-06T06:46:42.28Z</time></trkpt><trkpt lat="42.4211506" lon="11.1916409"><ele>19.0</ele><time>2026-04-06T06:46:43.279Z</time></trkpt><trkpt lat="42.4210436" lon="11.1915935"><ele>19.0</ele><time>2026-04-06T06:46:44.28Z</time></trkpt><trkpt lat="42.4209249" lon="11.1915567"><ele>19.0</ele><time>2026-04-06T06:46:45.28Z</time></trkpt><trkpt lat="42.4207994" lon="11.1915464"><ele>19.0</ele><time>2026-04-06T06:46:46.28Z</time></trkpt><trkpt lat="42.4206717" lon="11.1915496"><ele>19.0</ele><time>2026-04-06T06:46:47.28Z</time></trkpt><trkpt lat="42.42054" lon="11.1915681"><ele>20.0</ele><time>2026-04-06T06:46:48.28Z</time></trkpt><trkpt lat="42.4204082" lon="11.1915832"><ele>21.0</ele><time>2026-04-06T06:46:49.279Z</time></trkpt><trkpt lat="42.4202815" lon="11.191595"><ele>22.0</ele><time>2026-04-06T06:46:50.28Z</time></trkpt><trkpt lat="42.4201549" lon="11.1916168"><ele>23.0</ele><time>2026-04-06T06:46:51.28Z</time></trkpt><trkpt lat="42.4200328" lon="11.1916595"><ele>23.0</ele><time>2026-04-06T06:46:52.28Z</time></trkpt><trkpt lat="42.419923" lon="11.191714"><ele>23.0</ele><time>2026-04-06T06:46:53.28Z</time></trkpt><trkpt lat="42.4198244" lon="11.1917631"><ele>23.0</ele><time>2026-04-06T06:46:54.279Z</time></trkpt><trkpt lat="42.4197398" lon="11.1917883"><ele>23.0</ele><time>2026-04-06T06:46:55.28Z</time></trkpt><trkpt lat="42.4196576" lon="11.1917923"><ele>23.0</ele><time>2026-04-06T06:46:56.28Z</time></trkpt><trkpt lat="42.4195824" lon="11.1917632"><ele>24.0</ele><time>2026-04-06T06:46:57.28Z</time></trkpt><trkpt lat="42.4195126" lon="11.1917017"><ele>25.0</ele><time>2026-04-06T06:46:58.28Z</time></trkpt><trkpt lat="42.4194384" lon="11.1916328"><ele>25.999999999999996</ele><time>2026-04-06T06:46:59.28Z</time></trkpt><trkpt lat="42.4193564" lon="11.1915579"><ele>27.0</ele><time>2026-04-06T06:47:00.28Z</time></trkpt><trkpt lat="42.4192667" lon="11.1914742"><ele>28.0</ele><time>2026-04-06T06:47:01.28Z</time></trkpt><trkpt lat="42.4191725" lon="11.1913869"><ele>28.75</ele><time>2026-04-06T06:47:02.28Z</time></trkpt><trkpt lat="42.4190767" lon="11.1912893"><ele>29.5</ele><time>2026-04-06T06:47:03.279Z</time></trkpt><trkpt lat="42.4189722" lon="11.1911946"><ele>30.25</ele><time>2026-04-06T06:47:04.279Z</time></trkpt><trkpt lat="42.4188781" lon="11.1910824"><ele>31.0</ele><time>2026-04-06T06:47:05.28Z</time></trkpt><trkpt lat="42.4187877" lon="11.1909792"><ele>32.0</ele><time>2026-04-06T06:47:06.279Z</time></trkpt><trkpt lat="42.4187127" lon="11.1908724"><ele>33.0</ele><time>2026-04-06T06:47:07.28Z</time></trkpt><trkpt lat="42.4186446" lon="11.1907555"><ele>34.0</ele><time>2026-04-06T06:47:08.28Z</time></trkpt><trkpt lat="42.4185832" lon="11.1906203"><ele>35.0</ele><time>2026-04-06T06:47:09.28Z</time></trkpt><trkpt lat="42.4185185" lon="11.1904816"><ele>36.0</ele><time>2026-04-06T06:47:10.28Z</time></trkpt><trkpt lat="42.4184479" lon="11.1903365"><ele>37.0</ele><time>2026-04-06T06:47:11.28Z</time></trkpt><trkpt lat="42.418377" lon="11.1901866"><ele>38.0</ele><time>2026-04-06T06:47:12.28Z</time></trkpt><trkpt lat="42.4183077" lon="11.190032"><ele>39.0</ele><time>2026-04-06T06:47:13.28Z</time></trkpt><trkpt lat="42.4182364" lon="11.1898798"><ele>39.0</ele><time>2026-04-06T06:47:14.28Z</time></trkpt><trkpt lat="42.4181698" lon="11.1897427"><ele>39.0</ele><time>2026-04-06T06:47:15.28Z</time></trkpt><trkpt lat="42.4181141" lon="11.1896282"><ele>39.0</ele><time>2026-04-06T06:47:16.28Z</time></trkpt><trkpt lat="42.4180546" lon="11.1895188"><ele>39.0</ele><time>2026-04-06T06:47:17.28Z</time></trkpt><trkpt lat="42.4179788" lon="11.1894188"><ele>39.0</ele><time>2026-04-06T06:47:18.279Z</time></trkpt><trkpt lat="42.4178865" lon="11.189331"><ele>39.5</ele><time>2026-04-06T06:47:19.28Z</time></trkpt><trkpt lat="42.4177829" lon="11.1892595"><ele>40.0</ele><time>2026-04-06T06:47:20.28Z</time></trkpt><trkpt lat="42.4176729" lon="11.1892024"><ele>40.5</ele><time>2026-04-06T06:47:21.28Z</time></trkpt><trkpt lat="42.4175549" lon="11.1891544"><ele>41.0</ele><time>2026-04-06T06:47:22.28Z</time></trkpt><trkpt lat="42.4174474" lon="11.1891084"><ele>41.0</ele><time>2026-04-06T06:47:23.279Z</time></trkpt><trkpt lat="42.417357" lon="11.1890728"><ele>41.0</ele><time>2026-04-06T06:47:24.28Z</time></trkpt><trkpt lat="42.4172785" lon="11.1890369"><ele>41.0</ele><time>2026-04-06T06:47:25.28Z</time></trkpt><trkpt lat="42.4172131" lon="11.1889907"><ele>41.0</ele><time>2026-04-06T06:47:26.28Z</time></trkpt><trkpt lat="42.4171519" lon="11.1889309"><ele>41.0</ele><time>2026-04-06T06:47:27.28Z</time></trkpt><trkpt lat="42.4170911" lon="11.1888676"><ele>41.0</ele><time>2026-04-06T06:47:28.28Z</time></trkpt><trkpt lat="42.4170402" lon="11.1887774"><ele>42.0</ele><time>2026-04-06T06:47:29.28Z</time></trkpt><trkpt lat="42.4169836" lon="11.1886768"><ele>43.0</ele><time>2026-04-06T06:47:30.28Z</time></trkpt><trkpt lat="42.4169232" lon="11.1885709"><ele>44.0</ele><time>2026-04-06T06:47:31.279Z</time></trkpt><trkpt lat="42.4168634" lon="11.1884545"><ele>45.0</ele><time>2026-04-06T06:47:32.28Z</time></trkpt><trkpt lat="42.4167981" lon="11.1883291"><ele>46.0</ele><time>2026-04-06T06:47:33.28Z</time></trkpt><trkpt lat="42.4167296" lon="11.1882004"><ele>45.5</ele><time>2026-04-06T06:47:34.28Z</time></trkpt><trkpt lat="42.4166552" lon="11.1880709"><ele>45.0</ele><time>2026-04-06T06:47:35.28Z</time></trkpt><trkpt lat="42.4165845" lon="11.187937"><ele>44.5</ele><time>2026-04-06T06:47:36.28Z</time></trkpt><trkpt lat="42.4165161" lon="11.1878054"><ele>44.0</ele><time>2026-04-06T06:47:37.279Z</time></trkpt><trkpt lat="42.4164465" lon="11.1876743"><ele>44.0</ele><time>2026-04-06T06:47:38.28Z</time></trkpt><trkpt lat="42.4163744" lon="11.1875445"><ele>44.0</ele><time>2026-04-06T06:47:39.28Z</time></trkpt><trkpt lat="42.4163016" lon="11.1874135"><ele>44.0</ele><time>2026-04-06T06:47:40.28Z</time></trkpt><trkpt lat="42.416229" lon="11.1872841"><ele>44.0</ele><time>2026-04-06T06:47:41.28Z</time></trkpt><trkpt lat="42.4161549" lon="11.1871598"><ele>45.800000000000004</ele><time>2026-04-06T06:47:42.28Z</time></trkpt><trkpt lat="42.4160933" lon="11.1870478"><ele>47.6</ele><time>2026-04-06T06:47:43.279Z</time></trkpt><trkpt lat="42.4160255" lon="11.1869594"><ele>49.4</ele><time>2026-04-06T06:47:44.28Z</time></trkpt><trkpt lat="42.4159396" lon="11.1868986"><ele>51.2</ele><time>2026-04-06T06:47:45.28Z</time></trkpt><trkpt lat="42.4158384" lon="11.1868566"><ele>53.0</ele><time>2026-04-06T06:47:46.279Z</time></trkpt><trkpt lat="42.4157192" lon="11.1868381"><ele>53.0</ele><time>2026-04-06T06:47:47.279Z</time></trkpt><trkpt lat="42.4155879" lon="11.1868277"><ele>53.0</ele><time>2026-04-06T06:47:48.28Z</time></trkpt><trkpt lat="42.4154618" lon="11.1868236"><ele>53.0</ele><time>2026-04-06T06:47:49.28Z</time></trkpt><trkpt lat="42.4153652" lon="11.1868202"><ele>53.0</ele><time>2026-04-06T06:47:50.28Z</time></trkpt><trkpt lat="42.4152921" lon="11.1868128"><ele>53.0</ele><time>2026-04-06T06:47:51.28Z</time></trkpt><trkpt lat="42.4151998" lon="11.1867993"><ele>52.66666666666667</ele><time>2026-04-06T06:47:53.279Z</time></trkpt><trkpt lat="42.4151323" lon="11.1867779"><ele>52.333333333333336</ele><time>2026-04-06T06:47:56.28Z</time></trkpt><trkpt lat="42.4150589" lon="11.1867437"><ele>52.0</ele><time>2026-04-06T06:48:20.28Z</time></trkpt><trkpt lat="42.4149774" lon="11.1866762"><ele>51.66666666666667</ele><time>2026-04-06T06:48:22.28Z</time></trkpt><trkpt lat="42.4148963" lon="11.1866003"><ele>51.333333333333336</ele><time>2026-04-06T06:48:24.28Z</time></trkpt><trkpt lat="42.4148565" lon="11.1865221"><ele>51.0</ele><time>2026-04-06T06:48:26.28Z</time></trkpt><trkpt lat="42.4148267" lon="11.1864435"><ele>51.0</ele><time>2026-04-06T06:48:28.279Z</time></trkpt><trkpt lat="42.4147959" lon="11.1863528"><ele>51.0</ele><time>2026-04-06T06:48:30.28Z</time></trkpt><trkpt lat="42.4147474" lon="11.1862691"><ele>51.0</ele><time>2026-04-06T06:48:32.28Z</time></trkpt><trkpt lat="42.4146675" lon="11.1862068"><ele>51.0</ele><time>2026-04-06T06:48:35.28Z</time></trkpt><trkpt lat="42.4146012" lon="11.1861553"><ele>51.0</ele><time>2026-04-06T06:48:38.28Z</time></trkpt><trkpt lat="42.4145549" lon="11.1860849"><ele>51.0</ele><time>2026-04-06T06:48:40.28Z</time></trkpt><trkpt lat="42.4145206" lon="11.1859889"><ele>52.199999999999996</ele><time>2026-04-06T06:48:42.28Z</time></trkpt><trkpt lat="42.4144843" lon="11.1858962"><ele>53.4</ele><time>2026-04-06T06:48:44.28Z</time></trkpt><trkpt lat="42.4144246" lon="11.1857839"><ele>54.6</ele><time>2026-04-06T06:48:46.279Z</time></trkpt><trkpt lat="42.4143802" lon="11.1856724"><ele>55.8</ele><time>2026-04-06T06:48:48.28Z</time></trkpt><trkpt lat="42.4143211" lon="11.1855462"><ele>57.0</ele><time>2026-04-06T06:48:50.28Z</time></trkpt><trkpt lat="42.414231" lon="11.1854529"><ele>57.0</ele><time>2026-04-06T06:48:52.28Z</time></trkpt><trkpt lat="42.4141013" lon="11.1854158"><ele>57.0</ele><time>2026-04-06T06:48:54.279Z</time></trkpt><trkpt lat="42.4140335" lon="11.1854125"><ele>57.0</ele><time>2026-04-06T06:48:55.28Z</time></trkpt><trkpt lat="42.4139663" lon="11.1854101"><ele>57.0</ele><time>2026-04-06T06:48:56.28Z</time></trkpt><trkpt lat="42.4139024" lon="11.1854075"><ele>57.0</ele><time>2026-04-06T06:48:57.28Z</time></trkpt><trkpt lat="42.4137958" lon="11.1853918"><ele>57.0</ele><time>2026-04-06T06:48:59.279Z</time></trkpt><trkpt lat="42.4136857" lon="11.1853419"><ele>59.166666666666664</ele><time>2026-04-06T06:49:01.28Z</time></trkpt><trkpt lat="42.4136248" lon="11.1853099"><ele>61.33333333333333</ele><time>2026-04-06T06:49:02.279Z</time></trkpt><trkpt lat="42.4135649" lon="11.1852666"><ele>63.5</ele><time>2026-04-06T06:49:03.28Z</time></trkpt><trkpt lat="42.4135078" lon="11.1852183"><ele>65.66666666666666</ele><time>2026-04-06T06:49:04.28Z</time></trkpt><trkpt lat="42.4134117" lon="11.1851422"><ele>67.83333333333333</ele><time>2026-04-06T06:49:06.279Z</time></trkpt><trkpt lat="42.413318" lon="11.1850723"><ele>70.0</ele><time>2026-04-06T06:49:08.279Z</time></trkpt><trkpt lat="42.4132179" lon="11.1850389"><ele>70.0</ele><time>2026-04-06T06:49:10.28Z</time></trkpt><trkpt lat="42.4131391" lon="11.1850421"><ele>70.0</ele><time>2026-04-06T06:49:12.28Z</time></trkpt><trkpt lat="42.4130768" lon="11.1849629"><ele>70.0</ele><time>2026-04-06T06:49:15.28Z</time></trkpt><trkpt lat="42.4130585" lon="11.1848621"><ele>70.0</ele><time>2026-04-06T06:49:17.279Z</time></trkpt><trkpt lat="42.4130484" lon="11.1847374"><ele>70.0</ele><time>2026-04-06T06:49:19.28Z</time></trkpt><trkpt lat="42.4130177" lon="11.184587"><ele>70.0</ele><time>2026-04-06T06:49:21.28Z</time></trkpt><trkpt lat="42.4129991" lon="11.1844106"><ele>69.16666666666666</ele><time>2026-04-06T06:49:23.28Z</time></trkpt><trkpt lat="42.4129928" lon="11.1843209"><ele>68.33333333333333</ele><time>2026-04-06T06:49:24.28Z</time></trkpt><trkpt lat="42.4130009" lon="11.1842348"><ele>67.5</ele><time>2026-04-06T06:49:25.28Z</time></trkpt><trkpt lat="42.4129998" lon="11.1841479"><ele>66.66666666666667</ele><time>2026-04-06T06:49:26.28Z</time></trkpt><trkpt lat="42.4129997" lon="11.183989"><ele>65.83333333333334</ele><time>2026-04-06T06:49:28.28Z</time></trkpt><trkpt lat="42.4129968" lon="11.1838231"><ele>65.0</ele><time>2026-04-06T06:49:30.279Z</time></trkpt><trkpt lat="42.4129815" lon="11.1837403"><ele>69.0</ele><time>2026-04-06T06:49:31.279Z</time></trkpt><trkpt lat="42.4129236" lon="11.1835912"><ele>73.0</ele><time>2026-04-06T06:49:33.28Z</time></trkpt><trkpt lat="42.4128559" lon="11.1835114"><ele>77.0</ele><time>2026-04-06T06:49:35.28Z</time></trkpt><trkpt lat="42.4127978" lon="11.1834253"><ele>81.0</ele><time>2026-04-06T06:49:38.28Z</time></trkpt><trkpt lat="42.4127792" lon="11.1833196"><ele>85.0</ele><time>2026-04-06T06:49:41.28Z</time></trkpt><trkpt lat="42.4128039" lon="11.1831963"><ele>86.0</ele><time>2026-04-06T06:49:43.279Z</time></trkpt><trkpt lat="42.4128518" lon="11.1830339"><ele>87.0</ele><time>2026-04-06T06:49:45.279Z</time></trkpt><trkpt lat="42.4128841" lon="11.1829526"><ele>88.0</ele><time>2026-04-06T06:49:46.28Z</time></trkpt><trkpt lat="42.4129103" lon="11.1828541"><ele>89.0</ele><time>2026-04-06T06:49:47.279Z</time></trkpt><trkpt lat="42.4129309" lon="11.1827678"><ele>90.0</ele><time>2026-04-06T06:49:48.28Z</time></trkpt><trkpt lat="42.4129428" lon="11.1826702"><ele>91.0</ele><time>2026-04-06T06:49:49.28Z</time></trkpt><trkpt lat="42.412951" lon="11.1825139"><ele>91.0</ele><time>2026-04-06T06:49:51.279Z</time></trkpt><trkpt lat="42.412979" lon="11.1823855"><ele>91.0</ele><time>2026-04-06T06:49:53.28Z</time></trkpt><trkpt lat="42.4130467" lon="11.1822884"><ele>91.0</ele><time>2026-04-06T06:49:55.28Z</time></trkpt><trkpt lat="42.4131484" lon="11.1821978"><ele>91.0</ele><time>2026-04-06T06:49:57.28Z</time></trkpt><trkpt lat="42.4132219" lon="11.1820951"><ele>91.0</ele><time>2026-04-06T06:49:59.28Z</time></trkpt><trkpt lat="42.4132451" lon="11.181979"><ele>87.2</ele><time>2026-04-06T06:50:01.279Z</time></trkpt><trkpt lat="42.4132187" lon="11.1818323"><ele>83.39999999999999</ele><time>2026-04-06T06:50:03.279Z</time></trkpt><trkpt lat="42.4131732" lon="11.1816905"><ele>79.6</ele><time>2026-04-06T06:50:05.28Z</time></trkpt><trkpt lat="42.4131059" lon="11.1815697"><ele>75.8</ele><time>2026-04-06T06:50:07.28Z</time></trkpt><trkpt lat="42.4130553" lon="11.1815163"><ele>72.0</ele><time>2026-04-06T06:50:08.28Z</time></trkpt><trkpt lat="42.4129957" lon="11.1814769"><ele>75.0</ele><time>2026-04-06T06:50:09.279Z</time></trkpt><trkpt lat="42.412893" lon="11.1813959"><ele>78.0</ele><time>2026-04-06T06:50:11.28Z</time></trkpt><trkpt lat="42.4127983" lon="11.1812961"><ele>81.0</ele><time>2026-04-06T06:50:13.279Z</time></trkpt><trkpt lat="42.4127017" lon="11.1811958"><ele>84.0</ele><time>2026-04-06T06:50:15.28Z</time></trkpt><trkpt lat="42.412627" lon="11.1810707"><ele>84.0</ele><time>2026-04-06T06:50:17.279Z</time></trkpt><trkpt lat="42.4125747" lon="11.1809279"><ele>84.0</ele><time>2026-04-06T06:50:19.28Z</time></trkpt><trkpt lat="42.4125617" lon="11.1808321"><ele>84.0</ele><time>2026-04-06T06:50:20.28Z</time></trkpt><trkpt lat="42.4125364" lon="11.180741"><ele>84.0</ele><time>2026-04-06T06:50:21.28Z</time></trkpt><trkpt lat="42.4125155" lon="11.1806421"><ele>84.0</ele><time>2026-04-06T06:50:22.28Z</time></trkpt><trkpt lat="42.4124898" lon="11.1805486"><ele>84.0</ele><time>2026-04-06T06:50:23.28Z</time></trkpt><trkpt lat="42.4124614" lon="11.1804559"><ele>83.83333333333333</ele><time>2026-04-06T06:50:24.28Z</time></trkpt><trkpt lat="42.4124382" lon="11.1803624"><ele>83.66666666666667</ele><time>2026-04-06T06:50:25.28Z</time></trkpt><trkpt lat="42.4124143" lon="11.1802673"><ele>83.5</ele><time>2026-04-06T06:50:26.279Z</time></trkpt><trkpt lat="42.4123959" lon="11.1801813"><ele>83.33333333333334</ele><time>2026-04-06T06:50:27.28Z</time></trkpt><trkpt lat="42.4123934" lon="11.1800941"><ele>83.16666666666667</ele><time>2026-04-06T06:50:28.28Z</time></trkpt><trkpt lat="42.4124209" lon="11.1799442"><ele>83.0</ele><time>2026-04-06T06:50:30.279Z</time></trkpt><trkpt lat="42.4124527" lon="11.1798473"><ele>83.0</ele><time>2026-04-06T06:50:32.28Z</time></trkpt><trkpt lat="42.4124597" lon="11.1797525"><ele>83.0</ele><time>2026-04-06T06:50:41.279Z</time></trkpt><trkpt lat="42.4123946" lon="11.179771"><ele>83.0</ele><time>2026-04-06T06:53:20.28Z</time></trkpt><trkpt lat="42.4123276" lon="11.1797971"><ele>83.0</ele><time>2026-04-06T06:53:22.279Z</time></trkpt><trkpt lat="42.4122489" lon="11.1798658"><ele>83.0</ele><time>2026-04-06T06:53:24.279Z</time></trkpt><trkpt lat="42.4121782" lon="11.1799571"><ele>83.0</ele><time>2026-04-06T06:53:26.28Z</time></trkpt><trkpt lat="42.4121226" lon="11.180058"><ele>85.83333333333334</ele><time>2026-04-06T06:53:28.28Z</time></trkpt><trkpt lat="42.4121033" lon="11.1801543"><ele>88.66666666666667</ele><time>2026-04-06T06:53:30.28Z</time></trkpt><trkpt lat="42.4120911" lon="11.1802653"><ele>91.5</ele><time>2026-04-06T06:53:32.279Z</time></trkpt><trkpt lat="42.4120823" lon="11.1803765"><ele>94.33333333333334</ele><time>2026-04-06T06:53:34.28Z</time></trkpt><trkpt lat="42.4120661" lon="11.1804817"><ele>97.16666666666667</ele><time>2026-04-06T06:53:37.28Z</time></trkpt><trkpt lat="42.4120513" lon="11.1806159"><ele>100.0</ele><time>2026-04-06T06:53:48.279Z</time></trkpt><trkpt lat="42.4120745" lon="11.1807714"><ele>100.83333333333334</ele><time>2026-04-06T06:53:50.279Z</time></trkpt><trkpt lat="42.4120944" lon="11.1808523"><ele>101.66666666666667</ele><time>2026-04-06T06:53:51.279Z</time></trkpt><trkpt lat="42.4121151" lon="11.1809382"><ele>102.5</ele><time>2026-04-06T06:53:52.28Z</time></trkpt><trkpt lat="42.4121313" lon="11.1810248"><ele>103.33333333333334</ele><time>2026-04-06T06:53:53.279Z</time></trkpt><trkpt lat="42.4121424" lon="11.1811892"><ele>104.16666666666667</ele><time>2026-04-06T06:53:55.279Z</time></trkpt><trkpt lat="42.4121403" lon="11.1813444"><ele>105.0</ele><time>2026-04-06T06:53:57.279Z</time></trkpt><trkpt lat="42.4121473" lon="11.1814316"><ele>106.2</ele><time>2026-04-06T06:53:58.28Z</time></trkpt><trkpt lat="42.4121837" lon="11.1815827"><ele>107.4</ele><time>2026-04-06T06:54:00.279Z</time></trkpt><trkpt lat="42.41219" lon="11.1817159"><ele>108.6</ele><time>2026-04-06T06:54:02.279Z</time></trkpt><trkpt lat="42.4121736" lon="11.1818363"><ele>109.8</ele><time>2026-04-06T06:54:04.28Z</time></trkpt><trkpt lat="42.4121605" lon="11.1819536"><ele>111.0</ele><time>2026-04-06T06:54:06.279Z</time></trkpt><trkpt lat="42.4121493" lon="11.1820802"><ele>111.0</ele><time>2026-04-06T06:54:08.28Z</time></trkpt><trkpt lat="42.4121344" lon="11.1821782"><ele>111.0</ele><time>2026-04-06T06:54:10.28Z</time></trkpt><trkpt lat="42.4121096" lon="11.1823196"><ele>111.0</ele><time>2026-04-06T06:54:12.279Z</time></trkpt><trkpt lat="42.412074" lon="11.1824842"><ele>111.0</ele><time>2026-04-06T06:54:14.279Z</time></trkpt><trkpt lat="42.4120504" lon="11.1825682"><ele>111.0</ele><time>2026-04-06T06:54:15.279Z</time></trkpt><trkpt lat="42.4119966" lon="11.1826995"><ele>111.16666666666667</ele><time>2026-04-06T06:54:17.28Z</time></trkpt><trkpt lat="42.4119437" lon="11.1827841"><ele>111.33333333333334</ele><time>2026-04-06T06:54:19.28Z</time></trkpt><trkpt lat="42.4118967" lon="11.1828631"><ele>111.5</ele><time>2026-04-06T06:54:21.28Z</time></trkpt><trkpt lat="42.4118426" lon="11.1829512"><ele>111.66666666666667</ele><time>2026-04-06T06:54:23.28Z</time></trkpt><trkpt lat="42.4117949" lon="11.1830568"><ele>111.83333333333334</ele><time>2026-04-06T06:54:25.28Z</time></trkpt><trkpt lat="42.4117547" lon="11.1831664"><ele>112.0</ele><time>2026-04-06T06:54:27.28Z</time></trkpt><trkpt lat="42.4117157" lon="11.1832776"><ele>111.50000000000001</ele><time>2026-04-06T06:54:29.279Z</time></trkpt><trkpt lat="42.4116695" lon="11.1834073"><ele>111.0</ele><time>2026-04-06T06:54:31.28Z</time></trkpt><trkpt lat="42.4116193" lon="11.1835644"><ele>110.5</ele><time>2026-04-06T06:54:33.28Z</time></trkpt><trkpt lat="42.4115916" lon="11.1836432"><ele>110.0</ele><time>2026-04-06T06:54:34.279Z</time></trkpt><trkpt lat="42.4115695" lon="11.1837372"><ele>109.50000000000001</ele><time>2026-04-06T06:54:35.28Z</time></trkpt><trkpt lat="42.4115529" lon="11.1838297"><ele>109.0</ele><time>2026-04-06T06:54:36.28Z</time></trkpt><trkpt lat="42.4115395" lon="11.1839328"><ele>108.83333333333334</ele><time>2026-04-06T06:54:37.28Z</time></trkpt><trkpt lat="42.4115344" lon="11.1840411"><ele>108.66666666666667</ele><time>2026-04-06T06:54:38.28Z</time></trkpt><trkpt lat="42.4115348" lon="11.1841597"><ele>108.5</ele><time>2026-04-06T06:54:39.28Z</time></trkpt><trkpt lat="42.4115355" lon="11.1842742"><ele>108.33333333333334</ele><time>2026-04-06T06:54:40.279Z</time></trkpt><trkpt lat="42.4115351" lon="11.1843873"><ele>108.16666666666667</ele><time>2026-04-06T06:54:41.28Z</time></trkpt><trkpt lat="42.4115345" lon="11.1844869"><ele>108.0</ele><time>2026-04-06T06:54:42.279Z</time></trkpt><trkpt lat="42.4115325" lon="11.1845967"><ele>108.0</ele><time>2026-04-06T06:54:43.28Z</time></trkpt><trkpt lat="42.4115278" lon="11.1846916"><ele>108.0</ele><time>2026-04-06T06:54:44.28Z</time></trkpt><trkpt lat="42.4115179" lon="11.1847768"><ele>108.0</ele><time>2026-04-06T06:54:45.28Z</time></trkpt><trkpt lat="42.4115019" lon="11.1848674"><ele>108.0</ele><time>2026-04-06T06:54:46.28Z</time></trkpt><trkpt lat="42.4114806" lon="11.1849536"><ele>108.0</ele><time>2026-04-06T06:54:47.28Z</time></trkpt><trkpt lat="42.4114251" lon="11.1851028"><ele>108.0</ele><time>2026-04-06T06:54:49.28Z</time></trkpt><trkpt lat="42.4113506" lon="11.1852177"><ele>113.0</ele><time>2026-04-06T06:54:51.28Z</time></trkpt><trkpt lat="42.41128" lon="11.1853482"><ele>118.00000000000001</ele><time>2026-04-06T06:54:53.279Z</time></trkpt><trkpt lat="42.411229" lon="11.1854802"><ele>123.00000000000001</ele><time>2026-04-06T06:54:55.279Z</time></trkpt><trkpt lat="42.4111641" lon="11.1855855"><ele>128.0</ele><time>2026-04-06T06:54:57.279Z</time></trkpt><trkpt lat="42.4110907" lon="11.1856592"><ele>133.0</ele><time>2026-04-06T06:54:59.279Z</time></trkpt><trkpt lat="42.4110225" lon="11.185705"><ele>133.0</ele><time>2026-04-06T06:55:01.28Z</time></trkpt><trkpt lat="42.4109433" lon="11.1857438"><ele>133.0</ele><time>2026-04-06T06:55:03.28Z</time></trkpt><trkpt lat="42.4108343" lon="11.185804"><ele>133.0</ele><time>2026-04-06T06:55:05.28Z</time></trkpt><trkpt lat="42.4107259" lon="11.1858812"><ele>133.0</ele><time>2026-04-06T06:55:07.28Z</time></trkpt><trkpt lat="42.4106728" lon="11.1859305"><ele>133.0</ele><time>2026-04-06T06:55:08.28Z</time></trkpt><trkpt lat="42.4105735" lon="11.1860136"><ele>133.0</ele><time>2026-04-06T06:55:10.28Z</time></trkpt><trkpt lat="42.4104965" lon="11.1860912"><ele>133.0</ele><time>2026-04-06T06:55:12.28Z</time></trkpt><trkpt lat="42.410434" lon="11.1861125"><ele>133.0</ele><time>2026-04-06T06:55:14.28Z</time></trkpt><trkpt lat="42.4103515" lon="11.1860535"><ele>133.0</ele><time>2026-04-06T06:55:16.28Z</time></trkpt><trkpt lat="42.4102792" lon="11.1859446"><ele>133.0</ele><time>2026-04-06T06:55:18.279Z</time></trkpt><trkpt lat="42.4101956" lon="11.1858169"><ele>132.83333333333334</ele><time>2026-04-06T06:55:20.28Z</time></trkpt><trkpt lat="42.4101515" lon="11.1857484"><ele>132.66666666666669</ele><time>2026-04-06T06:55:21.28Z</time></trkpt><trkpt lat="42.4100674" lon="11.1856136"><ele>132.5</ele><time>2026-04-06T06:55:23.28Z</time></trkpt><trkpt lat="42.4100181" lon="11.1855353"><ele>132.33333333333334</ele><time>2026-04-06T06:55:24.279Z</time></trkpt><trkpt lat="42.4099637" lon="11.1854533"><ele>132.16666666666666</ele><time>2026-04-06T06:55:25.28Z</time></trkpt><trkpt lat="42.4099081" lon="11.185373"><ele>132.0</ele><time>2026-04-06T06:55:26.279Z</time></trkpt><trkpt lat="42.4098662" lon="11.185283"><ele>134.16666666666666</ele><time>2026-04-06T06:55:27.28Z</time></trkpt><trkpt lat="42.4098144" lon="11.1852056"><ele>136.33333333333334</ele><time>2026-04-06T06:55:28.28Z</time></trkpt><trkpt lat="42.4097639" lon="11.1850537"><ele>138.5</ele><time>2026-04-06T06:55:30.28Z</time></trkpt><trkpt lat="42.4097504" lon="11.1849666"><ele>140.66666666666669</ele><time>2026-04-06T06:55:31.28Z</time></trkpt><trkpt lat="42.4097484" lon="11.1848688"><ele>142.83333333333334</ele><time>2026-04-06T06:55:32.28Z</time></trkpt><trkpt lat="42.4097587" lon="11.1847695"><ele>145.0</ele><time>2026-04-06T06:55:33.279Z</time></trkpt><trkpt lat="42.4097661" lon="11.1846734"><ele>146.0</ele><time>2026-04-06T06:55:34.28Z</time></trkpt><trkpt lat="42.4097881" lon="11.184507"><ele>147.0</ele><time>2026-04-06T06:55:36.28Z</time></trkpt><trkpt lat="42.4097974" lon="11.1844032"><ele>148.0</ele><time>2026-04-06T06:55:37.28Z</time></trkpt><trkpt lat="42.4098078" lon="11.1842901"><ele>149.0</ele><time>2026-04-06T06:55:38.279Z</time></trkpt><trkpt lat="42.4098179" lon="11.1841649"><ele>150.0</ele><time>2026-04-06T06:55:39.279Z</time></trkpt><trkpt lat="42.4098269" lon="11.1840391"><ele>150.83333333333334</ele><time>2026-04-06T06:55:40.279Z</time></trkpt><trkpt lat="42.4098409" lon="11.1839173"><ele>151.66666666666666</ele><time>2026-04-06T06:55:41.279Z</time></trkpt><trkpt lat="42.4098597" lon="11.1837973"><ele>152.5</ele><time>2026-04-06T06:55:42.28Z</time></trkpt><trkpt lat="42.4098725" lon="11.1836875"><ele>153.33333333333331</ele><time>2026-04-06T06:55:43.28Z</time></trkpt><trkpt lat="42.4098821" lon="11.1835963"><ele>154.16666666666666</ele><time>2026-04-06T06:55:44.28Z</time></trkpt><trkpt lat="42.409884" lon="11.1834674"><ele>155.0</ele><time>2026-04-06T06:55:46.28Z</time></trkpt><trkpt lat="42.4098207" lon="11.1833979"><ele>155.0</ele><time>2026-04-06T06:55:48.28Z</time></trkpt><trkpt lat="42.409755" lon="11.1834032"><ele>155.0</ele><time>2026-04-06T06:55:49.28Z</time></trkpt><trkpt lat="42.4096906" lon="11.1834149"><ele>155.0</ele><time>2026-04-06T06:55:50.28Z</time></trkpt><trkpt lat="42.4096219" lon="11.1834244"><ele>155.0</ele><time>2026-04-06T06:55:51.279Z</time></trkpt><trkpt lat="42.4095415" lon="11.1834328"><ele>155.0</ele><time>2026-04-06T06:55:52.279Z</time></trkpt><trkpt lat="42.4094584" lon="11.1834402"><ele>155.0</ele><time>2026-04-06T06:55:53.279Z</time></trkpt><trkpt lat="42.4093833" lon="11.183437"><ele>155.0</ele><time>2026-04-06T06:55:54.279Z</time></trkpt><trkpt lat="42.4092679" lon="11.1833984"><ele>156.16666666666666</ele><time>2026-04-06T06:55:56.28Z</time></trkpt><trkpt lat="42.4092116" lon="11.1833555"><ele>157.33333333333331</ele><time>2026-04-06T06:55:57.279Z</time></trkpt><trkpt lat="42.4091536" lon="11.1833149"><ele>158.5</ele><time>2026-04-06T06:55:58.279Z</time></trkpt><trkpt lat="42.4090675" lon="11.1832257"><ele>159.66666666666666</ele><time>2026-04-06T06:56:00.28Z</time></trkpt><trkpt lat="42.4090097" lon="11.1831526"><ele>160.83333333333334</ele><time>2026-04-06T06:56:02.279Z</time></trkpt><trkpt lat="42.4089615" lon="11.1830739"><ele>162.0</ele><time>2026-04-06T06:56:04.28Z</time></trkpt><trkpt lat="42.4089439" lon="11.1829736"><ele>162.33333333333334</ele><time>2026-04-06T06:56:06.28Z</time></trkpt><trkpt lat="42.4089531" lon="11.1828608"><ele>162.66666666666666</ele><time>2026-04-06T06:56:08.28Z</time></trkpt><trkpt lat="42.4089519" lon="11.1827642"><ele>163.0</ele><time>2026-04-06T06:56:10.28Z</time></trkpt><trkpt lat="42.4089077" lon="11.1826805"><ele>163.33333333333331</ele><time>2026-04-06T06:56:12.28Z</time></trkpt><trkpt lat="42.4088245" lon="11.1825714"><ele>163.66666666666666</ele><time>2026-04-06T06:56:14.28Z</time></trkpt><trkpt lat="42.4087699" lon="11.1825141"><ele>164.0</ele><time>2026-04-06T06:56:15.28Z</time></trkpt><trkpt lat="42.408671" lon="11.1824119"><ele>167.66666666666666</ele><time>2026-04-06T06:56:17.279Z</time></trkpt><trkpt lat="42.4086279" lon="11.1823439"><ele>171.33333333333331</ele><time>2026-04-06T06:56:18.28Z</time></trkpt><trkpt lat="42.4085431" lon="11.1822271"><ele>175.0</ele><time>2026-04-06T06:56:20.28Z</time></trkpt><trkpt lat="42.408474" lon="11.1821438"><ele>178.66666666666666</ele><time>2026-04-06T06:56:22.28Z</time></trkpt><trkpt lat="42.4084035" lon="11.1821358"><ele>182.33333333333334</ele><time>2026-04-06T06:56:50.28Z</time></trkpt><trkpt lat="42.4084394" lon="11.1820609"><ele>186.0</ele><time>2026-04-06T06:57:28.28Z</time></trkpt><trkpt lat="42.4085027" lon="11.1819771"><ele>186.00000000000003</ele><time>2026-04-06T06:57:31.28Z</time></trkpt><trkpt lat="42.4085464" lon="11.1819016"><ele>186.0</ele><time>2026-04-06T06:57:34.28Z</time></trkpt><trkpt lat="42.4085922" lon="11.1818378"><ele>186.0</ele><time>2026-04-06T06:57:36.28Z</time></trkpt><trkpt lat="42.4086349" lon="11.181768"><ele>186.0</ele><time>2026-04-06T06:57:38.279Z</time></trkpt><trkpt lat="42.4086729" lon="11.1816937"><ele>186.0</ele><time>2026-04-06T06:57:40.279Z</time></trkpt><trkpt lat="42.4087069" lon="11.1815814"><ele>186.00000000000003</ele><time>2026-04-06T06:57:43.279Z</time></trkpt><trkpt lat="42.4087304" lon="11.1814817"><ele>186.0</ele><time>2026-04-06T06:57:46.279Z</time></trkpt><trkpt lat="42.4087405" lon="11.1813666"><ele>186.42857142857144</ele><time>2026-04-06T06:57:49.28Z</time></trkpt><trkpt lat="42.4087319" lon="11.1812748"><ele>186.85714285714286</ele><time>2026-04-06T06:57:51.28Z</time></trkpt><trkpt lat="42.4087161" lon="11.1811913"><ele>187.28571428571428</ele><time>2026-04-06T06:57:53.28Z</time></trkpt><trkpt lat="42.4086835" lon="11.1811067"><ele>187.71428571428572</ele><time>2026-04-06T06:57:55.28Z</time></trkpt><trkpt lat="42.4086417" lon="11.1810133"><ele>188.14285714285714</ele><time>2026-04-06T06:57:58.279Z</time></trkpt><trkpt lat="42.4085919" lon="11.1809238"><ele>188.57142857142858</ele><time>2026-04-06T06:58:12.28Z</time></trkpt><trkpt lat="42.4085642" lon="11.180823"><ele>189.0</ele><time>2026-04-06T06:58:14.28Z</time></trkpt><trkpt lat="42.4085426" lon="11.1807205"><ele>189.2</ele><time>2026-04-06T06:58:16.28Z</time></trkpt><trkpt lat="42.4085301" lon="11.1806306"><ele>189.39999999999998</ele><time>2026-04-06T06:58:18.279Z</time></trkpt><trkpt lat="42.4084869" lon="11.1805434"><ele>189.6</ele><time>2026-04-06T06:58:20.28Z</time></trkpt><trkpt lat="42.4084272" lon="11.1804555"><ele>189.8</ele><time>2026-04-06T06:58:22.28Z</time></trkpt><trkpt lat="42.4083518" lon="11.1803516"><ele>190.0</ele><time>2026-04-06T06:58:24.279Z</time></trkpt><trkpt lat="42.4082725" lon="11.1802372"><ele>190.0</ele><time>2026-04-06T06:58:26.28Z</time></trkpt><trkpt lat="42.4082137" lon="11.1801488"><ele>190.0</ele><time>2026-04-06T06:58:28.279Z</time></trkpt><trkpt lat="42.4081689" lon="11.1800839"><ele>190.0</ele><time>2026-04-06T06:58:31.28Z</time></trkpt><trkpt lat="42.4082555" lon="11.180131"><ele>190.0</ele><time>2026-04-06T07:04:32.277Z</time></trkpt><trkpt lat="42.40832" lon="11.1802177"><ele>190.0</ele><time>2026-04-06T07:04:35.278Z</time></trkpt><trkpt lat="42.4083699" lon="11.1802799"><ele>190.0</ele><time>2026-04-06T07:04:37.278Z</time></trkpt><trkpt lat="42.4084179" lon="11.1803413"><ele>190.0</ele><time>2026-04-06T07:04:39.278Z</time></trkpt><trkpt lat="42.4084698" lon="11.1804218"><ele>190.0</ele><time>2026-04-06T07:04:41.277Z</time></trkpt><trkpt lat="42.4085223" lon="11.1804955"><ele>190.0</ele><time>2026-04-06T07:04:43.278Z</time></trkpt><trkpt lat="42.408569" lon="11.1805703"><ele>190.0</ele><time>2026-04-06T07:04:45.278Z</time></trkpt><trkpt lat="42.4085962" lon="11.1806641"><ele>190.0</ele><time>2026-04-06T07:04:47.278Z</time></trkpt><trkpt lat="42.4086071" lon="11.1807826"><ele>190.0</ele><time>2026-04-06T07:04:49.278Z</time></trkpt><trkpt lat="42.4086256" lon="11.1808743"><ele>189.83333333333334</ele><time>2026-04-06T07:04:51.277Z</time></trkpt><trkpt lat="42.4086579" lon="11.1809718"><ele>189.66666666666669</ele><time>2026-04-06T07:04:53.278Z</time></trkpt><trkpt lat="42.408707" lon="11.181063"><ele>189.5</ele><time>2026-04-06T07:04:55.278Z</time></trkpt><trkpt lat="42.408746" lon="11.1811663"><ele>189.33333333333334</ele><time>2026-04-06T07:04:57.277Z</time></trkpt><trkpt lat="42.4087677" lon="11.1812796"><ele>189.16666666666666</ele><time>2026-04-06T07:04:59.278Z</time></trkpt><trkpt lat="42.4087734" lon="11.1813858"><ele>189.0</ele><time>2026-04-06T07:05:01.278Z</time></trkpt><trkpt lat="42.4087536" lon="11.1814949"><ele>188.5</ele><time>2026-04-06T07:05:03.277Z</time></trkpt><trkpt lat="42.4087225" lon="11.1816093"><ele>188.0</ele><time>2026-04-06T07:05:05.278Z</time></trkpt><trkpt lat="42.4086756" lon="11.1817048"><ele>187.5</ele><time>2026-04-06T07:05:07.278Z</time></trkpt><trkpt lat="42.4086291" lon="11.1817843"><ele>187.0</ele><time>2026-04-06T07:05:09.278Z</time></trkpt><trkpt lat="42.408579" lon="11.1818466"><ele>186.5</ele><time>2026-04-06T07:05:11.278Z</time></trkpt><trkpt lat="42.4085219" lon="11.1819407"><ele>186.0</ele><time>2026-04-06T07:05:14.278Z</time></trkpt><trkpt lat="42.4084825" lon="11.182011"><ele>186.0</ele><time>2026-04-06T07:05:16.278Z</time></trkpt><trkpt lat="42.4084749" lon="11.1820957"><ele>186.0</ele><time>2026-04-06T07:05:18.278Z</time></trkpt><trkpt lat="42.408508" lon="11.1821891"><ele>186.0</ele><time>2026-04-06T07:05:20.278Z</time></trkpt><trkpt lat="42.408569" lon="11.1822317"><ele>186.0</ele><time>2026-04-06T07:05:21.278Z</time></trkpt><trkpt lat="42.4086555" lon="11.182338"><ele>186.0</ele><time>2026-04-06T07:05:23.278Z</time></trkpt><trkpt lat="42.4087443" lon="11.1824633"><ele>184.66666666666666</ele><time>2026-04-06T07:05:25.278Z</time></trkpt><trkpt lat="42.4087953" lon="11.1825239"><ele>183.33333333333334</ele><time>2026-04-06T07:05:26.277Z</time></trkpt><trkpt lat="42.4088673" lon="11.1826199"><ele>182.0</ele><time>2026-04-06T07:05:28.278Z</time></trkpt><trkpt lat="42.408914" lon="11.1827012"><ele>180.66666666666669</ele><time>2026-04-06T07:05:30.278Z</time></trkpt><trkpt lat="42.4089443" lon="11.1827847"><ele>179.33333333333334</ele><time>2026-04-06T07:05:32.278Z</time></trkpt><trkpt lat="42.4089375" lon="11.1828721"><ele>178.0</ele><time>2026-04-06T07:05:34.278Z</time></trkpt><trkpt lat="42.4089248" lon="11.1829722"><ele>175.2</ele><time>2026-04-06T07:05:36.278Z</time></trkpt><trkpt lat="42.4089309" lon="11.1830733"><ele>172.4</ele><time>2026-04-06T07:05:38.277Z</time></trkpt><trkpt lat="42.4090179" lon="11.1831707"><ele>169.6</ele><time>2026-04-06T07:05:40.278Z</time></trkpt><trkpt lat="42.4090958" lon="11.1832589"><ele>166.79999999999998</ele><time>2026-04-06T07:05:42.278Z</time></trkpt><trkpt lat="42.4091769" lon="11.1833459"><ele>164.0</ele><time>2026-04-06T07:05:44.277Z</time></trkpt><trkpt lat="42.4092315" lon="11.1833964"><ele>163.66666666666666</ele><time>2026-04-06T07:05:45.277Z</time></trkpt><trkpt lat="42.4092886" lon="11.1834336"><ele>163.33333333333331</ele><time>2026-04-06T07:05:46.277Z</time></trkpt><trkpt lat="42.4093537" lon="11.1834525"><ele>163.0</ele><time>2026-04-06T07:05:47.278Z</time></trkpt><trkpt lat="42.4094283" lon="11.1834535"><ele>162.66666666666666</ele><time>2026-04-06T07:05:48.278Z</time></trkpt><trkpt lat="42.4095184" lon="11.1834465"><ele>162.33333333333334</ele><time>2026-04-06T07:05:49.278Z</time></trkpt><trkpt lat="42.4096014" lon="11.1834349"><ele>162.0</ele><time>2026-04-06T07:05:50.278Z</time></trkpt><trkpt lat="42.4096726" lon="11.183416"><ele>160.83333333333334</ele><time>2026-04-06T07:05:51.277Z</time></trkpt><trkpt lat="42.4097389" lon="11.1833966"><ele>159.66666666666666</ele><time>2026-04-06T07:05:52.278Z</time></trkpt><trkpt lat="42.4098477" lon="11.1834036"><ele>158.5</ele><time>2026-04-06T07:05:54.277Z</time></trkpt><trkpt lat="42.4099053" lon="11.1835003"><ele>157.33333333333331</ele><time>2026-04-06T07:05:56.278Z</time></trkpt><trkpt lat="42.4098741" lon="11.1835771"><ele>156.16666666666666</ele><time>2026-04-06T07:05:57.278Z</time></trkpt><trkpt lat="42.409856" lon="11.1836796"><ele>155.0</ele><time>2026-04-06T07:05:58.278Z</time></trkpt><trkpt lat="42.4098432" lon="11.183808"><ele>155.0</ele><time>2026-04-06T07:05:59.278Z</time></trkpt><trkpt lat="42.4098386" lon="11.1839381"><ele>155.0</ele><time>2026-04-06T07:06:00.278Z</time></trkpt><trkpt lat="42.4098273" lon="11.1840716"><ele>155.0</ele><time>2026-04-06T07:06:01.277Z</time></trkpt><trkpt lat="42.4098152" lon="11.1842177"><ele>155.0</ele><time>2026-04-06T07:06:02.278Z</time></trkpt><trkpt lat="42.4098099" lon="11.1843692"><ele>155.0</ele><time>2026-04-06T07:06:03.278Z</time></trkpt><trkpt lat="42.4097973" lon="11.1845081"><ele>154.0</ele><time>2026-04-06T07:06:04.277Z</time></trkpt><trkpt lat="42.4097769" lon="11.1846246"><ele>153.0</ele><time>2026-04-06T07:06:05.277Z</time></trkpt><trkpt lat="42.4097631" lon="11.1847203"><ele>152.0</ele><time>2026-04-06T07:06:06.278Z</time></trkpt><trkpt lat="42.4097498" lon="11.1848509"><ele>151.0</ele><time>2026-04-06T07:06:08.278Z</time></trkpt><trkpt lat="42.4097496" lon="11.1849893"><ele>150.0</ele><time>2026-04-06T07:06:10.277Z</time></trkpt><trkpt lat="42.4098027" lon="11.1851349"><ele>149.0</ele><time>2026-04-06T07:06:12.278Z</time></trkpt><trkpt lat="42.4098342" lon="11.1852106"><ele>148.0</ele><time>2026-04-06T07:06:13.278Z</time></trkpt><trkpt lat="42.4098782" lon="11.1853107"><ele>147.0</ele><time>2026-04-06T07:06:14.277Z</time></trkpt><trkpt lat="42.4099694" lon="11.1854495"><ele>146.0</ele><time>2026-04-06T07:06:15.278Z</time></trkpt><trkpt lat="42.4100474" lon="11.1855663"><ele>145.0</ele><time>2026-04-06T07:06:16.278Z</time></trkpt><trkpt lat="42.4101227" lon="11.1856837"><ele>142.83333333333334</ele><time>2026-04-06T07:06:17.278Z</time></trkpt><trkpt lat="42.4101917" lon="11.1857919"><ele>140.66666666666669</ele><time>2026-04-06T07:06:18.277Z</time></trkpt><trkpt lat="42.410245" lon="11.1858842"><ele>138.5</ele><time>2026-04-06T07:06:19.278Z</time></trkpt><trkpt lat="42.4103005" lon="11.1859656"><ele>136.33333333333334</ele><time>2026-04-06T07:06:20.277Z</time></trkpt><trkpt lat="42.4103602" lon="11.1860613"><ele>134.16666666666666</ele><time>2026-04-06T07:06:22.278Z</time></trkpt><trkpt lat="42.4104011" lon="11.1861516"><ele>132.0</ele><time>2026-04-06T07:06:27.278Z</time></trkpt><trkpt lat="42.4104721" lon="11.1862086"><ele>132.16666666666666</ele><time>2026-04-06T07:06:31.278Z</time></trkpt><trkpt lat="42.4105487" lon="11.1862785"><ele>132.33333333333334</ele><time>2026-04-06T07:06:34.278Z</time></trkpt><trkpt lat="42.4106155" lon="11.1862939"><ele>132.5</ele><time>2026-04-06T07:06:36.278Z</time></trkpt><trkpt lat="42.4107159" lon="11.186267"><ele>132.66666666666669</ele><time>2026-04-06T07:06:38.277Z</time></trkpt><trkpt lat="42.4107938" lon="11.1862813"><ele>132.83333333333334</ele><time>2026-04-06T07:06:40.278Z</time></trkpt><trkpt lat="42.4108816" lon="11.1862962"><ele>133.0</ele><time>2026-04-06T07:06:42.278Z</time></trkpt><trkpt lat="42.4109776" lon="11.1863016"><ele>133.0</ele><time>2026-04-06T07:06:44.277Z</time></trkpt><trkpt lat="42.4110808" lon="11.1862995"><ele>133.0</ele><time>2026-04-06T07:06:46.278Z</time></trkpt><trkpt lat="42.4111613" lon="11.1862917"><ele>133.0</ele><time>2026-04-06T07:06:48.277Z</time></trkpt><trkpt lat="42.4112314" lon="11.1862866"><ele>133.0</ele><time>2026-04-06T07:06:51.278Z</time></trkpt><trkpt lat="42.4111495" lon="11.1862829"><ele>133.0</ele><time>2026-04-06T07:07:12.278Z</time></trkpt><trkpt lat="42.4110631" lon="11.1862987"><ele>133.0</ele><time>2026-04-06T07:07:14.277Z</time></trkpt><trkpt lat="42.4109586" lon="11.1863018"><ele>133.0</ele><time>2026-04-06T07:07:16.277Z</time></trkpt><trkpt lat="42.4108661" lon="11.1862939"><ele>133.0</ele><time>2026-04-06T07:07:18.278Z</time></trkpt><trkpt lat="42.4107809" lon="11.186287"><ele>133.0</ele><time>2026-04-06T07:07:20.277Z</time></trkpt><trkpt lat="42.4107054" lon="11.1862855"><ele>133.0</ele><time>2026-04-06T07:07:22.278Z</time></trkpt><trkpt lat="42.4106423" lon="11.1862869"><ele>133.0</ele><time>2026-04-06T07:07:24.278Z</time></trkpt><trkpt lat="42.4105561" lon="11.1862891"><ele>133.0</ele><time>2026-04-06T07:07:27.278Z</time></trkpt><trkpt lat="42.410477" lon="11.1862348"><ele>133.0</ele><time>2026-04-06T07:07:30.277Z</time></trkpt><trkpt lat="42.4104498" lon="11.1861534"><ele>133.0</ele><time>2026-04-06T07:07:33.277Z</time></trkpt><trkpt lat="42.4105218" lon="11.1860836"><ele>133.0</ele><time>2026-04-06T07:07:36.278Z</time></trkpt><trkpt lat="42.4105952" lon="11.1860372"><ele>133.0</ele><time>2026-04-06T07:07:38.277Z</time></trkpt><trkpt lat="42.4106703" lon="11.1859611"><ele>133.0</ele><time>2026-04-06T07:07:40.278Z</time></trkpt><trkpt lat="42.4107557" lon="11.1858811"><ele>133.0</ele><time>2026-04-06T07:07:42.278Z</time></trkpt><trkpt lat="42.4108589" lon="11.1858139"><ele>133.0</ele><time>2026-04-06T07:07:44.278Z</time></trkpt><trkpt lat="42.4109598" lon="11.1857599"><ele>133.0</ele><time>2026-04-06T07:07:46.277Z</time></trkpt><trkpt lat="42.4110524" lon="11.1856983"><ele>133.0</ele><time>2026-04-06T07:07:48.278Z</time></trkpt><trkpt lat="42.4111228" lon="11.1856401"><ele>133.0</ele><time>2026-04-06T07:07:50.278Z</time></trkpt><trkpt lat="42.4111975" lon="11.185581"><ele>133.0</ele><time>2026-04-06T07:07:52.278Z</time></trkpt><trkpt lat="42.4112563" lon="11.1854814"><ele>133.8</ele><time>2026-04-06T07:07:54.278Z</time></trkpt><trkpt lat="42.411309" lon="11.1853586"><ele>134.60000000000002</ele><time>2026-04-06T07:07:56.278Z</time></trkpt><trkpt lat="42.4113755" lon="11.1852461"><ele>135.39999999999998</ele><time>2026-04-06T07:07:58.278Z</time></trkpt><trkpt lat="42.4114366" lon="11.1851344"><ele>136.2</ele><time>2026-04-06T07:08:00.278Z</time></trkpt><trkpt lat="42.4114849" lon="11.1850447"><ele>137.0</ele><time>2026-04-06T07:08:02.278Z</time></trkpt><trkpt lat="42.4115156" lon="11.1849428"><ele>131.2</ele><time>2026-04-06T07:08:04.278Z</time></trkpt><trkpt lat="42.4115402" lon="11.1848162"><ele>125.39999999999999</ele><time>2026-04-06T07:08:06.278Z</time></trkpt><trkpt lat="42.4115504" lon="11.1846768"><ele>119.60000000000001</ele><time>2026-04-06T07:08:08.277Z</time></trkpt><trkpt lat="42.4115478" lon="11.1845238"><ele>113.80000000000001</ele><time>2026-04-06T07:08:10.278Z</time></trkpt><trkpt lat="42.4115503" lon="11.1844352"><ele>108.0</ele><time>2026-04-06T07:08:11.278Z</time></trkpt><trkpt lat="42.4115547" lon="11.1842603"><ele>108.0</ele><time>2026-04-06T07:08:13.278Z</time></trkpt><trkpt lat="42.4115501" lon="11.1841599"><ele>108.0</ele><time>2026-04-06T07:08:14.278Z</time></trkpt><trkpt lat="42.4115545" lon="11.1840617"><ele>108.0</ele><time>2026-04-06T07:08:15.278Z</time></trkpt><trkpt lat="42.4115643" lon="11.1839637"><ele>108.0</ele><time>2026-04-06T07:08:16.277Z</time></trkpt><trkpt lat="42.4115713" lon="11.183867"><ele>108.0</ele><time>2026-04-06T07:08:17.278Z</time></trkpt><trkpt lat="42.4115802" lon="11.1837792"><ele>108.0</ele><time>2026-04-06T07:08:18.277Z</time></trkpt><trkpt lat="42.4116218" lon="11.1836075"><ele>108.14285714285714</ele><time>2026-04-06T07:08:20.278Z</time></trkpt><trkpt lat="42.4116441" lon="11.1835199"><ele>108.28571428571428</ele><time>2026-04-06T07:08:21.278Z</time></trkpt><trkpt lat="42.4116736" lon="11.1834309"><ele>108.42857142857143</ele><time>2026-04-06T07:08:22.278Z</time></trkpt><trkpt lat="42.4117042" lon="11.1833339"><ele>108.57142857142857</ele><time>2026-04-06T07:08:23.278Z</time></trkpt><trkpt lat="42.4117337" lon="11.1832432"><ele>108.71428571428572</ele><time>2026-04-06T07:08:24.278Z</time></trkpt><trkpt lat="42.411768" lon="11.1831489"><ele>108.85714285714286</ele><time>2026-04-06T07:08:25.278Z</time></trkpt><trkpt lat="42.4118011" lon="11.1830639"><ele>109.0</ele><time>2026-04-06T07:08:26.278Z</time></trkpt><trkpt lat="42.411836" lon="11.1829914"><ele>109.6</ele><time>2026-04-06T07:08:27.277Z</time></trkpt><trkpt lat="42.4118961" lon="11.1828847"><ele>110.2</ele><time>2026-04-06T07:08:29.277Z</time></trkpt><trkpt lat="42.4119451" lon="11.1828121"><ele>110.79999999999998</ele><time>2026-04-06T07:08:31.278Z</time></trkpt><trkpt lat="42.4119921" lon="11.1827098"><ele>111.39999999999999</ele><time>2026-04-06T07:08:33.278Z</time></trkpt><trkpt lat="42.4120455" lon="11.1825752"><ele>112.0</ele><time>2026-04-06T07:08:35.278Z</time></trkpt><trkpt lat="42.412087" lon="11.18243"><ele>111.83333333333334</ele><time>2026-04-06T07:08:37.278Z</time></trkpt><trkpt lat="42.4121068" lon="11.1823476"><ele>111.66666666666667</ele><time>2026-04-06T07:08:38.278Z</time></trkpt><trkpt lat="42.4121346" lon="11.1821903"><ele>111.5</ele><time>2026-04-06T07:08:40.278Z</time></trkpt><trkpt lat="42.4121438" lon="11.182105"><ele>111.33333333333334</ele><time>2026-04-06T07:08:41.278Z</time></trkpt><trkpt lat="42.4121515" lon="11.1820121"><ele>111.16666666666667</ele><time>2026-04-06T07:08:42.278Z</time></trkpt><trkpt lat="42.4121598" lon="11.181918"><ele>111.0</ele><time>2026-04-06T07:08:43.278Z</time></trkpt><trkpt lat="42.412186" lon="11.1817573"><ele>109.5</ele><time>2026-04-06T07:08:45.277Z</time></trkpt><trkpt lat="42.4121859" lon="11.1816071"><ele>108.0</ele><time>2026-04-06T07:08:47.278Z</time></trkpt><trkpt lat="42.4121519" lon="11.1814512"><ele>106.5</ele><time>2026-04-06T07:08:49.277Z</time></trkpt><trkpt lat="42.4121426" lon="11.1812965"><ele>105.0</ele><time>2026-04-06T07:08:51.277Z</time></trkpt><trkpt lat="42.412152" lon="11.1811232"><ele>105.0</ele><time>2026-04-06T07:08:53.278Z</time></trkpt><trkpt lat="42.4121394" lon="11.1810298"><ele>105.0</ele><time>2026-04-06T07:08:54.277Z</time></trkpt><trkpt lat="42.4121227" lon="11.1809368"><ele>105.0</ele><time>2026-04-06T07:08:55.278Z</time></trkpt><trkpt lat="42.412111" lon="11.1808474"><ele>105.0</ele><time>2026-04-06T07:08:56.278Z</time></trkpt><trkpt lat="42.4120821" lon="11.180705"><ele>105.0</ele><time>2026-04-06T07:08:58.278Z</time></trkpt><trkpt lat="42.4120702" lon="11.1805799"><ele>105.0</ele><time>2026-04-06T07:09:00.278Z</time></trkpt><trkpt lat="42.4120867" lon="11.1804617"><ele>104.16666666666667</ele><time>2026-04-06T07:09:02.277Z</time></trkpt><trkpt lat="42.4121015" lon="11.1803489"><ele>103.33333333333334</ele><time>2026-04-06T07:09:04.278Z</time></trkpt><trkpt lat="42.4121126" lon="11.1802264"><ele>102.5</ele><time>2026-04-06T07:09:06.278Z</time></trkpt><trkpt lat="42.4121292" lon="11.1801117"><ele>101.66666666666667</ele><time>2026-04-06T07:09:08.278Z</time></trkpt><trkpt lat="42.4121587" lon="11.1800103"><ele>100.83333333333334</ele><time>2026-04-06T07:09:10.277Z</time></trkpt><trkpt lat="42.4122227" lon="11.1799276"><ele>100.0</ele><time>2026-04-06T07:09:12.278Z</time></trkpt><trkpt lat="42.4122819" lon="11.1798733"><ele>96.83333333333334</ele><time>2026-04-06T07:09:14.278Z</time></trkpt><trkpt lat="42.412348" lon="11.1798215"><ele>93.66666666666667</ele><time>2026-04-06T07:09:16.277Z</time></trkpt><trkpt lat="42.4124239" lon="11.1797727"><ele>90.5</ele><time>2026-04-06T07:09:19.278Z</time></trkpt><trkpt lat="42.412497" lon="11.1797214"><ele>87.33333333333334</ele><time>2026-04-06T07:09:23.278Z</time></trkpt><trkpt lat="42.4125145" lon="11.1796161"><ele>84.16666666666667</ele><time>2026-04-06T07:09:26.277Z</time></trkpt><trkpt lat="42.4125007" lon="11.1795239"><ele>81.0</ele><time>2026-04-06T07:09:28.278Z</time></trkpt><trkpt lat="42.4124654" lon="11.1794332"><ele>81.0</ele><time>2026-04-06T07:09:30.278Z</time></trkpt><trkpt lat="42.4124229" lon="11.1793697"><ele>81.0</ele><time>2026-04-06T07:09:32.277Z</time></trkpt><trkpt lat="42.4123641" lon="11.1793186"><ele>81.0</ele><time>2026-04-06T07:09:58.278Z</time></trkpt><trkpt lat="42.4122879" lon="11.1792889"><ele>81.0</ele><time>2026-04-06T07:10:00.277Z</time></trkpt><trkpt lat="42.4122032" lon="11.1792732"><ele>81.0</ele><time>2026-04-06T07:10:02.278Z</time></trkpt><trkpt lat="42.4121113" lon="11.179263"><ele>81.0</ele><time>2026-04-06T07:10:04.278Z</time></trkpt><trkpt lat="42.4120218" lon="11.1792753"><ele>84.5</ele><time>2026-04-06T07:10:06.277Z</time></trkpt><trkpt lat="42.4119303" lon="11.179287"><ele>88.0</ele><time>2026-04-06T07:10:08.278Z</time></trkpt><trkpt lat="42.4118594" lon="11.1792583"><ele>91.5</ele><time>2026-04-06T07:10:12.278Z</time></trkpt><trkpt lat="42.4118255" lon="11.1791822"><ele>95.0</ele><time>2026-04-06T07:10:15.278Z</time></trkpt><trkpt lat="42.411852" lon="11.1790993"><ele>98.5</ele><time>2026-04-06T07:10:17.278Z</time></trkpt><trkpt lat="42.4119055" lon="11.178977"><ele>102.0</ele><time>2026-04-06T07:10:19.278Z</time></trkpt><trkpt lat="42.4119808" lon="11.1788599"><ele>104.0</ele><time>2026-04-06T07:10:21.278Z</time></trkpt><trkpt lat="42.4120305" lon="11.1788018"><ele>106.0</ele><time>2026-04-06T07:10:22.278Z</time></trkpt><trkpt lat="42.4121075" lon="11.1787027"><ele>107.99999999999999</ele><time>2026-04-06T07:10:24.278Z</time></trkpt><trkpt lat="42.4121958" lon="11.1785898"><ele>110.0</ele><time>2026-04-06T07:10:26.278Z</time></trkpt><trkpt lat="42.4122799" lon="11.1784751"><ele>112.0</ele><time>2026-04-06T07:10:28.277Z</time></trkpt><trkpt lat="42.4123508" lon="11.1783675"><ele>110.0</ele><time>2026-04-06T07:10:30.278Z</time></trkpt><trkpt lat="42.4124139" lon="11.1782649"><ele>107.99999999999999</ele><time>2026-04-06T07:10:32.278Z</time></trkpt><trkpt lat="42.4124913" lon="11.1781457"><ele>106.0</ele><time>2026-04-06T07:10:34.278Z</time></trkpt><trkpt lat="42.4125313" lon="11.1780757"><ele>104.0</ele><time>2026-04-06T07:10:35.278Z</time></trkpt><trkpt lat="42.4126208" lon="11.1779516"><ele>102.0</ele><time>2026-04-06T07:10:37.278Z</time></trkpt><trkpt lat="42.4126667" lon="11.1778884"><ele>102.0</ele><time>2026-04-06T07:10:38.277Z</time></trkpt><trkpt lat="42.4127556" lon="11.1777872"><ele>102.0</ele><time>2026-04-06T07:10:40.277Z</time></trkpt><trkpt lat="42.4128641" lon="11.1776935"><ele>102.0</ele><time>2026-04-06T07:10:42.278Z</time></trkpt><trkpt lat="42.4129201" lon="11.1776435"><ele>102.0</ele><time>2026-04-06T07:10:43.278Z</time></trkpt><trkpt lat="42.4129765" lon="11.1776039"><ele>102.0</ele><time>2026-04-06T07:10:44.278Z</time></trkpt><trkpt lat="42.4130507" lon="11.1775231"><ele>98.19999999999999</ele><time>2026-04-06T07:10:46.278Z</time></trkpt><trkpt lat="42.4131097" lon="11.1774394"><ele>94.4</ele><time>2026-04-06T07:10:48.278Z</time></trkpt><trkpt lat="42.4131432" lon="11.1773283"><ele>90.6</ele><time>2026-04-06T07:10:50.278Z</time></trkpt><trkpt lat="42.413145" lon="11.1771992"><ele>86.80000000000001</ele><time>2026-04-06T07:10:52.278Z</time></trkpt><trkpt lat="42.4131034" lon="11.17708"><ele>83.0</ele><time>2026-04-06T07:10:54.278Z</time></trkpt><trkpt lat="42.4130348" lon="11.1769604"><ele>85.0</ele><time>2026-04-06T07:10:56.278Z</time></trkpt><trkpt lat="42.4129498" lon="11.1768606"><ele>87.0</ele><time>2026-04-06T07:10:58.277Z</time></trkpt><trkpt lat="42.412889" lon="11.1768223"><ele>89.0</ele><time>2026-04-06T07:10:59.277Z</time></trkpt><trkpt lat="42.4128246" lon="11.1767808"><ele>91.0</ele><time>2026-04-06T07:11:00.278Z</time></trkpt><trkpt lat="42.4127612" lon="11.17675"><ele>93.0</ele><time>2026-04-06T07:11:01.277Z</time></trkpt><trkpt lat="42.4126955" lon="11.1767186"><ele>95.0</ele><time>2026-04-06T07:11:02.277Z</time></trkpt><trkpt lat="42.4126189" lon="11.1766801"><ele>95.0</ele><time>2026-04-06T07:11:03.277Z</time></trkpt><trkpt lat="42.4125475" lon="11.1766423"><ele>95.0</ele><time>2026-04-06T07:11:04.278Z</time></trkpt><trkpt lat="42.4124773" lon="11.1765995"><ele>95.0</ele><time>2026-04-06T07:11:05.277Z</time></trkpt><trkpt lat="42.4124141" lon="11.1765644"><ele>95.0</ele><time>2026-04-06T07:11:06.278Z</time></trkpt><trkpt lat="42.412326" lon="11.1765128"><ele>95.0</ele><time>2026-04-06T07:11:07.278Z</time></trkpt><trkpt lat="42.4122546" lon="11.1764634"><ele>95.0</ele><time>2026-04-06T07:11:08.278Z</time></trkpt><trkpt lat="42.4121855" lon="11.1764139"><ele>95.33333333333334</ele><time>2026-04-06T07:11:09.278Z</time></trkpt><trkpt lat="42.4121191" lon="11.1763678"><ele>95.66666666666667</ele><time>2026-04-06T07:11:10.278Z</time></trkpt><trkpt lat="42.4120452" lon="11.1763289"><ele>96.0</ele><time>2026-04-06T07:11:11.277Z</time></trkpt><trkpt lat="42.4119685" lon="11.1762871"><ele>96.33333333333334</ele><time>2026-04-06T07:11:12.278Z</time></trkpt><trkpt lat="42.4118955" lon="11.1762424"><ele>96.66666666666667</ele><time>2026-04-06T07:11:13.277Z</time></trkpt><trkpt lat="42.4118224" lon="11.1761965"><ele>97.0</ele><time>2026-04-06T07:11:14.278Z</time></trkpt><trkpt lat="42.4117632" lon="11.1761524"><ele>97.0</ele><time>2026-04-06T07:11:15.277Z</time></trkpt><trkpt lat="42.4117014" lon="11.1761062"><ele>97.0</ele><time>2026-04-06T07:11:16.278Z</time></trkpt><trkpt lat="42.4116033" lon="11.1760834"><ele>97.0</ele><time>2026-04-06T07:11:18.277Z</time></trkpt><trkpt lat="42.4114937" lon="11.1760512"><ele>97.0</ele><time>2026-04-06T07:11:20.278Z</time></trkpt><trkpt lat="42.4113754" lon="11.1760258"><ele>97.0</ele><time>2026-04-06T07:11:22.278Z</time></trkpt><trkpt lat="42.4113134" lon="11.1759941"><ele>99.66666666666667</ele><time>2026-04-06T07:11:23.277Z</time></trkpt><trkpt lat="42.4112527" lon="11.1759652"><ele>102.33333333333334</ele><time>2026-04-06T07:11:24.278Z</time></trkpt><trkpt lat="42.4111443" lon="11.1759229"><ele>105.0</ele><time>2026-04-06T07:11:26.278Z</time></trkpt><trkpt lat="42.4110741" lon="11.1758737"><ele>107.66666666666666</ele><time>2026-04-06T07:11:28.277Z</time></trkpt><trkpt lat="42.4110217" lon="11.1757957"><ele>110.33333333333333</ele><time>2026-04-06T07:11:31.277Z</time></trkpt><trkpt lat="42.4110383" lon="11.175701"><ele>113.0</ele><time>2026-04-06T07:11:34.278Z</time></trkpt><trkpt lat="42.4111107" lon="11.1756215"><ele>114.0</ele><time>2026-04-06T07:11:37.277Z</time></trkpt><trkpt lat="42.4111741" lon="11.1755374"><ele>115.00000000000001</ele><time>2026-04-06T07:11:39.278Z</time></trkpt><trkpt lat="42.4112314" lon="11.1754336"><ele>116.00000000000001</ele><time>2026-04-06T07:11:41.278Z</time></trkpt><trkpt lat="42.4112858" lon="11.1753286"><ele>117.0</ele><time>2026-04-06T07:11:43.277Z</time></trkpt><trkpt lat="42.4113583" lon="11.1752091"><ele>118.0</ele><time>2026-04-06T07:11:45.278Z</time></trkpt><trkpt lat="42.41142" lon="11.1750855"><ele>116.80000000000001</ele><time>2026-04-06T07:11:47.277Z</time></trkpt><trkpt lat="42.4114466" lon="11.1749547"><ele>115.60000000000001</ele><time>2026-04-06T07:11:49.277Z</time></trkpt><trkpt lat="42.4114265" lon="11.1748098"><ele>114.39999999999999</ele><time>2026-04-06T07:11:51.278Z</time></trkpt><trkpt lat="42.4113871" lon="11.1746719"><ele>113.19999999999999</ele><time>2026-04-06T07:11:53.278Z</time></trkpt><trkpt lat="42.4113485" lon="11.174558"><ele>112.0</ele><time>2026-04-06T07:11:55.278Z</time></trkpt><trkpt lat="42.411345" lon="11.1744689"><ele>112.0</ele><time>2026-04-06T07:11:57.278Z</time></trkpt><trkpt lat="42.4114043" lon="11.174404"><ele>111.99999999999999</ele><time>2026-04-06T07:12:00.278Z</time></trkpt><trkpt lat="42.4114729" lon="11.1743985"><ele>111.99999999999999</ele><time>2026-04-06T07:12:03.277Z</time></trkpt><trkpt lat="42.4115645" lon="11.1743468"><ele>112.0</ele><time>2026-04-06T07:12:06.278Z</time></trkpt><trkpt lat="42.4116551" lon="11.1742941"><ele>112.0</ele><time>2026-04-06T07:12:08.278Z</time></trkpt><trkpt lat="42.4117609" lon="11.1742282"><ele>112.0</ele><time>2026-04-06T07:12:10.277Z</time></trkpt><trkpt lat="42.4118723" lon="11.1741866"><ele>111.99999999999999</ele><time>2026-04-06T07:12:12.278Z</time></trkpt><trkpt lat="42.4119716" lon="11.1741733"><ele>111.99999999999999</ele><time>2026-04-06T07:12:14.278Z</time></trkpt><trkpt lat="42.4120819" lon="11.1742064"><ele>112.0</ele><time>2026-04-06T07:12:16.278Z</time></trkpt><trkpt lat="42.4121731" lon="11.1742672"><ele>112.0</ele><time>2026-04-06T07:12:18.278Z</time></trkpt><trkpt lat="42.4122332" lon="11.1743002"><ele>113.0</ele><time>2026-04-06T07:12:19.277Z</time></trkpt><trkpt lat="42.4123345" lon="11.1743536"><ele>113.99999999999999</ele><time>2026-04-06T07:12:21.278Z</time></trkpt><trkpt lat="42.4124005" lon="11.1743977"><ele>114.99999999999999</ele><time>2026-04-06T07:12:22.277Z</time></trkpt><trkpt lat="42.4124567" lon="11.1744397"><ele>116.0</ele><time>2026-04-06T07:12:23.278Z</time></trkpt><trkpt lat="42.4125604" lon="11.1745184"><ele>117.0</ele><time>2026-04-06T07:12:25.278Z</time></trkpt><trkpt lat="42.4126643" lon="11.1745755"><ele>117.0</ele><time>2026-04-06T07:12:27.278Z</time></trkpt><trkpt lat="42.4127628" lon="11.1745955"><ele>116.99999999999999</ele><time>2026-04-06T07:12:29.278Z</time></trkpt><trkpt lat="42.4128626" lon="11.1745907"><ele>116.99999999999999</ele><time>2026-04-06T07:12:31.278Z</time></trkpt><trkpt lat="42.4129746" lon="11.1745611"><ele>117.0</ele><time>2026-04-06T07:12:33.278Z</time></trkpt><trkpt lat="42.4130871" lon="11.1745303"><ele>117.0</ele><time>2026-04-06T07:12:35.278Z</time></trkpt><trkpt lat="42.4131853" lon="11.1745075"><ele>114.83333333333333</ele><time>2026-04-06T07:12:37.278Z</time></trkpt><trkpt lat="42.4132579" lon="11.1744443"><ele>112.66666666666666</ele><time>2026-04-06T07:12:39.277Z</time></trkpt><trkpt lat="42.4133064" lon="11.1743563"><ele>110.5</ele><time>2026-04-06T07:12:41.278Z</time></trkpt><trkpt lat="42.4133345" lon="11.1742653"><ele>108.33333333333333</ele><time>2026-04-06T07:12:43.278Z</time></trkpt><trkpt lat="42.4133408" lon="11.1741719"><ele>106.16666666666666</ele><time>2026-04-06T07:12:45.278Z</time></trkpt><trkpt lat="42.413314" lon="11.1740625"><ele>104.0</ele><time>2026-04-06T07:12:47.277Z</time></trkpt><trkpt lat="42.4132637" lon="11.1739367"><ele>104.0</ele><time>2026-04-06T07:12:49.278Z</time></trkpt><trkpt lat="42.4132001" lon="11.173789"><ele>104.0</ele><time>2026-04-06T07:12:51.278Z</time></trkpt><trkpt lat="42.4131316" lon="11.1736384"><ele>104.0</ele><time>2026-04-06T07:12:53.277Z</time></trkpt><trkpt lat="42.4130969" lon="11.1735497"><ele>104.0</ele><time>2026-04-06T07:12:54.278Z</time></trkpt><trkpt lat="42.4130651" lon="11.1734527"><ele>104.0</ele><time>2026-04-06T07:12:55.278Z</time></trkpt><trkpt lat="42.4130318" lon="11.1733515"><ele>103.99999999999999</ele><time>2026-04-06T07:12:56.277Z</time></trkpt><trkpt lat="42.4129989" lon="11.17324"><ele>104.0</ele><time>2026-04-06T07:12:57.278Z</time></trkpt><trkpt lat="42.4129639" lon="11.1731259"><ele>104.0</ele><time>2026-04-06T07:12:58.278Z</time></trkpt><trkpt lat="42.412933" lon="11.1730256"><ele>104.0</ele><time>2026-04-06T07:12:59.278Z</time></trkpt><trkpt lat="42.4129024" lon="11.1729322"><ele>103.99999999999999</ele><time>2026-04-06T07:13:00.278Z</time></trkpt><trkpt lat="42.4128757" lon="11.1728435"><ele>104.0</ele><time>2026-04-06T07:13:01.278Z</time></trkpt><trkpt lat="42.4128617" lon="11.1726696"><ele>110.80000000000001</ele><time>2026-04-06T07:13:03.277Z</time></trkpt><trkpt lat="42.4128525" lon="11.1725831"><ele>117.60000000000001</ele><time>2026-04-06T07:13:04.278Z</time></trkpt><trkpt lat="42.4128548" lon="11.1724733"><ele>124.4</ele><time>2026-04-06T07:13:05.277Z</time></trkpt><trkpt lat="42.4128422" lon="11.1722872"><ele>131.20000000000002</ele><time>2026-04-06T07:13:07.278Z</time></trkpt><trkpt lat="42.4128655" lon="11.1721246"><ele>138.0</ele><time>2026-04-06T07:13:09.278Z</time></trkpt><trkpt lat="42.4129072" lon="11.1720132"><ele>137.14285714285714</ele><time>2026-04-06T07:13:11.278Z</time></trkpt><trkpt lat="42.4129459" lon="11.1719049"><ele>136.2857142857143</ele><time>2026-04-06T07:13:13.278Z</time></trkpt><trkpt lat="42.4129688" lon="11.1718145"><ele>135.42857142857144</ele><time>2026-04-06T07:13:15.277Z</time></trkpt><trkpt lat="42.412984" lon="11.1717254"><ele>134.57142857142858</ele><time>2026-04-06T07:13:18.278Z</time></trkpt><trkpt lat="42.413022" lon="11.1716372"><ele>133.71428571428572</ele><time>2026-04-06T07:13:21.278Z</time></trkpt><trkpt lat="42.413053" lon="11.171558"><ele>132.85714285714286</ele><time>2026-04-06T07:13:23.277Z</time></trkpt><trkpt lat="42.4131035" lon="11.1714978"><ele>132.0</ele><time>2026-04-06T07:13:25.277Z</time></trkpt><trkpt lat="42.4131935" lon="11.1715334"><ele>132.0</ele><time>2026-04-06T07:13:27.277Z</time></trkpt><trkpt lat="42.4132942" lon="11.1715762"><ele>132.0</ele><time>2026-04-06T07:13:29.278Z</time></trkpt><trkpt lat="42.4134079" lon="11.1716147"><ele>132.0</ele><time>2026-04-06T07:13:31.277Z</time></trkpt><trkpt lat="42.413507" lon="11.1716581"><ele>132.0</ele><time>2026-04-06T07:13:33.277Z</time></trkpt><trkpt lat="42.4135925" lon="11.1716619"><ele>132.0</ele><time>2026-04-06T07:13:35.278Z</time></trkpt><trkpt lat="42.4136755" lon="11.1716592"><ele>132.0</ele><time>2026-04-06T07:13:37.277Z</time></trkpt><trkpt lat="42.4137409" lon="11.1716175"><ele>132.0</ele><time>2026-04-06T07:13:39.278Z</time></trkpt><trkpt lat="42.4138033" lon="11.1715364"><ele>132.0</ele><time>2026-04-06T07:13:41.278Z</time></trkpt><trkpt lat="42.4138614" lon="11.1714448"><ele>132.0</ele><time>2026-04-06T07:13:43.277Z</time></trkpt><trkpt lat="42.4139148" lon="11.1713954"><ele>132.0</ele><time>2026-04-06T07:13:44.278Z</time></trkpt><trkpt lat="42.4139743" lon="11.1713245"><ele>132.0</ele><time>2026-04-06T07:13:45.278Z</time></trkpt><trkpt lat="42.4140358" lon="11.1712705"><ele>133.83333333333334</ele><time>2026-04-06T07:13:46.278Z</time></trkpt><trkpt lat="42.4140907" lon="11.1712142"><ele>135.66666666666666</ele><time>2026-04-06T07:13:47.278Z</time></trkpt><trkpt lat="42.4141414" lon="11.1711563"><ele>137.5</ele><time>2026-04-06T07:13:48.278Z</time></trkpt><trkpt lat="42.4142385" lon="11.1710593"><ele>139.33333333333331</ele><time>2026-04-06T07:13:50.277Z</time></trkpt><trkpt lat="42.4143342" lon="11.1709605"><ele>141.16666666666666</ele><time>2026-04-06T07:13:52.278Z</time></trkpt><trkpt lat="42.4143831" lon="11.1709034"><ele>143.0</ele><time>2026-04-06T07:13:53.278Z</time></trkpt><trkpt lat="42.4144907" lon="11.1708261"><ele>143.0</ele><time>2026-04-06T07:13:55.277Z</time></trkpt><trkpt lat="42.4145506" lon="11.170784"><ele>143.0</ele><time>2026-04-06T07:13:56.278Z</time></trkpt><trkpt lat="42.4146127" lon="11.1707693"><ele>143.0</ele><time>2026-04-06T07:13:57.277Z</time></trkpt><trkpt lat="42.4146864" lon="11.1707543"><ele>143.0</ele><time>2026-04-06T07:13:58.277Z</time></trkpt><trkpt lat="42.414753" lon="11.1707355"><ele>143.0</ele><time>2026-04-06T07:13:59.278Z</time></trkpt><trkpt lat="42.4148582" lon="11.1706999"><ele>143.0</ele><time>2026-04-06T07:14:01.278Z</time></trkpt><trkpt lat="42.414958" lon="11.1706281"><ele>143.4</ele><time>2026-04-06T07:14:03.277Z</time></trkpt><trkpt lat="42.4150381" lon="11.1705202"><ele>143.8</ele><time>2026-04-06T07:14:05.278Z</time></trkpt><trkpt lat="42.4151004" lon="11.1704043"><ele>144.2</ele><time>2026-04-06T07:14:07.277Z</time></trkpt><trkpt lat="42.4151265" lon="11.1702697"><ele>144.6</ele><time>2026-04-06T07:14:09.278Z</time></trkpt><trkpt lat="42.4151357" lon="11.1701846"><ele>145.0</ele><time>2026-04-06T07:14:10.278Z</time></trkpt><trkpt lat="42.4151454" lon="11.1700957"><ele>145.0</ele><time>2026-04-06T07:14:11.277Z</time></trkpt><trkpt lat="42.4151575" lon="11.1700099"><ele>145.0</ele><time>2026-04-06T07:14:12.277Z</time></trkpt><trkpt lat="42.4151758" lon="11.1698411"><ele>145.0</ele><time>2026-04-06T07:14:14.278Z</time></trkpt><trkpt lat="42.4151914" lon="11.1696733"><ele>145.0</ele><time>2026-04-06T07:14:16.278Z</time></trkpt><trkpt lat="42.4151974" lon="11.1695821"><ele>145.0</ele><time>2026-04-06T07:14:17.277Z</time></trkpt><trkpt lat="42.4152123" lon="11.1694971"><ele>145.0</ele><time>2026-04-06T07:14:18.278Z</time></trkpt><trkpt lat="42.4152001" lon="11.1694101"><ele>146.0</ele><time>2026-04-06T07:14:19.278Z</time></trkpt><trkpt lat="42.4151887" lon="11.169324"><ele>147.0</ele><time>2026-04-06T07:14:20.278Z</time></trkpt><trkpt lat="42.4151797" lon="11.1692382"><ele>148.0</ele><time>2026-04-06T07:14:21.277Z</time></trkpt><trkpt lat="42.4151641" lon="11.1691447"><ele>149.0</ele><time>2026-04-06T07:14:22.278Z</time></trkpt><trkpt lat="42.4151457" lon="11.169054"><ele>150.0</ele><time>2026-04-06T07:14:23.278Z</time></trkpt><trkpt lat="42.4151246" lon="11.1688813"><ele>151.0</ele><time>2026-04-06T07:14:25.278Z</time></trkpt><trkpt lat="42.4151063" lon="11.1687892"><ele>152.16666666666669</ele><time>2026-04-06T07:14:26.278Z</time></trkpt><trkpt lat="42.4150883" lon="11.1686288"><ele>153.33333333333334</ele><time>2026-04-06T07:14:28.278Z</time></trkpt><trkpt lat="42.4150974" lon="11.1685439"><ele>154.5</ele><time>2026-04-06T07:14:29.277Z</time></trkpt><trkpt lat="42.4151171" lon="11.1684536"><ele>155.66666666666666</ele><time>2026-04-06T07:14:30.278Z</time></trkpt><trkpt lat="42.415145" lon="11.168369"><ele>156.83333333333331</ele><time>2026-04-06T07:14:31.277Z</time></trkpt><trkpt lat="42.4151719" lon="11.1682876"><ele>158.0</ele><time>2026-04-06T07:14:32.278Z</time></trkpt><trkpt lat="42.4152191" lon="11.1681496"><ele>160.5</ele><time>2026-04-06T07:14:34.278Z</time></trkpt><trkpt lat="42.4152583" lon="11.1679974"><ele>163.0</ele><time>2026-04-06T07:14:36.277Z</time></trkpt><trkpt lat="42.4153099" lon="11.1678535"><ele>165.5</ele><time>2026-04-06T07:14:38.278Z</time></trkpt><trkpt lat="42.4153853" lon="11.1677168"><ele>168.0</ele><time>2026-04-06T07:14:40.278Z</time></trkpt><trkpt lat="42.4154353" lon="11.1675803"><ele>168.0</ele><time>2026-04-06T07:14:42.278Z</time></trkpt><trkpt lat="42.4154794" lon="11.1674434"><ele>168.0</ele><time>2026-04-06T07:14:44.277Z</time></trkpt><trkpt lat="42.4155151" lon="11.1673016"><ele>168.0</ele><time>2026-04-06T07:14:46.278Z</time></trkpt><trkpt lat="42.4155488" lon="11.1671624"><ele>168.0</ele><time>2026-04-06T07:14:48.277Z</time></trkpt><trkpt lat="42.4156077" lon="11.1670178"><ele>166.16666666666666</ele><time>2026-04-06T07:14:50.277Z</time></trkpt><trkpt lat="42.4156493" lon="11.1669538"><ele>164.33333333333334</ele><time>2026-04-06T07:14:51.278Z</time></trkpt><trkpt lat="42.4156962" lon="11.1668937"><ele>162.5</ele><time>2026-04-06T07:14:52.277Z</time></trkpt><trkpt lat="42.4157494" lon="11.1668357"><ele>160.66666666666669</ele><time>2026-04-06T07:14:53.278Z</time></trkpt><trkpt lat="42.4158259" lon="11.1667136"><ele>158.83333333333334</ele><time>2026-04-06T07:14:55.277Z</time></trkpt><trkpt lat="42.4158847" lon="11.1665681"><ele>157.0</ele><time>2026-04-06T07:14:57.278Z</time></trkpt><trkpt lat="42.415917" lon="11.1664305"><ele>156.99999999999997</ele><time>2026-04-06T07:14:59.278Z</time></trkpt><trkpt lat="42.4159314" lon="11.1663241"><ele>157.0</ele><time>2026-04-06T07:15:01.277Z</time></trkpt><trkpt lat="42.4159296" lon="11.1662372"><ele>157.0</ele><time>2026-04-06T07:15:05.278Z</time></trkpt><trkpt lat="42.4158711" lon="11.1661518"><ele>157.0</ele><time>2026-04-06T07:15:10.278Z</time></trkpt><trkpt lat="42.415803" lon="11.1661172"><ele>157.0</ele><time>2026-04-06T07:15:12.278Z</time></trkpt><trkpt lat="42.4157364" lon="11.1660744"><ele>156.99999999999997</ele><time>2026-04-06T07:15:14.278Z</time></trkpt><trkpt lat="42.4156737" lon="11.1660254"><ele>157.0</ele><time>2026-04-06T07:15:16.278Z</time></trkpt><trkpt lat="42.4155972" lon="11.1659901"><ele>157.0</ele><time>2026-04-06T07:15:18.278Z</time></trkpt><trkpt lat="42.4154956" lon="11.1659336"><ele>157.0</ele><time>2026-04-06T07:15:20.278Z</time></trkpt><trkpt lat="42.4154014" lon="11.1658198"><ele>157.0</ele><time>2026-04-06T07:15:22.278Z</time></trkpt><trkpt lat="42.4153429" lon="11.1657549"><ele>157.0</ele><time>2026-04-06T07:15:23.278Z</time></trkpt><trkpt lat="42.4152822" lon="11.165696"><ele>157.0</ele><time>2026-04-06T07:15:24.278Z</time></trkpt><trkpt lat="42.4151893" lon="11.1655878"><ele>159.5</ele><time>2026-04-06T07:15:26.277Z</time></trkpt><trkpt lat="42.4150976" lon="11.1654767"><ele>162.0</ele><time>2026-04-06T07:15:28.277Z</time></trkpt><trkpt lat="42.4150359" lon="11.1654267"><ele>164.5</ele><time>2026-04-06T07:15:29.278Z</time></trkpt><trkpt lat="42.4149771" lon="11.1653735"><ele>167.0</ele><time>2026-04-06T07:15:30.278Z</time></trkpt><trkpt lat="42.414911" lon="11.1653103"><ele>169.5</ele><time>2026-04-06T07:15:31.278Z</time></trkpt><trkpt lat="42.4148465" lon="11.1652481"><ele>172.0</ele><time>2026-04-06T07:15:32.278Z</time></trkpt><trkpt lat="42.414782" lon="11.1651845"><ele>172.00000000000003</ele><time>2026-04-06T07:15:33.278Z</time></trkpt><trkpt lat="42.4147176" lon="11.1651211"><ele>172.0</ele><time>2026-04-06T07:15:34.278Z</time></trkpt><trkpt lat="42.4146623" lon="11.1650626"><ele>172.0</ele><time>2026-04-06T07:15:35.278Z</time></trkpt><trkpt lat="42.4146031" lon="11.1649978"><ele>172.0</ele><time>2026-04-06T07:15:36.278Z</time></trkpt><trkpt lat="42.4145458" lon="11.1649357"><ele>172.0</ele><time>2026-04-06T07:15:37.278Z</time></trkpt><trkpt lat="42.4144908" lon="11.1648677"><ele>172.00000000000003</ele><time>2026-04-06T07:15:38.278Z</time></trkpt><trkpt lat="42.4144429" lon="11.1647996"><ele>172.0</ele><time>2026-04-06T07:15:39.278Z</time></trkpt><trkpt lat="42.4143996" lon="11.164734"><ele>176.42857142857144</ele><time>2026-04-06T07:15:40.277Z</time></trkpt><trkpt lat="42.4143641" lon="11.1646543"><ele>180.85714285714286</ele><time>2026-04-06T07:15:41.278Z</time></trkpt><trkpt lat="42.4143332" lon="11.1645678"><ele>185.28571428571428</ele><time>2026-04-06T07:15:42.278Z</time></trkpt><trkpt lat="42.4143017" lon="11.1644748"><ele>189.71428571428572</ele><time>2026-04-06T07:15:43.278Z</time></trkpt><trkpt lat="42.4142713" lon="11.1643835"><ele>194.14285714285714</ele><time>2026-04-06T07:15:44.278Z</time></trkpt><trkpt lat="42.4142368" lon="11.1642891"><ele>198.57142857142858</ele><time>2026-04-06T07:15:45.278Z</time></trkpt><trkpt lat="42.4142063" lon="11.1641969"><ele>203.0</ele><time>2026-04-06T07:15:46.278Z</time></trkpt><trkpt lat="42.4141794" lon="11.1641061"><ele>205.16666666666669</ele><time>2026-04-06T07:15:47.278Z</time></trkpt><trkpt lat="42.4141521" lon="11.1640201"><ele>207.33333333333334</ele><time>2026-04-06T07:15:48.278Z</time></trkpt><trkpt lat="42.4141088" lon="11.1638925"><ele>209.5</ele><time>2026-04-06T07:15:50.277Z</time></trkpt><trkpt lat="42.4140807" lon="11.1637928"><ele>211.66666666666669</ele><time>2026-04-06T07:15:52.278Z</time></trkpt><trkpt lat="42.4140995" lon="11.1637021"><ele>213.83333333333334</ele><time>2026-04-06T07:15:54.278Z</time></trkpt><trkpt lat="42.4141587" lon="11.163638"><ele>216.0</ele><time>2026-04-06T07:15:56.277Z</time></trkpt><trkpt lat="42.4142426" lon="11.163582"><ele>216.0</ele><time>2026-04-06T07:15:58.278Z</time></trkpt><trkpt lat="42.414308" lon="11.163576"><ele>216.0</ele><time>2026-04-06T07:15:59.277Z</time></trkpt><trkpt lat="42.414421" lon="11.1636139"><ele>216.0</ele><time>2026-04-06T07:16:01.277Z</time></trkpt><trkpt lat="42.4144853" lon="11.16367"><ele>216.0</ele><time>2026-04-06T07:16:02.278Z</time></trkpt><trkpt lat="42.4145458" lon="11.1637055"><ele>216.0</ele><time>2026-04-06T07:16:03.278Z</time></trkpt><trkpt lat="42.414653" lon="11.1637726"><ele>216.0</ele><time>2026-04-06T07:16:05.277Z</time></trkpt><trkpt lat="42.4147137" lon="11.1638084"><ele>215.20000000000002</ele><time>2026-04-06T07:16:06.277Z</time></trkpt><trkpt lat="42.4148073" lon="11.1638618"><ele>214.40000000000003</ele><time>2026-04-06T07:16:08.278Z</time></trkpt><trkpt lat="42.4149006" lon="11.1638842"><ele>213.6</ele><time>2026-04-06T07:16:10.278Z</time></trkpt><trkpt lat="42.4150123" lon="11.163856"><ele>212.8</ele><time>2026-04-06T07:16:12.278Z</time></trkpt><trkpt lat="42.415115" lon="11.1638427"><ele>212.0</ele><time>2026-04-06T07:16:14.277Z</time></trkpt><trkpt lat="42.4152079" lon="11.1637884"><ele>212.00000000000003</ele><time>2026-04-06T07:16:16.278Z</time></trkpt><trkpt lat="42.4152837" lon="11.1636872"><ele>212.0</ele><time>2026-04-06T07:16:18.278Z</time></trkpt><trkpt lat="42.4153294" lon="11.1636267"><ele>212.0</ele><time>2026-04-06T07:16:19.278Z</time></trkpt><trkpt lat="42.4153785" lon="11.1635595"><ele>212.0</ele><time>2026-04-06T07:16:20.278Z</time></trkpt><trkpt lat="42.4154424" lon="11.1634926"><ele>212.00000000000003</ele><time>2026-04-06T07:16:21.278Z</time></trkpt><trkpt lat="42.4154983" lon="11.1634397"><ele>212.0</ele><time>2026-04-06T07:16:22.278Z</time></trkpt><trkpt lat="42.415553" lon="11.1633851"><ele>210.39999999999998</ele><time>2026-04-06T07:16:23.277Z</time></trkpt><trkpt lat="42.4156323" lon="11.1632888"><ele>208.79999999999998</ele><time>2026-04-06T07:16:25.278Z</time></trkpt><trkpt lat="42.4156804" lon="11.1631789"><ele>207.2</ele><time>2026-04-06T07:16:27.277Z</time></trkpt><trkpt lat="42.4156749" lon="11.1630507"><ele>205.6</ele><time>2026-04-06T07:16:29.278Z</time></trkpt><trkpt lat="42.4156347" lon="11.1628882"><ele>204.0</ele><time>2026-04-06T07:16:31.278Z</time></trkpt><trkpt lat="42.4156019" lon="11.1628072"><ele>204.0</ele><time>2026-04-06T07:16:32.278Z</time></trkpt><trkpt lat="42.4155735" lon="11.1626693"><ele>204.0</ele><time>2026-04-06T07:16:34.278Z</time></trkpt><trkpt lat="42.415573" lon="11.1624941"><ele>204.0</ele><time>2026-04-06T07:16:36.278Z</time></trkpt><trkpt lat="42.4155705" lon="11.1623983"><ele>204.0</ele><time>2026-04-06T07:16:37.277Z</time></trkpt><trkpt lat="42.4155657" lon="11.1623005"><ele>204.0</ele><time>2026-04-06T07:16:38.278Z</time></trkpt><trkpt lat="42.4155346" lon="11.1621598"><ele>209.0</ele><time>2026-04-06T07:16:40.278Z</time></trkpt><trkpt lat="42.4154573" lon="11.162018"><ele>214.0</ele><time>2026-04-06T07:16:42.277Z</time></trkpt><trkpt lat="42.4154186" lon="11.1619414"><ele>218.99999999999997</ele><time>2026-04-06T07:16:43.278Z</time></trkpt><trkpt lat="42.4153739" lon="11.1618778"><ele>224.0</ele><time>2026-04-06T07:16:44.278Z</time></trkpt><trkpt lat="42.4153008" lon="11.1617755"><ele>229.0</ele><time>2026-04-06T07:16:46.277Z</time></trkpt><trkpt lat="42.4152069" lon="11.1616996"><ele>228.99999999999997</ele><time>2026-04-06T07:16:48.278Z</time></trkpt><trkpt lat="42.4151189" lon="11.161615"><ele>229.0</ele><time>2026-04-06T07:16:50.277Z</time></trkpt><trkpt lat="42.4150656" lon="11.1614715"><ele>229.0</ele><time>2026-04-06T07:16:52.278Z</time></trkpt><trkpt lat="42.4150616" lon="11.1613798"><ele>229.0</ele><time>2026-04-06T07:16:53.278Z</time></trkpt><trkpt lat="42.4150666" lon="11.1612772"><ele>228.99999999999997</ele><time>2026-04-06T07:16:54.278Z</time></trkpt><trkpt lat="42.4150757" lon="11.161181"><ele>229.0</ele><time>2026-04-06T07:16:55.278Z</time></trkpt><trkpt lat="42.4150921" lon="11.1610778"><ele>229.66666666666666</ele><time>2026-04-06T07:16:56.277Z</time></trkpt><trkpt lat="42.4151163" lon="11.1609827"><ele>230.33333333333331</ele><time>2026-04-06T07:16:57.277Z</time></trkpt><trkpt lat="42.4151679" lon="11.1608231"><ele>231.0</ele><time>2026-04-06T07:16:59.278Z</time></trkpt><trkpt lat="42.4152" lon="11.1607331"><ele>231.66666666666669</ele><time>2026-04-06T07:17:00.278Z</time></trkpt><trkpt lat="42.4152349" lon="11.1606305"><ele>232.33333333333334</ele><time>2026-04-06T07:17:01.277Z</time></trkpt><trkpt lat="42.4152653" lon="11.1605226"><ele>233.0</ele><time>2026-04-06T07:17:02.278Z</time></trkpt><trkpt lat="42.4152998" lon="11.1604104"><ele>233.50000000000003</ele><time>2026-04-06T07:17:03.278Z</time></trkpt><trkpt lat="42.4153356" lon="11.1603048"><ele>234.0</ele><time>2026-04-06T07:17:04.278Z</time></trkpt><trkpt lat="42.415384" lon="11.1602159"><ele>234.5</ele><time>2026-04-06T07:17:05.278Z</time></trkpt><trkpt lat="42.4154243" lon="11.160127"><ele>235.0</ele><time>2026-04-06T07:17:06.278Z</time></trkpt><trkpt lat="42.4154652" lon="11.1600432"><ele>235.50000000000003</ele><time>2026-04-06T07:17:07.278Z</time></trkpt><trkpt lat="42.415532" lon="11.1599284"><ele>236.0</ele><time>2026-04-06T07:17:09.277Z</time></trkpt><trkpt lat="42.4156057" lon="11.1597965"><ele>239.16666666666669</ele><time>2026-04-06T07:17:11.278Z</time></trkpt><trkpt lat="42.4156853" lon="11.1596711"><ele>242.33333333333334</ele><time>2026-04-06T07:17:13.278Z</time></trkpt><trkpt lat="42.415735" lon="11.1596116"><ele>245.5</ele><time>2026-04-06T07:17:15.277Z</time></trkpt><trkpt lat="42.4157597" lon="11.1595283"><ele>248.66666666666669</ele><time>2026-04-06T07:17:49.278Z</time></trkpt><trkpt lat="42.4157879" lon="11.1594369"><ele>251.83333333333334</ele><time>2026-04-06T07:17:51.278Z</time></trkpt><trkpt lat="42.4158075" lon="11.1593518"><ele>255.0</ele><time>2026-04-06T07:17:53.278Z</time></trkpt><trkpt lat="42.4157424" lon="11.1592631"><ele>255.0</ele><time>2026-04-06T07:17:55.278Z</time></trkpt><trkpt lat="42.4156467" lon="11.1592145"><ele>255.0</ele><time>2026-04-06T07:17:57.278Z</time></trkpt><trkpt lat="42.4155843" lon="11.1591835"><ele>255.0</ele><time>2026-04-06T07:17:58.277Z</time></trkpt><trkpt lat="42.4155226" lon="11.1591528"><ele>255.0</ele><time>2026-04-06T07:17:59.277Z</time></trkpt><trkpt lat="42.415403" lon="11.1591143"><ele>255.0</ele><time>2026-04-06T07:18:01.278Z</time></trkpt><trkpt lat="42.4153312" lon="11.1591018"><ele>255.0</ele><time>2026-04-06T07:18:02.277Z</time></trkpt><trkpt lat="42.4152204" lon="11.1590495"><ele>261.6</ele><time>2026-04-06T07:18:04.278Z</time></trkpt><trkpt lat="42.4151077" lon="11.1589684"><ele>268.2</ele><time>2026-04-06T07:18:06.277Z</time></trkpt><trkpt lat="42.4150497" lon="11.1589264"><ele>274.8</ele><time>2026-04-06T07:18:08.277Z</time></trkpt><trkpt lat="42.4151258" lon="11.1589221"><ele>281.4</ele><time>2026-04-06T07:18:25.278Z</time></trkpt><trkpt lat="42.4152255" lon="11.1589232"><ele>288.0</ele><time>2026-04-06T07:18:27.278Z</time></trkpt><trkpt lat="42.4153243" lon="11.1589033"><ele>288.0</ele><time>2026-04-06T07:18:29.278Z</time></trkpt><trkpt lat="42.4154211" lon="11.1588844"><ele>288.0</ele><time>2026-04-06T07:18:31.277Z</time></trkpt><trkpt lat="42.415509" lon="11.1588393"><ele>288.0</ele><time>2026-04-06T07:18:33.278Z</time></trkpt><trkpt lat="42.415587" lon="11.1588137"><ele>288.0</ele><time>2026-04-06T07:18:35.277Z</time></trkpt><trkpt lat="42.4156565" lon="11.1587933"><ele>288.0</ele><time>2026-04-06T07:18:37.278Z</time></trkpt><trkpt lat="42.4157329" lon="11.158771"><ele>288.0</ele><time>2026-04-06T07:18:39.278Z</time></trkpt><trkpt lat="42.4158168" lon="11.1587418"><ele>287.4</ele><time>2026-04-06T07:18:41.278Z</time></trkpt><trkpt lat="42.4158886" lon="11.1587324"><ele>286.8</ele><time>2026-04-06T07:18:43.278Z</time></trkpt><trkpt lat="42.4159634" lon="11.1587195"><ele>286.2</ele><time>2026-04-06T07:18:46.278Z</time></trkpt><trkpt lat="42.4160488" lon="11.1587024"><ele>285.6</ele><time>2026-04-06T07:20:13.277Z</time></trkpt><trkpt lat="42.4161793" lon="11.1586858"><ele>285.0</ele><time>2026-04-06T07:20:15.276Z</time></trkpt><trkpt lat="42.4162735" lon="11.1586836"><ele>285.5</ele><time>2026-04-06T07:20:16.277Z</time></trkpt><trkpt lat="42.4163796" lon="11.1586881"><ele>286.0</ele><time>2026-04-06T07:20:17.277Z</time></trkpt><trkpt lat="42.4164808" lon="11.1587114"><ele>286.5</ele><time>2026-04-06T07:20:18.276Z</time></trkpt><trkpt lat="42.4166009" lon="11.1587915"><ele>287.0</ele><time>2026-04-06T07:20:19.276Z</time></trkpt><trkpt lat="42.416717" lon="11.1588806"><ele>287.0</ele><time>2026-04-06T07:20:20.277Z</time></trkpt><trkpt lat="42.4168392" lon="11.1589616"><ele>287.0</ele><time>2026-04-06T07:20:21.277Z</time></trkpt><trkpt lat="42.4169495" lon="11.159046"><ele>287.0</ele><time>2026-04-06T07:20:22.277Z</time></trkpt><trkpt lat="42.4170459" lon="11.1591238"><ele>287.0</ele><time>2026-04-06T07:20:23.276Z</time></trkpt><trkpt lat="42.4171292" lon="11.1591934"><ele>283.1666666666667</ele><time>2026-04-06T07:20:24.276Z</time></trkpt><trkpt lat="42.4172058" lon="11.1592489"><ele>279.33333333333337</ele><time>2026-04-06T07:20:25.277Z</time></trkpt><trkpt lat="42.4172728" lon="11.1592944"><ele>275.5</ele><time>2026-04-06T07:20:26.276Z</time></trkpt><trkpt lat="42.4173368" lon="11.1593339"><ele>271.6666666666667</ele><time>2026-04-06T07:20:27.276Z</time></trkpt><trkpt lat="42.4174473" lon="11.1593816"><ele>267.8333333333333</ele><time>2026-04-06T07:20:29.276Z</time></trkpt><trkpt lat="42.4175291" lon="11.1594209"><ele>264.0</ele><time>2026-04-06T07:20:31.277Z</time></trkpt><trkpt lat="42.4175906" lon="11.1594603"><ele>264.0</ele><time>2026-04-06T07:20:34.277Z</time></trkpt><trkpt lat="42.4176548" lon="11.1594521"><ele>264.0</ele><time>2026-04-06T07:20:39.277Z</time></trkpt><trkpt lat="42.4175956" lon="11.1594163"><ele>264.0</ele><time>2026-04-06T07:22:32.276Z</time></trkpt><trkpt lat="42.4176371" lon="11.1594904"><ele>264.0</ele><time>2026-04-06T07:22:36.277Z</time></trkpt><trkpt lat="42.4177135" lon="11.1595472"><ele>264.0</ele><time>2026-04-06T07:22:38.277Z</time></trkpt><trkpt lat="42.4177663" lon="11.1596124"><ele>264.0</ele><time>2026-04-06T07:22:39.276Z</time></trkpt><trkpt lat="42.4178228" lon="11.1597015"><ele>264.0</ele><time>2026-04-06T07:22:40.276Z</time></trkpt><trkpt lat="42.417884" lon="11.1598152"><ele>260.0</ele><time>2026-04-06T07:22:41.277Z</time></trkpt><trkpt lat="42.417944" lon="11.1599377"><ele>255.99999999999997</ele><time>2026-04-06T07:22:42.277Z</time></trkpt><trkpt lat="42.4180028" lon="11.1600732"><ele>251.99999999999997</ele><time>2026-04-06T07:22:43.277Z</time></trkpt><trkpt lat="42.4180563" lon="11.1602113"><ele>248.0</ele><time>2026-04-06T07:22:44.276Z</time></trkpt><trkpt lat="42.4181024" lon="11.1603438"><ele>244.0</ele><time>2026-04-06T07:22:45.277Z</time></trkpt><trkpt lat="42.4181425" lon="11.160466"><ele>243.99999999999997</ele><time>2026-04-06T07:22:46.277Z</time></trkpt><trkpt lat="42.4181893" lon="11.1605798"><ele>244.0</ele><time>2026-04-06T07:22:47.277Z</time></trkpt><trkpt lat="42.4182491" lon="11.1606715"><ele>244.0</ele><time>2026-04-06T07:22:48.277Z</time></trkpt><trkpt lat="42.4183151" lon="11.1607415"><ele>244.0</ele><time>2026-04-06T07:22:49.277Z</time></trkpt><trkpt lat="42.418373" lon="11.1607891"><ele>243.99999999999997</ele><time>2026-04-06T07:22:50.276Z</time></trkpt><trkpt lat="42.4184783" lon="11.1607667"><ele>244.0</ele><time>2026-04-06T07:22:52.276Z</time></trkpt><trkpt lat="42.4185257" lon="11.1607097"><ele>244.0</ele><time>2026-04-06T07:22:53.277Z</time></trkpt><trkpt lat="42.418546" lon="11.1605987"><ele>243.99999999999997</ele><time>2026-04-06T07:22:54.277Z</time></trkpt><trkpt lat="42.4185418" lon="11.1604678"><ele>243.99999999999997</ele><time>2026-04-06T07:22:55.277Z</time></trkpt><trkpt lat="42.41852" lon="11.1603211"><ele>244.0</ele><time>2026-04-06T07:22:56.277Z</time></trkpt><trkpt lat="42.4184839" lon="11.1601922"><ele>244.0</ele><time>2026-04-06T07:22:57.277Z</time></trkpt><trkpt lat="42.4184586" lon="11.1600823"><ele>243.99999999999997</ele><time>2026-04-06T07:22:58.277Z</time></trkpt><trkpt lat="42.418469" lon="11.1599896"><ele>244.0</ele><time>2026-04-06T07:22:59.276Z</time></trkpt><trkpt lat="42.4184983" lon="11.159899"><ele>244.0</ele><time>2026-04-06T07:23:00.276Z</time></trkpt><trkpt lat="42.4185604" lon="11.1598328"><ele>244.0</ele><time>2026-04-06T07:23:01.276Z</time></trkpt><trkpt lat="42.4186492" lon="11.1598053"><ele>243.99999999999997</ele><time>2026-04-06T07:23:02.276Z</time></trkpt><trkpt lat="42.4187549" lon="11.1598015"><ele>244.0</ele><time>2026-04-06T07:23:03.277Z</time></trkpt><trkpt lat="42.4188806" lon="11.1598411"><ele>241.75</ele><time>2026-04-06T07:23:04.276Z</time></trkpt><trkpt lat="42.419012" lon="11.1599042"><ele>239.5</ele><time>2026-04-06T07:23:05.277Z</time></trkpt><trkpt lat="42.4191353" lon="11.1599713"><ele>237.25</ele><time>2026-04-06T07:23:06.277Z</time></trkpt><trkpt lat="42.4192461" lon="11.1600439"><ele>235.0</ele><time>2026-04-06T07:23:07.277Z</time></trkpt><trkpt lat="42.4193592" lon="11.1601274"><ele>235.0</ele><time>2026-04-06T07:23:08.276Z</time></trkpt><trkpt lat="42.4194508" lon="11.1602331"><ele>235.0</ele><time>2026-04-06T07:23:09.277Z</time></trkpt><trkpt lat="42.4195258" lon="11.1603613"><ele>235.0</ele><time>2026-04-06T07:23:10.276Z</time></trkpt><trkpt lat="42.4195876" lon="11.1605154"><ele>235.0</ele><time>2026-04-06T07:23:11.276Z</time></trkpt><trkpt lat="42.4196252" lon="11.1606986"><ele>232.25</ele><time>2026-04-06T07:23:12.277Z</time></trkpt><trkpt lat="42.4196402" lon="11.1608867"><ele>229.5</ele><time>2026-04-06T07:23:13.277Z</time></trkpt><trkpt lat="42.4196458" lon="11.1610712"><ele>226.75</ele><time>2026-04-06T07:23:14.277Z</time></trkpt><trkpt lat="42.4196535" lon="11.1612522"><ele>224.0</ele><time>2026-04-06T07:23:15.277Z</time></trkpt><trkpt lat="42.4196668" lon="11.1614305"><ele>222.79999999999998</ele><time>2026-04-06T07:23:16.276Z</time></trkpt><trkpt lat="42.4196839" lon="11.1615803"><ele>221.59999999999997</ele><time>2026-04-06T07:23:17.276Z</time></trkpt><trkpt lat="42.4197007" lon="11.1617163"><ele>220.4</ele><time>2026-04-06T07:23:18.277Z</time></trkpt><trkpt lat="42.4197136" lon="11.1618317"><ele>219.2</ele><time>2026-04-06T07:23:19.277Z</time></trkpt><trkpt lat="42.4197337" lon="11.1619463"><ele>218.0</ele><time>2026-04-06T07:23:20.277Z</time></trkpt><trkpt lat="42.4197761" lon="11.1620498"><ele>218.0</ele><time>2026-04-06T07:23:21.277Z</time></trkpt><trkpt lat="42.4198387" lon="11.1621469"><ele>218.0</ele><time>2026-04-06T07:23:22.277Z</time></trkpt><trkpt lat="42.4199055" lon="11.1622478"><ele>218.0</ele><time>2026-04-06T07:23:23.277Z</time></trkpt><trkpt lat="42.4199742" lon="11.1623495"><ele>218.0</ele><time>2026-04-06T07:23:24.277Z</time></trkpt><trkpt lat="42.4200354" lon="11.1624569"><ele>218.0</ele><time>2026-04-06T07:23:25.277Z</time></trkpt><trkpt lat="42.4200872" lon="11.1625597"><ele>216.33333333333334</ele><time>2026-04-06T07:23:26.277Z</time></trkpt><trkpt lat="42.4201321" lon="11.1626616"><ele>214.66666666666669</ele><time>2026-04-06T07:23:27.277Z</time></trkpt><trkpt lat="42.4201762" lon="11.1627587"><ele>213.0</ele><time>2026-04-06T07:23:28.277Z</time></trkpt><trkpt lat="42.4202231" lon="11.162846"><ele>211.33333333333331</ele><time>2026-04-06T07:23:29.277Z</time></trkpt><trkpt lat="42.420267" lon="11.1629185"><ele>209.66666666666666</ele><time>2026-04-06T07:23:30.277Z</time></trkpt><trkpt lat="42.4203374" lon="11.1630309"><ele>208.0</ele><time>2026-04-06T07:23:32.276Z</time></trkpt><trkpt lat="42.4203943" lon="11.1630903"><ele>207.99999999999997</ele><time>2026-04-06T07:23:34.277Z</time></trkpt><trkpt lat="42.4204501" lon="11.1631319"><ele>208.0</ele><time>2026-04-06T07:23:38.277Z</time></trkpt><trkpt lat="42.4205257" lon="11.1631262"><ele>208.0</ele><time>2026-04-06T07:24:42.277Z</time></trkpt><trkpt lat="42.420611" lon="11.1631015"><ele>208.0</ele><time>2026-04-06T07:24:44.277Z</time></trkpt><trkpt lat="42.4206872" lon="11.1630716"><ele>207.99999999999997</ele><time>2026-04-06T07:24:46.277Z</time></trkpt><trkpt lat="42.4207681" lon="11.1630245"><ele>208.0</ele><time>2026-04-06T07:24:48.276Z</time></trkpt><trkpt lat="42.4208926" lon="11.1629618"><ele>207.60000000000002</ele><time>2026-04-06T07:24:50.276Z</time></trkpt><trkpt lat="42.4209697" lon="11.1629143"><ele>207.20000000000002</ele><time>2026-04-06T07:24:51.277Z</time></trkpt><trkpt lat="42.4210498" lon="11.1628443"><ele>206.8</ele><time>2026-04-06T07:24:52.277Z</time></trkpt><trkpt lat="42.4211131" lon="11.1627625"><ele>206.4</ele><time>2026-04-06T07:24:53.277Z</time></trkpt><trkpt lat="42.4211524" lon="11.1626507"><ele>206.0</ele><time>2026-04-06T07:24:54.276Z</time></trkpt><trkpt lat="42.4211838" lon="11.1625145"><ele>207.0</ele><time>2026-04-06T07:24:55.277Z</time></trkpt><trkpt lat="42.4212021" lon="11.1623522"><ele>208.0</ele><time>2026-04-06T07:24:56.277Z</time></trkpt><trkpt lat="42.421224" lon="11.1621636"><ele>209.0</ele><time>2026-04-06T07:24:57.277Z</time></trkpt><trkpt lat="42.4212552" lon="11.1619665"><ele>210.0</ele><time>2026-04-06T07:24:58.277Z</time></trkpt><trkpt lat="42.4212851" lon="11.1618128"><ele>210.0</ele><time>2026-04-06T07:24:59.277Z</time></trkpt><trkpt lat="42.4213127" lon="11.1616858"><ele>210.0</ele><time>2026-04-06T07:25:00.277Z</time></trkpt><trkpt lat="42.4213419" lon="11.1615779"><ele>210.0</ele><time>2026-04-06T07:25:01.276Z</time></trkpt><trkpt lat="42.4213867" lon="11.161493"><ele>210.0</ele><time>2026-04-06T07:25:02.277Z</time></trkpt><trkpt lat="42.4214506" lon="11.1614406"><ele>210.0</ele><time>2026-04-06T07:25:03.277Z</time></trkpt><trkpt lat="42.4215294" lon="11.1614374"><ele>210.0</ele><time>2026-04-06T07:25:04.277Z</time></trkpt><trkpt lat="42.4216181" lon="11.1614845"><ele>206.0</ele><time>2026-04-06T07:25:05.277Z</time></trkpt><trkpt lat="42.4217243" lon="11.1615548"><ele>202.0</ele><time>2026-04-06T07:25:06.277Z</time></trkpt><trkpt lat="42.4218219" lon="11.1616091"><ele>198.0</ele><time>2026-04-06T07:25:07.277Z</time></trkpt><trkpt lat="42.4219171" lon="11.1616339"><ele>194.0</ele><time>2026-04-06T07:25:08.276Z</time></trkpt><trkpt lat="42.4220241" lon="11.1616385"><ele>190.0</ele><time>2026-04-06T07:25:09.277Z</time></trkpt><trkpt lat="42.4221207" lon="11.1616305"><ele>186.8</ele><time>2026-04-06T07:25:10.277Z</time></trkpt><trkpt lat="42.4222025" lon="11.1616289"><ele>183.6</ele><time>2026-04-06T07:25:11.276Z</time></trkpt><trkpt lat="42.4222692" lon="11.1616476"><ele>180.39999999999998</ele><time>2026-04-06T07:25:12.277Z</time></trkpt><trkpt lat="42.4223318" lon="11.1617673"><ele>177.2</ele><time>2026-04-06T07:25:14.277Z</time></trkpt><trkpt lat="42.422265" lon="11.1619157"><ele>174.0</ele><time>2026-04-06T07:25:16.277Z</time></trkpt><trkpt lat="42.4221769" lon="11.1619468"><ele>176.66666666666666</ele><time>2026-04-06T07:25:17.277Z</time></trkpt><trkpt lat="42.4220733" lon="11.1619601"><ele>179.33333333333334</ele><time>2026-04-06T07:25:18.277Z</time></trkpt><trkpt lat="42.4219747" lon="11.1619673"><ele>182.0</ele><time>2026-04-06T07:25:19.277Z</time></trkpt><trkpt lat="42.4218907" lon="11.1619814"><ele>184.66666666666669</ele><time>2026-04-06T07:25:20.276Z</time></trkpt><trkpt lat="42.4218178" lon="11.1620334"><ele>187.33333333333334</ele><time>2026-04-06T07:25:21.276Z</time></trkpt><trkpt lat="42.4217818" lon="11.162125"><ele>190.0</ele><time>2026-04-06T07:25:22.276Z</time></trkpt><trkpt lat="42.4217842" lon="11.1622424"><ele>188.5</ele><time>2026-04-06T07:25:23.277Z</time></trkpt><trkpt lat="42.4218197" lon="11.1623671"><ele>187.0</ele><time>2026-04-06T07:25:24.276Z</time></trkpt><trkpt lat="42.4218844" lon="11.1625077"><ele>185.5</ele><time>2026-04-06T07:25:25.277Z</time></trkpt><trkpt lat="42.4219567" lon="11.1626342"><ele>184.0</ele><time>2026-04-06T07:25:26.277Z</time></trkpt><trkpt lat="42.4220318" lon="11.1627465"><ele>184.0</ele><time>2026-04-06T07:25:27.277Z</time></trkpt><trkpt lat="42.4221031" lon="11.1628554"><ele>184.0</ele><time>2026-04-06T07:25:28.277Z</time></trkpt><trkpt lat="42.4221746" lon="11.1629559"><ele>184.0</ele><time>2026-04-06T07:25:29.277Z</time></trkpt><trkpt lat="42.4222465" lon="11.1630503"><ele>184.0</ele><time>2026-04-06T07:25:30.277Z</time></trkpt><trkpt lat="42.4223169" lon="11.1631393"><ele>184.0</ele><time>2026-04-06T07:25:31.276Z</time></trkpt><trkpt lat="42.4223747" lon="11.1632303"><ele>179.66666666666669</ele><time>2026-04-06T07:25:32.276Z</time></trkpt><trkpt lat="42.4224246" lon="11.1633184"><ele>175.33333333333334</ele><time>2026-04-06T07:25:33.277Z</time></trkpt><trkpt lat="42.422475" lon="11.1634039"><ele>171.0</ele><time>2026-04-06T07:25:34.276Z</time></trkpt><trkpt lat="42.4225142" lon="11.1635006"><ele>166.66666666666666</ele><time>2026-04-06T07:25:35.277Z</time></trkpt><trkpt lat="42.4225362" lon="11.1635947"><ele>162.33333333333331</ele><time>2026-04-06T07:25:36.277Z</time></trkpt><trkpt lat="42.4225508" lon="11.163696"><ele>158.0</ele><time>2026-04-06T07:25:37.277Z</time></trkpt><trkpt lat="42.4225542" lon="11.1637995"><ele>158.0</ele><time>2026-04-06T07:25:38.277Z</time></trkpt><trkpt lat="42.4225457" lon="11.163908"><ele>158.0</ele><time>2026-04-06T07:25:39.276Z</time></trkpt><trkpt lat="42.4225144" lon="11.1640062"><ele>158.0</ele><time>2026-04-06T07:25:40.277Z</time></trkpt><trkpt lat="42.4224742" lon="11.1641019"><ele>158.0</ele><time>2026-04-06T07:25:41.277Z</time></trkpt><trkpt lat="42.4224229" lon="11.1641871"><ele>158.0</ele><time>2026-04-06T07:25:42.277Z</time></trkpt><trkpt lat="42.4223678" lon="11.1642669"><ele>158.0</ele><time>2026-04-06T07:25:43.277Z</time></trkpt><trkpt lat="42.4223044" lon="11.164339"><ele>158.8</ele><time>2026-04-06T07:25:44.277Z</time></trkpt><trkpt lat="42.4222418" lon="11.1644148"><ele>159.60000000000002</ele><time>2026-04-06T07:25:45.277Z</time></trkpt><trkpt lat="42.4221884" lon="11.1645105"><ele>160.39999999999998</ele><time>2026-04-06T07:25:46.277Z</time></trkpt><trkpt lat="42.4221461" lon="11.164622"><ele>161.2</ele><time>2026-04-06T07:25:47.277Z</time></trkpt><trkpt lat="42.4221153" lon="11.1647524"><ele>162.0</ele><time>2026-04-06T07:25:48.277Z</time></trkpt><trkpt lat="42.4220978" lon="11.1648888"><ele>162.0</ele><time>2026-04-06T07:25:49.277Z</time></trkpt><trkpt lat="42.4220948" lon="11.1650257"><ele>162.0</ele><time>2026-04-06T07:25:50.277Z</time></trkpt><trkpt lat="42.4220931" lon="11.1651585"><ele>162.0</ele><time>2026-04-06T07:25:51.277Z</time></trkpt><trkpt lat="42.4220928" lon="11.1652783"><ele>162.0</ele><time>2026-04-06T07:25:52.276Z</time></trkpt><trkpt lat="42.4220884" lon="11.1653843"><ele>162.0</ele><time>2026-04-06T07:25:53.277Z</time></trkpt><trkpt lat="42.4220782" lon="11.1654839"><ele>162.0</ele><time>2026-04-06T07:25:54.277Z</time></trkpt><trkpt lat="42.4220668" lon="11.1655779"><ele>162.0</ele><time>2026-04-06T07:25:55.277Z</time></trkpt><trkpt lat="42.422047" lon="11.1656741"><ele>162.0</ele><time>2026-04-06T07:25:56.277Z</time></trkpt><trkpt lat="42.422022" lon="11.165775"><ele>162.0</ele><time>2026-04-06T07:25:57.276Z</time></trkpt><trkpt lat="42.4219984" lon="11.1658761"><ele>162.0</ele><time>2026-04-06T07:25:58.277Z</time></trkpt><trkpt lat="42.4219665" lon="11.1659825"><ele>162.0</ele><time>2026-04-06T07:25:59.277Z</time></trkpt><trkpt lat="42.4219338" lon="11.1660812"><ele>162.0</ele><time>2026-04-06T07:26:00.277Z</time></trkpt><trkpt lat="42.4218891" lon="11.1661874"><ele>160.16666666666666</ele><time>2026-04-06T07:26:01.276Z</time></trkpt><trkpt lat="42.4218282" lon="11.166279"><ele>158.33333333333334</ele><time>2026-04-06T07:26:02.277Z</time></trkpt><trkpt lat="42.4217584" lon="11.1663547"><ele>156.5</ele><time>2026-04-06T07:26:03.277Z</time></trkpt><trkpt lat="42.4216884" lon="11.1664199"><ele>154.66666666666669</ele><time>2026-04-06T07:26:04.276Z</time></trkpt><trkpt lat="42.4216121" lon="11.1664652"><ele>152.83333333333334</ele><time>2026-04-06T07:26:05.276Z</time></trkpt><trkpt lat="42.4215333" lon="11.166494"><ele>151.0</ele><time>2026-04-06T07:26:06.277Z</time></trkpt><trkpt lat="42.4214523" lon="11.1665033"><ele>151.0</ele><time>2026-04-06T07:26:07.276Z</time></trkpt><trkpt lat="42.4213763" lon="11.1664914"><ele>151.0</ele><time>2026-04-06T07:26:08.277Z</time></trkpt><trkpt lat="42.4212997" lon="11.1664646"><ele>151.0</ele><time>2026-04-06T07:26:09.277Z</time></trkpt><trkpt lat="42.4212245" lon="11.1664374"><ele>151.0</ele><time>2026-04-06T07:26:10.277Z</time></trkpt><trkpt lat="42.4211587" lon="11.1664468"><ele>151.0</ele><time>2026-04-06T07:26:11.277Z</time></trkpt><trkpt lat="42.4210818" lon="11.1665625"><ele>151.0</ele><time>2026-04-06T07:26:13.277Z</time></trkpt><trkpt lat="42.4211075" lon="11.1667314"><ele>150.0</ele><time>2026-04-06T07:26:15.277Z</time></trkpt><trkpt lat="42.4211357" lon="11.1668348"><ele>149.0</ele><time>2026-04-06T07:26:16.277Z</time></trkpt><trkpt lat="42.421172" lon="11.1669381"><ele>148.0</ele><time>2026-04-06T07:26:17.277Z</time></trkpt><trkpt lat="42.4212085" lon="11.1670458"><ele>147.0</ele><time>2026-04-06T07:26:18.277Z</time></trkpt><trkpt lat="42.4212474" lon="11.1671614"><ele>146.0</ele><time>2026-04-06T07:26:19.277Z</time></trkpt><trkpt lat="42.4212871" lon="11.167286"><ele>145.0</ele><time>2026-04-06T07:26:20.277Z</time></trkpt><trkpt lat="42.4213229" lon="11.1674149"><ele>141.4</ele><time>2026-04-06T07:26:21.277Z</time></trkpt><trkpt lat="42.4213552" lon="11.1675396"><ele>137.8</ele><time>2026-04-06T07:26:22.277Z</time></trkpt><trkpt lat="42.4213855" lon="11.167672"><ele>134.2</ele><time>2026-04-06T07:26:23.277Z</time></trkpt><trkpt lat="42.4214145" lon="11.1678127"><ele>130.6</ele><time>2026-04-06T07:26:24.277Z</time></trkpt><trkpt lat="42.4214466" lon="11.1679629"><ele>127.0</ele><time>2026-04-06T07:26:25.277Z</time></trkpt><trkpt lat="42.4214865" lon="11.1681136"><ele>126.0</ele><time>2026-04-06T07:26:26.277Z</time></trkpt><trkpt lat="42.4215297" lon="11.1682615"><ele>124.99999999999999</ele><time>2026-04-06T07:26:27.277Z</time></trkpt><trkpt lat="42.4215745" lon="11.1683962"><ele>123.99999999999999</ele><time>2026-04-06T07:26:28.277Z</time></trkpt><trkpt lat="42.4216178" lon="11.1685226"><ele>123.0</ele><time>2026-04-06T07:26:29.277Z</time></trkpt><trkpt lat="42.4216686" lon="11.1686474"><ele>122.0</ele><time>2026-04-06T07:26:30.276Z</time></trkpt><trkpt lat="42.4217151" lon="11.1687732"><ele>122.0</ele><time>2026-04-06T07:26:31.277Z</time></trkpt><trkpt lat="42.4217598" lon="11.1688975"><ele>121.99999999999999</ele><time>2026-04-06T07:26:32.277Z</time></trkpt><trkpt lat="42.421796" lon="11.1690197"><ele>121.99999999999999</ele><time>2026-04-06T07:26:33.277Z</time></trkpt><trkpt lat="42.4218254" lon="11.169148"><ele>122.0</ele><time>2026-04-06T07:26:34.277Z</time></trkpt><trkpt lat="42.4218387" lon="11.1692736"><ele>122.0</ele><time>2026-04-06T07:26:35.277Z</time></trkpt><trkpt lat="42.4218415" lon="11.1693991"><ele>121.83333333333333</ele><time>2026-04-06T07:26:36.276Z</time></trkpt><trkpt lat="42.4218336" lon="11.1695246"><ele>121.66666666666666</ele><time>2026-04-06T07:26:37.276Z</time></trkpt><trkpt lat="42.421816" lon="11.1696436"><ele>121.5</ele><time>2026-04-06T07:26:38.277Z</time></trkpt><trkpt lat="42.4217995" lon="11.1697669"><ele>121.33333333333334</ele><time>2026-04-06T07:26:39.276Z</time></trkpt><trkpt lat="42.4217816" lon="11.1698823"><ele>121.16666666666667</ele><time>2026-04-06T07:26:40.277Z</time></trkpt><trkpt lat="42.4217633" lon="11.1699912"><ele>121.0</ele><time>2026-04-06T07:26:41.276Z</time></trkpt><trkpt lat="42.4217455" lon="11.1700894"><ele>119.50000000000001</ele><time>2026-04-06T07:26:42.276Z</time></trkpt><trkpt lat="42.4217261" lon="11.1701889"><ele>118.0</ele><time>2026-04-06T07:26:43.276Z</time></trkpt><trkpt lat="42.4217095" lon="11.1702905"><ele>116.5</ele><time>2026-04-06T07:26:44.277Z</time></trkpt><trkpt lat="42.4216976" lon="11.1703987"><ele>115.0</ele><time>2026-04-06T07:26:45.277Z</time></trkpt><trkpt lat="42.4216993" lon="11.1705032"><ele>113.50000000000001</ele><time>2026-04-06T07:26:46.277Z</time></trkpt><trkpt lat="42.4217019" lon="11.1706163"><ele>112.0</ele><time>2026-04-06T07:26:47.277Z</time></trkpt><trkpt lat="42.4217101" lon="11.1707222"><ele>110.83333333333334</ele><time>2026-04-06T07:26:48.277Z</time></trkpt><trkpt lat="42.4217207" lon="11.1708305"><ele>109.66666666666667</ele><time>2026-04-06T07:26:49.277Z</time></trkpt><trkpt lat="42.4217375" lon="11.170939"><ele>108.5</ele><time>2026-04-06T07:26:50.276Z</time></trkpt><trkpt lat="42.4217597" lon="11.1710498"><ele>107.33333333333334</ele><time>2026-04-06T07:26:51.277Z</time></trkpt><trkpt lat="42.4217882" lon="11.1711594"><ele>106.16666666666667</ele><time>2026-04-06T07:26:52.276Z</time></trkpt><trkpt lat="42.4218227" lon="11.1712693"><ele>105.0</ele><time>2026-04-06T07:26:53.277Z</time></trkpt><trkpt lat="42.4218596" lon="11.1713778"><ele>105.0</ele><time>2026-04-06T07:26:54.276Z</time></trkpt><trkpt lat="42.4219039" lon="11.1714823"><ele>105.0</ele><time>2026-04-06T07:26:55.277Z</time></trkpt><trkpt lat="42.4219517" lon="11.1715831"><ele>105.0</ele><time>2026-04-06T07:26:56.277Z</time></trkpt><trkpt lat="42.4219963" lon="11.1716878"><ele>105.0</ele><time>2026-04-06T07:26:57.277Z</time></trkpt><trkpt lat="42.422039" lon="11.1717904"><ele>105.0</ele><time>2026-04-06T07:26:58.276Z</time></trkpt><trkpt lat="42.4220879" lon="11.1718873"><ele>105.0</ele><time>2026-04-06T07:26:59.277Z</time></trkpt><trkpt lat="42.4221394" lon="11.1719804"><ele>102.33333333333333</ele><time>2026-04-06T07:27:00.277Z</time></trkpt><trkpt lat="42.4221919" lon="11.1720722"><ele>99.66666666666667</ele><time>2026-04-06T07:27:01.277Z</time></trkpt><trkpt lat="42.4222489" lon="11.1721657"><ele>97.0</ele><time>2026-04-06T07:27:02.276Z</time></trkpt><trkpt lat="42.4223034" lon="11.1722516"><ele>94.33333333333334</ele><time>2026-04-06T07:27:03.277Z</time></trkpt><trkpt lat="42.4223549" lon="11.1723358"><ele>91.66666666666667</ele><time>2026-04-06T07:27:04.276Z</time></trkpt><trkpt lat="42.4224039" lon="11.1724214"><ele>89.0</ele><time>2026-04-06T07:27:05.277Z</time></trkpt><trkpt lat="42.4224482" lon="11.1725048"><ele>89.0</ele><time>2026-04-06T07:27:06.276Z</time></trkpt><trkpt lat="42.4224933" lon="11.1725905"><ele>89.0</ele><time>2026-04-06T07:27:07.276Z</time></trkpt><trkpt lat="42.422571" lon="11.1727572"><ele>89.0</ele><time>2026-04-06T07:27:09.277Z</time></trkpt><trkpt lat="42.4226042" lon="11.1728435"><ele>89.0</ele><time>2026-04-06T07:27:10.277Z</time></trkpt><trkpt lat="42.4226359" lon="11.172936"><ele>89.0</ele><time>2026-04-06T07:27:11.277Z</time></trkpt><trkpt lat="42.4226672" lon="11.1730319"><ele>89.0</ele><time>2026-04-06T07:27:12.277Z</time></trkpt><trkpt lat="42.4226968" lon="11.1731313"><ele>90.0</ele><time>2026-04-06T07:27:13.276Z</time></trkpt><trkpt lat="42.4227231" lon="11.1732364"><ele>91.0</ele><time>2026-04-06T07:27:14.277Z</time></trkpt><trkpt lat="42.4227469" lon="11.1733403"><ele>92.0</ele><time>2026-04-06T07:27:15.277Z</time></trkpt><trkpt lat="42.4227778" lon="11.1734481"><ele>93.0</ele><time>2026-04-06T07:27:16.277Z</time></trkpt><trkpt lat="42.4228035" lon="11.173556"><ele>94.0</ele><time>2026-04-06T07:27:17.276Z</time></trkpt><trkpt lat="42.4228292" lon="11.1736679"><ele>95.0</ele><time>2026-04-06T07:27:18.277Z</time></trkpt><trkpt lat="42.4228625" lon="11.1737746"><ele>95.0</ele><time>2026-04-06T07:27:19.276Z</time></trkpt><trkpt lat="42.4229117" lon="11.1738775"><ele>95.0</ele><time>2026-04-06T07:27:20.276Z</time></trkpt><trkpt lat="42.4229718" lon="11.1739735"><ele>95.0</ele><time>2026-04-06T07:27:21.276Z</time></trkpt><trkpt lat="42.4230466" lon="11.1740653"><ele>95.0</ele><time>2026-04-06T07:27:22.276Z</time></trkpt><trkpt lat="42.4231352" lon="11.1741577"><ele>95.0</ele><time>2026-04-06T07:27:23.277Z</time></trkpt><trkpt lat="42.4232241" lon="11.1742495"><ele>92.0</ele><time>2026-04-06T07:27:24.277Z</time></trkpt><trkpt lat="42.4233121" lon="11.1743393"><ele>89.0</ele><time>2026-04-06T07:27:25.277Z</time></trkpt><trkpt lat="42.4233998" lon="11.1744176"><ele>86.0</ele><time>2026-04-06T07:27:26.276Z</time></trkpt><trkpt lat="42.4234864" lon="11.174502"><ele>83.0</ele><time>2026-04-06T07:27:27.277Z</time></trkpt><trkpt lat="42.4235692" lon="11.1745945"><ele>80.0</ele><time>2026-04-06T07:27:28.276Z</time></trkpt><trkpt lat="42.4236452" lon="11.1746799"><ele>80.0</ele><time>2026-04-06T07:27:29.277Z</time></trkpt><trkpt lat="42.4237245" lon="11.174759"><ele>80.0</ele><time>2026-04-06T07:27:30.276Z</time></trkpt><trkpt lat="42.4238065" lon="11.1748228"><ele>80.0</ele><time>2026-04-06T07:27:31.277Z</time></trkpt><trkpt lat="42.423886" lon="11.1748654"><ele>80.0</ele><time>2026-04-06T07:27:32.276Z</time></trkpt><trkpt lat="42.4239737" lon="11.1749027"><ele>80.0</ele><time>2026-04-06T07:27:33.275Z</time></trkpt><trkpt lat="42.42406" lon="11.1749177"><ele>79.33333333333334</ele><time>2026-04-06T07:27:34.276Z</time></trkpt><trkpt lat="42.4241436" lon="11.1749319"><ele>78.66666666666667</ele><time>2026-04-06T07:27:35.275Z</time></trkpt><trkpt lat="42.4242246" lon="11.1749488"><ele>78.0</ele><time>2026-04-06T07:27:36.275Z</time></trkpt><trkpt lat="42.4243022" lon="11.1749701"><ele>77.33333333333333</ele><time>2026-04-06T07:27:37.276Z</time></trkpt><trkpt lat="42.4243754" lon="11.1749971"><ele>76.66666666666666</ele><time>2026-04-06T07:27:38.276Z</time></trkpt><trkpt lat="42.4244474" lon="11.175034"><ele>76.0</ele><time>2026-04-06T07:27:39.276Z</time></trkpt><trkpt lat="42.4245117" lon="11.1750878"><ele>76.0</ele><time>2026-04-06T07:27:40.277Z</time></trkpt><trkpt lat="42.4245685" lon="11.1751545"><ele>76.0</ele><time>2026-04-06T07:27:41.277Z</time></trkpt><trkpt lat="42.4246163" lon="11.1752269"><ele>76.0</ele><time>2026-04-06T07:27:42.277Z</time></trkpt><trkpt lat="42.4246518" lon="11.1753068"><ele>76.0</ele><time>2026-04-06T07:27:43.277Z</time></trkpt><trkpt lat="42.4247239" lon="11.1754404"><ele>76.0</ele><time>2026-04-06T07:27:45.277Z</time></trkpt><trkpt lat="42.4247559" lon="11.1755427"><ele>76.0</ele><time>2026-04-06T07:27:46.277Z</time></trkpt><trkpt lat="42.4247993" lon="11.1756434"><ele>75.2</ele><time>2026-04-06T07:27:47.276Z</time></trkpt><trkpt lat="42.424843" lon="11.1757682"><ele>74.39999999999999</ele><time>2026-04-06T07:27:48.277Z</time></trkpt><trkpt lat="42.4248878" lon="11.1759079"><ele>73.6</ele><time>2026-04-06T07:27:49.277Z</time></trkpt><trkpt lat="42.4249286" lon="11.1760394"><ele>72.8</ele><time>2026-04-06T07:27:50.277Z</time></trkpt><trkpt lat="42.4249703" lon="11.1761689"><ele>72.0</ele><time>2026-04-06T07:27:51.277Z</time></trkpt><trkpt lat="42.4250248" lon="11.1762964"><ele>72.0</ele><time>2026-04-06T07:27:52.277Z</time></trkpt><trkpt lat="42.4251006" lon="11.1764066"><ele>72.0</ele><time>2026-04-06T07:27:53.277Z</time></trkpt><trkpt lat="42.4251913" lon="11.1764868"><ele>72.0</ele><time>2026-04-06T07:27:54.277Z</time></trkpt><trkpt lat="42.4252908" lon="11.1765462"><ele>72.0</ele><time>2026-04-06T07:27:55.277Z</time></trkpt><trkpt lat="42.4253945" lon="11.1765694"><ele>72.0</ele><time>2026-04-06T07:27:56.276Z</time></trkpt><trkpt lat="42.4255019" lon="11.1765832"><ele>71.2</ele><time>2026-04-06T07:27:57.276Z</time></trkpt><trkpt lat="42.4256037" lon="11.1765747"><ele>70.4</ele><time>2026-04-06T07:27:58.277Z</time></trkpt><trkpt lat="42.4256985" lon="11.1765375"><ele>69.6</ele><time>2026-04-06T07:27:59.277Z</time></trkpt><trkpt lat="42.4257892" lon="11.1764837"><ele>68.8</ele><time>2026-04-06T07:28:00.276Z</time></trkpt><trkpt lat="42.4258689" lon="11.176405"><ele>68.0</ele><time>2026-04-06T07:28:01.276Z</time></trkpt><trkpt lat="42.4259427" lon="11.1762976"><ele>68.0</ele><time>2026-04-06T07:28:02.277Z</time></trkpt><trkpt lat="42.4260033" lon="11.1761654"><ele>68.0</ele><time>2026-04-06T07:28:03.276Z</time></trkpt><trkpt lat="42.4260555" lon="11.1760195"><ele>68.0</ele><time>2026-04-06T07:28:04.277Z</time></trkpt><trkpt lat="42.4260924" lon="11.1758652"><ele>68.0</ele><time>2026-04-06T07:28:05.277Z</time></trkpt><trkpt lat="42.4261176" lon="11.1757028"><ele>67.25</ele><time>2026-04-06T07:28:06.277Z</time></trkpt><trkpt lat="42.4261333" lon="11.1755459"><ele>66.5</ele><time>2026-04-06T07:28:07.277Z</time></trkpt><trkpt lat="42.4261348" lon="11.1753949"><ele>65.75</ele><time>2026-04-06T07:28:08.277Z</time></trkpt><trkpt lat="42.426119" lon="11.1752406"><ele>65.0</ele><time>2026-04-06T07:28:09.277Z</time></trkpt><trkpt lat="42.4260759" lon="11.175078"><ele>65.0</ele><time>2026-04-06T07:28:10.277Z</time></trkpt><trkpt lat="42.4260193" lon="11.1749205"><ele>65.0</ele><time>2026-04-06T07:28:11.277Z</time></trkpt><trkpt lat="42.4259524" lon="11.1747715"><ele>65.0</ele><time>2026-04-06T07:28:12.277Z</time></trkpt><trkpt lat="42.425872" lon="11.1746356"><ele>65.0</ele><time>2026-04-06T07:28:13.277Z</time></trkpt><trkpt lat="42.425782" lon="11.1745132"><ele>63.2</ele><time>2026-04-06T07:28:14.276Z</time></trkpt><trkpt lat="42.4256961" lon="11.1744029"><ele>61.4</ele><time>2026-04-06T07:28:15.276Z</time></trkpt><trkpt lat="42.4256245" lon="11.1743049"><ele>59.599999999999994</ele><time>2026-04-06T07:28:16.277Z</time></trkpt><trkpt lat="42.4255691" lon="11.174197"><ele>57.8</ele><time>2026-04-06T07:28:17.277Z</time></trkpt><trkpt lat="42.4255417" lon="11.1740875"><ele>56.0</ele><time>2026-04-06T07:28:18.276Z</time></trkpt><trkpt lat="42.42554" lon="11.1739769"><ele>55.599999999999994</ele><time>2026-04-06T07:28:19.277Z</time></trkpt><trkpt lat="42.4255646" lon="11.1738628"><ele>55.199999999999996</ele><time>2026-04-06T07:28:20.277Z</time></trkpt><trkpt lat="42.4256054" lon="11.1737502"><ele>54.800000000000004</ele><time>2026-04-06T07:28:21.277Z</time></trkpt><trkpt lat="42.4256596" lon="11.173631"><ele>54.400000000000006</ele><time>2026-04-06T07:28:22.277Z</time></trkpt><trkpt lat="42.4257253" lon="11.1734994"><ele>54.0</ele><time>2026-04-06T07:28:23.277Z</time></trkpt><trkpt lat="42.4257887" lon="11.1733787"><ele>54.0</ele><time>2026-04-06T07:28:24.276Z</time></trkpt><trkpt lat="42.4258681" lon="11.1732865"><ele>54.00000000000001</ele><time>2026-04-06T07:28:25.277Z</time></trkpt><trkpt lat="42.4259531" lon="11.1732205"><ele>54.00000000000001</ele><time>2026-04-06T07:28:26.276Z</time></trkpt><trkpt lat="42.4260544" lon="11.1731696"><ele>54.0</ele><time>2026-04-06T07:28:27.276Z</time></trkpt><trkpt lat="42.4261754" lon="11.173153"><ele>54.0</ele><time>2026-04-06T07:28:28.276Z</time></trkpt><trkpt lat="42.4263069" lon="11.1731339"><ele>51.25</ele><time>2026-04-06T07:28:29.276Z</time></trkpt><trkpt lat="42.4264432" lon="11.1731236"><ele>48.5</ele><time>2026-04-06T07:28:30.277Z</time></trkpt><trkpt lat="42.4265791" lon="11.1731086"><ele>45.75</ele><time>2026-04-06T07:28:31.277Z</time></trkpt><trkpt lat="42.4267226" lon="11.1730966"><ele>43.0</ele><time>2026-04-06T07:28:32.276Z</time></trkpt><trkpt lat="42.4268638" lon="11.1730856"><ele>43.0</ele><time>2026-04-06T07:28:33.277Z</time></trkpt><trkpt lat="42.4269991" lon="11.1730802"><ele>43.0</ele><time>2026-04-06T07:28:34.276Z</time></trkpt><trkpt lat="42.4271303" lon="11.1730771"><ele>43.0</ele><time>2026-04-06T07:28:35.277Z</time></trkpt><trkpt lat="42.4272503" lon="11.1730666"><ele>43.0</ele><time>2026-04-06T07:28:36.277Z</time></trkpt><trkpt lat="42.4273621" lon="11.1730533"><ele>43.599999999999994</ele><time>2026-04-06T07:28:37.277Z</time></trkpt><trkpt lat="42.4274594" lon="11.1730088"><ele>44.199999999999996</ele><time>2026-04-06T07:28:38.277Z</time></trkpt><trkpt lat="42.427547" lon="11.1729343"><ele>44.8</ele><time>2026-04-06T07:28:39.276Z</time></trkpt><trkpt lat="42.4276277" lon="11.1728271"><ele>45.4</ele><time>2026-04-06T07:28:40.277Z</time></trkpt><trkpt lat="42.4276997" lon="11.1726917"><ele>46.0</ele><time>2026-04-06T07:28:41.276Z</time></trkpt><trkpt lat="42.4277523" lon="11.1725507"><ele>46.0</ele><time>2026-04-06T07:28:42.277Z</time></trkpt><trkpt lat="42.4278042" lon="11.172419"><ele>46.0</ele><time>2026-04-06T07:28:43.277Z</time></trkpt><trkpt lat="42.4278692" lon="11.17231"><ele>46.0</ele><time>2026-04-06T07:28:44.277Z</time></trkpt><trkpt lat="42.4279542" lon="11.1722068"><ele>46.0</ele><time>2026-04-06T07:28:45.276Z</time></trkpt><trkpt lat="42.4280468" lon="11.172102"><ele>46.0</ele><time>2026-04-06T07:28:46.276Z</time></trkpt><trkpt lat="42.4281533" lon="11.171998"><ele>45.199999999999996</ele><time>2026-04-06T07:28:47.276Z</time></trkpt><trkpt lat="42.4282544" lon="11.171915"><ele>44.4</ele><time>2026-04-06T07:28:48.277Z</time></trkpt><trkpt lat="42.4283559" lon="11.1718552"><ele>43.6</ele><time>2026-04-06T07:28:49.276Z</time></trkpt><trkpt lat="42.4284471" lon="11.1718377"><ele>42.8</ele><time>2026-04-06T07:28:50.277Z</time></trkpt><trkpt lat="42.4285333" lon="11.1718617"><ele>42.0</ele><time>2026-04-06T07:28:51.277Z</time></trkpt><trkpt lat="42.4286237" lon="11.171912"><ele>42.0</ele><time>2026-04-06T07:28:52.276Z</time></trkpt><trkpt lat="42.4287209" lon="11.1719558"><ele>42.0</ele><time>2026-04-06T07:28:53.276Z</time></trkpt><trkpt lat="42.4288132" lon="11.1719759"><ele>42.0</ele><time>2026-04-06T07:28:54.277Z</time></trkpt><trkpt lat="42.4288986" lon="11.1719571"><ele>42.0</ele><time>2026-04-06T07:28:55.276Z</time></trkpt><trkpt lat="42.4289682" lon="11.1718927"><ele>42.0</ele><time>2026-04-06T07:28:56.277Z</time></trkpt><trkpt lat="42.4290284" lon="11.1717946"><ele>42.0</ele><time>2026-04-06T07:28:57.277Z</time></trkpt><trkpt lat="42.4290955" lon="11.1716679"><ele>42.0</ele><time>2026-04-06T07:28:58.277Z</time></trkpt><trkpt lat="42.4291671" lon="11.1715269"><ele>42.0</ele><time>2026-04-06T07:28:59.277Z</time></trkpt><trkpt lat="42.429237" lon="11.1713838"><ele>42.0</ele><time>2026-04-06T07:29:00.277Z</time></trkpt><trkpt lat="42.4293124" lon="11.1712537"><ele>39.25</ele><time>2026-04-06T07:29:01.277Z</time></trkpt><trkpt lat="42.4293943" lon="11.1711302"><ele>36.5</ele><time>2026-04-06T07:29:02.277Z</time></trkpt><trkpt lat="42.4295063" lon="11.1710303"><ele>33.75</ele><time>2026-04-06T07:29:03.277Z</time></trkpt><trkpt lat="42.4296284" lon="11.17095"><ele>31.0</ele><time>2026-04-06T07:29:04.276Z</time></trkpt><trkpt lat="42.429752" lon="11.170878"><ele>31.0</ele><time>2026-04-06T07:29:05.277Z</time></trkpt><trkpt lat="42.4298732" lon="11.1708085"><ele>31.0</ele><time>2026-04-06T07:29:06.276Z</time></trkpt><trkpt lat="42.4299888" lon="11.1707457"><ele>31.0</ele><time>2026-04-06T07:29:07.277Z</time></trkpt><trkpt lat="42.4300951" lon="11.1706855"><ele>31.0</ele><time>2026-04-06T07:29:08.277Z</time></trkpt><trkpt lat="42.4301874" lon="11.1706482"><ele>31.0</ele><time>2026-04-06T07:29:09.276Z</time></trkpt><trkpt lat="42.430283" lon="11.1706411"><ele>31.0</ele><time>2026-04-06T07:29:10.277Z</time></trkpt><trkpt lat="42.4303682" lon="11.1706695"><ele>31.0</ele><time>2026-04-06T07:29:11.276Z</time></trkpt><trkpt lat="42.430452" lon="11.1707314"><ele>31.0</ele><time>2026-04-06T07:29:12.277Z</time></trkpt><trkpt lat="42.4305474" lon="11.1708229"><ele>31.0</ele><time>2026-04-06T07:29:13.277Z</time></trkpt><trkpt lat="42.4306508" lon="11.1709435"><ele>27.75</ele><time>2026-04-06T07:29:14.277Z</time></trkpt><trkpt lat="42.430761" lon="11.171081"><ele>24.5</ele><time>2026-04-06T07:29:15.276Z</time></trkpt><trkpt lat="42.430863" lon="11.171224"><ele>21.25</ele><time>2026-04-06T07:29:16.277Z</time></trkpt><trkpt lat="42.4309594" lon="11.1713591"><ele>18.0</ele><time>2026-04-06T07:29:17.276Z</time></trkpt><trkpt lat="42.431046" lon="11.1714914"><ele>16.75</ele><time>2026-04-06T07:29:18.277Z</time></trkpt><trkpt lat="42.4311414" lon="11.1716128"><ele>15.5</ele><time>2026-04-06T07:29:19.277Z</time></trkpt><trkpt lat="42.4312538" lon="11.1716992"><ele>14.25</ele><time>2026-04-06T07:29:20.277Z</time></trkpt><trkpt lat="42.4313871" lon="11.1717537"><ele>13.0</ele><time>2026-04-06T07:29:21.277Z</time></trkpt><trkpt lat="42.4315282" lon="11.1717855"><ele>13.0</ele><time>2026-04-06T07:29:22.277Z</time></trkpt><trkpt lat="42.4316546" lon="11.1718172"><ele>13.0</ele><time>2026-04-06T07:29:23.277Z</time></trkpt><trkpt lat="42.4317736" lon="11.1718559"><ele>13.0</ele><time>2026-04-06T07:29:24.277Z</time></trkpt><trkpt lat="42.4318876" lon="11.1719137"><ele>13.0</ele><time>2026-04-06T07:29:25.277Z</time></trkpt><trkpt lat="42.4319784" lon="11.1719897"><ele>13.0</ele><time>2026-04-06T07:29:26.276Z</time></trkpt><trkpt lat="42.4320611" lon="11.1720972"><ele>13.0</ele><time>2026-04-06T07:29:27.276Z</time></trkpt><trkpt lat="42.4321319" lon="11.1722262"><ele>13.0</ele><time>2026-04-06T07:29:28.276Z</time></trkpt><trkpt lat="42.4321962" lon="11.1723595"><ele>13.0</ele><time>2026-04-06T07:29:29.277Z</time></trkpt><trkpt lat="42.432265" lon="11.172498"><ele>12.0</ele><time>2026-04-06T07:29:30.277Z</time></trkpt><trkpt lat="42.432329" lon="11.1726344"><ele>11.0</ele><time>2026-04-06T07:29:31.276Z</time></trkpt><trkpt lat="42.4323894" lon="11.1727627"><ele>10.0</ele><time>2026-04-06T07:29:32.277Z</time></trkpt><trkpt lat="42.4324459" lon="11.1728854"><ele>9.0</ele><time>2026-04-06T07:29:33.276Z</time></trkpt><trkpt lat="42.4324853" lon="11.1729985"><ele>8.0</ele><time>2026-04-06T07:29:34.276Z</time></trkpt><trkpt lat="42.4325247" lon="11.1731169"><ele>7.800000000000001</ele><time>2026-04-06T07:29:35.277Z</time></trkpt><trkpt lat="42.4325415" lon="11.1732395"><ele>7.6000000000000005</ele><time>2026-04-06T07:29:36.277Z</time></trkpt><trkpt lat="42.4325348" lon="11.1733672"><ele>7.3999999999999995</ele><time>2026-04-06T07:29:37.277Z</time></trkpt><trkpt lat="42.4325057" lon="11.1734914"><ele>7.199999999999999</ele><time>2026-04-06T07:29:38.277Z</time></trkpt><trkpt lat="42.4324572" lon="11.1735963"><ele>7.0</ele><time>2026-04-06T07:29:39.277Z</time></trkpt><trkpt lat="42.4323939" lon="11.1736785"><ele>7.0</ele><time>2026-04-06T07:29:40.277Z</time></trkpt><trkpt lat="42.4323148" lon="11.1737326"><ele>6.999999999999999</ele><time>2026-04-06T07:29:41.277Z</time></trkpt><trkpt lat="42.4322202" lon="11.1737883"><ele>6.999999999999999</ele><time>2026-04-06T07:29:42.277Z</time></trkpt><trkpt lat="42.4321234" lon="11.1738704"><ele>7.0</ele><time>2026-04-06T07:29:43.277Z</time></trkpt><trkpt lat="42.4320373" lon="11.1740059"><ele>7.0</ele><time>2026-04-06T07:29:44.276Z</time></trkpt><trkpt lat="42.4319577" lon="11.1741824"><ele>9.5</ele><time>2026-04-06T07:29:45.277Z</time></trkpt><trkpt lat="42.4318981" lon="11.1743852"><ele>12.0</ele><time>2026-04-06T07:29:46.277Z</time></trkpt><trkpt lat="42.4318571" lon="11.1745709"><ele>14.5</ele><time>2026-04-06T07:29:47.276Z</time></trkpt><trkpt lat="42.4318274" lon="11.1747174"><ele>17.0</ele><time>2026-04-06T07:29:48.277Z</time></trkpt><trkpt lat="42.4318026" lon="11.1748374"><ele>16.333333333333336</ele><time>2026-04-06T07:29:49.277Z</time></trkpt><trkpt lat="42.4317889" lon="11.1749289"><ele>15.666666666666668</ele><time>2026-04-06T07:29:50.276Z</time></trkpt><trkpt lat="42.4317896" lon="11.1750217"><ele>15.0</ele><time>2026-04-06T07:29:52.277Z</time></trkpt><trkpt lat="42.4318856" lon="11.1750698"><ele>14.333333333333332</ele><time>2026-04-06T07:29:55.276Z</time></trkpt><trkpt lat="42.4319946" lon="11.1750514"><ele>13.666666666666666</ele><time>2026-04-06T07:29:58.277Z</time></trkpt><trkpt lat="42.4320567" lon="11.1749692"><ele>13.0</ele><time>2026-04-06T07:29:59.276Z</time></trkpt><trkpt lat="42.4321154" lon="11.1748594"><ele>9.0</ele><time>2026-04-06T07:30:00.277Z</time></trkpt><trkpt lat="42.4321814" lon="11.1746994"><ele>5.0</ele><time>2026-04-06T07:30:01.276Z</time></trkpt><trkpt lat="42.4322663" lon="11.1745136"><ele>1.0</ele><time>2026-04-06T07:30:02.276Z</time></trkpt><trkpt lat="42.432357" lon="11.1743132"><ele>1.0</ele><time>2026-04-06T07:30:03.277Z</time></trkpt><trkpt lat="42.4324599" lon="11.1740842"><ele>1.0</ele><time>2026-04-06T07:30:04.276Z</time></trkpt><trkpt lat="42.4325521" lon="11.1738438"><ele>1.0</ele><time>2026-04-06T07:30:05.276Z</time></trkpt><trkpt lat="42.4326299" lon="11.1735765"><ele>3.0</ele><time>2026-04-06T07:30:06.276Z</time></trkpt><trkpt lat="42.4326862" lon="11.1732886"><ele>5.0</ele><time>2026-04-06T07:30:07.277Z</time></trkpt><trkpt lat="42.4327146" lon="11.1729959"><ele>7.0</ele><time>2026-04-06T07:30:08.276Z</time></trkpt><trkpt lat="42.4327182" lon="11.1727231"><ele>7.333333333333334</ele><time>2026-04-06T07:30:09.277Z</time></trkpt><trkpt lat="42.4326908" lon="11.1724533"><ele>7.666666666666666</ele><time>2026-04-06T07:30:10.276Z</time></trkpt><trkpt lat="42.4326401" lon="11.1721864"><ele>8.0</ele><time>2026-04-06T07:30:11.276Z</time></trkpt><trkpt lat="42.4325643" lon="11.1719298"><ele>6.333333333333333</ele><time>2026-04-06T07:30:12.277Z</time></trkpt><trkpt lat="42.4324726" lon="11.1716949"><ele>4.666666666666666</ele><time>2026-04-06T07:30:13.277Z</time></trkpt><trkpt lat="42.4323601" lon="11.1714729"><ele>3.0</ele><time>2026-04-06T07:30:14.276Z</time></trkpt><trkpt lat="42.4322271" lon="11.1712709"><ele>3.0</ele><time>2026-04-06T07:30:15.276Z</time></trkpt><trkpt lat="42.4320724" lon="11.1710911"><ele>3.0</ele><time>2026-04-06T07:30:16.277Z</time></trkpt><trkpt lat="42.4318998" lon="11.1709426"><ele>3.0</ele><time>2026-04-06T07:30:17.276Z</time></trkpt><trkpt lat="42.4317365" lon="11.1708151"><ele>3.0</ele><time>2026-04-06T07:30:18.277Z</time></trkpt><trkpt lat="42.4315749" lon="11.1706939"><ele>3.0</ele><time>2026-04-06T07:30:19.276Z</time></trkpt><trkpt lat="42.4314131" lon="11.1705757"><ele>3.0</ele><time>2026-04-06T07:30:20.276Z</time></trkpt><trkpt lat="42.4312529" lon="11.1704545"><ele>4.0</ele><time>2026-04-06T07:30:21.277Z</time></trkpt><trkpt lat="42.4310968" lon="11.1703338"><ele>5.0</ele><time>2026-04-06T07:30:22.277Z</time></trkpt><trkpt lat="42.4309392" lon="11.1702159"><ele>6.0</ele><time>2026-04-06T07:30:23.277Z</time></trkpt><trkpt lat="42.4307824" lon="11.1700835"><ele>6.0</ele><time>2026-04-06T07:30:24.277Z</time></trkpt><trkpt lat="42.4306316" lon="11.1699396"><ele>6.0</ele><time>2026-04-06T07:30:25.277Z</time></trkpt><trkpt lat="42.430483" lon="11.1697831"><ele>6.0</ele><time>2026-04-06T07:30:26.277Z</time></trkpt><trkpt lat="42.4303455" lon="11.1696072"><ele>4.0</ele><time>2026-04-06T07:30:27.277Z</time></trkpt><trkpt lat="42.4302154" lon="11.1694184"><ele>2.0</ele><time>2026-04-06T07:30:28.276Z</time></trkpt><trkpt lat="42.4300941" lon="11.1692173"><ele>0.0</ele><time>2026-04-06T07:30:29.277Z</time></trkpt><trkpt lat="42.429979" lon="11.1690076"><ele>-0.6666666666666666</ele><time>2026-04-06T07:30:30.277Z</time></trkpt><trkpt lat="42.429883" lon="11.1687829"><ele>-1.3333333333333333</ele><time>2026-04-06T07:30:31.277Z</time></trkpt><trkpt lat="42.4298" lon="11.1685458"><ele>-2.0</ele><time>2026-04-06T07:30:32.277Z</time></trkpt><trkpt lat="42.4297295" lon="11.1683019"><ele>-1.3333333333333333</ele><time>2026-04-06T07:30:33.277Z</time></trkpt><trkpt lat="42.4296712" lon="11.1680472"><ele>-0.6666666666666666</ele><time>2026-04-06T07:30:34.276Z</time></trkpt><trkpt lat="42.4296269" lon="11.1677869"><ele>0.0</ele><time>2026-04-06T07:30:35.276Z</time></trkpt><trkpt lat="42.4295966" lon="11.1675233"><ele>2.6666666666666665</ele><time>2026-04-06T07:30:36.277Z</time></trkpt><trkpt lat="42.42958" lon="11.1672599"><ele>5.333333333333333</ele><time>2026-04-06T07:30:37.276Z</time></trkpt><trkpt lat="42.429579" lon="11.166995"><ele>8.0</ele><time>2026-04-06T07:30:38.276Z</time></trkpt><trkpt lat="42.4295893" lon="11.1667475"><ele>10.333333333333332</ele><time>2026-04-06T07:30:39.277Z</time></trkpt><trkpt lat="42.4296059" lon="11.166509"><ele>12.666666666666666</ele><time>2026-04-06T07:30:40.276Z</time></trkpt><trkpt lat="42.429627" lon="11.1662859"><ele>15.0</ele><time>2026-04-06T07:30:41.276Z</time></trkpt><trkpt lat="42.4296482" lon="11.166075"><ele>10.333333333333334</ele><time>2026-04-06T07:30:42.277Z</time></trkpt><trkpt lat="42.4296692" lon="11.1658649"><ele>5.666666666666667</ele><time>2026-04-06T07:30:43.276Z</time></trkpt><trkpt lat="42.4296941" lon="11.1656573"><ele>1.0</ele><time>2026-04-06T07:30:44.276Z</time></trkpt><trkpt lat="42.4297159" lon="11.1654548"><ele>1.0</ele><time>2026-04-06T07:30:45.277Z</time></trkpt><trkpt lat="42.4297357" lon="11.1652495"><ele>1.0</ele><time>2026-04-06T07:30:46.277Z</time></trkpt><trkpt lat="42.4297561" lon="11.1650431"><ele>1.0</ele><time>2026-04-06T07:30:47.276Z</time></trkpt><trkpt lat="42.4297761" lon="11.1648379"><ele>1.0</ele><time>2026-04-06T07:30:48.277Z</time></trkpt><trkpt lat="42.4298015" lon="11.1646279"><ele>1.0</ele><time>2026-04-06T07:30:49.276Z</time></trkpt><trkpt lat="42.4298248" lon="11.1644168"><ele>1.0</ele><time>2026-04-06T07:30:50.277Z</time></trkpt><trkpt lat="42.4298496" lon="11.1641926"><ele>1.0</ele><time>2026-04-06T07:30:51.277Z</time></trkpt><trkpt lat="42.4298796" lon="11.1639641"><ele>1.0</ele><time>2026-04-06T07:30:52.276Z</time></trkpt><trkpt lat="42.4299063" lon="11.1637344"><ele>1.0</ele><time>2026-04-06T07:30:53.276Z</time></trkpt><trkpt lat="42.4299345" lon="11.1634973"><ele>1.0</ele><time>2026-04-06T07:30:54.277Z</time></trkpt><trkpt lat="42.4299626" lon="11.1632541"><ele>1.0</ele><time>2026-04-06T07:30:55.277Z</time></trkpt><trkpt lat="42.4299865" lon="11.1630079"><ele>1.0</ele><time>2026-04-06T07:30:56.277Z</time></trkpt><trkpt lat="42.4300133" lon="11.1627569"><ele>1.6666666666666665</ele><time>2026-04-06T07:30:57.276Z</time></trkpt><trkpt lat="42.430039" lon="11.1625013"><ele>2.3333333333333335</ele><time>2026-04-06T07:30:58.277Z</time></trkpt><trkpt lat="42.4300663" lon="11.1622494"><ele>3.0</ele><time>2026-04-06T07:30:59.277Z</time></trkpt><trkpt lat="42.4300964" lon="11.1619995"><ele>4.333333333333334</ele><time>2026-04-06T07:31:00.277Z</time></trkpt><trkpt lat="42.430132" lon="11.1617475"><ele>5.666666666666667</ele><time>2026-04-06T07:31:01.277Z</time></trkpt><trkpt lat="42.4301697" lon="11.1614913"><ele>7.0</ele><time>2026-04-06T07:31:02.277Z</time></trkpt><trkpt lat="42.4302286" lon="11.1612353"><ele>7.333333333333334</ele><time>2026-04-06T07:31:03.276Z</time></trkpt><trkpt lat="42.4302909" lon="11.16097"><ele>7.666666666666666</ele><time>2026-04-06T07:31:04.277Z</time></trkpt><trkpt lat="42.4303644" lon="11.1606993"><ele>8.0</ele><time>2026-04-06T07:31:05.277Z</time></trkpt><trkpt lat="42.4304494" lon="11.1604281"><ele>6.666666666666666</ele><time>2026-04-06T07:31:06.277Z</time></trkpt><trkpt lat="42.430546" lon="11.160156"><ele>5.333333333333333</ele><time>2026-04-06T07:31:07.276Z</time></trkpt><trkpt lat="42.4306512" lon="11.1598952"><ele>4.0</ele><time>2026-04-06T07:31:08.277Z</time></trkpt><trkpt lat="42.4307644" lon="11.1596449"><ele>4.0</ele><time>2026-04-06T07:31:09.277Z</time></trkpt><trkpt lat="42.4308904" lon="11.1593972"><ele>4.0</ele><time>2026-04-06T07:31:10.277Z</time></trkpt><trkpt lat="42.4310163" lon="11.1591578"><ele>4.0</ele><time>2026-04-06T07:31:11.276Z</time></trkpt><trkpt lat="42.4311317" lon="11.1589368"><ele>3.6666666666666665</ele><time>2026-04-06T07:31:12.277Z</time></trkpt><trkpt lat="42.4312412" lon="11.1587189"><ele>3.333333333333333</ele><time>2026-04-06T07:31:13.277Z</time></trkpt><trkpt lat="42.4313449" lon="11.1585107"><ele>3.0</ele><time>2026-04-06T07:31:14.277Z</time></trkpt><trkpt lat="42.4314475" lon="11.1583228"><ele>3.333333333333333</ele><time>2026-04-06T07:31:15.277Z</time></trkpt><trkpt lat="42.4315495" lon="11.1581482"><ele>3.6666666666666665</ele><time>2026-04-06T07:31:16.277Z</time></trkpt><trkpt lat="42.4316548" lon="11.1579907"><ele>4.0</ele><time>2026-04-06T07:31:17.277Z</time></trkpt><trkpt lat="42.431771" lon="11.1578503"><ele>4.0</ele><time>2026-04-06T07:31:18.277Z</time></trkpt><trkpt lat="42.4319009" lon="11.1577304"><ele>4.0</ele><time>2026-04-06T07:31:19.277Z</time></trkpt><trkpt lat="42.4320439" lon="11.1576374"><ele>4.0</ele><time>2026-04-06T07:31:20.277Z</time></trkpt><trkpt lat="42.4321932" lon="11.1575775"><ele>4.0</ele><time>2026-04-06T07:31:21.277Z</time></trkpt><trkpt lat="42.4323431" lon="11.1575375"><ele>4.0</ele><time>2026-04-06T07:31:22.276Z</time></trkpt><trkpt lat="42.4324882" lon="11.1575403"><ele>4.0</ele><time>2026-04-06T07:31:23.276Z</time></trkpt><trkpt lat="42.4326302" lon="11.1575616"><ele>4.0</ele><time>2026-04-06T07:31:24.276Z</time></trkpt><trkpt lat="42.4327641" lon="11.1575903"><ele>4.0</ele><time>2026-04-06T07:31:25.277Z</time></trkpt><trkpt lat="42.4328845" lon="11.1576231"><ele>4.0</ele><time>2026-04-06T07:31:26.277Z</time></trkpt><trkpt lat="42.4329895" lon="11.1576624"><ele>4.0</ele><time>2026-04-06T07:31:27.276Z</time></trkpt><trkpt lat="42.4330787" lon="11.1577046"><ele>4.0</ele><time>2026-04-06T07:31:28.277Z</time></trkpt><trkpt lat="42.4331483" lon="11.1577657"><ele>4.0</ele><time>2026-04-06T07:31:29.276Z</time></trkpt><trkpt lat="42.4332003" lon="11.1578564"><ele>4.2</ele><time>2026-04-06T07:31:30.277Z</time></trkpt><trkpt lat="42.4332431" lon="11.1579749"><ele>4.4</ele><time>2026-04-06T07:31:31.276Z</time></trkpt><trkpt lat="42.4332818" lon="11.1581144"><ele>4.6</ele><time>2026-04-06T07:31:32.276Z</time></trkpt><trkpt lat="42.4333187" lon="11.1582591"><ele>4.8</ele><time>2026-04-06T07:31:33.277Z</time></trkpt><trkpt lat="42.4333539" lon="11.1584038"><ele>5.0</ele><time>2026-04-06T07:31:34.276Z</time></trkpt><trkpt lat="42.4333864" lon="11.1585592"><ele>4.25</ele><time>2026-04-06T07:31:35.277Z</time></trkpt><trkpt lat="42.4334061" lon="11.1587226"><ele>3.5</ele><time>2026-04-06T07:31:36.277Z</time></trkpt><trkpt lat="42.433416" lon="11.1588996"><ele>2.75</ele><time>2026-04-06T07:31:37.277Z</time></trkpt><trkpt lat="42.4334232" lon="11.1590768"><ele>2.0</ele><time>2026-04-06T07:31:38.277Z</time></trkpt><trkpt lat="42.4334393" lon="11.1592548"><ele>2.0</ele><time>2026-04-06T07:31:39.277Z</time></trkpt><trkpt lat="42.4334529" lon="11.1594189"><ele>2.0</ele><time>2026-04-06T07:31:40.276Z</time></trkpt><trkpt lat="42.4334651" lon="11.1595784"><ele>2.0</ele><time>2026-04-06T07:31:41.277Z</time></trkpt><trkpt lat="42.4334785" lon="11.1597428"><ele>2.0</ele><time>2026-04-06T07:31:42.277Z</time></trkpt><trkpt lat="42.4334917" lon="11.159914"><ele>2.0</ele><time>2026-04-06T07:31:43.277Z</time></trkpt><trkpt lat="42.433508" lon="11.1600938"><ele>2.0</ele><time>2026-04-06T07:31:44.277Z</time></trkpt><trkpt lat="42.4335335" lon="11.1602826"><ele>2.0</ele><time>2026-04-06T07:31:45.276Z</time></trkpt><trkpt lat="42.4335653" lon="11.1604768"><ele>2.0</ele><time>2026-04-06T07:31:46.276Z</time></trkpt><trkpt lat="42.433598" lon="11.160671"><ele>2.0</ele><time>2026-04-06T07:31:47.277Z</time></trkpt><trkpt lat="42.4336323" lon="11.1608675"><ele>2.0</ele><time>2026-04-06T07:31:48.277Z</time></trkpt><trkpt lat="42.4336692" lon="11.1610575"><ele>2.0</ele><time>2026-04-06T07:31:49.277Z</time></trkpt><trkpt lat="42.4337046" lon="11.161243"><ele>2.0</ele><time>2026-04-06T07:31:50.277Z</time></trkpt><trkpt lat="42.4337436" lon="11.1614256"><ele>1.75</ele><time>2026-04-06T07:31:51.277Z</time></trkpt><trkpt lat="42.4337941" lon="11.1616064"><ele>1.5</ele><time>2026-04-06T07:31:52.277Z</time></trkpt><trkpt lat="42.4338589" lon="11.1617839"><ele>1.25</ele><time>2026-04-06T07:31:53.277Z</time></trkpt><trkpt lat="42.433946" lon="11.1619561"><ele>1.0</ele><time>2026-04-06T07:31:54.276Z</time></trkpt><trkpt lat="42.4340482" lon="11.1621176"><ele>1.0</ele><time>2026-04-06T07:31:55.276Z</time></trkpt><trkpt lat="42.4341522" lon="11.1622711"><ele>1.0</ele><time>2026-04-06T07:31:56.276Z</time></trkpt><trkpt lat="42.4342576" lon="11.1624298"><ele>1.0</ele><time>2026-04-06T07:31:57.277Z</time></trkpt><trkpt lat="42.4343625" lon="11.1625894"><ele>1.0</ele><time>2026-04-06T07:31:58.277Z</time></trkpt><trkpt lat="42.4344688" lon="11.1627459"><ele>1.0</ele><time>2026-04-06T07:31:59.277Z</time></trkpt><trkpt lat="42.434568" lon="11.1628893"><ele>1.0</ele><time>2026-04-06T07:32:00.277Z</time></trkpt><trkpt lat="42.4346627" lon="11.1630257"><ele>1.0</ele><time>2026-04-06T07:32:01.277Z</time></trkpt><trkpt lat="42.4347536" lon="11.1631513"><ele>1.5</ele><time>2026-04-06T07:32:02.277Z</time></trkpt><trkpt lat="42.4348417" lon="11.1632817"><ele>2.0</ele><time>2026-04-06T07:32:03.276Z</time></trkpt><trkpt lat="42.4349329" lon="11.163416"><ele>2.5</ele><time>2026-04-06T07:32:04.276Z</time></trkpt><trkpt lat="42.4350253" lon="11.1635391"><ele>3.0</ele><time>2026-04-06T07:32:05.277Z</time></trkpt><trkpt lat="42.4351216" lon="11.1636755"><ele>3.0</ele><time>2026-04-06T07:32:06.276Z</time></trkpt><trkpt lat="42.4352175" lon="11.1638202"><ele>3.0</ele><time>2026-04-06T07:32:07.276Z</time></trkpt><trkpt lat="42.4353177" lon="11.1639682"><ele>3.0</ele><time>2026-04-06T07:32:08.277Z</time></trkpt><trkpt lat="42.4354223" lon="11.1641195"><ele>3.0</ele><time>2026-04-06T07:32:09.277Z</time></trkpt><trkpt lat="42.4355253" lon="11.164272"><ele>3.333333333333333</ele><time>2026-04-06T07:32:10.277Z</time></trkpt><trkpt lat="42.4356317" lon="11.1644266"><ele>3.6666666666666665</ele><time>2026-04-06T07:32:11.277Z</time></trkpt><trkpt lat="42.4357384" lon="11.1645868"><ele>4.0</ele><time>2026-04-06T07:32:12.277Z</time></trkpt><trkpt lat="42.4358424" lon="11.1647427"><ele>3.333333333333333</ele><time>2026-04-06T07:32:13.277Z</time></trkpt><trkpt lat="42.43595" lon="11.1648949"><ele>2.6666666666666665</ele><time>2026-04-06T07:32:14.277Z</time></trkpt><trkpt lat="42.4360567" lon="11.1650594"><ele>2.0</ele><time>2026-04-06T07:32:15.276Z</time></trkpt><trkpt lat="42.4361615" lon="11.1652186"><ele>2.0</ele><time>2026-04-06T07:32:16.276Z</time></trkpt><trkpt lat="42.4362709" lon="11.165378"><ele>2.0</ele><time>2026-04-06T07:32:17.277Z</time></trkpt><trkpt lat="42.4363785" lon="11.1655435"><ele>2.0</ele><time>2026-04-06T07:32:18.277Z</time></trkpt><trkpt lat="42.4364824" lon="11.1657118"><ele>2.0</ele><time>2026-04-06T07:32:19.277Z</time></trkpt><trkpt lat="42.4365878" lon="11.1658696"><ele>2.0</ele><time>2026-04-06T07:32:20.277Z</time></trkpt><trkpt lat="42.4366936" lon="11.166026"><ele>2.0</ele><time>2026-04-06T07:32:21.277Z</time></trkpt><trkpt lat="42.4368001" lon="11.1661872"><ele>2.0</ele><time>2026-04-06T07:32:22.276Z</time></trkpt><trkpt lat="42.4369055" lon="11.1663341"><ele>2.0</ele><time>2026-04-06T07:32:23.277Z</time></trkpt><trkpt lat="42.4370166" lon="11.1664761"><ele>2.0</ele><time>2026-04-06T07:32:24.277Z</time></trkpt><trkpt lat="42.4371353" lon="11.1666277"><ele>2.0</ele><time>2026-04-06T07:32:25.276Z</time></trkpt><trkpt lat="42.4372503" lon="11.1667759"><ele>2.0</ele><time>2026-04-06T07:32:26.277Z</time></trkpt><trkpt lat="42.4373577" lon="11.1669147"><ele>2.0</ele><time>2026-04-06T07:32:27.277Z</time></trkpt><trkpt lat="42.4374623" lon="11.1670483"><ele>2.0</ele><time>2026-04-06T07:32:28.277Z</time></trkpt><trkpt lat="42.4375722" lon="11.1671922"><ele>2.0</ele><time>2026-04-06T07:32:29.277Z</time></trkpt><trkpt lat="42.4376846" lon="11.1673337"><ele>2.0</ele><time>2026-04-06T07:32:30.277Z</time></trkpt><trkpt lat="42.437796" lon="11.1674797"><ele>2.0</ele><time>2026-04-06T07:32:31.277Z</time></trkpt><trkpt lat="42.4379106" lon="11.1676206"><ele>2.0</ele><time>2026-04-06T07:32:32.277Z</time></trkpt><trkpt lat="42.4380259" lon="11.1677629"><ele>2.0</ele><time>2026-04-06T07:32:33.277Z</time></trkpt><trkpt lat="42.4381469" lon="11.1679025"><ele>2.6666666666666665</ele><time>2026-04-06T07:32:34.277Z</time></trkpt><trkpt lat="42.4382719" lon="11.1680333"><ele>3.333333333333333</ele><time>2026-04-06T07:32:35.277Z</time></trkpt><trkpt lat="42.4384018" lon="11.1681676"><ele>4.0</ele><time>2026-04-06T07:32:36.276Z</time></trkpt><trkpt lat="42.4385296" lon="11.1682985"><ele>4.0</ele><time>2026-04-06T07:32:37.276Z</time></trkpt><trkpt lat="42.4386575" lon="11.1684149"><ele>4.0</ele><time>2026-04-06T07:32:38.277Z</time></trkpt><trkpt lat="42.4387803" lon="11.1685394"><ele>4.0</ele><time>2026-04-06T07:32:39.277Z</time></trkpt><trkpt lat="42.438908" lon="11.168663"><ele>3.6666666666666665</ele><time>2026-04-06T07:32:40.277Z</time></trkpt><trkpt lat="42.4390344" lon="11.168782"><ele>3.333333333333333</ele><time>2026-04-06T07:32:41.276Z</time></trkpt><trkpt lat="42.4391582" lon="11.1689071"><ele>3.0</ele><time>2026-04-06T07:32:42.276Z</time></trkpt><trkpt lat="42.4392815" lon="11.1690304"><ele>3.0</ele><time>2026-04-06T07:32:43.277Z</time></trkpt><trkpt lat="42.4394058" lon="11.1691534"><ele>3.0</ele><time>2026-04-06T07:32:44.277Z</time></trkpt><trkpt lat="42.4395375" lon="11.1692782"><ele>3.0</ele><time>2026-04-06T07:32:45.277Z</time></trkpt><trkpt lat="42.4396672" lon="11.1694071"><ele>2.6666666666666665</ele><time>2026-04-06T07:32:46.277Z</time></trkpt><trkpt lat="42.4397988" lon="11.1695363"><ele>2.333333333333333</ele><time>2026-04-06T07:32:47.277Z</time></trkpt><trkpt lat="42.4399257" lon="11.169661"><ele>2.0</ele><time>2026-04-06T07:32:48.277Z</time></trkpt><trkpt lat="42.4400546" lon="11.1697846"><ele>2.6666666666666665</ele><time>2026-04-06T07:32:49.276Z</time></trkpt><trkpt lat="42.4401848" lon="11.1699101"><ele>3.333333333333333</ele><time>2026-04-06T07:32:50.276Z</time></trkpt><trkpt lat="42.4403133" lon="11.170033"><ele>4.0</ele><time>2026-04-06T07:32:51.277Z</time></trkpt><trkpt lat="42.4404354" lon="11.1701566"><ele>3.0</ele><time>2026-04-06T07:32:52.277Z</time></trkpt><trkpt lat="42.4405621" lon="11.1702751"><ele>2.0</ele><time>2026-04-06T07:32:53.277Z</time></trkpt><trkpt lat="42.440686" lon="11.1703958"><ele>1.0</ele><time>2026-04-06T07:32:54.277Z</time></trkpt><trkpt lat="42.4408124" lon="11.1705201"><ele>1.0</ele><time>2026-04-06T07:32:55.276Z</time></trkpt><trkpt lat="42.4409362" lon="11.1706404"><ele>1.0</ele><time>2026-04-06T07:32:56.277Z</time></trkpt><trkpt lat="42.441065" lon="11.1707648"><ele>1.0</ele><time>2026-04-06T07:32:57.277Z</time></trkpt><trkpt lat="42.4411939" lon="11.1708908"><ele>1.0</ele><time>2026-04-06T07:32:58.277Z</time></trkpt><trkpt lat="42.4413254" lon="11.1710196"><ele>1.0</ele><time>2026-04-06T07:32:59.277Z</time></trkpt><trkpt lat="42.4414543" lon="11.1711447"><ele>1.0</ele><time>2026-04-06T07:33:00.277Z</time></trkpt><trkpt lat="42.4415885" lon="11.171276"><ele>1.0</ele><time>2026-04-06T07:33:01.277Z</time></trkpt><trkpt lat="42.4417243" lon="11.1713969"><ele>1.0</ele><time>2026-04-06T07:33:02.277Z</time></trkpt><trkpt lat="42.4418538" lon="11.1715154"><ele>1.0</ele><time>2026-04-06T07:33:03.276Z</time></trkpt><trkpt lat="42.4419806" lon="11.1716434"><ele>1.3333333333333333</ele><time>2026-04-06T07:33:04.277Z</time></trkpt><trkpt lat="42.4421078" lon="11.1717689"><ele>1.6666666666666665</ele><time>2026-04-06T07:33:05.277Z</time></trkpt><trkpt lat="42.4422339" lon="11.1718896"><ele>2.0</ele><time>2026-04-06T07:33:06.277Z</time></trkpt><trkpt lat="42.4423611" lon="11.1720104"><ele>2.0</ele><time>2026-04-06T07:33:07.277Z</time></trkpt><trkpt lat="42.4424831" lon="11.1721322"><ele>2.0</ele><time>2026-04-06T07:33:08.277Z</time></trkpt><trkpt lat="42.4426138" lon="11.1722588"><ele>2.0</ele><time>2026-04-06T07:33:09.277Z</time></trkpt><trkpt lat="42.4427421" lon="11.1723817"><ele>2.0</ele><time>2026-04-06T07:33:10.277Z</time></trkpt><trkpt lat="42.4428637" lon="11.1724988"><ele>2.0</ele><time>2026-04-06T07:33:11.277Z</time></trkpt><trkpt lat="42.4429778" lon="11.1726082"><ele>2.0</ele><time>2026-04-06T07:33:12.277Z</time></trkpt><trkpt lat="42.4430907" lon="11.1727227"><ele>2.0</ele><time>2026-04-06T07:33:13.277Z</time></trkpt><trkpt lat="42.443206" lon="11.1728389"><ele>2.5</ele><time>2026-04-06T07:33:14.276Z</time></trkpt><trkpt lat="42.4433235" lon="11.1729519"><ele>3.0</ele><time>2026-04-06T07:33:15.277Z</time></trkpt><trkpt lat="42.4434385" lon="11.1730639"><ele>3.5</ele><time>2026-04-06T07:33:16.277Z</time></trkpt><trkpt lat="42.4435558" lon="11.1731751"><ele>4.0</ele><time>2026-04-06T07:33:17.277Z</time></trkpt><trkpt lat="42.4436653" lon="11.1732803"><ele>4.25</ele><time>2026-04-06T07:33:18.277Z</time></trkpt><trkpt lat="42.4437787" lon="11.1733895"><ele>4.5</ele><time>2026-04-06T07:33:19.277Z</time></trkpt><trkpt lat="42.4438949" lon="11.173506"><ele>4.75</ele><time>2026-04-06T07:33:20.276Z</time></trkpt><trkpt lat="42.4440181" lon="11.1736237"><ele>5.0</ele><time>2026-04-06T07:33:21.276Z</time></trkpt><trkpt lat="42.4441439" lon="11.1737453"><ele>5.0</ele><time>2026-04-06T07:33:22.277Z</time></trkpt><trkpt lat="42.4442686" lon="11.1738662"><ele>5.0</ele><time>2026-04-06T07:33:23.277Z</time></trkpt><trkpt lat="42.4443886" lon="11.1739838"><ele>5.0</ele><time>2026-04-06T07:33:24.276Z</time></trkpt><trkpt lat="42.4445029" lon="11.1740905"><ele>5.0</ele><time>2026-04-06T07:33:25.276Z</time></trkpt><trkpt lat="42.4446086" lon="11.1741901"><ele>4.25</ele><time>2026-04-06T07:33:26.277Z</time></trkpt><trkpt lat="42.4447154" lon="11.1742842"><ele>3.5</ele><time>2026-04-06T07:33:27.277Z</time></trkpt><trkpt lat="42.4448285" lon="11.1743839"><ele>2.75</ele><time>2026-04-06T07:33:28.276Z</time></trkpt><trkpt lat="42.4449448" lon="11.1744863"><ele>2.0</ele><time>2026-04-06T07:33:29.277Z</time></trkpt><trkpt lat="42.4450626" lon="11.1745856"><ele>2.0</ele><time>2026-04-06T07:33:30.277Z</time></trkpt><trkpt lat="42.4451794" lon="11.1746772"><ele>2.0</ele><time>2026-04-06T07:33:31.277Z</time></trkpt><trkpt lat="42.4452903" lon="11.1747661"><ele>2.0</ele><time>2026-04-06T07:33:32.276Z</time></trkpt><trkpt lat="42.4454045" lon="11.1748547"><ele>2.0</ele><time>2026-04-06T07:33:33.277Z</time></trkpt><trkpt lat="42.4455222" lon="11.1749506"><ele>2.5</ele><time>2026-04-06T07:33:34.277Z</time></trkpt><trkpt lat="42.4456454" lon="11.175046"><ele>3.0</ele><time>2026-04-06T07:33:35.277Z</time></trkpt><trkpt lat="42.445765" lon="11.1751442"><ele>3.5</ele><time>2026-04-06T07:33:36.277Z</time></trkpt><trkpt lat="42.4458874" lon="11.1752429"><ele>4.0</ele><time>2026-04-06T07:33:37.277Z</time></trkpt><trkpt lat="42.446016" lon="11.1753458"><ele>4.0</ele><time>2026-04-06T07:33:38.277Z</time></trkpt><trkpt lat="42.4461454" lon="11.1754439"><ele>4.0</ele><time>2026-04-06T07:33:39.277Z</time></trkpt><trkpt lat="42.446276" lon="11.1755474"><ele>4.0</ele><time>2026-04-06T07:33:40.277Z</time></trkpt><trkpt lat="42.4464045" lon="11.1756538"><ele>4.333333333333333</ele><time>2026-04-06T07:33:41.276Z</time></trkpt><trkpt lat="42.4465392" lon="11.1757599"><ele>4.666666666666667</ele><time>2026-04-06T07:33:42.277Z</time></trkpt><trkpt lat="42.4466756" lon="11.1758681"><ele>5.0</ele><time>2026-04-06T07:33:43.277Z</time></trkpt><trkpt lat="42.446807" lon="11.175975"><ele>5.0</ele><time>2026-04-06T07:33:44.276Z</time></trkpt><trkpt lat="42.4469417" lon="11.1760832"><ele>5.0</ele><time>2026-04-06T07:33:45.276Z</time></trkpt><trkpt lat="42.447081" lon="11.1761942"><ele>5.0</ele><time>2026-04-06T07:33:46.277Z</time></trkpt><trkpt lat="42.4472203" lon="11.1763052"><ele>4.666666666666667</ele><time>2026-04-06T07:33:47.277Z</time></trkpt><trkpt lat="42.4473609" lon="11.1764139"><ele>4.333333333333333</ele><time>2026-04-06T07:33:48.277Z</time></trkpt><trkpt lat="42.4475057" lon="11.1765303"><ele>4.0</ele><time>2026-04-06T07:33:49.277Z</time></trkpt><trkpt lat="42.4476563" lon="11.1766498"><ele>3.333333333333333</ele><time>2026-04-06T07:33:50.277Z</time></trkpt><trkpt lat="42.4478104" lon="11.1767767"><ele>2.6666666666666665</ele><time>2026-04-06T07:33:51.277Z</time></trkpt><trkpt lat="42.4479667" lon="11.1769022"><ele>2.0</ele><time>2026-04-06T07:33:52.277Z</time></trkpt><trkpt lat="42.4481261" lon="11.1770244"><ele>2.0</ele><time>2026-04-06T07:33:53.277Z</time></trkpt><trkpt lat="42.4482979" lon="11.1771497"><ele>2.0</ele><time>2026-04-06T07:33:54.276Z</time></trkpt><trkpt lat="42.4484772" lon="11.1772878"><ele>2.0</ele><time>2026-04-06T07:33:55.276Z</time></trkpt><trkpt lat="42.4486547" lon="11.1774425"><ele>2.0</ele><time>2026-04-06T07:33:56.277Z</time></trkpt><trkpt lat="42.4488303" lon="11.1775967"><ele>2.0</ele><time>2026-04-06T07:33:57.277Z</time></trkpt><trkpt lat="42.4490055" lon="11.1777404"><ele>2.0</ele><time>2026-04-06T07:33:58.277Z</time></trkpt><trkpt lat="42.449181" lon="11.1778819"><ele>2.0</ele><time>2026-04-06T07:33:59.277Z</time></trkpt><trkpt lat="42.4493436" lon="11.1780164"><ele>2.0</ele><time>2026-04-06T07:34:00.277Z</time></trkpt><trkpt lat="42.4495023" lon="11.1781475"><ele>2.0</ele><time>2026-04-06T07:34:01.277Z</time></trkpt><trkpt lat="42.4496603" lon="11.1782795"><ele>1.6666666666666665</ele><time>2026-04-06T07:34:02.277Z</time></trkpt><trkpt lat="42.4498203" lon="11.1784143"><ele>1.3333333333333333</ele><time>2026-04-06T07:34:03.276Z</time></trkpt><trkpt lat="42.4499863" lon="11.1785468"><ele>1.0</ele><time>2026-04-06T07:34:04.276Z</time></trkpt><trkpt lat="42.450154" lon="11.1786789"><ele>1.0</ele><time>2026-04-06T07:34:05.276Z</time></trkpt><trkpt lat="42.4503228" lon="11.1788106"><ele>1.0</ele><time>2026-04-06T07:34:06.276Z</time></trkpt><trkpt lat="42.4504906" lon="11.1789438"><ele>1.0</ele><time>2026-04-06T07:34:07.277Z</time></trkpt><trkpt lat="42.4506615" lon="11.179067"><ele>0.6666666666666666</ele><time>2026-04-06T07:34:08.277Z</time></trkpt><trkpt lat="42.4508306" lon="11.1791863"><ele>0.3333333333333333</ele><time>2026-04-06T07:34:09.276Z</time></trkpt><trkpt lat="42.4509974" lon="11.1793044"><ele>0.0</ele><time>2026-04-06T07:34:10.277Z</time></trkpt><trkpt lat="42.4511643" lon="11.179421"><ele>1.0</ele><time>2026-04-06T07:34:11.276Z</time></trkpt><trkpt lat="42.4513247" lon="11.1795312"><ele>2.0</ele><time>2026-04-06T07:34:12.277Z</time></trkpt><trkpt lat="42.4514839" lon="11.1796442"><ele>3.0</ele><time>2026-04-06T07:34:13.277Z</time></trkpt><trkpt lat="42.4516436" lon="11.1797578"><ele>2.3333333333333335</ele><time>2026-04-06T07:34:14.277Z</time></trkpt><trkpt lat="42.4518041" lon="11.179869"><ele>1.6666666666666665</ele><time>2026-04-06T07:34:15.276Z</time></trkpt><trkpt lat="42.4519695" lon="11.1799825"><ele>1.0</ele><time>2026-04-06T07:34:16.277Z</time></trkpt><trkpt lat="42.4521337" lon="11.1800971"><ele>1.0</ele><time>2026-04-06T07:34:17.277Z</time></trkpt><trkpt lat="42.4522978" lon="11.1802136"><ele>1.0</ele><time>2026-04-06T07:34:18.277Z</time></trkpt><trkpt lat="42.4524612" lon="11.1803288"><ele>1.0</ele><time>2026-04-06T07:34:19.276Z</time></trkpt><trkpt lat="42.4526226" lon="11.1804436"><ele>1.0</ele><time>2026-04-06T07:34:20.276Z</time></trkpt><trkpt lat="42.4527837" lon="11.1805567"><ele>1.0</ele><time>2026-04-06T07:34:21.277Z</time></trkpt><trkpt lat="42.4529434" lon="11.1806646"><ele>1.0</ele><time>2026-04-06T07:34:22.276Z</time></trkpt><trkpt lat="42.4531045" lon="11.1807739"><ele>1.0</ele><time>2026-04-06T07:34:23.277Z</time></trkpt><trkpt lat="42.4532615" lon="11.1808799"><ele>1.0</ele><time>2026-04-06T07:34:24.277Z</time></trkpt><trkpt lat="42.4534305" lon="11.1809846"><ele>1.0</ele><time>2026-04-06T07:34:25.277Z</time></trkpt><trkpt lat="42.4536017" lon="11.181076"><ele>1.0</ele><time>2026-04-06T07:34:26.277Z</time></trkpt><trkpt lat="42.4537771" lon="11.1811689"><ele>1.0</ele><time>2026-04-06T07:34:27.276Z</time></trkpt><trkpt lat="42.4539562" lon="11.1812664"><ele>1.0</ele><time>2026-04-06T07:34:28.277Z</time></trkpt><trkpt lat="42.4541335" lon="11.1813665"><ele>0.6666666666666666</ele><time>2026-04-06T07:34:29.277Z</time></trkpt><trkpt lat="42.4543116" lon="11.1814622"><ele>0.3333333333333333</ele><time>2026-04-06T07:34:30.277Z</time></trkpt><trkpt lat="42.4544919" lon="11.181559"><ele>0.0</ele><time>2026-04-06T07:34:31.277Z</time></trkpt><trkpt lat="42.4546684" lon="11.1816639"><ele>0.0</ele><time>2026-04-06T07:34:32.277Z</time></trkpt><trkpt lat="42.4548489" lon="11.1817668"><ele>0.0</ele><time>2026-04-06T07:34:33.277Z</time></trkpt><trkpt lat="42.4550284" lon="11.1818604"><ele>0.0</ele><time>2026-04-06T07:34:34.277Z</time></trkpt><trkpt lat="42.455198" lon="11.181953"><ele>0.0</ele><time>2026-04-06T07:34:35.277Z</time></trkpt><trkpt lat="42.4553641" lon="11.182042"><ele>0.0</ele><time>2026-04-06T07:34:36.277Z</time></trkpt><trkpt lat="42.4555321" lon="11.1821342"><ele>0.0</ele><time>2026-04-06T07:34:37.277Z</time></trkpt><trkpt lat="42.4556985" lon="11.182225"><ele>1.0</ele><time>2026-04-06T07:34:38.277Z</time></trkpt><trkpt lat="42.4558688" lon="11.1823172"><ele>2.0</ele><time>2026-04-06T07:34:39.277Z</time></trkpt><trkpt lat="42.4560355" lon="11.1824057"><ele>3.0</ele><time>2026-04-06T07:34:40.277Z</time></trkpt><trkpt lat="42.4562095" lon="11.1824988"><ele>3.666666666666667</ele><time>2026-04-06T07:34:41.277Z</time></trkpt><trkpt lat="42.4563787" lon="11.182595"><ele>4.333333333333334</ele><time>2026-04-06T07:34:42.277Z</time></trkpt><trkpt lat="42.4565526" lon="11.182691"><ele>5.0</ele><time>2026-04-06T07:34:43.277Z</time></trkpt><trkpt lat="42.4567268" lon="11.1827816"><ele>5.0</ele><time>2026-04-06T07:34:44.276Z</time></trkpt><trkpt lat="42.4569023" lon="11.1828732"><ele>5.0</ele><time>2026-04-06T07:34:45.277Z</time></trkpt><trkpt lat="42.4570788" lon="11.1829621"><ele>5.0</ele><time>2026-04-06T07:34:46.276Z</time></trkpt><trkpt lat="42.4572567" lon="11.1830495"><ele>5.0</ele><time>2026-04-06T07:34:47.277Z</time></trkpt><trkpt lat="42.4574441" lon="11.1831349"><ele>5.0</ele><time>2026-04-06T07:34:48.277Z</time></trkpt><trkpt lat="42.4576298" lon="11.1832138"><ele>5.0</ele><time>2026-04-06T07:34:49.276Z</time></trkpt><trkpt lat="42.4578182" lon="11.1832905"><ele>4.666666666666667</ele><time>2026-04-06T07:34:50.277Z</time></trkpt><trkpt lat="42.4580074" lon="11.183368"><ele>4.333333333333333</ele><time>2026-04-06T07:34:51.277Z</time></trkpt><trkpt lat="42.4582001" lon="11.1834562"><ele>4.0</ele><time>2026-04-06T07:34:52.277Z</time></trkpt><trkpt lat="42.4583872" lon="11.1835365"><ele>4.0</ele><time>2026-04-06T07:34:53.277Z</time></trkpt><trkpt lat="42.4585799" lon="11.1836235"><ele>4.0</ele><time>2026-04-06T07:34:54.276Z</time></trkpt><trkpt lat="42.4587721" lon="11.1837053"><ele>4.0</ele><time>2026-04-06T07:34:55.277Z</time></trkpt><trkpt lat="42.4589521" lon="11.183793"><ele>4.0</ele><time>2026-04-06T07:34:56.277Z</time></trkpt><trkpt lat="42.4591459" lon="11.1838794"><ele>4.0</ele><time>2026-04-06T07:34:57.277Z</time></trkpt><trkpt lat="42.45934" lon="11.1839643"><ele>4.0</ele><time>2026-04-06T07:34:58.277Z</time></trkpt><trkpt lat="42.4595434" lon="11.1840466"><ele>2.6666666666666665</ele><time>2026-04-06T07:34:59.277Z</time></trkpt><trkpt lat="42.4597422" lon="11.184134"><ele>1.3333333333333333</ele><time>2026-04-06T07:35:00.277Z</time></trkpt><trkpt lat="42.4599414" lon="11.1842221"><ele>0.0</ele><time>2026-04-06T07:35:01.277Z</time></trkpt><trkpt lat="42.4601432" lon="11.1843076"><ele>0.0</ele><time>2026-04-06T07:35:02.276Z</time></trkpt><trkpt lat="42.4603435" lon="11.1843944"><ele>0.0</ele><time>2026-04-06T07:35:03.277Z</time></trkpt><trkpt lat="42.4605434" lon="11.1844851"><ele>0.0</ele><time>2026-04-06T07:35:04.277Z</time></trkpt><trkpt lat="42.460745" lon="11.1845732"><ele>0.3333333333333333</ele><time>2026-04-06T07:35:05.277Z</time></trkpt><trkpt lat="42.4609492" lon="11.1846603"><ele>0.6666666666666666</ele><time>2026-04-06T07:35:06.277Z</time></trkpt><trkpt lat="42.4611552" lon="11.1847498"><ele>1.0</ele><time>2026-04-06T07:35:07.277Z</time></trkpt><trkpt lat="42.4613607" lon="11.184844"><ele>1.0</ele><time>2026-04-06T07:35:08.277Z</time></trkpt><trkpt lat="42.4615634" lon="11.1849334"><ele>1.0</ele><time>2026-04-06T07:35:09.277Z</time></trkpt><trkpt lat="42.4617709" lon="11.1850269"><ele>1.0</ele><time>2026-04-06T07:35:10.277Z</time></trkpt><trkpt lat="42.4619698" lon="11.1851234"><ele>1.0</ele><time>2026-04-06T07:35:11.276Z</time></trkpt><trkpt lat="42.4621678" lon="11.1852186"><ele>1.0</ele><time>2026-04-06T07:35:12.277Z</time></trkpt><trkpt lat="42.4623578" lon="11.1853178"><ele>1.0</ele><time>2026-04-06T07:35:13.277Z</time></trkpt><trkpt lat="42.4625462" lon="11.1854164"><ele>1.0</ele><time>2026-04-06T07:35:14.277Z</time></trkpt><trkpt lat="42.4627278" lon="11.1855083"><ele>1.0</ele><time>2026-04-06T07:35:15.276Z</time></trkpt><trkpt lat="42.4629035" lon="11.1855959"><ele>1.0</ele><time>2026-04-06T07:35:16.276Z</time></trkpt><trkpt lat="42.4630776" lon="11.1856875"><ele>1.0</ele><time>2026-04-06T07:35:17.277Z</time></trkpt><trkpt lat="42.4632502" lon="11.1857788"><ele>1.0</ele><time>2026-04-06T07:35:18.276Z</time></trkpt><trkpt lat="42.4634159" lon="11.1858644"><ele>1.0</ele><time>2026-04-06T07:35:19.277Z</time></trkpt><trkpt lat="42.4635848" lon="11.1859511"><ele>1.0</ele><time>2026-04-06T07:35:20.277Z</time></trkpt><trkpt lat="42.4637556" lon="11.1860365"><ele>1.0</ele><time>2026-04-06T07:35:21.277Z</time></trkpt><trkpt lat="42.4639282" lon="11.1861199"><ele>1.0</ele><time>2026-04-06T07:35:22.277Z</time></trkpt><trkpt lat="42.4641006" lon="11.1862136"><ele>1.3333333333333333</ele><time>2026-04-06T07:35:23.276Z</time></trkpt><trkpt lat="42.4642726" lon="11.1863034"><ele>1.6666666666666665</ele><time>2026-04-06T07:35:24.276Z</time></trkpt><trkpt lat="42.46445" lon="11.186393"><ele>2.0</ele><time>2026-04-06T07:35:25.277Z</time></trkpt><trkpt lat="42.4646277" lon="11.1864806"><ele>1.6666666666666665</ele><time>2026-04-06T07:35:26.276Z</time></trkpt><trkpt lat="42.4648066" lon="11.1865741"><ele>1.3333333333333333</ele><time>2026-04-06T07:35:27.277Z</time></trkpt><trkpt lat="42.4649852" lon="11.1866662"><ele>1.0</ele><time>2026-04-06T07:35:28.277Z</time></trkpt><trkpt lat="42.4651631" lon="11.18676"><ele>1.0</ele><time>2026-04-06T07:35:29.276Z</time></trkpt><trkpt lat="42.4653411" lon="11.1868544"><ele>1.0</ele><time>2026-04-06T07:35:30.277Z</time></trkpt><trkpt lat="42.4655236" lon="11.1869471"><ele>1.0</ele><time>2026-04-06T07:35:31.276Z</time></trkpt><trkpt lat="42.4657042" lon="11.1870399"><ele>1.3333333333333333</ele><time>2026-04-06T07:35:32.277Z</time></trkpt><trkpt lat="42.4658871" lon="11.1871293"><ele>1.6666666666666665</ele><time>2026-04-06T07:35:33.277Z</time></trkpt><trkpt lat="42.4660752" lon="11.1872207"><ele>2.0</ele><time>2026-04-06T07:35:34.277Z</time></trkpt><trkpt lat="42.466261" lon="11.1873059"><ele>2.333333333333333</ele><time>2026-04-06T07:35:35.277Z</time></trkpt><trkpt lat="42.4664515" lon="11.1873901"><ele>2.6666666666666665</ele><time>2026-04-06T07:35:36.277Z</time></trkpt><trkpt lat="42.4666363" lon="11.1874814"><ele>3.0</ele><time>2026-04-06T07:35:37.277Z</time></trkpt><trkpt lat="42.4668247" lon="11.1875681"><ele>3.0</ele><time>2026-04-06T07:35:38.277Z</time></trkpt><trkpt lat="42.4670167" lon="11.1876535"><ele>3.0</ele><time>2026-04-06T07:35:39.276Z</time></trkpt><trkpt lat="42.4672094" lon="11.1877236"><ele>3.0</ele><time>2026-04-06T07:35:40.277Z</time></trkpt><trkpt lat="42.4674014" lon="11.1877883"><ele>3.333333333333333</ele><time>2026-04-06T07:35:41.277Z</time></trkpt><trkpt lat="42.4675838" lon="11.1878492"><ele>3.6666666666666665</ele><time>2026-04-06T07:35:42.277Z</time></trkpt><trkpt lat="42.4677701" lon="11.1879089"><ele>4.0</ele><time>2026-04-06T07:35:43.277Z</time></trkpt><trkpt lat="42.4679554" lon="11.1879681"><ele>3.333333333333333</ele><time>2026-04-06T07:35:44.277Z</time></trkpt><trkpt lat="42.4681427" lon="11.1880255"><ele>2.6666666666666665</ele><time>2026-04-06T07:35:45.277Z</time></trkpt><trkpt lat="42.468321" lon="11.1880823"><ele>2.0</ele><time>2026-04-06T07:35:46.277Z</time></trkpt><trkpt lat="42.4685078" lon="11.1881332"><ele>2.0</ele><time>2026-04-06T07:35:47.277Z</time></trkpt><trkpt lat="42.4686927" lon="11.1881851"><ele>2.0</ele><time>2026-04-06T07:35:48.277Z</time></trkpt><trkpt lat="42.4688814" lon="11.1882414"><ele>2.0</ele><time>2026-04-06T07:35:49.277Z</time></trkpt><trkpt lat="42.4690638" lon="11.188301"><ele>2.333333333333333</ele><time>2026-04-06T07:35:50.277Z</time></trkpt><trkpt lat="42.4692564" lon="11.1883585"><ele>2.6666666666666665</ele><time>2026-04-06T07:35:51.277Z</time></trkpt><trkpt lat="42.4694451" lon="11.188416"><ele>3.0</ele><time>2026-04-06T07:35:52.277Z</time></trkpt><trkpt lat="42.4696364" lon="11.1884767"><ele>3.0</ele><time>2026-04-06T07:35:53.277Z</time></trkpt><trkpt lat="42.4698316" lon="11.188541"><ele>3.0</ele><time>2026-04-06T07:35:54.276Z</time></trkpt><trkpt lat="42.4700287" lon="11.1886037"><ele>3.0</ele><time>2026-04-06T07:35:55.277Z</time></trkpt><trkpt lat="42.4702197" lon="11.1886653"><ele>3.0</ele><time>2026-04-06T07:35:56.277Z</time></trkpt><trkpt lat="42.4704196" lon="11.1887306"><ele>3.0</ele><time>2026-04-06T07:35:57.277Z</time></trkpt><trkpt lat="42.4706045" lon="11.1888006"><ele>3.0</ele><time>2026-04-06T07:35:58.277Z</time></trkpt><trkpt lat="42.4707992" lon="11.1888687"><ele>3.0</ele><time>2026-04-06T07:35:59.276Z</time></trkpt><trkpt lat="42.4709914" lon="11.1889328"><ele>3.0</ele><time>2026-04-06T07:36:00.276Z</time></trkpt><trkpt lat="42.4711813" lon="11.1889964"><ele>3.0</ele><time>2026-04-06T07:36:01.277Z</time></trkpt><trkpt lat="42.4713841" lon="11.1890685"><ele>3.333333333333333</ele><time>2026-04-06T07:36:02.277Z</time></trkpt><trkpt lat="42.4715738" lon="11.1891374"><ele>3.6666666666666665</ele><time>2026-04-06T07:36:03.277Z</time></trkpt><trkpt lat="42.471765" lon="11.1892053"><ele>4.0</ele><time>2026-04-06T07:36:04.277Z</time></trkpt><trkpt lat="42.4719591" lon="11.1892737"><ele>4.333333333333333</ele><time>2026-04-06T07:36:05.276Z</time></trkpt><trkpt lat="42.4721529" lon="11.1893443"><ele>4.666666666666667</ele><time>2026-04-06T07:36:06.276Z</time></trkpt><trkpt lat="42.4723441" lon="11.1894095"><ele>5.0</ele><time>2026-04-06T07:36:07.277Z</time></trkpt><trkpt lat="42.4725353" lon="11.18948"><ele>5.0</ele><time>2026-04-06T07:36:08.276Z</time></trkpt><trkpt lat="42.4727343" lon="11.1895405"><ele>5.0</ele><time>2026-04-06T07:36:09.277Z</time></trkpt><trkpt lat="42.4729224" lon="11.1896253"><ele>5.0</ele><time>2026-04-06T07:36:10.277Z</time></trkpt><trkpt lat="42.4731156" lon="11.1896853"><ele>5.0</ele><time>2026-04-06T07:36:11.276Z</time></trkpt><trkpt lat="42.4733065" lon="11.1897493"><ele>5.0</ele><time>2026-04-06T07:36:12.277Z</time></trkpt><trkpt lat="42.4734901" lon="11.1898077"><ele>5.0</ele><time>2026-04-06T07:36:13.276Z</time></trkpt><trkpt lat="42.4736872" lon="11.1898568"><ele>4.0</ele><time>2026-04-06T07:36:14.277Z</time></trkpt><trkpt lat="42.4738793" lon="11.1899057"><ele>3.0</ele><time>2026-04-06T07:36:15.276Z</time></trkpt><trkpt lat="42.4740715" lon="11.1899524"><ele>2.0</ele><time>2026-04-06T07:36:16.277Z</time></trkpt><trkpt lat="42.4742618" lon="11.1900036"><ele>2.0</ele><time>2026-04-06T07:36:17.277Z</time></trkpt><trkpt lat="42.4744485" lon="11.1900547"><ele>2.0</ele><time>2026-04-06T07:36:18.276Z</time></trkpt><trkpt lat="42.4746372" lon="11.1901036"><ele>2.0</ele><time>2026-04-06T07:36:19.276Z</time></trkpt><trkpt lat="42.4748284" lon="11.1901452"><ele>2.333333333333333</ele><time>2026-04-06T07:36:20.277Z</time></trkpt><trkpt lat="42.4750144" lon="11.1901912"><ele>2.6666666666666665</ele><time>2026-04-06T07:36:21.276Z</time></trkpt><trkpt lat="42.4751989" lon="11.1902385"><ele>3.0</ele><time>2026-04-06T07:36:22.277Z</time></trkpt><trkpt lat="42.4753808" lon="11.190282"><ele>3.0</ele><time>2026-04-06T07:36:23.277Z</time></trkpt><trkpt lat="42.4755529" lon="11.1903266"><ele>3.0</ele><time>2026-04-06T07:36:24.276Z</time></trkpt><trkpt lat="42.4757238" lon="11.1903596"><ele>3.0</ele><time>2026-04-06T07:36:25.276Z</time></trkpt><trkpt lat="42.4758853" lon="11.1904008"><ele>3.0</ele><time>2026-04-06T07:36:26.276Z</time></trkpt><trkpt lat="42.4760614" lon="11.1904508"><ele>3.0</ele><time>2026-04-06T07:36:27.276Z</time></trkpt><trkpt lat="42.4762342" lon="11.1904969"><ele>3.0</ele><time>2026-04-06T07:36:28.276Z</time></trkpt><trkpt lat="42.4764121" lon="11.1905414"><ele>3.0</ele><time>2026-04-06T07:36:29.277Z</time></trkpt><trkpt lat="42.4765904" lon="11.1905866"><ele>3.0</ele><time>2026-04-06T07:36:30.277Z</time></trkpt><trkpt lat="42.4767732" lon="11.1906312"><ele>3.0</ele><time>2026-04-06T07:36:31.277Z</time></trkpt><trkpt lat="42.4769623" lon="11.190677"><ele>3.333333333333333</ele><time>2026-04-06T07:36:32.277Z</time></trkpt><trkpt lat="42.4771566" lon="11.1907246"><ele>3.6666666666666665</ele><time>2026-04-06T07:36:33.276Z</time></trkpt><trkpt lat="42.4773459" lon="11.1907679"><ele>4.0</ele><time>2026-04-06T07:36:34.276Z</time></trkpt><trkpt lat="42.4775437" lon="11.1908216"><ele>4.0</ele><time>2026-04-06T07:36:35.277Z</time></trkpt><trkpt lat="42.4777474" lon="11.1908734"><ele>4.0</ele><time>2026-04-06T07:36:36.277Z</time></trkpt><trkpt lat="42.4779519" lon="11.190919"><ele>4.0</ele><time>2026-04-06T07:36:37.277Z</time></trkpt><trkpt lat="42.4781573" lon="11.1909702"><ele>4.666666666666666</ele><time>2026-04-06T07:36:38.276Z</time></trkpt><trkpt lat="42.4783661" lon="11.1910282"><ele>5.333333333333333</ele><time>2026-04-06T07:36:39.276Z</time></trkpt><trkpt lat="42.4785742" lon="11.1910785"><ele>6.0</ele><time>2026-04-06T07:36:40.277Z</time></trkpt><trkpt lat="42.4787821" lon="11.1911378"><ele>6.333333333333334</ele><time>2026-04-06T07:36:41.277Z</time></trkpt><trkpt lat="42.478994" lon="11.191191"><ele>6.666666666666667</ele><time>2026-04-06T07:36:42.277Z</time></trkpt><trkpt lat="42.4792039" lon="11.1912469"><ele>7.0</ele><time>2026-04-06T07:36:43.277Z</time></trkpt><trkpt lat="42.4794105" lon="11.1913071"><ele>6.666666666666667</ele><time>2026-04-06T07:36:44.277Z</time></trkpt><trkpt lat="42.4796184" lon="11.1913557"><ele>6.333333333333334</ele><time>2026-04-06T07:36:45.276Z</time></trkpt><trkpt lat="42.4798269" lon="11.1914105"><ele>6.0</ele><time>2026-04-06T07:36:46.277Z</time></trkpt><trkpt lat="42.4800381" lon="11.1914612"><ele>5.666666666666667</ele><time>2026-04-06T07:36:47.276Z</time></trkpt><trkpt lat="42.4802506" lon="11.1915152"><ele>5.333333333333334</ele><time>2026-04-06T07:36:48.277Z</time></trkpt><trkpt lat="42.4804618" lon="11.1915707"><ele>5.0</ele><time>2026-04-06T07:36:49.277Z</time></trkpt><trkpt lat="42.4806755" lon="11.1916244"><ele>5.0</ele><time>2026-04-06T07:36:50.277Z</time></trkpt><trkpt lat="42.4808885" lon="11.1916769"><ele>5.0</ele><time>2026-04-06T07:36:51.277Z</time></trkpt><trkpt lat="42.4810997" lon="11.1917329"><ele>5.0</ele><time>2026-04-06T07:36:52.277Z</time></trkpt><trkpt lat="42.4813123" lon="11.1917872"><ele>5.0</ele><time>2026-04-06T07:36:53.277Z</time></trkpt><trkpt lat="42.4815223" lon="11.1918384"><ele>5.0</ele><time>2026-04-06T07:36:54.276Z</time></trkpt><trkpt lat="42.481736" lon="11.1918848"><ele>5.0</ele><time>2026-04-06T07:36:55.277Z</time></trkpt><trkpt lat="42.4819463" lon="11.1919365"><ele>5.666666666666667</ele><time>2026-04-06T07:36:56.277Z</time></trkpt><trkpt lat="42.4821549" lon="11.1919823"><ele>6.333333333333334</ele><time>2026-04-06T07:36:57.277Z</time></trkpt><trkpt lat="42.4823655" lon="11.1920291"><ele>7.0</ele><time>2026-04-06T07:36:58.277Z</time></trkpt><trkpt lat="42.4825797" lon="11.1920783"><ele>7.0</ele><time>2026-04-06T07:36:59.276Z</time></trkpt><trkpt lat="42.482785" lon="11.1921344"><ele>7.0</ele><time>2026-04-06T07:37:00.277Z</time></trkpt><trkpt lat="42.4829926" lon="11.1921887"><ele>7.0</ele><time>2026-04-06T07:37:01.276Z</time></trkpt><trkpt lat="42.4832025" lon="11.19224"><ele>7.0</ele><time>2026-04-06T07:37:02.276Z</time></trkpt><trkpt lat="42.4834087" lon="11.1922904"><ele>7.0</ele><time>2026-04-06T07:37:03.277Z</time></trkpt><trkpt lat="42.483619" lon="11.1923426"><ele>7.0</ele><time>2026-04-06T07:37:04.277Z</time></trkpt><trkpt lat="42.4838228" lon="11.1923966"><ele>6.0</ele><time>2026-04-06T07:37:05.277Z</time></trkpt><trkpt lat="42.4840291" lon="11.1924486"><ele>5.0</ele><time>2026-04-06T07:37:06.277Z</time></trkpt><trkpt lat="42.4842343" lon="11.1925082"><ele>4.0</ele><time>2026-04-06T07:37:07.276Z</time></trkpt><trkpt lat="42.4844328" lon="11.1925662"><ele>4.333333333333333</ele><time>2026-04-06T07:37:08.276Z</time></trkpt><trkpt lat="42.4846339" lon="11.1926305"><ele>4.666666666666667</ele><time>2026-04-06T07:37:09.277Z</time></trkpt><trkpt lat="42.4848364" lon="11.192707"><ele>5.0</ele><time>2026-04-06T07:37:10.276Z</time></trkpt><trkpt lat="42.4850315" lon="11.1927893"><ele>5.0</ele><time>2026-04-06T07:37:11.277Z</time></trkpt><trkpt lat="42.4852288" lon="11.1928634"><ele>5.0</ele><time>2026-04-06T07:37:12.277Z</time></trkpt><trkpt lat="42.4854338" lon="11.1929397"><ele>5.0</ele><time>2026-04-06T07:37:13.277Z</time></trkpt><trkpt lat="42.4856427" lon="11.1929792"><ele>5.0</ele><time>2026-04-06T07:37:14.277Z</time></trkpt><trkpt lat="42.4858546" lon="11.1930131"><ele>5.0</ele><time>2026-04-06T07:37:15.276Z</time></trkpt><trkpt lat="42.4860612" lon="11.1930451"><ele>5.0</ele><time>2026-04-06T07:37:16.276Z</time></trkpt><trkpt lat="42.4862798" lon="11.1930789"><ele>5.0</ele><time>2026-04-06T07:37:17.277Z</time></trkpt><trkpt lat="42.4864908" lon="11.1931076"><ele>5.0</ele><time>2026-04-06T07:37:18.277Z</time></trkpt><trkpt lat="42.4867014" lon="11.1931447"><ele>5.0</ele><time>2026-04-06T07:37:19.277Z</time></trkpt><trkpt lat="42.4869075" lon="11.1931801"><ele>4.0</ele><time>2026-04-06T07:37:20.277Z</time></trkpt><trkpt lat="42.4871149" lon="11.1932202"><ele>3.0</ele><time>2026-04-06T07:37:21.276Z</time></trkpt><trkpt lat="42.4873242" lon="11.1932527"><ele>2.0</ele><time>2026-04-06T07:37:22.277Z</time></trkpt><trkpt lat="42.4875315" lon="11.1932841"><ele>2.0</ele><time>2026-04-06T07:37:23.277Z</time></trkpt><trkpt lat="42.4877355" lon="11.1933195"><ele>2.0</ele><time>2026-04-06T07:37:24.276Z</time></trkpt><trkpt lat="42.4879395" lon="11.1933523"><ele>2.0</ele><time>2026-04-06T07:37:25.276Z</time></trkpt><trkpt lat="42.488146" lon="11.1933839"><ele>3.0</ele><time>2026-04-06T07:37:26.277Z</time></trkpt><trkpt lat="42.4883469" lon="11.1934144"><ele>4.0</ele><time>2026-04-06T07:37:27.277Z</time></trkpt><trkpt lat="42.4885491" lon="11.1934482"><ele>5.0</ele><time>2026-04-06T07:37:28.276Z</time></trkpt><trkpt lat="42.4887493" lon="11.1934844"><ele>5.0</ele><time>2026-04-06T07:37:29.277Z</time></trkpt><trkpt lat="42.4889501" lon="11.19352"><ele>5.0</ele><time>2026-04-06T07:37:30.276Z</time></trkpt><trkpt lat="42.4891533" lon="11.1935552"><ele>5.0</ele><time>2026-04-06T07:37:31.276Z</time></trkpt><trkpt lat="42.4893545" lon="11.1935939"><ele>5.0</ele><time>2026-04-06T07:37:32.277Z</time></trkpt><trkpt lat="42.4895569" lon="11.1936357"><ele>5.0</ele><time>2026-04-06T07:37:33.277Z</time></trkpt><trkpt lat="42.4897586" lon="11.1936726"><ele>5.0</ele><time>2026-04-06T07:37:34.277Z</time></trkpt><trkpt lat="42.4899634" lon="11.1937042"><ele>5.333333333333334</ele><time>2026-04-06T07:37:35.277Z</time></trkpt><trkpt lat="42.4901746" lon="11.1937435"><ele>5.666666666666667</ele><time>2026-04-06T07:37:36.277Z</time></trkpt><trkpt lat="42.4903795" lon="11.1937812"><ele>6.0</ele><time>2026-04-06T07:37:37.276Z</time></trkpt><trkpt lat="42.4905856" lon="11.193817"><ele>6.0</ele><time>2026-04-06T07:37:38.277Z</time></trkpt><trkpt lat="42.4907873" lon="11.1938575"><ele>6.0</ele><time>2026-04-06T07:37:39.277Z</time></trkpt><trkpt lat="42.4909873" lon="11.1938968"><ele>6.0</ele><time>2026-04-06T07:37:40.276Z</time></trkpt><trkpt lat="42.49119" lon="11.1939357"><ele>6.333333333333334</ele><time>2026-04-06T07:37:41.276Z</time></trkpt><trkpt lat="42.4913911" lon="11.1939725"><ele>6.666666666666667</ele><time>2026-04-06T07:37:42.277Z</time></trkpt><trkpt lat="42.4916012" lon="11.1940103"><ele>7.0</ele><time>2026-04-06T07:37:43.276Z</time></trkpt><trkpt lat="42.4918161" lon="11.1940407"><ele>6.0</ele><time>2026-04-06T07:37:44.277Z</time></trkpt><trkpt lat="42.4920152" lon="11.1940749"><ele>5.0</ele><time>2026-04-06T07:37:45.276Z</time></trkpt><trkpt lat="42.4922159" lon="11.1941111"><ele>4.0</ele><time>2026-04-06T07:37:46.277Z</time></trkpt><trkpt lat="42.4924224" lon="11.1941459"><ele>4.0</ele><time>2026-04-06T07:37:47.277Z</time></trkpt><trkpt lat="42.4926306" lon="11.1941885"><ele>4.0</ele><time>2026-04-06T07:37:48.276Z</time></trkpt><trkpt lat="42.4928331" lon="11.1942298"><ele>4.0</ele><time>2026-04-06T07:37:49.277Z</time></trkpt><trkpt lat="42.4930372" lon="11.1942649"><ele>4.0</ele><time>2026-04-06T07:37:50.276Z</time></trkpt><trkpt lat="42.4932373" lon="11.1943034"><ele>4.0</ele><time>2026-04-06T07:37:51.277Z</time></trkpt><trkpt lat="42.493437" lon="11.1943275"><ele>4.0</ele><time>2026-04-06T07:37:52.277Z</time></trkpt><trkpt lat="42.4936433" lon="11.1943496"><ele>4.0</ele><time>2026-04-06T07:37:53.277Z</time></trkpt><trkpt lat="42.4938435" lon="11.1943709"><ele>4.0</ele><time>2026-04-06T07:37:54.277Z</time></trkpt><trkpt lat="42.4940481" lon="11.1943918"><ele>4.0</ele><time>2026-04-06T07:37:55.277Z</time></trkpt><trkpt lat="42.494249" lon="11.1944072"><ele>4.0</ele><time>2026-04-06T07:37:56.277Z</time></trkpt><trkpt lat="42.4944556" lon="11.1944205"><ele>4.0</ele><time>2026-04-06T07:37:57.277Z</time></trkpt><trkpt lat="42.4946589" lon="11.194438"><ele>4.0</ele><time>2026-04-06T07:37:58.276Z</time></trkpt><trkpt lat="42.4948574" lon="11.194458"><ele>4.0</ele><time>2026-04-06T07:37:59.277Z</time></trkpt><trkpt lat="42.4950567" lon="11.1944783"><ele>4.0</ele><time>2026-04-06T07:38:00.277Z</time></trkpt><trkpt lat="42.4952566" lon="11.1944954"><ele>4.0</ele><time>2026-04-06T07:38:01.276Z</time></trkpt><trkpt lat="42.4954512" lon="11.1945069"><ele>4.0</ele><time>2026-04-06T07:38:02.277Z</time></trkpt><trkpt lat="42.4956533" lon="11.1945239"><ele>4.0</ele><time>2026-04-06T07:38:03.276Z</time></trkpt><trkpt lat="42.4958551" lon="11.194534"><ele>4.0</ele><time>2026-04-06T07:38:04.277Z</time></trkpt><trkpt lat="42.4960571" lon="11.1945477"><ele>3.6666666666666665</ele><time>2026-04-06T07:38:05.276Z</time></trkpt><trkpt lat="42.496258" lon="11.194549"><ele>3.333333333333333</ele><time>2026-04-06T07:38:06.277Z</time></trkpt><trkpt lat="42.4964616" lon="11.1945446"><ele>3.0</ele><time>2026-04-06T07:38:07.277Z</time></trkpt><trkpt lat="42.4966671" lon="11.1945434"><ele>3.0</ele><time>2026-04-06T07:38:08.276Z</time></trkpt><trkpt lat="42.4968701" lon="11.194536"><ele>3.0</ele><time>2026-04-06T07:38:09.277Z</time></trkpt><trkpt lat="42.497074" lon="11.1945251"><ele>3.0</ele><time>2026-04-06T07:38:10.277Z</time></trkpt><trkpt lat="42.4972776" lon="11.1945198"><ele>2.6666666666666665</ele><time>2026-04-06T07:38:11.277Z</time></trkpt><trkpt lat="42.4974822" lon="11.1945142"><ele>2.333333333333333</ele><time>2026-04-06T07:38:12.276Z</time></trkpt><trkpt lat="42.4976867" lon="11.1945"><ele>2.0</ele><time>2026-04-06T07:38:13.277Z</time></trkpt><trkpt lat="42.4978894" lon="11.1944856"><ele>2.0</ele><time>2026-04-06T07:38:14.277Z</time></trkpt><trkpt lat="42.498094" lon="11.1944778"><ele>2.0</ele><time>2026-04-06T07:38:15.277Z</time></trkpt><trkpt lat="42.4982967" lon="11.1944654"><ele>2.0</ele><time>2026-04-06T07:38:16.277Z</time></trkpt><trkpt lat="42.4984991" lon="11.1944609"><ele>2.0</ele><time>2026-04-06T07:38:17.276Z</time></trkpt><trkpt lat="42.4987038" lon="11.1944718"><ele>2.0</ele><time>2026-04-06T07:38:18.277Z</time></trkpt><trkpt lat="42.4989064" lon="11.1944936"><ele>2.0</ele><time>2026-04-06T07:38:19.276Z</time></trkpt><trkpt lat="42.4991101" lon="11.1945308"><ele>2.6666666666666665</ele><time>2026-04-06T07:38:20.276Z</time></trkpt><trkpt lat="42.499313" lon="11.1945803"><ele>3.333333333333333</ele><time>2026-04-06T07:38:21.277Z</time></trkpt><trkpt lat="42.4995111" lon="11.1946457"><ele>4.0</ele><time>2026-04-06T07:38:22.277Z</time></trkpt><trkpt lat="42.4997128" lon="11.1947178"><ele>4.0</ele><time>2026-04-06T07:38:23.276Z</time></trkpt><trkpt lat="42.4999066" lon="11.1948068"><ele>4.0</ele><time>2026-04-06T07:38:24.276Z</time></trkpt><trkpt lat="42.5000933" lon="11.1949027"><ele>4.0</ele><time>2026-04-06T07:38:25.277Z</time></trkpt><trkpt lat="42.5002721" lon="11.1950212"><ele>3.333333333333333</ele><time>2026-04-06T07:38:26.277Z</time></trkpt><trkpt lat="42.5004462" lon="11.1951466"><ele>2.6666666666666665</ele><time>2026-04-06T07:38:27.276Z</time></trkpt><trkpt lat="42.5006207" lon="11.1952845"><ele>2.0</ele><time>2026-04-06T07:38:28.277Z</time></trkpt><trkpt lat="42.5007871" lon="11.1954346"><ele>2.0</ele><time>2026-04-06T07:38:29.277Z</time></trkpt><trkpt lat="42.5009495" lon="11.1955928"><ele>2.0</ele><time>2026-04-06T07:38:30.277Z</time></trkpt><trkpt lat="42.5011066" lon="11.195764"><ele>2.0</ele><time>2026-04-06T07:38:31.277Z</time></trkpt><trkpt lat="42.501256" lon="11.1959422"><ele>1.3333333333333333</ele><time>2026-04-06T07:38:32.277Z</time></trkpt><trkpt lat="42.5014003" lon="11.1961301"><ele>0.6666666666666666</ele><time>2026-04-06T07:38:33.277Z</time></trkpt><trkpt lat="42.5015375" lon="11.1963184"><ele>0.0</ele><time>2026-04-06T07:38:34.277Z</time></trkpt><trkpt lat="42.501669" lon="11.1965042"><ele>-0.3333333333333333</ele><time>2026-04-06T07:38:35.277Z</time></trkpt><trkpt lat="42.501796" lon="11.1966765"><ele>-0.6666666666666666</ele><time>2026-04-06T07:38:36.276Z</time></trkpt><trkpt lat="42.5019113" lon="11.1968422"><ele>-1.0</ele><time>2026-04-06T07:38:37.277Z</time></trkpt><trkpt lat="42.5020309" lon="11.1969985"><ele>-0.5</ele><time>2026-04-06T07:38:38.277Z</time></trkpt><trkpt lat="42.5021391" lon="11.1971438"><ele>0.0</ele><time>2026-04-06T07:38:39.277Z</time></trkpt><trkpt lat="42.5022443" lon="11.1972789"><ele>0.5</ele><time>2026-04-06T07:38:40.277Z</time></trkpt><trkpt lat="42.5023364" lon="11.1974062"><ele>1.0</ele><time>2026-04-06T07:38:41.277Z</time></trkpt><trkpt lat="42.502415" lon="11.1975387"><ele>1.0</ele><time>2026-04-06T07:38:42.277Z</time></trkpt><trkpt lat="42.5024808" lon="11.1976739"><ele>1.0</ele><time>2026-04-06T07:38:43.277Z</time></trkpt><trkpt lat="42.502534" lon="11.1978109"><ele>1.0</ele><time>2026-04-06T07:38:44.277Z</time></trkpt><trkpt lat="42.5025678" lon="11.1979552"><ele>1.0</ele><time>2026-04-06T07:38:45.277Z</time></trkpt><trkpt lat="42.5025878" lon="11.1980994"><ele>0.8</ele><time>2026-04-06T07:38:46.277Z</time></trkpt><trkpt lat="42.5025926" lon="11.1982439"><ele>0.6000000000000001</ele><time>2026-04-06T07:38:47.276Z</time></trkpt><trkpt lat="42.5025797" lon="11.1983919"><ele>0.4</ele><time>2026-04-06T07:38:48.277Z</time></trkpt><trkpt lat="42.5025606" lon="11.1985391"><ele>0.2</ele><time>2026-04-06T07:38:49.277Z</time></trkpt><trkpt lat="42.5025319" lon="11.1986813"><ele>0.0</ele><time>2026-04-06T07:38:50.277Z</time></trkpt><trkpt lat="42.5024922" lon="11.1988296"><ele>0.0</ele><time>2026-04-06T07:38:51.276Z</time></trkpt><trkpt lat="42.5024485" lon="11.1989842"><ele>0.0</ele><time>2026-04-06T07:38:52.276Z</time></trkpt><trkpt lat="42.5023944" lon="11.1991518"><ele>0.0</ele><time>2026-04-06T07:38:53.276Z</time></trkpt><trkpt lat="42.502339" lon="11.1993168"><ele>0.0</ele><time>2026-04-06T07:38:54.276Z</time></trkpt><trkpt lat="42.5022817" lon="11.1994765"><ele>0.25</ele><time>2026-04-06T07:38:55.277Z</time></trkpt><trkpt lat="42.5022328" lon="11.1996305"><ele>0.5</ele><time>2026-04-06T07:38:56.277Z</time></trkpt><trkpt lat="42.5021888" lon="11.1997738"><ele>0.75</ele><time>2026-04-06T07:38:57.277Z</time></trkpt><trkpt lat="42.5021509" lon="11.19991"><ele>1.0</ele><time>2026-04-06T07:38:58.277Z</time></trkpt><trkpt lat="42.502109" lon="11.2000541"><ele>1.0</ele><time>2026-04-06T07:38:59.276Z</time></trkpt><trkpt lat="42.5020632" lon="11.2002035"><ele>1.0</ele><time>2026-04-06T07:39:00.276Z</time></trkpt><trkpt lat="42.5020065" lon="11.2003597"><ele>1.0</ele><time>2026-04-06T07:39:01.277Z</time></trkpt><trkpt lat="42.501942" lon="11.2005039"><ele>1.0</ele><time>2026-04-06T07:39:02.277Z</time></trkpt><trkpt lat="42.5018833" lon="11.2006568"><ele>1.0</ele><time>2026-04-06T07:39:03.277Z</time></trkpt><trkpt lat="42.5018433" lon="11.2008165"><ele>1.0</ele><time>2026-04-06T07:39:04.277Z</time></trkpt><trkpt lat="42.5018179" lon="11.2009821"><ele>1.0</ele><time>2026-04-06T07:39:05.277Z</time></trkpt><trkpt lat="42.5018227" lon="11.2011561"><ele>1.0</ele><time>2026-04-06T07:39:06.276Z</time></trkpt><trkpt lat="42.5018535" lon="11.2013353"><ele>0.6666666666666666</ele><time>2026-04-06T07:39:07.277Z</time></trkpt><trkpt lat="42.5019168" lon="11.2015103"><ele>0.3333333333333333</ele><time>2026-04-06T07:39:08.277Z</time></trkpt><trkpt lat="42.5019932" lon="11.2016909"><ele>0.0</ele><time>2026-04-06T07:39:09.277Z</time></trkpt><trkpt lat="42.5020785" lon="11.2018765"><ele>0.6666666666666666</ele><time>2026-04-06T07:39:10.276Z</time></trkpt><trkpt lat="42.5021626" lon="11.2020538"><ele>1.3333333333333333</ele><time>2026-04-06T07:39:11.276Z</time></trkpt><trkpt lat="42.5022479" lon="11.2022328"><ele>2.0</ele><time>2026-04-06T07:39:12.277Z</time></trkpt><trkpt lat="42.5023308" lon="11.2024114"><ele>2.0</ele><time>2026-04-06T07:39:13.277Z</time></trkpt><trkpt lat="42.5024102" lon="11.2025871"><ele>2.0</ele><time>2026-04-06T07:39:14.276Z</time></trkpt><trkpt lat="42.5024913" lon="11.2027631"><ele>2.0</ele><time>2026-04-06T07:39:15.277Z</time></trkpt><trkpt lat="42.5025641" lon="11.2029281"><ele>2.0</ele><time>2026-04-06T07:39:16.277Z</time></trkpt><trkpt lat="42.5026332" lon="11.2030874"><ele>1.75</ele><time>2026-04-06T07:39:17.277Z</time></trkpt><trkpt lat="42.5026929" lon="11.2032332"><ele>1.5</ele><time>2026-04-06T07:39:18.277Z</time></trkpt><trkpt lat="42.5027402" lon="11.2033811"><ele>1.25</ele><time>2026-04-06T07:39:19.276Z</time></trkpt><trkpt lat="42.5027609" lon="11.2035333"><ele>1.0</ele><time>2026-04-06T07:39:20.276Z</time></trkpt><trkpt lat="42.5027548" lon="11.2036842"><ele>1.0</ele><time>2026-04-06T07:39:21.277Z</time></trkpt><trkpt lat="42.5027279" lon="11.2038295"><ele>1.0</ele><time>2026-04-06T07:39:22.277Z</time></trkpt><trkpt lat="42.502675" lon="11.2039644"><ele>1.0</ele><time>2026-04-06T07:39:23.277Z</time></trkpt><trkpt lat="42.5026035" lon="11.2040767"><ele>1.0</ele><time>2026-04-06T07:39:24.276Z</time></trkpt><trkpt lat="42.5025195" lon="11.2041618"><ele>1.0</ele><time>2026-04-06T07:39:25.277Z</time></trkpt><trkpt lat="42.5024221" lon="11.2042157"><ele>0.8</ele><time>2026-04-06T07:39:26.276Z</time></trkpt><trkpt lat="42.5023243" lon="11.2042445"><ele>0.6000000000000001</ele><time>2026-04-06T07:39:27.277Z</time></trkpt><trkpt lat="42.5022413" lon="11.2042477"><ele>0.4</ele><time>2026-04-06T07:39:28.277Z</time></trkpt><trkpt lat="42.5021712" lon="11.204237"><ele>0.2</ele><time>2026-04-06T07:39:29.276Z</time></trkpt><trkpt lat="42.5020544" lon="11.2041863"><ele>0.0</ele><time>2026-04-06T07:39:31.277Z</time></trkpt><trkpt lat="42.5019878" lon="11.2041369"><ele>-0.2</ele><time>2026-04-06T07:39:32.277Z</time></trkpt><trkpt lat="42.5019154" lon="11.204063"><ele>-0.4</ele><time>2026-04-06T07:39:33.277Z</time></trkpt><trkpt lat="42.5018486" lon="11.2039574"><ele>-0.6000000000000001</ele><time>2026-04-06T07:39:34.277Z</time></trkpt><trkpt lat="42.5017985" lon="11.2038303"><ele>-0.8</ele><time>2026-04-06T07:39:35.277Z</time></trkpt><trkpt lat="42.5017704" lon="11.2036864"><ele>-1.0</ele><time>2026-04-06T07:39:36.277Z</time></trkpt><trkpt lat="42.5017637" lon="11.2035266"><ele>-1.0</ele><time>2026-04-06T07:39:37.277Z</time></trkpt><trkpt lat="42.5017877" lon="11.2033648"><ele>-1.0</ele><time>2026-04-06T07:39:38.276Z</time></trkpt><trkpt lat="42.5018413" lon="11.2032107"><ele>-1.0</ele><time>2026-04-06T07:39:39.276Z</time></trkpt><trkpt lat="42.5019192" lon="11.2030825"><ele>-1.0</ele><time>2026-04-06T07:39:40.277Z</time></trkpt><trkpt lat="42.5020187" lon="11.2029746"><ele>-0.25</ele><time>2026-04-06T07:39:41.277Z</time></trkpt><trkpt lat="42.5021334" lon="11.2028722"><ele>0.5</ele><time>2026-04-06T07:39:42.277Z</time></trkpt><trkpt lat="42.5022642" lon="11.2027571"><ele>1.25</ele><time>2026-04-06T07:39:43.277Z</time></trkpt><trkpt lat="42.5023919" lon="11.202636"><ele>2.0</ele><time>2026-04-06T07:39:44.277Z</time></trkpt><trkpt lat="42.5025312" lon="11.2025093"><ele>2.0</ele><time>2026-04-06T07:39:45.277Z</time></trkpt><trkpt lat="42.5026777" lon="11.2023657"><ele>2.0</ele><time>2026-04-06T07:39:46.277Z</time></trkpt><trkpt lat="42.5028323" lon="11.2022287"><ele>2.0</ele><time>2026-04-06T07:39:47.277Z</time></trkpt><trkpt lat="42.5030045" lon="11.2020935"><ele>1.6666666666666665</ele><time>2026-04-06T07:39:48.277Z</time></trkpt><trkpt lat="42.5031784" lon="11.2019466"><ele>1.3333333333333333</ele><time>2026-04-06T07:39:49.277Z</time></trkpt><trkpt lat="42.503358" lon="11.2018"><ele>1.0</ele><time>2026-04-06T07:39:50.276Z</time></trkpt><trkpt lat="42.503541" lon="11.2016516"><ele>1.0</ele><time>2026-04-06T07:39:51.276Z</time></trkpt><trkpt lat="42.5037276" lon="11.2015072"><ele>1.0</ele><time>2026-04-06T07:39:52.277Z</time></trkpt><trkpt lat="42.5039193" lon="11.2013632"><ele>1.0</ele><time>2026-04-06T07:39:53.277Z</time></trkpt><trkpt lat="42.504111" lon="11.2012122"><ele>0.0</ele><time>2026-04-06T07:39:54.277Z</time></trkpt><trkpt lat="42.5043092" lon="11.2010578"><ele>-1.0</ele><time>2026-04-06T07:39:55.277Z</time></trkpt><trkpt lat="42.5045048" lon="11.200904"><ele>-0.5</ele><time>2026-04-06T07:39:56.277Z</time></trkpt><trkpt lat="42.5047076" lon="11.2007552"><ele>0.0</ele><time>2026-04-06T07:39:57.277Z</time></trkpt><trkpt lat="42.5049061" lon="11.2006061"><ele>0.0</ele><time>2026-04-06T07:39:58.276Z</time></trkpt><trkpt lat="42.5051018" lon="11.2004621"><ele>0.0</ele><time>2026-04-06T07:39:59.277Z</time></trkpt><trkpt lat="42.5052943" lon="11.2003243"><ele>0.0</ele><time>2026-04-06T07:40:00.276Z</time></trkpt><trkpt lat="42.5054812" lon="11.2001844"><ele>0.0</ele><time>2026-04-06T07:40:01.276Z</time></trkpt><trkpt lat="42.5056622" lon="11.2000539"><ele>0.0</ele><time>2026-04-06T07:40:02.276Z</time></trkpt><trkpt lat="42.505829" lon="11.1999302"><ele>0.0</ele><time>2026-04-06T07:40:03.276Z</time></trkpt><trkpt lat="42.5059968" lon="11.199803"><ele>0.0</ele><time>2026-04-06T07:40:04.277Z</time></trkpt><trkpt lat="42.5061576" lon="11.1996791"><ele>0.0</ele><time>2026-04-06T07:40:05.277Z</time></trkpt><trkpt lat="42.5063124" lon="11.1995616"><ele>0.0</ele><time>2026-04-06T07:40:06.277Z</time></trkpt><trkpt lat="42.5064617" lon="11.199449"><ele>0.0</ele><time>2026-04-06T07:40:07.277Z</time></trkpt><trkpt lat="42.5065982" lon="11.199344"><ele>0.0</ele><time>2026-04-06T07:40:08.277Z</time></trkpt><trkpt lat="42.5067295" lon="11.199244"><ele>0.0</ele><time>2026-04-06T07:40:09.277Z</time></trkpt><trkpt lat="42.5068494" lon="11.1991569"><ele>0.0</ele><time>2026-04-06T07:40:10.277Z</time></trkpt><trkpt lat="42.5069623" lon="11.1990767"><ele>0.0</ele><time>2026-04-06T07:40:11.277Z</time></trkpt><trkpt lat="42.5070668" lon="11.199002"><ele>0.0</ele><time>2026-04-06T07:40:12.276Z</time></trkpt><trkpt lat="42.5071621" lon="11.198934"><ele>0.0</ele><time>2026-04-06T07:40:13.276Z</time></trkpt><trkpt lat="42.5072562" lon="11.1988639"><ele>0.0</ele><time>2026-04-06T07:40:14.277Z</time></trkpt><trkpt lat="42.5073544" lon="11.1987959"><ele>0.0</ele><time>2026-04-06T07:40:15.277Z</time></trkpt><trkpt lat="42.5074544" lon="11.1987236"><ele>-0.2</ele><time>2026-04-06T07:40:16.276Z</time></trkpt><trkpt lat="42.5075486" lon="11.198654"><ele>-0.4</ele><time>2026-04-06T07:40:17.277Z</time></trkpt><trkpt lat="42.5076375" lon="11.1985891"><ele>-0.6000000000000001</ele><time>2026-04-06T07:40:18.277Z</time></trkpt><trkpt lat="42.5077249" lon="11.1985231"><ele>-0.8</ele><time>2026-04-06T07:40:19.276Z</time></trkpt><trkpt lat="42.5078126" lon="11.1984619"><ele>-1.0</ele><time>2026-04-06T07:40:20.277Z</time></trkpt><trkpt lat="42.5079012" lon="11.1983914"><ele>-0.8</ele><time>2026-04-06T07:40:21.277Z</time></trkpt><trkpt lat="42.5079889" lon="11.1983274"><ele>-0.6000000000000001</ele><time>2026-04-06T07:40:22.276Z</time></trkpt><trkpt lat="42.5080816" lon="11.1982551"><ele>-0.4</ele><time>2026-04-06T07:40:23.277Z</time></trkpt><trkpt lat="42.5081759" lon="11.1981843"><ele>-0.2</ele><time>2026-04-06T07:40:24.277Z</time></trkpt><trkpt lat="42.5082707" lon="11.1981124"><ele>0.0</ele><time>2026-04-06T07:40:25.277Z</time></trkpt><trkpt lat="42.5083601" lon="11.198041"><ele>0.0</ele><time>2026-04-06T07:40:26.276Z</time></trkpt><trkpt lat="42.5084398" lon="11.1979779"><ele>0.0</ele><time>2026-04-06T07:40:27.277Z</time></trkpt><trkpt lat="42.5085158" lon="11.1979236"><ele>0.0</ele><time>2026-04-06T07:40:28.277Z</time></trkpt><trkpt lat="42.50859" lon="11.1978679"><ele>0.0</ele><time>2026-04-06T07:40:29.277Z</time></trkpt><trkpt lat="42.5086616" lon="11.1978191"><ele>0.0</ele><time>2026-04-06T07:40:30.276Z</time></trkpt><trkpt lat="42.5087334" lon="11.1977732"><ele>0.0</ele><time>2026-04-06T07:40:31.277Z</time></trkpt><trkpt lat="42.5088049" lon="11.1977379"><ele>0.16666666666666666</ele><time>2026-04-06T07:40:32.276Z</time></trkpt><trkpt lat="42.5088826" lon="11.1977167"><ele>0.3333333333333333</ele><time>2026-04-06T07:40:33.277Z</time></trkpt><trkpt lat="42.5089661" lon="11.1977179"><ele>0.5</ele><time>2026-04-06T07:40:34.277Z</time></trkpt><trkpt lat="42.509053" lon="11.1977424"><ele>0.6666666666666666</ele><time>2026-04-06T07:40:35.277Z</time></trkpt><trkpt lat="42.5091385" lon="11.1977764"><ele>0.8333333333333333</ele><time>2026-04-06T07:40:36.277Z</time></trkpt><trkpt lat="42.5092305" lon="11.1978246"><ele>1.0</ele><time>2026-04-06T07:40:37.276Z</time></trkpt><trkpt lat="42.5093229" lon="11.1978763"><ele>1.0</ele><time>2026-04-06T07:40:38.277Z</time></trkpt><trkpt lat="42.5094197" lon="11.197937"><ele>1.0</ele><time>2026-04-06T07:40:39.277Z</time></trkpt><trkpt lat="42.5095188" lon="11.1980016"><ele>1.0</ele><time>2026-04-06T07:40:40.276Z</time></trkpt><trkpt lat="42.5096151" lon="11.1980557"><ele>1.0</ele><time>2026-04-06T07:40:41.276Z</time></trkpt><trkpt lat="42.5097082" lon="11.1980942"><ele>1.0</ele><time>2026-04-06T07:40:42.276Z</time></trkpt><trkpt lat="42.5098041" lon="11.1981069"><ele>1.0</ele><time>2026-04-06T07:40:43.276Z</time></trkpt><trkpt lat="42.5098978" lon="11.1980949"><ele>1.0</ele><time>2026-04-06T07:40:44.276Z</time></trkpt><trkpt lat="42.5099856" lon="11.1980604"><ele>1.0</ele><time>2026-04-06T07:40:45.277Z</time></trkpt><trkpt lat="42.510074" lon="11.1980251"><ele>1.0</ele><time>2026-04-06T07:40:46.277Z</time></trkpt><trkpt lat="42.5101614" lon="11.1979867"><ele>1.0</ele><time>2026-04-06T07:40:47.277Z</time></trkpt><trkpt lat="42.5102484" lon="11.1979406"><ele>1.0</ele><time>2026-04-06T07:40:48.277Z</time></trkpt><trkpt lat="42.5103342" lon="11.1978781"><ele>1.0</ele><time>2026-04-06T07:40:49.277Z</time></trkpt><trkpt lat="42.5104125" lon="11.1977981"><ele>1.0</ele><time>2026-04-06T07:40:50.277Z</time></trkpt><trkpt lat="42.5104754" lon="11.197702"><ele>1.0</ele><time>2026-04-06T07:40:51.276Z</time></trkpt><trkpt lat="42.5105317" lon="11.1975947"><ele>1.0</ele><time>2026-04-06T07:40:52.277Z</time></trkpt><trkpt lat="42.5105897" lon="11.1974771"><ele>0.8</ele><time>2026-04-06T07:40:53.277Z</time></trkpt><trkpt lat="42.5106487" lon="11.197347"><ele>0.6000000000000001</ele><time>2026-04-06T07:40:54.277Z</time></trkpt><trkpt lat="42.5107033" lon="11.1972113"><ele>0.4</ele><time>2026-04-06T07:40:55.277Z</time></trkpt><trkpt lat="42.5107391" lon="11.1970822"><ele>0.2</ele><time>2026-04-06T07:40:56.276Z</time></trkpt><trkpt lat="42.5107617" lon="11.1969525"><ele>0.0</ele><time>2026-04-06T07:40:57.276Z</time></trkpt><trkpt lat="42.5107865" lon="11.1968195"><ele>0.0</ele><time>2026-04-06T07:40:58.276Z</time></trkpt><trkpt lat="42.5108056" lon="11.1966956"><ele>0.0</ele><time>2026-04-06T07:40:59.276Z</time></trkpt><trkpt lat="42.5108277" lon="11.1965667"><ele>0.0</ele><time>2026-04-06T07:41:00.276Z</time></trkpt><trkpt lat="42.5108538" lon="11.1964383"><ele>0.0</ele><time>2026-04-06T07:41:01.277Z</time></trkpt><trkpt lat="42.5108798" lon="11.1963199"><ele>0.0</ele><time>2026-04-06T07:41:02.277Z</time></trkpt><trkpt lat="42.5109242" lon="11.1962138"><ele>0.2</ele><time>2026-04-06T07:41:03.277Z</time></trkpt><trkpt lat="42.5109934" lon="11.1961262"><ele>0.4</ele><time>2026-04-06T07:41:04.277Z</time></trkpt><trkpt lat="42.5110838" lon="11.1960531"><ele>0.6000000000000001</ele><time>2026-04-06T07:41:05.277Z</time></trkpt><trkpt lat="42.5111842" lon="11.1959863"><ele>0.8</ele><time>2026-04-06T07:41:06.277Z</time></trkpt><trkpt lat="42.511296" lon="11.1959004"><ele>1.0</ele><time>2026-04-06T07:41:07.277Z</time></trkpt><trkpt lat="42.5114237" lon="11.1958002"><ele>1.0</ele><time>2026-04-06T07:41:08.277Z</time></trkpt><trkpt lat="42.5115763" lon="11.1957054"><ele>1.0</ele><time>2026-04-06T07:41:09.277Z</time></trkpt><trkpt lat="42.5117493" lon="11.1955988"><ele>1.0</ele><time>2026-04-06T07:41:10.276Z</time></trkpt><trkpt lat="42.511933" lon="11.1955001"><ele>1.3333333333333333</ele><time>2026-04-06T07:41:11.277Z</time></trkpt><trkpt lat="42.5121207" lon="11.1954032"><ele>1.6666666666666665</ele><time>2026-04-06T07:41:12.277Z</time></trkpt><trkpt lat="42.5123188" lon="11.1953077"><ele>2.0</ele><time>2026-04-06T07:41:13.277Z</time></trkpt><trkpt lat="42.5125256" lon="11.1952171"><ele>2.0</ele><time>2026-04-06T07:41:14.277Z</time></trkpt><trkpt lat="42.5127366" lon="11.195127"><ele>2.0</ele><time>2026-04-06T07:41:15.277Z</time></trkpt><trkpt lat="42.5129445" lon="11.1950425"><ele>2.0</ele><time>2026-04-06T07:41:16.277Z</time></trkpt><trkpt lat="42.5131539" lon="11.1949662"><ele>2.0</ele><time>2026-04-06T07:41:17.276Z</time></trkpt><trkpt lat="42.5133635" lon="11.1948957"><ele>2.0</ele><time>2026-04-06T07:41:18.277Z</time></trkpt><trkpt lat="42.5135706" lon="11.1948264"><ele>2.0</ele><time>2026-04-06T07:41:19.277Z</time></trkpt><trkpt lat="42.5137779" lon="11.1947596"><ele>2.333333333333333</ele><time>2026-04-06T07:41:20.277Z</time></trkpt><trkpt lat="42.5139849" lon="11.1946971"><ele>2.6666666666666665</ele><time>2026-04-06T07:41:21.276Z</time></trkpt><trkpt lat="42.5141922" lon="11.1946333"><ele>3.0</ele><time>2026-04-06T07:41:22.277Z</time></trkpt><trkpt lat="42.5144013" lon="11.194572"><ele>3.333333333333333</ele><time>2026-04-06T07:41:23.277Z</time></trkpt><trkpt lat="42.514614" lon="11.19451"><ele>3.6666666666666665</ele><time>2026-04-06T07:41:24.277Z</time></trkpt><trkpt lat="42.5148274" lon="11.1944495"><ele>4.0</ele><time>2026-04-06T07:41:25.277Z</time></trkpt><trkpt lat="42.5150419" lon="11.1943899"><ele>4.0</ele><time>2026-04-06T07:41:26.277Z</time></trkpt><trkpt lat="42.5152578" lon="11.1943294"><ele>4.0</ele><time>2026-04-06T07:41:27.277Z</time></trkpt><trkpt lat="42.5154737" lon="11.194267"><ele>4.0</ele><time>2026-04-06T07:41:28.277Z</time></trkpt><trkpt lat="42.5156949" lon="11.1942038"><ele>4.0</ele><time>2026-04-06T07:41:29.277Z</time></trkpt><trkpt lat="42.5159123" lon="11.194135"><ele>4.0</ele><time>2026-04-06T07:41:30.276Z</time></trkpt><trkpt lat="42.5161282" lon="11.1940688"><ele>4.0</ele><time>2026-04-06T07:41:31.276Z</time></trkpt><trkpt lat="42.5163445" lon="11.194006"><ele>4.0</ele><time>2026-04-06T07:41:32.276Z</time></trkpt><trkpt lat="42.5165624" lon="11.1939385"><ele>4.0</ele><time>2026-04-06T07:41:33.277Z</time></trkpt><trkpt lat="42.5167796" lon="11.1938746"><ele>4.0</ele><time>2026-04-06T07:41:34.277Z</time></trkpt><trkpt lat="42.5169978" lon="11.1938097"><ele>3.6666666666666665</ele><time>2026-04-06T07:41:35.277Z</time></trkpt><trkpt lat="42.5172147" lon="11.1937418"><ele>3.333333333333333</ele><time>2026-04-06T07:41:36.276Z</time></trkpt><trkpt lat="42.5174332" lon="11.1936755"><ele>3.0</ele><time>2026-04-06T07:41:37.277Z</time></trkpt><trkpt lat="42.5176484" lon="11.1936128"><ele>3.0</ele><time>2026-04-06T07:41:38.277Z</time></trkpt><trkpt lat="42.5178682" lon="11.1935461"><ele>3.0</ele><time>2026-04-06T07:41:39.277Z</time></trkpt><trkpt lat="42.5180843" lon="11.1934799"><ele>3.0</ele><time>2026-04-06T07:41:40.277Z</time></trkpt><trkpt lat="42.5183007" lon="11.1934136"><ele>2.6666666666666665</ele><time>2026-04-06T07:41:41.277Z</time></trkpt><trkpt lat="42.5185154" lon="11.1933517"><ele>2.333333333333333</ele><time>2026-04-06T07:41:42.277Z</time></trkpt><trkpt lat="42.5187297" lon="11.1932844"><ele>2.0</ele><time>2026-04-06T07:41:43.277Z</time></trkpt><trkpt lat="42.5189445" lon="11.1932165"><ele>2.333333333333333</ele><time>2026-04-06T07:41:44.277Z</time></trkpt><trkpt lat="42.5191614" lon="11.193144"><ele>2.6666666666666665</ele><time>2026-04-06T07:41:45.277Z</time></trkpt><trkpt lat="42.5193785" lon="11.1930606"><ele>3.0</ele><time>2026-04-06T07:41:46.277Z</time></trkpt><trkpt lat="42.5195972" lon="11.1929726"><ele>3.0</ele><time>2026-04-06T07:41:47.277Z</time></trkpt><trkpt lat="42.5198195" lon="11.1928753"><ele>3.0</ele><time>2026-04-06T07:41:48.277Z</time></trkpt><trkpt lat="42.5200409" lon="11.1927754"><ele>3.0</ele><time>2026-04-06T07:41:49.277Z</time></trkpt><trkpt lat="42.52026" lon="11.1926687"><ele>3.0</ele><time>2026-04-06T07:41:50.277Z</time></trkpt><trkpt lat="42.5204799" lon="11.1925563"><ele>3.5</ele><time>2026-04-06T07:41:51.276Z</time></trkpt><trkpt lat="42.5207003" lon="11.1924417"><ele>4.0</ele><time>2026-04-06T07:41:52.277Z</time></trkpt><trkpt lat="42.5209252" lon="11.1923192"><ele>4.0</ele><time>2026-04-06T07:41:53.277Z</time></trkpt><trkpt lat="42.5211541" lon="11.1921922"><ele>4.0</ele><time>2026-04-06T07:41:54.277Z</time></trkpt><trkpt lat="42.5213821" lon="11.1920622"><ele>4.0</ele><time>2026-04-06T07:41:55.277Z</time></trkpt><trkpt lat="42.5216169" lon="11.1919379"><ele>4.0</ele><time>2026-04-06T07:41:56.277Z</time></trkpt><trkpt lat="42.5218557" lon="11.1918108"><ele>3.0</ele><time>2026-04-06T07:41:57.276Z</time></trkpt><trkpt lat="42.5221001" lon="11.1916892"><ele>2.0</ele><time>2026-04-06T07:41:58.277Z</time></trkpt><trkpt lat="42.5223484" lon="11.1915637"><ele>2.5</ele><time>2026-04-06T07:41:59.277Z</time></trkpt><trkpt lat="42.5225951" lon="11.191438"><ele>3.0</ele><time>2026-04-06T07:42:00.277Z</time></trkpt><trkpt lat="42.5228403" lon="11.1913066"><ele>2.0</ele><time>2026-04-06T07:42:01.277Z</time></trkpt><trkpt lat="42.5230891" lon="11.1911751"><ele>1.0</ele><time>2026-04-06T07:42:02.276Z</time></trkpt><trkpt lat="42.5233368" lon="11.1910456"><ele>1.0</ele><time>2026-04-06T07:42:03.277Z</time></trkpt><trkpt lat="42.5235857" lon="11.1909157"><ele>1.0</ele><time>2026-04-06T07:42:04.276Z</time></trkpt><trkpt lat="42.5238322" lon="11.1907854"><ele>1.5</ele><time>2026-04-06T07:42:05.276Z</time></trkpt><trkpt lat="42.5240749" lon="11.1906543"><ele>2.0</ele><time>2026-04-06T07:42:06.276Z</time></trkpt><trkpt lat="42.5243205" lon="11.190526"><ele>2.0</ele><time>2026-04-06T07:42:07.277Z</time></trkpt><trkpt lat="42.5245676" lon="11.1903975"><ele>2.0</ele><time>2026-04-06T07:42:08.277Z</time></trkpt><trkpt lat="42.5248089" lon="11.1902717"><ele>2.0</ele><time>2026-04-06T07:42:09.277Z</time></trkpt><trkpt lat="42.5250554" lon="11.1901468"><ele>2.0</ele><time>2026-04-06T07:42:10.277Z</time></trkpt><trkpt lat="42.5252974" lon="11.1900201"><ele>1.0</ele><time>2026-04-06T07:42:11.277Z</time></trkpt><trkpt lat="42.5255346" lon="11.1898928"><ele>0.0</ele><time>2026-04-06T07:42:12.277Z</time></trkpt><trkpt lat="42.5257733" lon="11.1897715"><ele>0.0</ele><time>2026-04-06T07:42:13.277Z</time></trkpt><trkpt lat="42.526008" lon="11.1896484"><ele>0.0</ele><time>2026-04-06T07:42:14.277Z</time></trkpt><trkpt lat="42.5262396" lon="11.1895258"><ele>1.5</ele><time>2026-04-06T07:42:15.277Z</time></trkpt><trkpt lat="42.5264698" lon="11.1894071"><ele>3.0</ele><time>2026-04-06T07:42:16.277Z</time></trkpt><trkpt lat="42.5267051" lon="11.1892869"><ele>3.0</ele><time>2026-04-06T07:42:17.277Z</time></trkpt><trkpt lat="42.5269406" lon="11.189167"><ele>3.0</ele><time>2026-04-06T07:42:18.276Z</time></trkpt><trkpt lat="42.5271776" lon="11.1890442"><ele>3.5</ele><time>2026-04-06T07:42:19.277Z</time></trkpt><trkpt lat="42.5274165" lon="11.1889218"><ele>4.0</ele><time>2026-04-06T07:42:20.277Z</time></trkpt><trkpt lat="42.5276547" lon="11.1887954"><ele>2.5</ele><time>2026-04-06T07:42:21.276Z</time></trkpt><trkpt lat="42.527894" lon="11.1886677"><ele>1.0</ele><time>2026-04-06T07:42:22.276Z</time></trkpt><trkpt lat="42.5281372" lon="11.1885389"><ele>1.0</ele><time>2026-04-06T07:42:23.277Z</time></trkpt><trkpt lat="42.5283805" lon="11.1884129"><ele>1.0</ele><time>2026-04-06T07:42:24.276Z</time></trkpt><trkpt lat="42.5286192" lon="11.1882843"><ele>1.5</ele><time>2026-04-06T07:42:25.277Z</time></trkpt><trkpt lat="42.5288635" lon="11.188159"><ele>2.0</ele><time>2026-04-06T07:42:26.277Z</time></trkpt><trkpt lat="42.5291068" lon="11.1880273"><ele>2.0</ele><time>2026-04-06T07:42:27.277Z</time></trkpt><trkpt lat="42.5293531" lon="11.1878968"><ele>2.0</ele><time>2026-04-06T07:42:28.277Z</time></trkpt><trkpt lat="42.5295952" lon="11.1877681"><ele>2.0</ele><time>2026-04-06T07:42:29.276Z</time></trkpt><trkpt lat="42.5298381" lon="11.1876452"><ele>2.0</ele><time>2026-04-06T07:42:30.277Z</time></trkpt><trkpt lat="42.5300822" lon="11.1875287"><ele>2.0</ele><time>2026-04-06T07:42:31.277Z</time></trkpt><trkpt lat="42.5303252" lon="11.1874143"><ele>2.0</ele><time>2026-04-06T07:42:32.277Z</time></trkpt><trkpt lat="42.5305649" lon="11.1872969"><ele>4.0</ele><time>2026-04-06T07:42:33.277Z</time></trkpt><trkpt lat="42.5308041" lon="11.1871762"><ele>6.0</ele><time>2026-04-06T07:42:34.277Z</time></trkpt><trkpt lat="42.5310388" lon="11.1870537"><ele>4.5</ele><time>2026-04-06T07:42:35.277Z</time></trkpt><trkpt lat="42.5312706" lon="11.1869299"><ele>3.0</ele><time>2026-04-06T07:42:36.277Z</time></trkpt><trkpt lat="42.5315073" lon="11.1868094"><ele>3.0</ele><time>2026-04-06T07:42:37.276Z</time></trkpt><trkpt lat="42.5317414" lon="11.186687"><ele>3.0</ele><time>2026-04-06T07:42:38.276Z</time></trkpt><trkpt lat="42.5319731" lon="11.1865661"><ele>3.5</ele><time>2026-04-06T07:42:39.277Z</time></trkpt><trkpt lat="42.5322039" lon="11.1864455"><ele>4.0</ele><time>2026-04-06T07:42:40.277Z</time></trkpt><trkpt lat="42.532436" lon="11.1863244"><ele>4.0</ele><time>2026-04-06T07:42:41.277Z</time></trkpt><trkpt lat="42.5326665" lon="11.1861999"><ele>4.0</ele><time>2026-04-06T07:42:42.276Z</time></trkpt><trkpt lat="42.5328964" lon="11.1860705"><ele>3.0</ele><time>2026-04-06T07:42:43.277Z</time></trkpt><trkpt lat="42.5331264" lon="11.1859439"><ele>2.0</ele><time>2026-04-06T07:42:44.277Z</time></trkpt><trkpt lat="42.5333587" lon="11.185814"><ele>2.0</ele><time>2026-04-06T07:42:45.277Z</time></trkpt><trkpt lat="42.5335924" lon="11.1856848"><ele>2.0</ele><time>2026-04-06T07:42:46.277Z</time></trkpt><trkpt lat="42.5338253" lon="11.1855636"><ele>2.0</ele><time>2026-04-06T07:42:47.277Z</time></trkpt><trkpt lat="42.5340587" lon="11.1854408"><ele>2.0</ele><time>2026-04-06T07:42:48.277Z</time></trkpt><trkpt lat="42.5342911" lon="11.1853182"><ele>2.0</ele><time>2026-04-06T07:42:49.277Z</time></trkpt><trkpt lat="42.5345271" lon="11.1851856"><ele>2.0</ele><time>2026-04-06T07:42:50.277Z</time></trkpt><trkpt lat="42.5347584" lon="11.1850493"><ele>2.0</ele><time>2026-04-06T07:42:51.277Z</time></trkpt><trkpt lat="42.5349832" lon="11.1849089"><ele>2.0</ele><time>2026-04-06T07:42:52.276Z</time></trkpt><trkpt lat="42.5352117" lon="11.1847624"><ele>2.5</ele><time>2026-04-06T07:42:53.277Z</time></trkpt><trkpt lat="42.5354362" lon="11.1846161"><ele>3.0</ele><time>2026-04-06T07:42:54.277Z</time></trkpt><trkpt lat="42.5356624" lon="11.1844666"><ele>3.0</ele><time>2026-04-06T07:42:55.276Z</time></trkpt><trkpt lat="42.535884" lon="11.1843174"><ele>3.0</ele><time>2026-04-06T07:42:56.277Z</time></trkpt><trkpt lat="42.5361052" lon="11.1841608"><ele>2.5</ele><time>2026-04-06T07:42:57.277Z</time></trkpt><trkpt lat="42.5363236" lon="11.1840043"><ele>2.0</ele><time>2026-04-06T07:42:58.277Z</time></trkpt><trkpt lat="42.5365425" lon="11.1838504"><ele>2.0</ele><time>2026-04-06T07:42:59.277Z</time></trkpt><trkpt lat="42.5367667" lon="11.1836992"><ele>2.0</ele><time>2026-04-06T07:43:00.276Z</time></trkpt><trkpt lat="42.5369899" lon="11.1835439"><ele>2.0</ele><time>2026-04-06T07:43:01.276Z</time></trkpt><trkpt lat="42.5372103" lon="11.1833906"><ele>2.0</ele><time>2026-04-06T07:43:02.277Z</time></trkpt><trkpt lat="42.5374279" lon="11.1832319"><ele>2.0</ele><time>2026-04-06T07:43:03.277Z</time></trkpt><trkpt lat="42.5376484" lon="11.1830738"><ele>2.0</ele><time>2026-04-06T07:43:04.277Z</time></trkpt><trkpt lat="42.5378679" lon="11.182918"><ele>2.5</ele><time>2026-04-06T07:43:05.277Z</time></trkpt><trkpt lat="42.5380885" lon="11.1827629"><ele>3.0</ele><time>2026-04-06T07:43:06.277Z</time></trkpt><trkpt lat="42.5383067" lon="11.1826085"><ele>3.0</ele><time>2026-04-06T07:43:07.277Z</time></trkpt><trkpt lat="42.5385266" lon="11.1824569"><ele>3.0</ele><time>2026-04-06T07:43:08.277Z</time></trkpt><trkpt lat="42.5387447" lon="11.1823021"><ele>2.5</ele><time>2026-04-06T07:43:09.277Z</time></trkpt><trkpt lat="42.5389608" lon="11.1821483"><ele>2.0</ele><time>2026-04-06T07:43:10.276Z</time></trkpt><trkpt lat="42.5391813" lon="11.1819973"><ele>2.0</ele><time>2026-04-06T07:43:11.277Z</time></trkpt><trkpt lat="42.5393943" lon="11.1818413"><ele>2.0</ele><time>2026-04-06T07:43:12.277Z</time></trkpt><trkpt lat="42.5396079" lon="11.181692"><ele>1.5</ele><time>2026-04-06T07:43:13.277Z</time></trkpt><trkpt lat="42.5398249" lon="11.181545"><ele>1.0</ele><time>2026-04-06T07:43:14.277Z</time></trkpt><trkpt lat="42.5400375" lon="11.1813953"><ele>1.5</ele><time>2026-04-06T07:43:15.277Z</time></trkpt><trkpt lat="42.5402482" lon="11.181247"><ele>2.0</ele><time>2026-04-06T07:43:16.277Z</time></trkpt><trkpt lat="42.5404609" lon="11.1810978"><ele>2.0</ele><time>2026-04-06T07:43:17.276Z</time></trkpt><trkpt lat="42.5406722" lon="11.1809477"><ele>2.0</ele><time>2026-04-06T07:43:18.276Z</time></trkpt><trkpt lat="42.5408827" lon="11.1807924"><ele>2.0</ele><time>2026-04-06T07:43:19.277Z</time></trkpt><trkpt lat="42.5410989" lon="11.1806403"><ele>2.0</ele><time>2026-04-06T07:43:20.276Z</time></trkpt><trkpt lat="42.5413118" lon="11.1804864"><ele>2.5</ele><time>2026-04-06T07:43:21.277Z</time></trkpt><trkpt lat="42.5415276" lon="11.1803328"><ele>3.0</ele><time>2026-04-06T07:43:22.276Z</time></trkpt><trkpt lat="42.5417445" lon="11.1801798"><ele>3.0</ele><time>2026-04-06T07:43:23.276Z</time></trkpt><trkpt lat="42.541959" lon="11.1800297"><ele>3.0</ele><time>2026-04-06T07:43:24.277Z</time></trkpt><trkpt lat="42.5421715" lon="11.1798806"><ele>3.5</ele><time>2026-04-06T07:43:25.276Z</time></trkpt><trkpt lat="42.542385" lon="11.1797312"><ele>4.0</ele><time>2026-04-06T07:43:26.276Z</time></trkpt><trkpt lat="42.5426003" lon="11.1795808"><ele>4.0</ele><time>2026-04-06T07:43:27.277Z</time></trkpt><trkpt lat="42.5428161" lon="11.1794283"><ele>4.0</ele><time>2026-04-06T07:43:28.277Z</time></trkpt><trkpt lat="42.5430356" lon="11.1792774"><ele>3.0</ele><time>2026-04-06T07:43:29.277Z</time></trkpt><trkpt lat="42.5432513" lon="11.1791209"><ele>2.0</ele><time>2026-04-06T07:43:30.276Z</time></trkpt><trkpt lat="42.5434672" lon="11.1789639"><ele>2.0</ele><time>2026-04-06T07:43:31.277Z</time></trkpt><trkpt lat="42.5436868" lon="11.1788045"><ele>2.0</ele><time>2026-04-06T07:43:32.277Z</time></trkpt><trkpt lat="42.543905" lon="11.1786374"><ele>2.0</ele><time>2026-04-06T07:43:33.277Z</time></trkpt><trkpt lat="42.5441227" lon="11.1784671"><ele>2.0</ele><time>2026-04-06T07:43:34.277Z</time></trkpt><trkpt lat="42.5443343" lon="11.1782867"><ele>2.5</ele><time>2026-04-06T07:43:35.277Z</time></trkpt><trkpt lat="42.5445437" lon="11.1781004"><ele>3.0</ele><time>2026-04-06T07:43:36.277Z</time></trkpt><trkpt lat="42.5447487" lon="11.1779058"><ele>1.5</ele><time>2026-04-06T07:43:37.277Z</time></trkpt><trkpt lat="42.5449521" lon="11.1777114"><ele>0.0</ele><time>2026-04-06T07:43:38.277Z</time></trkpt><trkpt lat="42.5451541" lon="11.17751"><ele>1.5</ele><time>2026-04-06T07:43:39.277Z</time></trkpt><trkpt lat="42.5453539" lon="11.1773123"><ele>3.0</ele><time>2026-04-06T07:43:40.277Z</time></trkpt><trkpt lat="42.545561" lon="11.1771194"><ele>3.5</ele><time>2026-04-06T07:43:41.277Z</time></trkpt><trkpt lat="42.5457647" lon="11.1769275"><ele>4.0</ele><time>2026-04-06T07:43:42.277Z</time></trkpt><trkpt lat="42.5459672" lon="11.1767347"><ele>4.0</ele><time>2026-04-06T07:43:43.277Z</time></trkpt><trkpt lat="42.5461708" lon="11.1765393"><ele>4.0</ele><time>2026-04-06T07:43:44.277Z</time></trkpt><trkpt lat="42.5463717" lon="11.1763475"><ele>4.5</ele><time>2026-04-06T07:43:45.276Z</time></trkpt><trkpt lat="42.5465694" lon="11.1761552"><ele>5.0</ele><time>2026-04-06T07:43:46.277Z</time></trkpt><trkpt lat="42.5467657" lon="11.1759643"><ele>5.0</ele><time>2026-04-06T07:43:47.276Z</time></trkpt><trkpt lat="42.5469617" lon="11.1757752"><ele>5.0</ele><time>2026-04-06T07:43:48.276Z</time></trkpt><trkpt lat="42.5471549" lon="11.1755961"><ele>4.5</ele><time>2026-04-06T07:43:49.277Z</time></trkpt><trkpt lat="42.5473492" lon="11.1754191"><ele>4.0</ele><time>2026-04-06T07:43:50.277Z</time></trkpt><trkpt lat="42.547547" lon="11.1752451"><ele>4.0</ele><time>2026-04-06T07:43:51.277Z</time></trkpt><trkpt lat="42.5477501" lon="11.1750878"><ele>4.0</ele><time>2026-04-06T07:43:52.277Z</time></trkpt><trkpt lat="42.5479675" lon="11.174952"><ele>5.0</ele><time>2026-04-06T07:43:53.277Z</time></trkpt><trkpt lat="42.5481917" lon="11.1748399"><ele>6.0</ele><time>2026-04-06T07:43:54.277Z</time></trkpt><trkpt lat="42.5484222" lon="11.1747466"><ele>6.0</ele><time>2026-04-06T07:43:55.277Z</time></trkpt><trkpt lat="42.5486531" lon="11.1746682"><ele>6.0</ele><time>2026-04-06T07:43:56.277Z</time></trkpt><trkpt lat="42.5488837" lon="11.1745833"><ele>3.5</ele><time>2026-04-06T07:43:57.277Z</time></trkpt><trkpt lat="42.549114" lon="11.1744995"><ele>1.0</ele><time>2026-04-06T07:43:58.276Z</time></trkpt><trkpt lat="42.5493446" lon="11.1744262"><ele>1.5</ele><time>2026-04-06T07:43:59.277Z</time></trkpt><trkpt lat="42.5495746" lon="11.1743462"><ele>2.0</ele><time>2026-04-06T07:44:00.277Z</time></trkpt><trkpt lat="42.5498036" lon="11.1742617"><ele>2.0</ele><time>2026-04-06T07:44:01.277Z</time></trkpt><trkpt lat="42.5500327" lon="11.1741804"><ele>2.0</ele><time>2026-04-06T07:44:02.276Z</time></trkpt><trkpt lat="42.5502619" lon="11.1741013"><ele>3.0</ele><time>2026-04-06T07:44:03.277Z</time></trkpt><trkpt lat="42.5504953" lon="11.1740211"><ele>4.0</ele><time>2026-04-06T07:44:04.276Z</time></trkpt><trkpt lat="42.5507269" lon="11.17394"><ele>4.0</ele><time>2026-04-06T07:44:05.277Z</time></trkpt><trkpt lat="42.5509565" lon="11.1738629"><ele>4.0</ele><time>2026-04-06T07:44:06.277Z</time></trkpt><trkpt lat="42.5511844" lon="11.1737755"><ele>5.0</ele><time>2026-04-06T07:44:07.277Z</time></trkpt><trkpt lat="42.5514123" lon="11.1736869"><ele>6.0</ele><time>2026-04-06T07:44:08.276Z</time></trkpt><trkpt lat="42.5516388" lon="11.173598"><ele>6.0</ele><time>2026-04-06T07:44:09.276Z</time></trkpt><trkpt lat="42.5518626" lon="11.1735019"><ele>6.0</ele><time>2026-04-06T07:44:10.277Z</time></trkpt><trkpt lat="42.5520842" lon="11.1734058"><ele>6.5</ele><time>2026-04-06T07:44:11.277Z</time></trkpt><trkpt lat="42.552302" lon="11.1732988"><ele>7.0</ele><time>2026-04-06T07:44:12.277Z</time></trkpt><trkpt lat="42.5525194" lon="11.1731876"><ele>10.5</ele><time>2026-04-06T07:44:13.277Z</time></trkpt><trkpt lat="42.5527332" lon="11.173069"><ele>14.0</ele><time>2026-04-06T07:44:14.277Z</time></trkpt><trkpt lat="42.5529483" lon="11.1729492"><ele>14.0</ele><time>2026-04-06T07:44:15.277Z</time></trkpt><trkpt lat="42.5531618" lon="11.1728275"><ele>14.0</ele><time>2026-04-06T07:44:16.277Z</time></trkpt><trkpt lat="42.5533784" lon="11.1727044"><ele>14.0</ele><time>2026-04-06T07:44:17.277Z</time></trkpt><trkpt lat="42.5535959" lon="11.1725858"><ele>14.0</ele><time>2026-04-06T07:44:18.276Z</time></trkpt><trkpt lat="42.5538151" lon="11.1724675"><ele>17.5</ele><time>2026-04-06T07:44:19.277Z</time></trkpt><trkpt lat="42.5540323" lon="11.1723518"><ele>21.0</ele><time>2026-04-06T07:44:20.276Z</time></trkpt><trkpt lat="42.5542476" lon="11.1722314"><ele>21.0</ele><time>2026-04-06T07:44:21.277Z</time></trkpt><trkpt lat="42.5544635" lon="11.1721144"><ele>21.0</ele><time>2026-04-06T07:44:22.276Z</time></trkpt><trkpt lat="42.55468" lon="11.1719981"><ele>17.5</ele><time>2026-04-06T07:44:23.276Z</time></trkpt><trkpt lat="42.554895" lon="11.1718825"><ele>14.0</ele><time>2026-04-06T07:44:24.277Z</time></trkpt><trkpt lat="42.5551067" lon="11.1717617"><ele>14.0</ele><time>2026-04-06T07:44:25.276Z</time></trkpt><trkpt lat="42.5553203" lon="11.1716401"><ele>14.0</ele><time>2026-04-06T07:44:26.277Z</time></trkpt><trkpt lat="42.5555378" lon="11.171524"><ele>17.5</ele><time>2026-04-06T07:44:27.276Z</time></trkpt><trkpt lat="42.5557558" lon="11.1714164"><ele>21.0</ele><time>2026-04-06T07:44:28.277Z</time></trkpt><trkpt lat="42.5559814" lon="11.1713272"><ele>20.0</ele><time>2026-04-06T07:44:29.277Z</time></trkpt><trkpt lat="42.5562066" lon="11.1712504"><ele>19.0</ele><time>2026-04-06T07:44:30.276Z</time></trkpt><trkpt lat="42.5564322" lon="11.1711877"><ele>19.0</ele><time>2026-04-06T07:44:31.277Z</time></trkpt><trkpt lat="42.5566606" lon="11.1711502"><ele>19.0</ele><time>2026-04-06T07:44:32.276Z</time></trkpt><trkpt lat="42.5568938" lon="11.1711352"><ele>18.5</ele><time>2026-04-06T07:44:33.277Z</time></trkpt><trkpt lat="42.5571237" lon="11.1711351"><ele>18.0</ele><time>2026-04-06T07:44:34.277Z</time></trkpt><trkpt lat="42.5573555" lon="11.1711556"><ele>18.0</ele><time>2026-04-06T07:44:35.277Z</time></trkpt><trkpt lat="42.5575861" lon="11.1711895"><ele>18.0</ele><time>2026-04-06T07:44:36.277Z</time></trkpt><trkpt lat="42.55781" lon="11.1712419"><ele>16.0</ele><time>2026-04-06T07:44:37.277Z</time></trkpt><trkpt lat="42.5580339" lon="11.1713202"><ele>14.0</ele><time>2026-04-06T07:44:38.277Z</time></trkpt><trkpt lat="42.5582507" lon="11.1714119"><ele>14.0</ele><time>2026-04-06T07:44:39.277Z</time></trkpt><trkpt lat="42.5584666" lon="11.1715193"><ele>14.0</ele><time>2026-04-06T07:44:40.277Z</time></trkpt><trkpt lat="42.5586818" lon="11.1716235"><ele>20.0</ele><time>2026-04-06T07:44:41.277Z</time></trkpt><trkpt lat="42.5588969" lon="11.1717303"><ele>26.0</ele><time>2026-04-06T07:44:42.277Z</time></trkpt><trkpt lat="42.559112" lon="11.1718416"><ele>26.0</ele><time>2026-04-06T07:44:43.277Z</time></trkpt><trkpt lat="42.5593288" lon="11.1719476"><ele>26.0</ele><time>2026-04-06T07:44:44.277Z</time></trkpt><trkpt lat="42.5595457" lon="11.1720469"><ele>21.5</ele><time>2026-04-06T07:44:45.277Z</time></trkpt><trkpt lat="42.5597627" lon="11.1721487"><ele>17.0</ele><time>2026-04-06T07:44:46.277Z</time></trkpt><trkpt lat="42.5599772" lon="11.1722475"><ele>17.0</ele><time>2026-04-06T07:44:47.277Z</time></trkpt><trkpt lat="42.5601933" lon="11.1723529"><ele>17.0</ele><time>2026-04-06T07:44:48.276Z</time></trkpt><trkpt lat="42.560409" lon="11.1724589"><ele>21.5</ele><time>2026-04-06T07:44:49.277Z</time></trkpt><trkpt lat="42.5606274" lon="11.1725662"><ele>26.0</ele><time>2026-04-06T07:44:50.277Z</time></trkpt><trkpt lat="42.5608431" lon="11.1726748"><ele>26.0</ele><time>2026-04-06T07:44:51.276Z</time></trkpt><trkpt lat="42.5610624" lon="11.1727813"><ele>26.0</ele><time>2026-04-06T07:44:52.276Z</time></trkpt><trkpt lat="42.5612806" lon="11.1728901"><ele>23.5</ele><time>2026-04-06T07:44:53.277Z</time></trkpt><trkpt lat="42.5614977" lon="11.1730013"><ele>21.0</ele><time>2026-04-06T07:44:54.276Z</time></trkpt><trkpt lat="42.5617179" lon="11.1731063"><ele>25.0</ele><time>2026-04-06T07:44:55.276Z</time></trkpt><trkpt lat="42.5619371" lon="11.1732159"><ele>29.0</ele><time>2026-04-06T07:44:56.277Z</time></trkpt><trkpt lat="42.5621537" lon="11.1733173"><ele>29.5</ele><time>2026-04-06T07:44:57.277Z</time></trkpt><trkpt lat="42.5623792" lon="11.1734007"><ele>30.0</ele><time>2026-04-06T07:44:58.277Z</time></trkpt><trkpt lat="42.5626082" lon="11.1734659"><ele>30.0</ele><time>2026-04-06T07:44:59.277Z</time></trkpt><trkpt lat="42.5628436" lon="11.1735161"><ele>30.0</ele><time>2026-04-06T07:45:00.277Z</time></trkpt><trkpt lat="42.5630794" lon="11.1735491"><ele>30.5</ele><time>2026-04-06T07:45:01.277Z</time></trkpt><trkpt lat="42.5633198" lon="11.1735628"><ele>31.0</ele><time>2026-04-06T07:45:02.276Z</time></trkpt><trkpt lat="42.5635606" lon="11.1735568"><ele>30.5</ele><time>2026-04-06T07:45:03.276Z</time></trkpt><trkpt lat="42.5638006" lon="11.1735313"><ele>30.0</ele><time>2026-04-06T07:45:04.277Z</time></trkpt><trkpt lat="42.5640414" lon="11.1734908"><ele>30.0</ele><time>2026-04-06T07:45:05.276Z</time></trkpt><trkpt lat="42.5642781" lon="11.1734315"><ele>30.0</ele><time>2026-04-06T07:45:06.277Z</time></trkpt><trkpt lat="42.5645147" lon="11.1733522"><ele>31.5</ele><time>2026-04-06T07:45:07.277Z</time></trkpt><trkpt lat="42.56475" lon="11.1732713"><ele>33.0</ele><time>2026-04-06T07:45:08.276Z</time></trkpt><trkpt lat="42.5649801" lon="11.1731796"><ele>29.0</ele><time>2026-04-06T07:45:09.277Z</time></trkpt><trkpt lat="42.5652112" lon="11.1730838"><ele>25.0</ele><time>2026-04-06T07:45:10.277Z</time></trkpt><trkpt lat="42.5654399" lon="11.1729914"><ele>23.0</ele><time>2026-04-06T07:45:11.277Z</time></trkpt><trkpt lat="42.5656665" lon="11.1728977"><ele>21.0</ele><time>2026-04-06T07:45:12.277Z</time></trkpt><trkpt lat="42.5658959" lon="11.1728097"><ele>21.0</ele><time>2026-04-06T07:45:13.277Z</time></trkpt><trkpt lat="42.5661301" lon="11.1727235"><ele>21.0</ele><time>2026-04-06T07:45:14.277Z</time></trkpt><trkpt lat="42.5663612" lon="11.1726318"><ele>21.0</ele><time>2026-04-06T07:45:15.277Z</time></trkpt><trkpt lat="42.5665883" lon="11.172529"><ele>21.0</ele><time>2026-04-06T07:45:16.276Z</time></trkpt><trkpt lat="42.5668131" lon="11.1724132"><ele>22.0</ele><time>2026-04-06T07:45:17.277Z</time></trkpt><trkpt lat="42.5670375" lon="11.1722818"><ele>23.0</ele><time>2026-04-06T07:45:18.277Z</time></trkpt><trkpt lat="42.5672548" lon="11.1721345"><ele>23.0</ele><time>2026-04-06T07:45:19.277Z</time></trkpt><trkpt lat="42.5674672" lon="11.1719688"><ele>23.0</ele><time>2026-04-06T07:45:20.277Z</time></trkpt><trkpt lat="42.5676751" lon="11.1717863"><ele>21.5</ele><time>2026-04-06T07:45:21.277Z</time></trkpt><trkpt lat="42.5678783" lon="11.1715834"><ele>20.0</ele><time>2026-04-06T07:45:22.277Z</time></trkpt><trkpt lat="42.5680703" lon="11.1713678"><ele>18.5</ele><time>2026-04-06T07:45:23.277Z</time></trkpt><trkpt lat="42.5682627" lon="11.1711404"><ele>17.0</ele><time>2026-04-06T07:45:24.276Z</time></trkpt><trkpt lat="42.5684458" lon="11.1709075"><ele>16.5</ele><time>2026-04-06T07:45:25.277Z</time></trkpt><trkpt lat="42.5686306" lon="11.1706694"><ele>16.0</ele><time>2026-04-06T07:45:26.277Z</time></trkpt><trkpt lat="42.5688158" lon="11.1704282"><ele>12.5</ele><time>2026-04-06T07:45:27.276Z</time></trkpt><trkpt lat="42.5689988" lon="11.1701888"><ele>9.0</ele><time>2026-04-06T07:45:28.276Z</time></trkpt><trkpt lat="42.5691826" lon="11.1699479"><ele>8.5</ele><time>2026-04-06T07:45:29.277Z</time></trkpt><trkpt lat="42.5693688" lon="11.1697116"><ele>8.0</ele><time>2026-04-06T07:45:30.276Z</time></trkpt><trkpt lat="42.5695559" lon="11.1694776"><ele>6.0</ele><time>2026-04-06T07:45:31.277Z</time></trkpt><trkpt lat="42.5697469" lon="11.16925"><ele>4.0</ele><time>2026-04-06T07:45:32.277Z</time></trkpt><trkpt lat="42.5699481" lon="11.1690298"><ele>4.0</ele><time>2026-04-06T07:45:33.276Z</time></trkpt><trkpt lat="42.5701686" lon="11.1688272"><ele>4.0</ele><time>2026-04-06T07:45:34.277Z</time></trkpt><trkpt lat="42.5703971" lon="11.1686352"><ele>4.0</ele><time>2026-04-06T07:45:35.277Z</time></trkpt><trkpt lat="42.5706323" lon="11.1684558"><ele>4.0</ele><time>2026-04-06T07:45:36.277Z</time></trkpt><trkpt lat="42.5708707" lon="11.1682904"><ele>4.0</ele><time>2026-04-06T07:45:37.277Z</time></trkpt><trkpt lat="42.5711178" lon="11.1681401"><ele>4.0</ele><time>2026-04-06T07:45:38.277Z</time></trkpt><trkpt lat="42.5713707" lon="11.1680065"><ele>4.0</ele><time>2026-04-06T07:45:39.277Z</time></trkpt><trkpt lat="42.5716226" lon="11.1678867"><ele>4.0</ele><time>2026-04-06T07:45:40.277Z</time></trkpt><trkpt lat="42.5718761" lon="11.1677783"><ele>2.5</ele><time>2026-04-06T07:45:41.277Z</time></trkpt><trkpt lat="42.572128" lon="11.1676746"><ele>1.0</ele><time>2026-04-06T07:45:42.276Z</time></trkpt><trkpt lat="42.5723802" lon="11.1675748"><ele>1.0</ele><time>2026-04-06T07:45:43.276Z</time></trkpt><trkpt lat="42.572629" lon="11.1674727"><ele>1.0</ele><time>2026-04-06T07:45:44.277Z</time></trkpt><trkpt lat="42.5728752" lon="11.167375"><ele>1.5</ele><time>2026-04-06T07:45:45.276Z</time></trkpt><trkpt lat="42.5731192" lon="11.1672806"><ele>2.0</ele><time>2026-04-06T07:45:46.276Z</time></trkpt><trkpt lat="42.5733602" lon="11.1671927"><ele>2.0</ele><time>2026-04-06T07:45:47.277Z</time></trkpt><trkpt lat="42.573599" lon="11.1671114"><ele>2.0</ele><time>2026-04-06T07:45:48.277Z</time></trkpt><trkpt lat="42.5738308" lon="11.1670322"><ele>2.5</ele><time>2026-04-06T07:45:49.277Z</time></trkpt><trkpt lat="42.5740603" lon="11.1669452"><ele>3.0</ele><time>2026-04-06T07:45:50.277Z</time></trkpt><trkpt lat="42.5742854" lon="11.1668566"><ele>3.0</ele><time>2026-04-06T07:45:51.276Z</time></trkpt><trkpt lat="42.5745091" lon="11.1667642"><ele>3.0</ele><time>2026-04-06T07:45:52.276Z</time></trkpt><trkpt lat="42.5747322" lon="11.1666714"><ele>3.0</ele><time>2026-04-06T07:45:53.277Z</time></trkpt><trkpt lat="42.5749582" lon="11.1665798"><ele>3.0</ele><time>2026-04-06T07:45:54.277Z</time></trkpt><trkpt lat="42.5751844" lon="11.1664877"><ele>2.5</ele><time>2026-04-06T07:45:55.276Z</time></trkpt><trkpt lat="42.5754117" lon="11.1663946"><ele>2.0</ele><time>2026-04-06T07:45:56.276Z</time></trkpt><trkpt lat="42.5756398" lon="11.1663007"><ele>2.0</ele><time>2026-04-06T07:45:57.277Z</time></trkpt><trkpt lat="42.5758685" lon="11.1662076"><ele>2.0</ele><time>2026-04-06T07:45:58.276Z</time></trkpt><trkpt lat="42.5760987" lon="11.1661122"><ele>2.0</ele><time>2026-04-06T07:45:59.277Z</time></trkpt><trkpt lat="42.5763318" lon="11.1660184"><ele>2.0</ele><time>2026-04-06T07:46:00.277Z</time></trkpt><trkpt lat="42.5765641" lon="11.1659236"><ele>2.0</ele><time>2026-04-06T07:46:01.277Z</time></trkpt><trkpt lat="42.5767979" lon="11.1658286"><ele>2.0</ele><time>2026-04-06T07:46:02.277Z</time></trkpt><trkpt lat="42.5770347" lon="11.1657338"><ele>0.5</ele><time>2026-04-06T07:46:03.277Z</time></trkpt><trkpt lat="42.5772719" lon="11.1656405"><ele>-1.0</ele><time>2026-04-06T07:46:04.277Z</time></trkpt><trkpt lat="42.5775093" lon="11.1655477"><ele>-1.0</ele><time>2026-04-06T07:46:05.277Z</time></trkpt><trkpt lat="42.5777488" lon="11.165455"><ele>-1.0</ele><time>2026-04-06T07:46:06.277Z</time></trkpt><trkpt lat="42.5779866" lon="11.1653592"><ele>-1.0</ele><time>2026-04-06T07:46:07.277Z</time></trkpt><trkpt lat="42.5782228" lon="11.1652624"><ele>-1.0</ele><time>2026-04-06T07:46:08.277Z</time></trkpt><trkpt lat="42.5784601" lon="11.1651654"><ele>-1.0</ele><time>2026-04-06T07:46:09.276Z</time></trkpt><trkpt lat="42.5786967" lon="11.1650699"><ele>-1.0</ele><time>2026-04-06T07:46:10.277Z</time></trkpt><trkpt lat="42.5789328" lon="11.1649753"><ele>-1.0</ele><time>2026-04-06T07:46:11.277Z</time></trkpt><trkpt lat="42.5791687" lon="11.1648807"><ele>-1.0</ele><time>2026-04-06T07:46:12.277Z</time></trkpt><trkpt lat="42.5794018" lon="11.164784"><ele>0.0</ele><time>2026-04-06T07:46:13.277Z</time></trkpt><trkpt lat="42.5796375" lon="11.1646888"><ele>1.0</ele><time>2026-04-06T07:46:14.277Z</time></trkpt><trkpt lat="42.5798692" lon="11.1645976"><ele>1.0</ele><time>2026-04-06T07:46:15.277Z</time></trkpt><trkpt lat="42.5800983" lon="11.164506"><ele>1.0</ele><time>2026-04-06T07:46:16.277Z</time></trkpt><trkpt lat="42.5803298" lon="11.1644115"><ele>2.0</ele><time>2026-04-06T07:46:17.277Z</time></trkpt><trkpt lat="42.5805596" lon="11.1643158"><ele>3.0</ele><time>2026-04-06T07:46:18.277Z</time></trkpt><trkpt lat="42.5807902" lon="11.1642213"><ele>3.0</ele><time>2026-04-06T07:46:19.276Z</time></trkpt><trkpt lat="42.5810225" lon="11.1641257"><ele>3.0</ele><time>2026-04-06T07:46:20.277Z</time></trkpt><trkpt lat="42.5812524" lon="11.1640337"><ele>2.5</ele><time>2026-04-06T07:46:21.277Z</time></trkpt><trkpt lat="42.5814881" lon="11.1639444"><ele>2.0</ele><time>2026-04-06T07:46:22.277Z</time></trkpt><trkpt lat="42.5817254" lon="11.1638555"><ele>2.0</ele><time>2026-04-06T07:46:23.277Z</time></trkpt><trkpt lat="42.5819612" lon="11.1637702"><ele>2.0</ele><time>2026-04-06T07:46:24.276Z</time></trkpt><trkpt lat="42.5821991" lon="11.1636887"><ele>2.5</ele><time>2026-04-06T07:46:25.277Z</time></trkpt><trkpt lat="42.5824405" lon="11.1636086"><ele>3.0</ele><time>2026-04-06T07:46:26.276Z</time></trkpt><trkpt lat="42.5826823" lon="11.1635284"><ele>2.5</ele><time>2026-04-06T07:46:27.277Z</time></trkpt><trkpt lat="42.582927" lon="11.1634523"><ele>2.0</ele><time>2026-04-06T07:46:28.277Z</time></trkpt><trkpt lat="42.5831709" lon="11.1633779"><ele>2.0</ele><time>2026-04-06T07:46:29.276Z</time></trkpt><trkpt lat="42.583417" lon="11.1633068"><ele>2.0</ele><time>2026-04-06T07:46:30.276Z</time></trkpt><trkpt lat="42.5836657" lon="11.1632392"><ele>1.5</ele><time>2026-04-06T07:46:31.276Z</time></trkpt><trkpt lat="42.5839167" lon="11.1631691"><ele>1.0</ele><time>2026-04-06T07:46:32.277Z</time></trkpt><trkpt lat="42.5841685" lon="11.1630991"><ele>1.0</ele><time>2026-04-06T07:46:33.277Z</time></trkpt><trkpt lat="42.5844201" lon="11.1630299"><ele>1.0</ele><time>2026-04-06T07:46:34.277Z</time></trkpt><trkpt lat="42.5846739" lon="11.1629609"><ele>1.0</ele><time>2026-04-06T07:46:35.277Z</time></trkpt><trkpt lat="42.5849262" lon="11.1628888"><ele>1.0</ele><time>2026-04-06T07:46:36.277Z</time></trkpt><trkpt lat="42.5851798" lon="11.1628179"><ele>1.0</ele><time>2026-04-06T07:46:37.277Z</time></trkpt><trkpt lat="42.5854344" lon="11.1627459"><ele>1.0</ele><time>2026-04-06T07:46:38.277Z</time></trkpt><trkpt lat="42.5856889" lon="11.162672"><ele>1.0</ele><time>2026-04-06T07:46:39.276Z</time></trkpt><trkpt lat="42.5859462" lon="11.1626011"><ele>1.0</ele><time>2026-04-06T07:46:40.276Z</time></trkpt><trkpt lat="42.5862016" lon="11.1625298"><ele>1.0</ele><time>2026-04-06T07:46:41.277Z</time></trkpt><trkpt lat="42.5864573" lon="11.1624572"><ele>1.0</ele><time>2026-04-06T07:46:42.277Z</time></trkpt><trkpt lat="42.5867124" lon="11.1623771"><ele>1.0</ele><time>2026-04-06T07:46:43.276Z</time></trkpt><trkpt lat="42.5869667" lon="11.1622976"><ele>1.0</ele><time>2026-04-06T07:46:44.276Z</time></trkpt><trkpt lat="42.587221" lon="11.1622114"><ele>1.0</ele><time>2026-04-06T07:46:45.277Z</time></trkpt><trkpt lat="42.587476" lon="11.1621184"><ele>1.0</ele><time>2026-04-06T07:46:46.277Z</time></trkpt><trkpt lat="42.5877297" lon="11.1620238"><ele>0.5</ele><time>2026-04-06T07:46:47.276Z</time></trkpt><trkpt lat="42.5879844" lon="11.1619265"><ele>0.0</ele><time>2026-04-06T07:46:48.277Z</time></trkpt><trkpt lat="42.5882357" lon="11.1618309"><ele>0.0</ele><time>2026-04-06T07:46:49.276Z</time></trkpt><trkpt lat="42.5884854" lon="11.1617273"><ele>0.0</ele><time>2026-04-06T07:46:50.277Z</time></trkpt><trkpt lat="42.5887312" lon="11.16162"><ele>0.0</ele><time>2026-04-06T07:46:51.277Z</time></trkpt><trkpt lat="42.5889811" lon="11.1615035"><ele>0.0</ele><time>2026-04-06T07:46:52.277Z</time></trkpt><trkpt lat="42.5892271" lon="11.1613804"><ele>0.0</ele><time>2026-04-06T07:46:53.277Z</time></trkpt><trkpt lat="42.5894759" lon="11.1612544"><ele>0.0</ele><time>2026-04-06T07:46:54.277Z</time></trkpt><trkpt lat="42.5897218" lon="11.1611264"><ele>0.5</ele><time>2026-04-06T07:46:55.276Z</time></trkpt><trkpt lat="42.5899691" lon="11.1609981"><ele>1.0</ele><time>2026-04-06T07:46:56.277Z</time></trkpt><trkpt lat="42.5902151" lon="11.1608732"><ele>0.5</ele><time>2026-04-06T07:46:57.277Z</time></trkpt><trkpt lat="42.5904609" lon="11.1607474"><ele>0.0</ele><time>2026-04-06T07:46:58.277Z</time></trkpt><trkpt lat="42.5907048" lon="11.1606203"><ele>0.0</ele><time>2026-04-06T07:46:59.276Z</time></trkpt><trkpt lat="42.590947" lon="11.1604959"><ele>0.0</ele><time>2026-04-06T07:47:00.276Z</time></trkpt><trkpt lat="42.5911868" lon="11.1603707"><ele>-0.5</ele><time>2026-04-06T07:47:01.277Z</time></trkpt><trkpt lat="42.5914269" lon="11.1602444"><ele>-1.0</ele><time>2026-04-06T07:47:02.277Z</time></trkpt><trkpt lat="42.5916643" lon="11.1601178"><ele>-1.0</ele><time>2026-04-06T07:47:03.277Z</time></trkpt><trkpt lat="42.5919018" lon="11.1599916"><ele>-1.0</ele><time>2026-04-06T07:47:04.276Z</time></trkpt><trkpt lat="42.5921403" lon="11.1598671"><ele>-1.0</ele><time>2026-04-06T07:47:05.277Z</time></trkpt><trkpt lat="42.592374" lon="11.1597448"><ele>-1.0</ele><time>2026-04-06T07:47:06.277Z</time></trkpt><trkpt lat="42.5926111" lon="11.1596226"><ele>-0.5</ele><time>2026-04-06T07:47:07.277Z</time></trkpt><trkpt lat="42.5928454" lon="11.1595013"><ele>0.0</ele><time>2026-04-06T07:47:08.277Z</time></trkpt><trkpt lat="42.5930826" lon="11.1593768"><ele>0.0</ele><time>2026-04-06T07:47:09.276Z</time></trkpt><trkpt lat="42.5933163" lon="11.159254"><ele>0.0</ele><time>2026-04-06T07:47:10.277Z</time></trkpt><trkpt lat="42.5935519" lon="11.1591299"><ele>0.0</ele><time>2026-04-06T07:47:11.277Z</time></trkpt><trkpt lat="42.5937857" lon="11.1590099"><ele>0.0</ele><time>2026-04-06T07:47:12.277Z</time></trkpt><trkpt lat="42.5940179" lon="11.1588869"><ele>0.0</ele><time>2026-04-06T07:47:13.277Z</time></trkpt><trkpt lat="42.5942484" lon="11.1587619"><ele>0.0</ele><time>2026-04-06T07:47:14.276Z</time></trkpt><trkpt lat="42.5944819" lon="11.1586367"><ele>-0.5</ele><time>2026-04-06T07:47:15.277Z</time></trkpt><trkpt lat="42.5947154" lon="11.1585103"><ele>-1.0</ele><time>2026-04-06T07:47:16.277Z</time></trkpt><trkpt lat="42.5949495" lon="11.1583897"><ele>-1.0</ele><time>2026-04-06T07:47:17.277Z</time></trkpt><trkpt lat="42.5951843" lon="11.1582673"><ele>-1.0</ele><time>2026-04-06T07:47:18.277Z</time></trkpt><trkpt lat="42.5954165" lon="11.158144"><ele>-1.0</ele><time>2026-04-06T07:47:19.276Z</time></trkpt><trkpt lat="42.5956515" lon="11.1580199"><ele>-1.0</ele><time>2026-04-06T07:47:20.277Z</time></trkpt><trkpt lat="42.595886" lon="11.1578964"><ele>-1.0</ele><time>2026-04-06T07:47:21.277Z</time></trkpt><trkpt lat="42.5961212" lon="11.1577711"><ele>-1.0</ele><time>2026-04-06T07:47:22.277Z</time></trkpt><trkpt lat="42.5963546" lon="11.1576508"><ele>-1.0</ele><time>2026-04-06T07:47:23.276Z</time></trkpt><trkpt lat="42.5965875" lon="11.157525"><ele>-1.0</ele><time>2026-04-06T07:47:24.277Z</time></trkpt><trkpt lat="42.5968204" lon="11.1574007"><ele>0.0</ele><time>2026-04-06T07:47:25.277Z</time></trkpt><trkpt lat="42.5970533" lon="11.1572773"><ele>1.0</ele><time>2026-04-06T07:47:26.276Z</time></trkpt><trkpt lat="42.5972873" lon="11.1571523"><ele>1.0</ele><time>2026-04-06T07:47:27.277Z</time></trkpt><trkpt lat="42.5975211" lon="11.1570302"><ele>1.0</ele><time>2026-04-06T07:47:28.277Z</time></trkpt><trkpt lat="42.5977559" lon="11.1569071"><ele>0.5</ele><time>2026-04-06T07:47:29.276Z</time></trkpt><trkpt lat="42.5979924" lon="11.1567844"><ele>0.0</ele><time>2026-04-06T07:47:30.277Z</time></trkpt><trkpt lat="42.5982284" lon="11.1566644"><ele>0.0</ele><time>2026-04-06T07:47:31.277Z</time></trkpt><trkpt lat="42.5984606" lon="11.1565422"><ele>0.0</ele><time>2026-04-06T07:47:32.277Z</time></trkpt><trkpt lat="42.5986964" lon="11.1564217"><ele>1.5</ele><time>2026-04-06T07:47:33.276Z</time></trkpt><trkpt lat="42.5989302" lon="11.1562988"><ele>3.0</ele><time>2026-04-06T07:47:34.277Z</time></trkpt><trkpt lat="42.5991599" lon="11.1561776"><ele>3.0</ele><time>2026-04-06T07:47:35.277Z</time></trkpt><trkpt lat="42.5993888" lon="11.1560571"><ele>3.0</ele><time>2026-04-06T07:47:36.276Z</time></trkpt><trkpt lat="42.5996191" lon="11.155941"><ele>2.5</ele><time>2026-04-06T07:47:37.277Z</time></trkpt><trkpt lat="42.5998481" lon="11.1558214"><ele>2.0</ele><time>2026-04-06T07:47:38.277Z</time></trkpt><trkpt lat="42.6000783" lon="11.1557025"><ele>2.0</ele><time>2026-04-06T07:47:39.277Z</time></trkpt><trkpt lat="42.6003083" lon="11.1555803"><ele>2.0</ele><time>2026-04-06T07:47:40.277Z</time></trkpt><trkpt lat="42.6005386" lon="11.155456"><ele>2.0</ele><time>2026-04-06T07:47:41.277Z</time></trkpt><trkpt lat="42.6007685" lon="11.1553305"><ele>2.0</ele><time>2026-04-06T07:47:42.277Z</time></trkpt><trkpt lat="42.6010011" lon="11.1552074"><ele>3.0</ele><time>2026-04-06T07:47:43.276Z</time></trkpt><trkpt lat="42.6012326" lon="11.1550875"><ele>4.0</ele><time>2026-04-06T07:47:44.277Z</time></trkpt><trkpt lat="42.6014646" lon="11.154966"><ele>3.0</ele><time>2026-04-06T07:47:45.277Z</time></trkpt><trkpt lat="42.6016977" lon="11.1548412"><ele>2.0</ele><time>2026-04-06T07:47:46.277Z</time></trkpt><trkpt lat="42.6019293" lon="11.154718"><ele>2.5</ele><time>2026-04-06T07:47:47.277Z</time></trkpt><trkpt lat="42.6021627" lon="11.1545922"><ele>3.0</ele><time>2026-04-06T07:47:48.277Z</time></trkpt><trkpt lat="42.6023979" lon="11.1544639"><ele>3.0</ele><time>2026-04-06T07:47:49.276Z</time></trkpt><trkpt lat="42.6026315" lon="11.1543391"><ele>3.0</ele><time>2026-04-06T07:47:50.277Z</time></trkpt><trkpt lat="42.6028651" lon="11.154218"><ele>3.0</ele><time>2026-04-06T07:47:51.276Z</time></trkpt><trkpt lat="42.6030957" lon="11.1540936"><ele>3.0</ele><time>2026-04-06T07:47:52.276Z</time></trkpt><trkpt lat="42.6033282" lon="11.1539728"><ele>3.0</ele><time>2026-04-06T07:47:53.277Z</time></trkpt><trkpt lat="42.6035638" lon="11.153848"><ele>3.0</ele><time>2026-04-06T07:47:54.277Z</time></trkpt><trkpt lat="42.6037959" lon="11.1537204"><ele>3.5</ele><time>2026-04-06T07:47:55.277Z</time></trkpt><trkpt lat="42.6040284" lon="11.1535938"><ele>4.0</ele><time>2026-04-06T07:47:56.277Z</time></trkpt><trkpt lat="42.6042597" lon="11.1534698"><ele>4.0</ele><time>2026-04-06T07:47:57.277Z</time></trkpt><trkpt lat="42.6044889" lon="11.1533427"><ele>4.0</ele><time>2026-04-06T07:47:58.277Z</time></trkpt><trkpt lat="42.6047191" lon="11.1532163"><ele>4.5</ele><time>2026-04-06T07:47:59.277Z</time></trkpt><trkpt lat="42.6049457" lon="11.1530905"><ele>5.0</ele><time>2026-04-06T07:48:00.277Z</time></trkpt><trkpt lat="42.6051713" lon="11.1529679"><ele>5.5</ele><time>2026-04-06T07:48:01.277Z</time></trkpt><trkpt lat="42.6053975" lon="11.1528438"><ele>6.0</ele><time>2026-04-06T07:48:02.277Z</time></trkpt><trkpt lat="42.6056212" lon="11.1527228"><ele>6.0</ele><time>2026-04-06T07:48:03.277Z</time></trkpt><trkpt lat="42.6058466" lon="11.1525974"><ele>6.0</ele><time>2026-04-06T07:48:04.277Z</time></trkpt><trkpt lat="42.606065" lon="11.1524728"><ele>6.0</ele><time>2026-04-06T07:48:05.277Z</time></trkpt><trkpt lat="42.6062779" lon="11.1523438"><ele>6.0</ele><time>2026-04-06T07:48:06.277Z</time></trkpt><trkpt lat="42.6064865" lon="11.1522117"><ele>6.0</ele><time>2026-04-06T07:48:07.277Z</time></trkpt><trkpt lat="42.6066887" lon="11.1520774"><ele>6.0</ele><time>2026-04-06T07:48:08.277Z</time></trkpt><trkpt lat="42.6068916" lon="11.1519426"><ele>6.666666666666666</ele><time>2026-04-06T07:48:09.276Z</time></trkpt><trkpt lat="42.6070889" lon="11.1518059"><ele>7.333333333333333</ele><time>2026-04-06T07:48:10.277Z</time></trkpt><trkpt lat="42.6072794" lon="11.1516739"><ele>8.0</ele><time>2026-04-06T07:48:11.277Z</time></trkpt><trkpt lat="42.6074621" lon="11.1515483"><ele>7.666666666666666</ele><time>2026-04-06T07:48:12.277Z</time></trkpt><trkpt lat="42.6076287" lon="11.1514368"><ele>7.333333333333334</ele><time>2026-04-06T07:48:13.276Z</time></trkpt><trkpt lat="42.6077909" lon="11.1513342"><ele>7.0</ele><time>2026-04-06T07:48:14.277Z</time></trkpt><trkpt lat="42.6079404" lon="11.151237"><ele>7.0</ele><time>2026-04-06T07:48:15.276Z</time></trkpt><trkpt lat="42.6080863" lon="11.1511403"><ele>7.0</ele><time>2026-04-06T07:48:16.276Z</time></trkpt><trkpt lat="42.6082317" lon="11.1510419"><ele>7.0</ele><time>2026-04-06T07:48:17.276Z</time></trkpt><trkpt lat="42.6083812" lon="11.150938"><ele>7.0</ele><time>2026-04-06T07:48:18.277Z</time></trkpt><trkpt lat="42.6085309" lon="11.1508284"><ele>7.0</ele><time>2026-04-06T07:48:19.277Z</time></trkpt><trkpt lat="42.6086817" lon="11.1507219"><ele>7.0</ele><time>2026-04-06T07:48:20.276Z</time></trkpt><trkpt lat="42.6088363" lon="11.1506147"><ele>6.666666666666667</ele><time>2026-04-06T07:48:21.277Z</time></trkpt><trkpt lat="42.6089936" lon="11.1505081"><ele>6.333333333333334</ele><time>2026-04-06T07:48:22.277Z</time></trkpt><trkpt lat="42.6091529" lon="11.1503999"><ele>6.0</ele><time>2026-04-06T07:48:23.277Z</time></trkpt><trkpt lat="42.6093108" lon="11.150294"><ele>6.0</ele><time>2026-04-06T07:48:24.277Z</time></trkpt><trkpt lat="42.6094711" lon="11.1501851"><ele>6.0</ele><time>2026-04-06T07:48:25.277Z</time></trkpt><trkpt lat="42.6096176" lon="11.1500837"><ele>6.0</ele><time>2026-04-06T07:48:26.277Z</time></trkpt><trkpt lat="42.6097497" lon="11.1499931"><ele>6.0</ele><time>2026-04-06T07:48:27.277Z</time></trkpt><trkpt lat="42.6098629" lon="11.1499143"><ele>6.0</ele><time>2026-04-06T07:48:28.277Z</time></trkpt><trkpt lat="42.6099497" lon="11.1498747"><ele>6.0</ele><time>2026-04-06T07:48:29.277Z</time></trkpt><trkpt lat="42.6100203" lon="11.1498704"><ele>6.0</ele><time>2026-04-06T07:48:30.276Z</time></trkpt><trkpt lat="42.6101114" lon="11.1499737"><ele>6.0</ele><time>2026-04-06T07:48:32.277Z</time></trkpt><trkpt lat="42.6101553" lon="11.150052"><ele>6.166666666666667</ele><time>2026-04-06T07:48:33.277Z</time></trkpt><trkpt lat="42.6101972" lon="11.1501354"><ele>6.333333333333334</ele><time>2026-04-06T07:48:34.276Z</time></trkpt><trkpt lat="42.6102436" lon="11.1502261"><ele>6.5</ele><time>2026-04-06T07:48:35.277Z</time></trkpt><trkpt lat="42.6102906" lon="11.1503244"><ele>6.666666666666667</ele><time>2026-04-06T07:48:36.276Z</time></trkpt><trkpt lat="42.6103392" lon="11.150429"><ele>6.833333333333334</ele><time>2026-04-06T07:48:37.277Z</time></trkpt><trkpt lat="42.6103854" lon="11.1505378"><ele>7.0</ele><time>2026-04-06T07:48:38.277Z</time></trkpt><trkpt lat="42.6104377" lon="11.1506491"><ele>7.199999999999999</ele><time>2026-04-06T07:48:39.277Z</time></trkpt><trkpt lat="42.6104924" lon="11.1507615"><ele>7.3999999999999995</ele><time>2026-04-06T07:48:40.277Z</time></trkpt><trkpt lat="42.6105482" lon="11.1508743"><ele>7.6000000000000005</ele><time>2026-04-06T07:48:41.277Z</time></trkpt><trkpt lat="42.6106051" lon="11.1509919"><ele>7.800000000000001</ele><time>2026-04-06T07:48:42.277Z</time></trkpt><trkpt lat="42.6106573" lon="11.151108"><ele>8.0</ele><time>2026-04-06T07:48:43.277Z</time></trkpt><trkpt lat="42.6107059" lon="11.1512172"><ele>8.0</ele><time>2026-04-06T07:48:44.277Z</time></trkpt><trkpt lat="42.6107467" lon="11.1513078"><ele>8.0</ele><time>2026-04-06T07:48:45.277Z</time></trkpt><trkpt lat="42.6108249" lon="11.1514216"><ele>8.0</ele><time>2026-04-06T07:48:47.276Z</time></trkpt><trkpt lat="42.6109106" lon="11.1514267"><ele>8.0</ele><time>2026-04-06T07:48:49.276Z</time></trkpt><trkpt lat="42.6110081" lon="11.151363"><ele>8.0</ele><time>2026-04-06T07:48:51.276Z</time></trkpt><trkpt lat="42.6110643" lon="11.1513159"><ele>7.999999999999999</ele><time>2026-04-06T07:48:52.277Z</time></trkpt><trkpt lat="42.6111295" lon="11.151263"><ele>8.0</ele><time>2026-04-06T07:48:53.277Z</time></trkpt><trkpt lat="42.6111982" lon="11.1512041"><ele>8.0</ele><time>2026-04-06T07:48:54.277Z</time></trkpt><trkpt lat="42.6112662" lon="11.151147"><ele>8.0</ele><time>2026-04-06T07:48:55.277Z</time></trkpt><trkpt lat="42.6113235" lon="11.1511004"><ele>7.999999999999999</ele><time>2026-04-06T07:48:56.277Z</time></trkpt><trkpt lat="42.6113922" lon="11.1510451"><ele>8.0</ele><time>2026-04-06T07:48:58.277Z</time></trkpt><trkpt lat="42.6114544" lon="11.1509971"><ele>7.999999999999999</ele><time>2026-04-06T07:49:22.276Z</time></trkpt><trkpt lat="42.6115099" lon="11.1509542"><ele>8.0</ele><time>2026-04-06T07:49:23.277Z</time></trkpt><trkpt lat="42.6115765" lon="11.1509126"><ele>8.0</ele><time>2026-04-06T07:49:24.277Z</time></trkpt><trkpt lat="42.6116603" lon="11.1508743"><ele>8.0</ele><time>2026-04-06T07:49:25.277Z</time></trkpt><trkpt lat="42.6117535" lon="11.1508451"><ele>7.999999999999999</ele><time>2026-04-06T07:49:26.276Z</time></trkpt><trkpt lat="42.6118612" lon="11.1508181"><ele>8.0</ele><time>2026-04-06T07:49:27.277Z</time></trkpt><trkpt lat="42.6119789" lon="11.1507912"><ele>9.0</ele><time>2026-04-06T07:49:28.277Z</time></trkpt><trkpt lat="42.6121058" lon="11.1507679"><ele>10.0</ele><time>2026-04-06T07:49:29.277Z</time></trkpt><trkpt lat="42.6122372" lon="11.1507426"><ele>11.0</ele><time>2026-04-06T07:49:30.277Z</time></trkpt><trkpt lat="42.61237" lon="11.1507198"><ele>12.0</ele><time>2026-04-06T07:49:31.276Z</time></trkpt><trkpt lat="42.6125039" lon="11.1506947"><ele>12.0</ele><time>2026-04-06T07:49:32.277Z</time></trkpt><trkpt lat="42.6126433" lon="11.1506653"><ele>12.0</ele><time>2026-04-06T07:49:33.277Z</time></trkpt><trkpt lat="42.6127749" lon="11.150638"><ele>12.0</ele><time>2026-04-06T07:49:34.276Z</time></trkpt><trkpt lat="42.6129073" lon="11.1506112"><ele>12.0</ele><time>2026-04-06T07:49:35.277Z</time></trkpt><trkpt lat="42.6130392" lon="11.1505836"><ele>13.0</ele><time>2026-04-06T07:49:36.276Z</time></trkpt><trkpt lat="42.6131596" lon="11.1505553"><ele>14.0</ele><time>2026-04-06T07:49:37.276Z</time></trkpt><trkpt lat="42.6132709" lon="11.1505313"><ele>15.0</ele><time>2026-04-06T07:49:38.277Z</time></trkpt><trkpt lat="42.6133877" lon="11.1505024"><ele>16.0</ele><time>2026-04-06T07:49:39.277Z</time></trkpt><trkpt lat="42.6135074" lon="11.1504805"><ele>16.0</ele><time>2026-04-06T07:49:40.277Z</time></trkpt><trkpt lat="42.6136303" lon="11.1504563"><ele>16.0</ele><time>2026-04-06T07:49:41.277Z</time></trkpt><trkpt lat="42.6137636" lon="11.1504257"><ele>16.0</ele><time>2026-04-06T07:49:42.276Z</time></trkpt><trkpt lat="42.6139027" lon="11.1503969"><ele>16.0</ele><time>2026-04-06T07:49:43.277Z</time></trkpt><trkpt lat="42.614048" lon="11.1503691"><ele>17.5</ele><time>2026-04-06T07:49:44.277Z</time></trkpt><trkpt lat="42.6141844" lon="11.1503467"><ele>19.0</ele><time>2026-04-06T07:49:45.276Z</time></trkpt><trkpt lat="42.614306" lon="11.1503226"><ele>20.5</ele><time>2026-04-06T07:49:46.277Z</time></trkpt><trkpt lat="42.614424" lon="11.150295"><ele>22.0</ele><time>2026-04-06T07:49:47.277Z</time></trkpt><trkpt lat="42.614547" lon="11.1502731"><ele>23.5</ele><time>2026-04-06T07:49:48.277Z</time></trkpt><trkpt lat="42.6146678" lon="11.1502483"><ele>25.0</ele><time>2026-04-06T07:49:49.277Z</time></trkpt><trkpt lat="42.6147896" lon="11.1502229"><ele>26.5</ele><time>2026-04-06T07:49:50.276Z</time></trkpt><trkpt lat="42.6149059" lon="11.1501967"><ele>28.0</ele><time>2026-04-06T07:49:51.277Z</time></trkpt><trkpt lat="42.615026" lon="11.1501661"><ele>28.0</ele><time>2026-04-06T07:49:52.277Z</time></trkpt><trkpt lat="42.615145" lon="11.1501345"><ele>28.0</ele><time>2026-04-06T07:49:53.277Z</time></trkpt><trkpt lat="42.6152715" lon="11.150092"><ele>28.0</ele><time>2026-04-06T07:49:54.277Z</time></trkpt><trkpt lat="42.6153975" lon="11.1500407"><ele>28.0</ele><time>2026-04-06T07:49:55.276Z</time></trkpt><trkpt lat="42.6155355" lon="11.1499796"><ele>29.0</ele><time>2026-04-06T07:49:56.277Z</time></trkpt><trkpt lat="42.6156792" lon="11.1499105"><ele>30.0</ele><time>2026-04-06T07:49:57.277Z</time></trkpt><trkpt lat="42.6158239" lon="11.149841"><ele>31.0</ele><time>2026-04-06T07:49:58.277Z</time></trkpt><trkpt lat="42.6159669" lon="11.1497752"><ele>31.0</ele><time>2026-04-06T07:49:59.277Z</time></trkpt><trkpt lat="42.6161123" lon="11.1497069"><ele>31.0</ele><time>2026-04-06T07:50:00.277Z</time></trkpt><trkpt lat="42.6162583" lon="11.1496413"><ele>31.0</ele><time>2026-04-06T07:50:01.277Z</time></trkpt><trkpt lat="42.6163932" lon="11.1495766"><ele>29.75</ele><time>2026-04-06T07:50:02.277Z</time></trkpt><trkpt lat="42.616523" lon="11.1495148"><ele>28.5</ele><time>2026-04-06T07:50:03.276Z</time></trkpt><trkpt lat="42.61666" lon="11.1494592"><ele>27.25</ele><time>2026-04-06T07:50:04.276Z</time></trkpt><trkpt lat="42.6167926" lon="11.1494202"><ele>26.0</ele><time>2026-04-06T07:50:05.276Z</time></trkpt><trkpt lat="42.6169313" lon="11.1493922"><ele>26.0</ele><time>2026-04-06T07:50:06.277Z</time></trkpt><trkpt lat="42.617078" lon="11.1493742"><ele>26.0</ele><time>2026-04-06T07:50:07.277Z</time></trkpt><trkpt lat="42.6172292" lon="11.1493659"><ele>26.0</ele><time>2026-04-06T07:50:08.277Z</time></trkpt><trkpt lat="42.6173785" lon="11.1493633"><ele>26.0</ele><time>2026-04-06T07:50:09.277Z</time></trkpt><trkpt lat="42.6175275" lon="11.1493586"><ele>26.0</ele><time>2026-04-06T07:50:10.277Z</time></trkpt><trkpt lat="42.6176722" lon="11.1493512"><ele>26.0</ele><time>2026-04-06T07:50:11.277Z</time></trkpt><trkpt lat="42.6178124" lon="11.1493505"><ele>26.0</ele><time>2026-04-06T07:50:12.277Z</time></trkpt><trkpt lat="42.6179562" lon="11.1493537"><ele>26.0</ele><time>2026-04-06T07:50:13.277Z</time></trkpt><trkpt lat="42.6181026" lon="11.1493583"><ele>27.0</ele><time>2026-04-06T07:50:14.277Z</time></trkpt><trkpt lat="42.6182551" lon="11.1493621"><ele>28.0</ele><time>2026-04-06T07:50:15.276Z</time></trkpt><trkpt lat="42.6184078" lon="11.1493598"><ele>29.0</ele><time>2026-04-06T07:50:16.276Z</time></trkpt><trkpt lat="42.6185548" lon="11.1493593"><ele>28.0</ele><time>2026-04-06T07:50:17.277Z</time></trkpt><trkpt lat="42.6186971" lon="11.1493562"><ele>27.0</ele><time>2026-04-06T07:50:18.277Z</time></trkpt><trkpt lat="42.6188442" lon="11.1493515"><ele>26.0</ele><time>2026-04-06T07:50:19.276Z</time></trkpt><trkpt lat="42.618997" lon="11.1493537"><ele>25.0</ele><time>2026-04-06T07:50:20.277Z</time></trkpt><trkpt lat="42.6191457" lon="11.1493532"><ele>25.0</ele><time>2026-04-06T07:50:21.277Z</time></trkpt><trkpt lat="42.6192882" lon="11.1493535"><ele>25.0</ele><time>2026-04-06T07:50:22.277Z</time></trkpt><trkpt lat="42.619423" lon="11.1493548"><ele>25.0</ele><time>2026-04-06T07:50:23.277Z</time></trkpt><trkpt lat="42.6195562" lon="11.1493568"><ele>25.0</ele><time>2026-04-06T07:50:24.277Z</time></trkpt><trkpt lat="42.6196785" lon="11.1493573"><ele>24.6</ele><time>2026-04-06T07:50:25.277Z</time></trkpt><trkpt lat="42.6197922" lon="11.1493613"><ele>24.2</ele><time>2026-04-06T07:50:26.277Z</time></trkpt><trkpt lat="42.619899" lon="11.1493761"><ele>23.799999999999997</ele><time>2026-04-06T07:50:27.277Z</time></trkpt><trkpt lat="42.6200047" lon="11.1494075"><ele>23.4</ele><time>2026-04-06T07:50:28.276Z</time></trkpt><trkpt lat="42.6200989" lon="11.1494515"><ele>23.0</ele><time>2026-04-06T07:50:29.277Z</time></trkpt><trkpt lat="42.6201822" lon="11.1494895"><ele>23.0</ele><time>2026-04-06T07:50:30.276Z</time></trkpt><trkpt lat="42.6202505" lon="11.149524"><ele>23.0</ele><time>2026-04-06T07:50:31.277Z</time></trkpt><trkpt lat="42.6203178" lon="11.1495592"><ele>23.0</ele><time>2026-04-06T07:50:32.277Z</time></trkpt><trkpt lat="42.6203937" lon="11.1496012"><ele>23.0</ele><time>2026-04-06T07:50:33.277Z</time></trkpt><trkpt lat="42.6204685" lon="11.1496419"><ele>23.0</ele><time>2026-04-06T07:50:34.277Z</time></trkpt><trkpt lat="42.6205345" lon="11.1496757"><ele>23.0</ele><time>2026-04-06T07:50:35.277Z</time></trkpt><trkpt lat="42.6206362" lon="11.1497332"><ele>22.599999999999998</ele><time>2026-04-06T07:50:37.277Z</time></trkpt><trkpt lat="42.6207393" lon="11.1497163"><ele>22.2</ele><time>2026-04-06T07:50:39.277Z</time></trkpt><trkpt lat="42.620796" lon="11.1496696"><ele>21.8</ele><time>2026-04-06T07:50:40.277Z</time></trkpt><trkpt lat="42.6208689" lon="11.1495986"><ele>21.4</ele><time>2026-04-06T07:50:41.276Z</time></trkpt><trkpt lat="42.6209477" lon="11.1495033"><ele>21.0</ele><time>2026-04-06T07:50:42.276Z</time></trkpt><trkpt lat="42.6210312" lon="11.1493987"><ele>21.0</ele><time>2026-04-06T07:50:43.276Z</time></trkpt><trkpt lat="42.6211203" lon="11.1492876"><ele>21.0</ele><time>2026-04-06T07:50:44.276Z</time></trkpt><trkpt lat="42.6212131" lon="11.1491713"><ele>21.0</ele><time>2026-04-06T07:50:45.277Z</time></trkpt><trkpt lat="42.6212977" lon="11.1490632"><ele>21.0</ele><time>2026-04-06T07:50:46.276Z</time></trkpt><trkpt lat="42.6213915" lon="11.1489489"><ele>20.75</ele><time>2026-04-06T07:50:47.276Z</time></trkpt><trkpt lat="42.6214867" lon="11.1488318"><ele>20.5</ele><time>2026-04-06T07:50:48.277Z</time></trkpt><trkpt lat="42.6215783" lon="11.1487221"><ele>20.25</ele><time>2026-04-06T07:50:49.276Z</time></trkpt><trkpt lat="42.6216658" lon="11.1486223"><ele>20.0</ele><time>2026-04-06T07:50:50.276Z</time></trkpt><trkpt lat="42.621749" lon="11.1485207"><ele>20.0</ele><time>2026-04-06T07:50:51.277Z</time></trkpt><trkpt lat="42.621827" lon="11.1484252"><ele>20.0</ele><time>2026-04-06T07:50:52.277Z</time></trkpt><trkpt lat="42.6219059" lon="11.1483294"><ele>20.0</ele><time>2026-04-06T07:50:53.277Z</time></trkpt><trkpt lat="42.621978" lon="11.1482337"><ele>20.0</ele><time>2026-04-06T07:50:54.276Z</time></trkpt><trkpt lat="42.6220443" lon="11.1481406"><ele>20.0</ele><time>2026-04-06T07:50:55.276Z</time></trkpt><trkpt lat="42.6221057" lon="11.148056"><ele>20.166666666666668</ele><time>2026-04-06T07:50:56.276Z</time></trkpt><trkpt lat="42.6221656" lon="11.1479748"><ele>20.333333333333336</ele><time>2026-04-06T07:50:57.277Z</time></trkpt><trkpt lat="42.6222218" lon="11.1478922"><ele>20.5</ele><time>2026-04-06T07:50:58.277Z</time></trkpt><trkpt lat="42.6222822" lon="11.147807"><ele>20.666666666666668</ele><time>2026-04-06T07:50:59.276Z</time></trkpt><trkpt lat="42.6223353" lon="11.1477185"><ele>20.833333333333332</ele><time>2026-04-06T07:51:00.276Z</time></trkpt><trkpt lat="42.6223839" lon="11.1476308"><ele>21.0</ele><time>2026-04-06T07:51:01.276Z</time></trkpt><trkpt lat="42.6224341" lon="11.1475349"><ele>21.0</ele><time>2026-04-06T07:51:02.277Z</time></trkpt><trkpt lat="42.622486" lon="11.1474303"><ele>21.0</ele><time>2026-04-06T07:51:03.277Z</time></trkpt><trkpt lat="42.6225393" lon="11.1473221"><ele>21.0</ele><time>2026-04-06T07:51:04.277Z</time></trkpt><trkpt lat="42.6225944" lon="11.1472159"><ele>21.0</ele><time>2026-04-06T07:51:05.277Z</time></trkpt><trkpt lat="42.6226391" lon="11.1471136"><ele>21.0</ele><time>2026-04-06T07:51:06.276Z</time></trkpt><trkpt lat="42.6226751" lon="11.1470187"><ele>20.666666666666668</ele><time>2026-04-06T07:51:07.276Z</time></trkpt><trkpt lat="42.6227033" lon="11.1469248"><ele>20.333333333333332</ele><time>2026-04-06T07:51:08.276Z</time></trkpt><trkpt lat="42.6227164" lon="11.1468332"><ele>20.0</ele><time>2026-04-06T07:51:09.276Z</time></trkpt><trkpt lat="42.6227117" lon="11.146734"><ele>19.666666666666664</ele><time>2026-04-06T07:51:10.276Z</time></trkpt><trkpt lat="42.6226851" lon="11.1466252"><ele>19.333333333333332</ele><time>2026-04-06T07:51:11.276Z</time></trkpt><trkpt lat="42.6226468" lon="11.1465043"><ele>19.0</ele><time>2026-04-06T07:51:12.277Z</time></trkpt><trkpt lat="42.6226105" lon="11.1463975"><ele>18.599999999999998</ele><time>2026-04-06T07:51:13.277Z</time></trkpt><trkpt lat="42.6225704" lon="11.1462899"><ele>18.2</ele><time>2026-04-06T07:51:14.276Z</time></trkpt><trkpt lat="42.6225302" lon="11.1461788"><ele>17.799999999999997</ele><time>2026-04-06T07:51:15.277Z</time></trkpt><trkpt lat="42.6224767" lon="11.1460606"><ele>17.4</ele><time>2026-04-06T07:51:16.276Z</time></trkpt><trkpt lat="42.6224076" lon="11.1459332"><ele>17.0</ele><time>2026-04-06T07:51:17.276Z</time></trkpt><trkpt lat="42.6223369" lon="11.145813"><ele>16.8</ele><time>2026-04-06T07:51:18.277Z</time></trkpt><trkpt lat="42.6222646" lon="11.1457111"><ele>16.6</ele><time>2026-04-06T07:51:19.277Z</time></trkpt><trkpt lat="42.6221915" lon="11.1456187"><ele>16.400000000000002</ele><time>2026-04-06T07:51:20.276Z</time></trkpt><trkpt lat="42.6221038" lon="11.1455255"><ele>16.2</ele><time>2026-04-06T07:51:21.277Z</time></trkpt><trkpt lat="42.6220115" lon="11.1454317"><ele>16.0</ele><time>2026-04-06T07:51:22.276Z</time></trkpt><trkpt lat="42.6219151" lon="11.1453385"><ele>17.0</ele><time>2026-04-06T07:51:23.276Z</time></trkpt><trkpt lat="42.6218281" lon="11.1452546"><ele>18.0</ele><time>2026-04-06T07:51:24.277Z</time></trkpt><trkpt lat="42.6217559" lon="11.1451774"><ele>19.0</ele><time>2026-04-06T07:51:25.277Z</time></trkpt><trkpt lat="42.6216879" lon="11.1451116"><ele>20.0</ele><time>2026-04-06T07:51:26.276Z</time></trkpt><trkpt lat="42.6216116" lon="11.1450485"><ele>21.0</ele><time>2026-04-06T07:51:27.277Z</time></trkpt><trkpt lat="42.621544" lon="11.1449887"><ele>21.0</ele><time>2026-04-06T07:51:28.276Z</time></trkpt><trkpt lat="42.6214929" lon="11.1449351"><ele>21.0</ele><time>2026-04-06T07:51:29.277Z</time></trkpt><trkpt lat="42.6214432" lon="11.1448683"><ele>21.0</ele><time>2026-04-06T07:51:30.276Z</time></trkpt><trkpt lat="42.6213942" lon="11.1447741"><ele>21.0</ele><time>2026-04-06T07:51:31.277Z</time></trkpt><trkpt lat="42.6213477" lon="11.1446621"><ele>21.0</ele><time>2026-04-06T07:51:32.277Z</time></trkpt><trkpt lat="42.6213008" lon="11.1445364"><ele>21.0</ele><time>2026-04-06T07:51:33.276Z</time></trkpt><trkpt lat="42.6212522" lon="11.1444124"><ele>21.0</ele><time>2026-04-06T07:51:34.277Z</time></trkpt><trkpt lat="42.6212104" lon="11.1442946"><ele>21.0</ele><time>2026-04-06T07:51:35.277Z</time></trkpt><trkpt lat="42.6211686" lon="11.1441799"><ele>21.0</ele><time>2026-04-06T07:51:36.276Z</time></trkpt><trkpt lat="42.6211297" lon="11.1440725"><ele>21.0</ele><time>2026-04-06T07:51:37.277Z</time></trkpt><trkpt lat="42.6210873" lon="11.1439662"><ele>21.0</ele><time>2026-04-06T07:51:38.277Z</time></trkpt><trkpt lat="42.6210479" lon="11.1438602"><ele>19.833333333333332</ele><time>2026-04-06T07:51:39.277Z</time></trkpt><trkpt lat="42.6210095" lon="11.1437606"><ele>18.666666666666668</ele><time>2026-04-06T07:51:40.277Z</time></trkpt><trkpt lat="42.6209764" lon="11.143663"><ele>17.5</ele><time>2026-04-06T07:51:41.277Z</time></trkpt><trkpt lat="42.6209394" lon="11.1435642"><ele>16.333333333333336</ele><time>2026-04-06T07:51:42.277Z</time></trkpt><trkpt lat="42.620911" lon="11.1434719"><ele>15.166666666666668</ele><time>2026-04-06T07:51:43.277Z</time></trkpt><trkpt lat="42.6208739" lon="11.1433361"><ele>14.0</ele><time>2026-04-06T07:51:45.277Z</time></trkpt><trkpt lat="42.6208346" lon="11.1432218"><ele>12.799999999999999</ele><time>2026-04-06T07:51:48.277Z</time></trkpt><trkpt lat="42.6208104" lon="11.1431167"><ele>11.599999999999998</ele><time>2026-04-06T07:51:50.276Z</time></trkpt><trkpt lat="42.6208315" lon="11.1430152"><ele>10.4</ele><time>2026-04-06T07:51:52.276Z</time></trkpt><trkpt lat="42.6209295" lon="11.1429277"><ele>9.2</ele><time>2026-04-06T07:51:54.277Z</time></trkpt><trkpt lat="42.6210099" lon="11.1428816"><ele>8.0</ele><time>2026-04-06T07:51:55.277Z</time></trkpt><trkpt lat="42.6210962" lon="11.1428285"><ele>9.0</ele><time>2026-04-06T07:51:56.277Z</time></trkpt><trkpt lat="42.6211984" lon="11.1427666"><ele>10.0</ele><time>2026-04-06T07:51:57.277Z</time></trkpt><trkpt lat="42.6213016" lon="11.1427058"><ele>11.0</ele><time>2026-04-06T07:51:58.277Z</time></trkpt><trkpt lat="42.6214167" lon="11.142641"><ele>12.0</ele><time>2026-04-06T07:51:59.276Z</time></trkpt><trkpt lat="42.6215356" lon="11.1425795"><ele>12.0</ele><time>2026-04-06T07:52:00.277Z</time></trkpt><trkpt lat="42.6216607" lon="11.1425157"><ele>12.0</ele><time>2026-04-06T07:52:01.277Z</time></trkpt><trkpt lat="42.6217927" lon="11.1424538"><ele>12.0</ele><time>2026-04-06T07:52:02.276Z</time></trkpt><trkpt lat="42.6219314" lon="11.1423839"><ele>12.0</ele><time>2026-04-06T07:52:03.276Z</time></trkpt><trkpt lat="42.6220807" lon="11.1423015"><ele>11.333333333333334</ele><time>2026-04-06T07:52:04.277Z</time></trkpt><trkpt lat="42.6222388" lon="11.1422104"><ele>10.666666666666668</ele><time>2026-04-06T07:52:05.277Z</time></trkpt><trkpt lat="42.6224097" lon="11.1421209"><ele>10.0</ele><time>2026-04-06T07:52:06.277Z</time></trkpt><trkpt lat="42.6225909" lon="11.1420233"><ele>10.0</ele><time>2026-04-06T07:52:07.277Z</time></trkpt><trkpt lat="42.6227852" lon="11.1419253"><ele>10.0</ele><time>2026-04-06T07:52:08.276Z</time></trkpt><trkpt lat="42.6229847" lon="11.1418267"><ele>10.0</ele><time>2026-04-06T07:52:09.277Z</time></trkpt><trkpt lat="42.6231843" lon="11.1417339"><ele>10.666666666666668</ele><time>2026-04-06T07:52:10.276Z</time></trkpt><trkpt lat="42.6233918" lon="11.1416385"><ele>11.333333333333334</ele><time>2026-04-06T07:52:11.277Z</time></trkpt><trkpt lat="42.6236011" lon="11.1415497"><ele>12.0</ele><time>2026-04-06T07:52:12.277Z</time></trkpt><trkpt lat="42.6238095" lon="11.1414605"><ele>12.333333333333332</ele><time>2026-04-06T07:52:13.276Z</time></trkpt><trkpt lat="42.6240131" lon="11.1413671"><ele>12.666666666666666</ele><time>2026-04-06T07:52:14.277Z</time></trkpt><trkpt lat="42.6242202" lon="11.1412713"><ele>13.0</ele><time>2026-04-06T07:52:15.276Z</time></trkpt><trkpt lat="42.6244246" lon="11.1411782"><ele>12.666666666666666</ele><time>2026-04-06T07:52:16.276Z</time></trkpt><trkpt lat="42.6246269" lon="11.1410819"><ele>12.333333333333332</ele><time>2026-04-06T07:52:17.276Z</time></trkpt><trkpt lat="42.6248283" lon="11.1409838"><ele>12.0</ele><time>2026-04-06T07:52:18.276Z</time></trkpt><trkpt lat="42.6250289" lon="11.140884"><ele>12.0</ele><time>2026-04-06T07:52:19.277Z</time></trkpt><trkpt lat="42.6252335" lon="11.1407834"><ele>12.0</ele><time>2026-04-06T07:52:20.276Z</time></trkpt><trkpt lat="42.6254402" lon="11.1406848"><ele>12.0</ele><time>2026-04-06T07:52:21.277Z</time></trkpt><trkpt lat="42.6256487" lon="11.1405828"><ele>12.333333333333332</ele><time>2026-04-06T07:52:22.276Z</time></trkpt><trkpt lat="42.6258583" lon="11.1404789"><ele>12.666666666666666</ele><time>2026-04-06T07:52:23.277Z</time></trkpt><trkpt lat="42.6260686" lon="11.1403784"><ele>13.0</ele><time>2026-04-06T07:52:24.276Z</time></trkpt><trkpt lat="42.626281" lon="11.1402735"><ele>13.5</ele><time>2026-04-06T07:52:25.277Z</time></trkpt><trkpt lat="42.6264959" lon="11.1401667"><ele>14.0</ele><time>2026-04-06T07:52:26.277Z</time></trkpt><trkpt lat="42.6267097" lon="11.140066"><ele>14.0</ele><time>2026-04-06T07:52:27.277Z</time></trkpt><trkpt lat="42.6269254" lon="11.1399614"><ele>14.0</ele><time>2026-04-06T07:52:28.276Z</time></trkpt><trkpt lat="42.6271419" lon="11.1398562"><ele>14.0</ele><time>2026-04-06T07:52:29.277Z</time></trkpt><trkpt lat="42.627357" lon="11.1397528"><ele>14.0</ele><time>2026-04-06T07:52:30.277Z</time></trkpt><trkpt lat="42.6275702" lon="11.139646"><ele>14.0</ele><time>2026-04-06T07:52:31.276Z</time></trkpt><trkpt lat="42.6277851" lon="11.1395397"><ele>14.0</ele><time>2026-04-06T07:52:32.277Z</time></trkpt><trkpt lat="42.6280013" lon="11.1394401"><ele>17.0</ele><time>2026-04-06T07:52:33.277Z</time></trkpt><trkpt lat="42.6282143" lon="11.1393369"><ele>20.0</ele><time>2026-04-06T07:52:34.277Z</time></trkpt><trkpt lat="42.6284281" lon="11.139236"><ele>20.0</ele><time>2026-04-06T07:52:35.276Z</time></trkpt><trkpt lat="42.6286418" lon="11.1391323"><ele>20.0</ele><time>2026-04-06T07:52:36.277Z</time></trkpt><trkpt lat="42.6288535" lon="11.1390293"><ele>18.666666666666668</ele><time>2026-04-06T07:52:37.277Z</time></trkpt><trkpt lat="42.6290619" lon="11.1389303"><ele>17.333333333333332</ele><time>2026-04-06T07:52:38.276Z</time></trkpt><trkpt lat="42.6292617" lon="11.1388335"><ele>16.0</ele><time>2026-04-06T07:52:39.277Z</time></trkpt><trkpt lat="42.6294601" lon="11.1387375"><ele>16.666666666666664</ele><time>2026-04-06T07:52:40.276Z</time></trkpt><trkpt lat="42.6296555" lon="11.1386432"><ele>17.333333333333332</ele><time>2026-04-06T07:52:41.277Z</time></trkpt><trkpt lat="42.6298509" lon="11.1385468"><ele>18.0</ele><time>2026-04-06T07:52:42.277Z</time></trkpt><trkpt lat="42.6300451" lon="11.1384527"><ele>18.0</ele><time>2026-04-06T07:52:43.277Z</time></trkpt><trkpt lat="42.6302371" lon="11.1383598"><ele>18.0</ele><time>2026-04-06T07:52:44.277Z</time></trkpt><trkpt lat="42.6304205" lon="11.1382699"><ele>18.0</ele><time>2026-04-06T07:52:45.277Z</time></trkpt><trkpt lat="42.630602" lon="11.1381843"><ele>18.0</ele><time>2026-04-06T07:52:46.277Z</time></trkpt><trkpt lat="42.6307841" lon="11.1380991"><ele>18.0</ele><time>2026-04-06T07:52:47.277Z</time></trkpt><trkpt lat="42.6309612" lon="11.1380128"><ele>18.0</ele><time>2026-04-06T07:52:48.277Z</time></trkpt><trkpt lat="42.6311465" lon="11.1379208"><ele>18.0</ele><time>2026-04-06T07:52:49.277Z</time></trkpt><trkpt lat="42.6313333" lon="11.1378318"><ele>18.0</ele><time>2026-04-06T07:52:50.277Z</time></trkpt><trkpt lat="42.6315235" lon="11.1377431"><ele>18.0</ele><time>2026-04-06T07:52:51.276Z</time></trkpt><trkpt lat="42.6317127" lon="11.1376524"><ele>18.0</ele><time>2026-04-06T07:52:52.277Z</time></trkpt><trkpt lat="42.6319046" lon="11.1375577"><ele>18.0</ele><time>2026-04-06T07:52:53.277Z</time></trkpt><trkpt lat="42.632098" lon="11.1374624"><ele>18.0</ele><time>2026-04-06T07:52:54.277Z</time></trkpt><trkpt lat="42.6322875" lon="11.1373706"><ele>17.333333333333332</ele><time>2026-04-06T07:52:55.277Z</time></trkpt><trkpt lat="42.6324659" lon="11.1372849"><ele>16.666666666666664</ele><time>2026-04-06T07:52:56.277Z</time></trkpt><trkpt lat="42.632637" lon="11.1372116"><ele>16.0</ele><time>2026-04-06T07:52:57.276Z</time></trkpt><trkpt lat="42.6328019" lon="11.1371489"><ele>16.75</ele><time>2026-04-06T07:52:58.277Z</time></trkpt><trkpt lat="42.6329605" lon="11.137101"><ele>17.5</ele><time>2026-04-06T07:52:59.277Z</time></trkpt><trkpt lat="42.633106" lon="11.1370669"><ele>18.25</ele><time>2026-04-06T07:53:00.277Z</time></trkpt><trkpt lat="42.6332452" lon="11.1370617"><ele>19.0</ele><time>2026-04-06T07:53:01.277Z</time></trkpt><trkpt lat="42.6333894" lon="11.1370783"><ele>19.0</ele><time>2026-04-06T07:53:02.277Z</time></trkpt><trkpt lat="42.6335393" lon="11.1371061"><ele>19.0</ele><time>2026-04-06T07:53:03.277Z</time></trkpt><trkpt lat="42.6336965" lon="11.1371324"><ele>19.0</ele><time>2026-04-06T07:53:04.277Z</time></trkpt><trkpt lat="42.633854" lon="11.1371615"><ele>19.5</ele><time>2026-04-06T07:53:05.276Z</time></trkpt><trkpt lat="42.6340026" lon="11.137196"><ele>20.0</ele><time>2026-04-06T07:53:06.277Z</time></trkpt><trkpt lat="42.6341408" lon="11.1372249"><ele>20.5</ele><time>2026-04-06T07:53:07.276Z</time></trkpt><trkpt lat="42.6342734" lon="11.1372198"><ele>21.0</ele><time>2026-04-06T07:53:08.277Z</time></trkpt><trkpt lat="42.6344065" lon="11.1371878"><ele>21.0</ele><time>2026-04-06T07:53:09.277Z</time></trkpt><trkpt lat="42.6345" lon="11.1370994"><ele>21.0</ele><time>2026-04-06T07:53:10.276Z</time></trkpt><trkpt lat="42.6345846" lon="11.1370006"><ele>21.0</ele><time>2026-04-06T07:53:11.277Z</time></trkpt><trkpt lat="42.6346404" lon="11.1368982"><ele>21.0</ele><time>2026-04-06T07:53:12.276Z</time></trkpt><trkpt lat="42.6346811" lon="11.1368058"><ele>21.0</ele><time>2026-04-06T07:53:13.276Z</time></trkpt><trkpt lat="42.6347623" lon="11.1367151"><ele>21.0</ele><time>2026-04-06T07:53:15.277Z</time></trkpt><trkpt lat="42.6348751" lon="11.136753"><ele>21.0</ele><time>2026-04-06T07:53:17.277Z</time></trkpt><trkpt lat="42.6349493" lon="11.136795"><ele>21.0</ele><time>2026-04-06T07:53:18.277Z</time></trkpt><trkpt lat="42.6350538" lon="11.1368179"><ele>21.0</ele><time>2026-04-06T07:53:19.277Z</time></trkpt><trkpt lat="42.6351622" lon="11.1368001"><ele>21.0</ele><time>2026-04-06T07:53:20.277Z</time></trkpt><trkpt lat="42.6352742" lon="11.136747"><ele>20.75</ele><time>2026-04-06T07:53:21.277Z</time></trkpt><trkpt lat="42.6353829" lon="11.1366551"><ele>20.5</ele><time>2026-04-06T07:53:22.276Z</time></trkpt><trkpt lat="42.6354836" lon="11.136517"><ele>20.25</ele><time>2026-04-06T07:53:23.277Z</time></trkpt><trkpt lat="42.6355866" lon="11.1363636"><ele>20.0</ele><time>2026-04-06T07:53:24.276Z</time></trkpt><trkpt lat="42.6356915" lon="11.1362156"><ele>20.0</ele><time>2026-04-06T07:53:25.277Z</time></trkpt><trkpt lat="42.6358003" lon="11.1360708"><ele>20.0</ele><time>2026-04-06T07:53:26.277Z</time></trkpt><trkpt lat="42.6359061" lon="11.1359269"><ele>20.0</ele><time>2026-04-06T07:53:27.276Z</time></trkpt><trkpt lat="42.6360118" lon="11.135787"><ele>20.0</ele><time>2026-04-06T07:53:28.277Z</time></trkpt><trkpt lat="42.6361176" lon="11.1356644"><ele>20.75</ele><time>2026-04-06T07:53:29.277Z</time></trkpt><trkpt lat="42.6362224" lon="11.1355702"><ele>21.5</ele><time>2026-04-06T07:53:30.277Z</time></trkpt><trkpt lat="42.6363282" lon="11.1355007"><ele>22.25</ele><time>2026-04-06T07:53:31.277Z</time></trkpt><trkpt lat="42.636442" lon="11.1354416"><ele>23.0</ele><time>2026-04-06T07:53:32.276Z</time></trkpt><trkpt lat="42.6365661" lon="11.1353847"><ele>23.0</ele><time>2026-04-06T07:53:33.277Z</time></trkpt><trkpt lat="42.6366992" lon="11.1353333"><ele>23.0</ele><time>2026-04-06T07:53:34.277Z</time></trkpt><trkpt lat="42.6368404" lon="11.135282"><ele>23.0</ele><time>2026-04-06T07:53:35.276Z</time></trkpt><trkpt lat="42.6369943" lon="11.1352265"><ele>23.0</ele><time>2026-04-06T07:53:36.277Z</time></trkpt><trkpt lat="42.6371576" lon="11.1351739"><ele>23.333333333333336</ele><time>2026-04-06T07:53:37.277Z</time></trkpt><trkpt lat="42.637328" lon="11.1351301"><ele>23.666666666666668</ele><time>2026-04-06T07:53:38.277Z</time></trkpt><trkpt lat="42.6374974" lon="11.135094"><ele>24.0</ele><time>2026-04-06T07:53:39.277Z</time></trkpt><trkpt lat="42.6376745" lon="11.1350677"><ele>24.666666666666664</ele><time>2026-04-06T07:53:40.277Z</time></trkpt><trkpt lat="42.6378528" lon="11.135056"><ele>25.333333333333332</ele><time>2026-04-06T07:53:41.276Z</time></trkpt><trkpt lat="42.638037" lon="11.1350566"><ele>26.0</ele><time>2026-04-06T07:53:42.277Z</time></trkpt><trkpt lat="42.6382186" lon="11.1350588"><ele>26.0</ele><time>2026-04-06T07:53:43.276Z</time></trkpt><trkpt lat="42.6384015" lon="11.1350737"><ele>26.0</ele><time>2026-04-06T07:53:44.277Z</time></trkpt><trkpt lat="42.6385849" lon="11.1350916"><ele>26.0</ele><time>2026-04-06T07:53:45.277Z</time></trkpt><trkpt lat="42.6387703" lon="11.1351183"><ele>26.333333333333332</ele><time>2026-04-06T07:53:46.276Z</time></trkpt><trkpt lat="42.6389605" lon="11.1351557"><ele>26.666666666666664</ele><time>2026-04-06T07:53:47.276Z</time></trkpt><trkpt lat="42.6391557" lon="11.1351993"><ele>27.0</ele><time>2026-04-06T07:53:48.277Z</time></trkpt><trkpt lat="42.6393517" lon="11.1352523"><ele>27.333333333333336</ele><time>2026-04-06T07:53:49.277Z</time></trkpt><trkpt lat="42.6395555" lon="11.1353054"><ele>27.666666666666668</ele><time>2026-04-06T07:53:50.277Z</time></trkpt><trkpt lat="42.6397644" lon="11.1353613"><ele>28.0</ele><time>2026-04-06T07:53:51.277Z</time></trkpt><trkpt lat="42.6399766" lon="11.135418"><ele>28.0</ele><time>2026-04-06T07:53:52.277Z</time></trkpt><trkpt lat="42.6401894" lon="11.1354745"><ele>28.0</ele><time>2026-04-06T07:53:53.276Z</time></trkpt><trkpt lat="42.6404073" lon="11.1355338"><ele>28.0</ele><time>2026-04-06T07:53:54.277Z</time></trkpt><trkpt lat="42.6406291" lon="11.135591"><ele>26.0</ele><time>2026-04-06T07:53:55.277Z</time></trkpt><trkpt lat="42.640856" lon="11.1356477"><ele>24.0</ele><time>2026-04-06T07:53:56.276Z</time></trkpt><trkpt lat="42.6410861" lon="11.1357099"><ele>27.5</ele><time>2026-04-06T07:53:57.277Z</time></trkpt><trkpt lat="42.6413153" lon="11.1357749"><ele>31.0</ele><time>2026-04-06T07:53:58.277Z</time></trkpt><trkpt lat="42.6415432" lon="11.1358376"><ele>31.0</ele><time>2026-04-06T07:53:59.276Z</time></trkpt><trkpt lat="42.6417754" lon="11.1359004"><ele>31.0</ele><time>2026-04-06T07:54:00.277Z</time></trkpt><trkpt lat="42.6420076" lon="11.1359612"><ele>28.0</ele><time>2026-04-06T07:54:01.277Z</time></trkpt><trkpt lat="42.6422369" lon="11.136023"><ele>25.0</ele><time>2026-04-06T07:54:02.277Z</time></trkpt><trkpt lat="42.6424687" lon="11.1360841"><ele>25.0</ele><time>2026-04-06T07:54:03.276Z</time></trkpt><trkpt lat="42.6427015" lon="11.1361484"><ele>25.0</ele><time>2026-04-06T07:54:04.277Z</time></trkpt><trkpt lat="42.6429324" lon="11.1362079"><ele>22.5</ele><time>2026-04-06T07:54:05.277Z</time></trkpt><trkpt lat="42.6431624" lon="11.1362693"><ele>20.0</ele><time>2026-04-06T07:54:06.276Z</time></trkpt><trkpt lat="42.6433953" lon="11.1363292"><ele>20.0</ele><time>2026-04-06T07:54:07.277Z</time></trkpt><trkpt lat="42.6436254" lon="11.1363915"><ele>20.0</ele><time>2026-04-06T07:54:08.277Z</time></trkpt><trkpt lat="42.6438568" lon="11.1364519"><ele>20.0</ele><time>2026-04-06T07:54:09.277Z</time></trkpt><trkpt lat="42.6440865" lon="11.1365123"><ele>20.0</ele><time>2026-04-06T07:54:10.277Z</time></trkpt><trkpt lat="42.6443167" lon="11.1365714"><ele>19.5</ele><time>2026-04-06T07:54:11.277Z</time></trkpt><trkpt lat="42.6445463" lon="11.1366249"><ele>19.0</ele><time>2026-04-06T07:54:12.276Z</time></trkpt><trkpt lat="42.6447769" lon="11.1366776"><ele>19.0</ele><time>2026-04-06T07:54:13.276Z</time></trkpt><trkpt lat="42.6450038" lon="11.1367211"><ele>19.0</ele><time>2026-04-06T07:54:14.277Z</time></trkpt><trkpt lat="42.6452392" lon="11.1367606"><ele>19.0</ele><time>2026-04-06T07:54:15.276Z</time></trkpt><trkpt lat="42.6454717" lon="11.1367986"><ele>19.0</ele><time>2026-04-06T07:54:16.277Z</time></trkpt><trkpt lat="42.6457079" lon="11.1368339"><ele>19.0</ele><time>2026-04-06T07:54:17.277Z</time></trkpt><trkpt lat="42.6459456" lon="11.1368633"><ele>19.0</ele><time>2026-04-06T07:54:18.276Z</time></trkpt><trkpt lat="42.6461834" lon="11.1368883"><ele>19.0</ele><time>2026-04-06T07:54:19.277Z</time></trkpt><trkpt lat="42.6464232" lon="11.1369117"><ele>19.0</ele><time>2026-04-06T07:54:20.277Z</time></trkpt><trkpt lat="42.6466614" lon="11.136932"><ele>19.0</ele><time>2026-04-06T07:54:21.277Z</time></trkpt><trkpt lat="42.646899" lon="11.1369603"><ele>19.0</ele><time>2026-04-06T07:54:22.276Z</time></trkpt><trkpt lat="42.6471374" lon="11.1369883"><ele>19.5</ele><time>2026-04-06T07:54:23.276Z</time></trkpt><trkpt lat="42.6473745" lon="11.1370133"><ele>20.0</ele><time>2026-04-06T07:54:24.277Z</time></trkpt><trkpt lat="42.6476137" lon="11.1370381"><ele>20.5</ele><time>2026-04-06T07:54:25.276Z</time></trkpt><trkpt lat="42.6478494" lon="11.1370647"><ele>21.0</ele><time>2026-04-06T07:54:26.276Z</time></trkpt><trkpt lat="42.648087" lon="11.1370925"><ele>21.0</ele><time>2026-04-06T07:54:27.277Z</time></trkpt><trkpt lat="42.6483187" lon="11.1371244"><ele>21.0</ele><time>2026-04-06T07:54:28.276Z</time></trkpt><trkpt lat="42.6485567" lon="11.137161"><ele>21.5</ele><time>2026-04-06T07:54:29.277Z</time></trkpt><trkpt lat="42.6487924" lon="11.137203"><ele>22.0</ele><time>2026-04-06T07:54:30.277Z</time></trkpt><trkpt lat="42.6490263" lon="11.1372574"><ele>22.0</ele><time>2026-04-06T07:54:31.277Z</time></trkpt><trkpt lat="42.6492576" lon="11.1373142"><ele>22.0</ele><time>2026-04-06T07:54:32.277Z</time></trkpt><trkpt lat="42.6494909" lon="11.1373741"><ele>21.5</ele><time>2026-04-06T07:54:33.276Z</time></trkpt><trkpt lat="42.6497272" lon="11.137437"><ele>21.0</ele><time>2026-04-06T07:54:34.277Z</time></trkpt><trkpt lat="42.6499605" lon="11.1375008"><ele>21.0</ele><time>2026-04-06T07:54:35.277Z</time></trkpt><trkpt lat="42.650197" lon="11.137562"><ele>21.0</ele><time>2026-04-06T07:54:36.277Z</time></trkpt><trkpt lat="42.6504299" lon="11.1376224"><ele>22.0</ele><time>2026-04-06T07:54:37.276Z</time></trkpt><trkpt lat="42.6506676" lon="11.1376824"><ele>23.0</ele><time>2026-04-06T07:54:38.277Z</time></trkpt><trkpt lat="42.650899" lon="11.1377462"><ele>22.5</ele><time>2026-04-06T07:54:39.277Z</time></trkpt><trkpt lat="42.6511328" lon="11.1378094"><ele>22.0</ele><time>2026-04-06T07:54:40.277Z</time></trkpt><trkpt lat="42.6513683" lon="11.137873"><ele>22.0</ele><time>2026-04-06T07:54:41.277Z</time></trkpt><trkpt lat="42.6516065" lon="11.1379371"><ele>22.0</ele><time>2026-04-06T07:54:42.277Z</time></trkpt><trkpt lat="42.6518432" lon="11.1380019"><ele>22.0</ele><time>2026-04-06T07:54:43.277Z</time></trkpt><trkpt lat="42.6520782" lon="11.1380651"><ele>22.0</ele><time>2026-04-06T07:54:44.277Z</time></trkpt><trkpt lat="42.6523196" lon="11.1381278"><ele>22.0</ele><time>2026-04-06T07:54:45.277Z</time></trkpt><trkpt lat="42.6525593" lon="11.1381887"><ele>22.0</ele><time>2026-04-06T07:54:46.277Z</time></trkpt><trkpt lat="42.652802" lon="11.1382517"><ele>20.5</ele><time>2026-04-06T07:54:47.277Z</time></trkpt><trkpt lat="42.653044" lon="11.1383167"><ele>19.0</ele><time>2026-04-06T07:54:48.277Z</time></trkpt><trkpt lat="42.6532841" lon="11.138384"><ele>19.0</ele><time>2026-04-06T07:54:49.276Z</time></trkpt><trkpt lat="42.6535236" lon="11.1384491"><ele>19.0</ele><time>2026-04-06T07:54:50.277Z</time></trkpt><trkpt lat="42.6537642" lon="11.1385114"><ele>18.5</ele><time>2026-04-06T07:54:51.276Z</time></trkpt><trkpt lat="42.6540052" lon="11.1385778"><ele>18.0</ele><time>2026-04-06T07:54:52.276Z</time></trkpt><trkpt lat="42.6542441" lon="11.13864"><ele>17.5</ele><time>2026-04-06T07:54:53.276Z</time></trkpt><trkpt lat="42.6544855" lon="11.1387029"><ele>17.0</ele><time>2026-04-06T07:54:54.276Z</time></trkpt><trkpt lat="42.6547246" lon="11.1387624"><ele>17.0</ele><time>2026-04-06T07:54:55.276Z</time></trkpt><trkpt lat="42.6549608" lon="11.1388213"><ele>17.0</ele><time>2026-04-06T07:54:56.277Z</time></trkpt><trkpt lat="42.6551951" lon="11.1388823"><ele>16.5</ele><time>2026-04-06T07:54:57.276Z</time></trkpt><trkpt lat="42.6554276" lon="11.1389427"><ele>16.0</ele><time>2026-04-06T07:54:58.277Z</time></trkpt><trkpt lat="42.6556591" lon="11.1390045"><ele>16.5</ele><time>2026-04-06T07:54:59.277Z</time></trkpt><trkpt lat="42.655888" lon="11.1390676"><ele>17.0</ele><time>2026-04-06T07:55:00.277Z</time></trkpt><trkpt lat="42.6561176" lon="11.1391304"><ele>18.0</ele><time>2026-04-06T07:55:01.277Z</time></trkpt><trkpt lat="42.6563394" lon="11.1391897"><ele>19.0</ele><time>2026-04-06T07:55:02.277Z</time></trkpt><trkpt lat="42.6565598" lon="11.1392498"><ele>19.0</ele><time>2026-04-06T07:55:03.277Z</time></trkpt><trkpt lat="42.6567691" lon="11.1393046"><ele>19.0</ele><time>2026-04-06T07:55:04.277Z</time></trkpt><trkpt lat="42.6569763" lon="11.1393621"><ele>19.0</ele><time>2026-04-06T07:55:05.277Z</time></trkpt><trkpt lat="42.6571842" lon="11.1394209"><ele>19.0</ele><time>2026-04-06T07:55:06.277Z</time></trkpt><trkpt lat="42.6573912" lon="11.1394783"><ele>19.0</ele><time>2026-04-06T07:55:07.276Z</time></trkpt><trkpt lat="42.6576012" lon="11.1395317"><ele>19.0</ele><time>2026-04-06T07:55:08.277Z</time></trkpt><trkpt lat="42.6578095" lon="11.1395852"><ele>19.0</ele><time>2026-04-06T07:55:09.277Z</time></trkpt><trkpt lat="42.6580175" lon="11.1396394"><ele>19.0</ele><time>2026-04-06T07:55:10.277Z</time></trkpt><trkpt lat="42.6582233" lon="11.1396936"><ele>19.0</ele><time>2026-04-06T07:55:11.276Z</time></trkpt><trkpt lat="42.6584269" lon="11.1397491"><ele>18.666666666666664</ele><time>2026-04-06T07:55:12.276Z</time></trkpt><trkpt lat="42.6586329" lon="11.1398019"><ele>18.333333333333332</ele><time>2026-04-06T07:55:13.276Z</time></trkpt><trkpt lat="42.6588459" lon="11.1398509"><ele>18.0</ele><time>2026-04-06T07:55:14.277Z</time></trkpt><trkpt lat="42.6590675" lon="11.1398961"><ele>18.0</ele><time>2026-04-06T07:55:15.277Z</time></trkpt><trkpt lat="42.6592985" lon="11.1399489"><ele>18.0</ele><time>2026-04-06T07:55:16.276Z</time></trkpt><trkpt lat="42.6595363" lon="11.1400101"><ele>18.0</ele><time>2026-04-06T07:55:17.277Z</time></trkpt><trkpt lat="42.6597754" lon="11.140073"><ele>18.0</ele><time>2026-04-06T07:55:18.277Z</time></trkpt><trkpt lat="42.6600204" lon="11.1401362"><ele>18.0</ele><time>2026-04-06T07:55:19.277Z</time></trkpt><trkpt lat="42.6602652" lon="11.1402016"><ele>18.0</ele><time>2026-04-06T07:55:20.277Z</time></trkpt><trkpt lat="42.6605124" lon="11.1402667"><ele>19.0</ele><time>2026-04-06T07:55:21.277Z</time></trkpt><trkpt lat="42.6607617" lon="11.1403301"><ele>20.0</ele><time>2026-04-06T07:55:22.277Z</time></trkpt><trkpt lat="42.6610133" lon="11.1403989"><ele>19.5</ele><time>2026-04-06T07:55:23.277Z</time></trkpt><trkpt lat="42.6612658" lon="11.1404662"><ele>19.0</ele><time>2026-04-06T07:55:24.277Z</time></trkpt><trkpt lat="42.6615182" lon="11.1405361"><ele>19.0</ele><time>2026-04-06T07:55:25.277Z</time></trkpt><trkpt lat="42.6617711" lon="11.1406073"><ele>19.0</ele><time>2026-04-06T07:55:26.277Z</time></trkpt><trkpt lat="42.6620299" lon="11.1406797"><ele>18.5</ele><time>2026-04-06T07:55:27.277Z</time></trkpt><trkpt lat="42.6622895" lon="11.1407465"><ele>18.0</ele><time>2026-04-06T07:55:28.277Z</time></trkpt><trkpt lat="42.6625547" lon="11.1408135"><ele>18.5</ele><time>2026-04-06T07:55:29.276Z</time></trkpt><trkpt lat="42.6628225" lon="11.1408783"><ele>19.0</ele><time>2026-04-06T07:55:30.276Z</time></trkpt><trkpt lat="42.663093" lon="11.1409493"><ele>19.0</ele><time>2026-04-06T07:55:31.276Z</time></trkpt><trkpt lat="42.6633635" lon="11.1410216"><ele>19.0</ele><time>2026-04-06T07:55:32.276Z</time></trkpt><trkpt lat="42.6636385" lon="11.1410938"><ele>19.5</ele><time>2026-04-06T07:55:33.276Z</time></trkpt><trkpt lat="42.6639138" lon="11.1411658"><ele>20.0</ele><time>2026-04-06T07:55:34.277Z</time></trkpt><trkpt lat="42.6641867" lon="11.1412406"><ele>20.5</ele><time>2026-04-06T07:55:35.277Z</time></trkpt><trkpt lat="42.6644647" lon="11.1413181"><ele>21.0</ele><time>2026-04-06T07:55:36.277Z</time></trkpt><trkpt lat="42.6647451" lon="11.1413965"><ele>21.0</ele><time>2026-04-06T07:55:37.277Z</time></trkpt><trkpt lat="42.6650243" lon="11.1414818"><ele>21.0</ele><time>2026-04-06T07:55:38.277Z</time></trkpt><trkpt lat="42.6653045" lon="11.1415693"><ele>20.5</ele><time>2026-04-06T07:55:39.277Z</time></trkpt><trkpt lat="42.6655873" lon="11.1416505"><ele>20.0</ele><time>2026-04-06T07:55:40.276Z</time></trkpt><trkpt lat="42.6658697" lon="11.1417282"><ele>19.5</ele><time>2026-04-06T07:55:41.277Z</time></trkpt><trkpt lat="42.666146" lon="11.1418021"><ele>19.0</ele><time>2026-04-06T07:55:42.277Z</time></trkpt><trkpt lat="42.6664149" lon="11.1418772"><ele>19.0</ele><time>2026-04-06T07:55:43.277Z</time></trkpt><trkpt lat="42.6666842" lon="11.1419483"><ele>19.0</ele><time>2026-04-06T07:55:44.276Z</time></trkpt><trkpt lat="42.6669553" lon="11.142017"><ele>19.0</ele><time>2026-04-06T07:55:45.276Z</time></trkpt><trkpt lat="42.6672218" lon="11.1420908"><ele>19.0</ele><time>2026-04-06T07:55:46.277Z</time></trkpt><trkpt lat="42.6674876" lon="11.1421595"><ele>19.0</ele><time>2026-04-06T07:55:47.277Z</time></trkpt><trkpt lat="42.6677534" lon="11.1422207"><ele>19.0</ele><time>2026-04-06T07:55:48.276Z</time></trkpt><trkpt lat="42.6680208" lon="11.1422644"><ele>19.0</ele><time>2026-04-06T07:55:49.277Z</time></trkpt><trkpt lat="42.6682901" lon="11.1422982"><ele>19.0</ele><time>2026-04-06T07:55:50.276Z</time></trkpt><trkpt lat="42.6685587" lon="11.1423227"><ele>18.0</ele><time>2026-04-06T07:55:51.277Z</time></trkpt><trkpt lat="42.6688294" lon="11.1423357"><ele>17.0</ele><time>2026-04-06T07:55:52.276Z</time></trkpt><trkpt lat="42.6691009" lon="11.1423384"><ele>17.0</ele><time>2026-04-06T07:55:53.277Z</time></trkpt><trkpt lat="42.6693751" lon="11.1423307"><ele>17.0</ele><time>2026-04-06T07:55:54.277Z</time></trkpt><trkpt lat="42.6696473" lon="11.1423125"><ele>16.0</ele><time>2026-04-06T07:55:55.277Z</time></trkpt><trkpt lat="42.6699206" lon="11.1422827"><ele>15.0</ele><time>2026-04-06T07:55:56.277Z</time></trkpt><trkpt lat="42.6701949" lon="11.1422386"><ele>14.5</ele><time>2026-04-06T07:55:57.276Z</time></trkpt><trkpt lat="42.6704672" lon="11.1421921"><ele>14.0</ele><time>2026-04-06T07:55:58.277Z</time></trkpt><trkpt lat="42.6707427" lon="11.1421373"><ele>14.0</ele><time>2026-04-06T07:55:59.276Z</time></trkpt><trkpt lat="42.6710154" lon="11.1420833"><ele>14.0</ele><time>2026-04-06T07:56:00.277Z</time></trkpt><trkpt lat="42.6712896" lon="11.1420314"><ele>14.5</ele><time>2026-04-06T07:56:01.277Z</time></trkpt><trkpt lat="42.6715636" lon="11.1419796"><ele>15.0</ele><time>2026-04-06T07:56:02.277Z</time></trkpt><trkpt lat="42.6718332" lon="11.1419316"><ele>15.0</ele><time>2026-04-06T07:56:03.276Z</time></trkpt><trkpt lat="42.6720997" lon="11.1418751"><ele>15.0</ele><time>2026-04-06T07:56:04.277Z</time></trkpt><trkpt lat="42.6723643" lon="11.1418231"><ele>15.0</ele><time>2026-04-06T07:56:05.277Z</time></trkpt><trkpt lat="42.672622" lon="11.1417699"><ele>15.0</ele><time>2026-04-06T07:56:06.277Z</time></trkpt><trkpt lat="42.6728776" lon="11.1417198"><ele>14.5</ele><time>2026-04-06T07:56:07.276Z</time></trkpt><trkpt lat="42.6731323" lon="11.1416699"><ele>14.0</ele><time>2026-04-06T07:56:08.276Z</time></trkpt><trkpt lat="42.6733851" lon="11.141622"><ele>13.0</ele><time>2026-04-06T07:56:09.277Z</time></trkpt><trkpt lat="42.6736367" lon="11.1415762"><ele>12.0</ele><time>2026-04-06T07:56:10.277Z</time></trkpt><trkpt lat="42.6738814" lon="11.1415287"><ele>12.0</ele><time>2026-04-06T07:56:11.276Z</time></trkpt><trkpt lat="42.6741237" lon="11.1414796"><ele>12.0</ele><time>2026-04-06T07:56:12.277Z</time></trkpt><trkpt lat="42.6743643" lon="11.1414335"><ele>11.0</ele><time>2026-04-06T07:56:13.277Z</time></trkpt><trkpt lat="42.6746015" lon="11.1413891"><ele>10.0</ele><time>2026-04-06T07:56:14.277Z</time></trkpt><trkpt lat="42.6748355" lon="11.1413419"><ele>10.0</ele><time>2026-04-06T07:56:15.277Z</time></trkpt><trkpt lat="42.6750623" lon="11.1413018"><ele>10.0</ele><time>2026-04-06T07:56:16.277Z</time></trkpt><trkpt lat="42.6752867" lon="11.1412587"><ele>9.666666666666668</ele><time>2026-04-06T07:56:17.277Z</time></trkpt><trkpt lat="42.6755084" lon="11.1412156"><ele>9.333333333333334</ele><time>2026-04-06T07:56:18.276Z</time></trkpt><trkpt lat="42.6757281" lon="11.1411762"><ele>9.0</ele><time>2026-04-06T07:56:19.277Z</time></trkpt><trkpt lat="42.6759451" lon="11.1411348"><ele>9.5</ele><time>2026-04-06T07:56:20.277Z</time></trkpt><trkpt lat="42.6761675" lon="11.1410894"><ele>10.0</ele><time>2026-04-06T07:56:21.276Z</time></trkpt><trkpt lat="42.6763908" lon="11.141047"><ele>10.0</ele><time>2026-04-06T07:56:22.277Z</time></trkpt><trkpt lat="42.6766125" lon="11.1410044"><ele>10.0</ele><time>2026-04-06T07:56:23.277Z</time></trkpt><trkpt lat="42.6768371" lon="11.1409618"><ele>9.5</ele><time>2026-04-06T07:56:24.276Z</time></trkpt><trkpt lat="42.6770659" lon="11.1409178"><ele>9.0</ele><time>2026-04-06T07:56:25.277Z</time></trkpt><trkpt lat="42.6772977" lon="11.1408758"><ele>9.0</ele><time>2026-04-06T07:56:26.277Z</time></trkpt><trkpt lat="42.6775301" lon="11.140832"><ele>9.0</ele><time>2026-04-06T07:56:27.277Z</time></trkpt><trkpt lat="42.6777651" lon="11.1407885"><ele>9.5</ele><time>2026-04-06T07:56:28.277Z</time></trkpt><trkpt lat="42.678004" lon="11.1407434"><ele>10.0</ele><time>2026-04-06T07:56:29.277Z</time></trkpt><trkpt lat="42.6782445" lon="11.1406947"><ele>9.5</ele><time>2026-04-06T07:56:30.277Z</time></trkpt><trkpt lat="42.6784879" lon="11.1406479"><ele>9.0</ele><time>2026-04-06T07:56:31.277Z</time></trkpt><trkpt lat="42.6787321" lon="11.1406009"><ele>9.0</ele><time>2026-04-06T07:56:32.276Z</time></trkpt><trkpt lat="42.6789746" lon="11.1405523"><ele>9.0</ele><time>2026-04-06T07:56:33.276Z</time></trkpt><trkpt lat="42.6792204" lon="11.1405057"><ele>8.5</ele><time>2026-04-06T07:56:34.277Z</time></trkpt><trkpt lat="42.6794705" lon="11.1404634"><ele>8.0</ele><time>2026-04-06T07:56:35.277Z</time></trkpt><trkpt lat="42.6797191" lon="11.1404157"><ele>8.0</ele><time>2026-04-06T07:56:36.276Z</time></trkpt><trkpt lat="42.6799723" lon="11.1403678"><ele>8.0</ele><time>2026-04-06T07:56:37.276Z</time></trkpt><trkpt lat="42.6802223" lon="11.1403184"><ele>7.5</ele><time>2026-04-06T07:56:38.277Z</time></trkpt><trkpt lat="42.6804722" lon="11.1402713"><ele>7.0</ele><time>2026-04-06T07:56:39.276Z</time></trkpt><trkpt lat="42.6807247" lon="11.1402212"><ele>7.0</ele><time>2026-04-06T07:56:40.277Z</time></trkpt><trkpt lat="42.6809748" lon="11.1401704"><ele>7.0</ele><time>2026-04-06T07:56:41.277Z</time></trkpt><trkpt lat="42.6812222" lon="11.140125"><ele>6.5</ele><time>2026-04-06T07:56:42.277Z</time></trkpt><trkpt lat="42.6814698" lon="11.1400778"><ele>6.0</ele><time>2026-04-06T07:56:43.277Z</time></trkpt><trkpt lat="42.6817171" lon="11.1400313"><ele>5.5</ele><time>2026-04-06T07:56:44.276Z</time></trkpt><trkpt lat="42.6819648" lon="11.1399815"><ele>5.0</ele><time>2026-04-06T07:56:45.277Z</time></trkpt><trkpt lat="42.6822104" lon="11.139934"><ele>4.0</ele><time>2026-04-06T07:56:46.277Z</time></trkpt><trkpt lat="42.6824592" lon="11.1398825"><ele>3.0</ele><time>2026-04-06T07:56:47.277Z</time></trkpt><trkpt lat="42.6827061" lon="11.1398349"><ele>3.5</ele><time>2026-04-06T07:56:48.277Z</time></trkpt><trkpt lat="42.682957" lon="11.1397867"><ele>4.0</ele><time>2026-04-06T07:56:49.277Z</time></trkpt><trkpt lat="42.6832059" lon="11.139736"><ele>4.0</ele><time>2026-04-06T07:56:50.276Z</time></trkpt><trkpt lat="42.6834561" lon="11.1396812"><ele>4.0</ele><time>2026-04-06T07:56:51.277Z</time></trkpt><trkpt lat="42.6837084" lon="11.1396249"><ele>6.0</ele><time>2026-04-06T07:56:52.276Z</time></trkpt><trkpt lat="42.6839645" lon="11.1395692"><ele>8.0</ele><time>2026-04-06T07:56:53.277Z</time></trkpt><trkpt lat="42.6842237" lon="11.1395149"><ele>9.0</ele><time>2026-04-06T07:56:54.277Z</time></trkpt><trkpt lat="42.6844831" lon="11.1394647"><ele>10.0</ele><time>2026-04-06T07:56:55.277Z</time></trkpt><trkpt lat="42.6847445" lon="11.1394128"><ele>10.0</ele><time>2026-04-06T07:56:56.277Z</time></trkpt><trkpt lat="42.6850075" lon="11.1393654"><ele>10.0</ele><time>2026-04-06T07:56:57.276Z</time></trkpt><trkpt lat="42.6852708" lon="11.1393195"><ele>10.0</ele><time>2026-04-06T07:56:58.277Z</time></trkpt><trkpt lat="42.6855328" lon="11.1392759"><ele>10.0</ele><time>2026-04-06T07:56:59.277Z</time></trkpt><trkpt lat="42.6857906" lon="11.1392297"><ele>10.0</ele><time>2026-04-06T07:57:00.277Z</time></trkpt><trkpt lat="42.6860479" lon="11.1391856"><ele>10.0</ele><time>2026-04-06T07:57:01.277Z</time></trkpt><trkpt lat="42.6863071" lon="11.1391465"><ele>9.5</ele><time>2026-04-06T07:57:02.276Z</time></trkpt><trkpt lat="42.6865654" lon="11.1391015"><ele>9.0</ele><time>2026-04-06T07:57:03.276Z</time></trkpt><trkpt lat="42.6868214" lon="11.1390528"><ele>11.0</ele><time>2026-04-06T07:57:04.277Z</time></trkpt><trkpt lat="42.6870792" lon="11.1390068"><ele>13.0</ele><time>2026-04-06T07:57:05.277Z</time></trkpt><trkpt lat="42.6873303" lon="11.1389562"><ele>13.0</ele><time>2026-04-06T07:57:06.276Z</time></trkpt><trkpt lat="42.6875849" lon="11.1389062"><ele>13.0</ele><time>2026-04-06T07:57:07.276Z</time></trkpt><trkpt lat="42.687837" lon="11.1388564"><ele>12.0</ele><time>2026-04-06T07:57:08.277Z</time></trkpt><trkpt lat="42.6880882" lon="11.1388089"><ele>11.0</ele><time>2026-04-06T07:57:09.277Z</time></trkpt><trkpt lat="42.6883369" lon="11.1387615"><ele>11.0</ele><time>2026-04-06T07:57:10.276Z</time></trkpt><trkpt lat="42.688584" lon="11.1387135"><ele>11.0</ele><time>2026-04-06T07:57:11.276Z</time></trkpt><trkpt lat="42.6888344" lon="11.1386676"><ele>11.0</ele><time>2026-04-06T07:57:12.276Z</time></trkpt><trkpt lat="42.6890806" lon="11.1386172"><ele>11.0</ele><time>2026-04-06T07:57:13.277Z</time></trkpt><trkpt lat="42.6893306" lon="11.1385703"><ele>10.5</ele><time>2026-04-06T07:57:14.276Z</time></trkpt><trkpt lat="42.6895829" lon="11.1385205"><ele>10.0</ele><time>2026-04-06T07:57:15.277Z</time></trkpt><trkpt lat="42.6898343" lon="11.1384707"><ele>10.0</ele><time>2026-04-06T07:57:16.277Z</time></trkpt><trkpt lat="42.6900843" lon="11.1384242"><ele>10.0</ele><time>2026-04-06T07:57:17.277Z</time></trkpt><trkpt lat="42.6903379" lon="11.1383809"><ele>9.0</ele><time>2026-04-06T07:57:18.277Z</time></trkpt><trkpt lat="42.6905922" lon="11.1383445"><ele>8.0</ele><time>2026-04-06T07:57:19.277Z</time></trkpt><trkpt lat="42.6908474" lon="11.1383078"><ele>8.5</ele><time>2026-04-06T07:57:20.276Z</time></trkpt><trkpt lat="42.691104" lon="11.138272"><ele>9.0</ele><time>2026-04-06T07:57:21.277Z</time></trkpt><trkpt lat="42.6913617" lon="11.1382339"><ele>8.0</ele><time>2026-04-06T07:57:22.276Z</time></trkpt><trkpt lat="42.6916218" lon="11.1382007"><ele>7.0</ele><time>2026-04-06T07:57:23.276Z</time></trkpt><trkpt lat="42.6918785" lon="11.1381775"><ele>7.0</ele><time>2026-04-06T07:57:24.277Z</time></trkpt><trkpt lat="42.6921359" lon="11.1381529"><ele>7.0</ele><time>2026-04-06T07:57:25.276Z</time></trkpt><trkpt lat="42.6923992" lon="11.1381334"><ele>7.0</ele><time>2026-04-06T07:57:26.277Z</time></trkpt><trkpt lat="42.6926614" lon="11.1381132"><ele>7.0</ele><time>2026-04-06T07:57:27.277Z</time></trkpt><trkpt lat="42.692921" lon="11.1380904"><ele>7.5</ele><time>2026-04-06T07:57:28.277Z</time></trkpt><trkpt lat="42.6931798" lon="11.1380731"><ele>8.0</ele><time>2026-04-06T07:57:29.277Z</time></trkpt><trkpt lat="42.6934346" lon="11.1380542"><ele>9.0</ele><time>2026-04-06T07:57:30.277Z</time></trkpt><trkpt lat="42.6936874" lon="11.1380318"><ele>10.0</ele><time>2026-04-06T07:57:31.277Z</time></trkpt><trkpt lat="42.6939373" lon="11.1380103"><ele>10.0</ele><time>2026-04-06T07:57:32.277Z</time></trkpt><trkpt lat="42.6941867" lon="11.1379907"><ele>10.0</ele><time>2026-04-06T07:57:33.277Z</time></trkpt><trkpt lat="42.6944317" lon="11.1379726"><ele>9.5</ele><time>2026-04-06T07:57:34.277Z</time></trkpt><trkpt lat="42.6946779" lon="11.1379527"><ele>9.0</ele><time>2026-04-06T07:57:35.277Z</time></trkpt><trkpt lat="42.694924" lon="11.1379346"><ele>9.0</ele><time>2026-04-06T07:57:36.276Z</time></trkpt><trkpt lat="42.6951732" lon="11.1379139"><ele>9.0</ele><time>2026-04-06T07:57:37.276Z</time></trkpt><trkpt lat="42.6954231" lon="11.1378922"><ele>9.5</ele><time>2026-04-06T07:57:38.277Z</time></trkpt><trkpt lat="42.6956739" lon="11.1378724"><ele>10.0</ele><time>2026-04-06T07:57:39.277Z</time></trkpt><trkpt lat="42.6959286" lon="11.1378533"><ele>11.5</ele><time>2026-04-06T07:57:40.277Z</time></trkpt><trkpt lat="42.6961834" lon="11.1378311"><ele>13.0</ele><time>2026-04-06T07:57:41.277Z</time></trkpt><trkpt lat="42.6964369" lon="11.1378109"><ele>13.0</ele><time>2026-04-06T07:57:42.276Z</time></trkpt><trkpt lat="42.696691" lon="11.1377903"><ele>13.0</ele><time>2026-04-06T07:57:43.276Z</time></trkpt><trkpt lat="42.6969464" lon="11.1377686"><ele>12.5</ele><time>2026-04-06T07:57:44.277Z</time></trkpt><trkpt lat="42.6972" lon="11.137748"><ele>12.0</ele><time>2026-04-06T07:57:45.276Z</time></trkpt><trkpt lat="42.6974512" lon="11.1377288"><ele>12.0</ele><time>2026-04-06T07:57:46.276Z</time></trkpt><trkpt lat="42.6976999" lon="11.137709"><ele>12.0</ele><time>2026-04-06T07:57:47.277Z</time></trkpt><trkpt lat="42.6979459" lon="11.1376863"><ele>11.5</ele><time>2026-04-06T07:57:48.277Z</time></trkpt><trkpt lat="42.6981909" lon="11.137664"><ele>11.0</ele><time>2026-04-06T07:57:49.277Z</time></trkpt><trkpt lat="42.6984389" lon="11.1376462"><ele>11.5</ele><time>2026-04-06T07:57:50.277Z</time></trkpt><trkpt lat="42.6986859" lon="11.1376276"><ele>12.0</ele><time>2026-04-06T07:57:51.277Z</time></trkpt><trkpt lat="42.6989304" lon="11.1376097"><ele>12.0</ele><time>2026-04-06T07:57:52.277Z</time></trkpt><trkpt lat="42.6991762" lon="11.13759"><ele>12.0</ele><time>2026-04-06T07:57:53.277Z</time></trkpt><trkpt lat="42.6994242" lon="11.1375702"><ele>12.0</ele><time>2026-04-06T07:57:54.276Z</time></trkpt><trkpt lat="42.6996708" lon="11.1375511"><ele>12.0</ele><time>2026-04-06T07:57:55.277Z</time></trkpt><trkpt lat="42.699918" lon="11.1375312"><ele>12.0</ele><time>2026-04-06T07:57:56.277Z</time></trkpt><trkpt lat="42.7001637" lon="11.1375119"><ele>12.0</ele><time>2026-04-06T07:57:57.277Z</time></trkpt><trkpt lat="42.700411" lon="11.1374925"><ele>13.0</ele><time>2026-04-06T07:57:58.276Z</time></trkpt><trkpt lat="42.7006613" lon="11.1374732"><ele>14.0</ele><time>2026-04-06T07:57:59.276Z</time></trkpt><trkpt lat="42.7009068" lon="11.1374547"><ele>13.5</ele><time>2026-04-06T07:58:00.276Z</time></trkpt><trkpt lat="42.7011526" lon="11.137439"><ele>13.0</ele><time>2026-04-06T07:58:01.277Z</time></trkpt><trkpt lat="42.7014006" lon="11.1374184"><ele>13.0</ele><time>2026-04-06T07:58:02.277Z</time></trkpt><trkpt lat="42.7016449" lon="11.1373985"><ele>13.0</ele><time>2026-04-06T07:58:03.277Z</time></trkpt><trkpt lat="42.7018906" lon="11.1373792"><ele>13.0</ele><time>2026-04-06T07:58:04.277Z</time></trkpt><trkpt lat="42.7021369" lon="11.1373662"><ele>13.0</ele><time>2026-04-06T07:58:05.276Z</time></trkpt><trkpt lat="42.7023842" lon="11.1373554"><ele>13.0</ele><time>2026-04-06T07:58:06.277Z</time></trkpt><trkpt lat="42.7026346" lon="11.1373571"><ele>13.0</ele><time>2026-04-06T07:58:07.277Z</time></trkpt><trkpt lat="42.7028816" lon="11.1373702"><ele>14.0</ele><time>2026-04-06T07:58:08.277Z</time></trkpt><trkpt lat="42.7031307" lon="11.1374001"><ele>15.0</ele><time>2026-04-06T07:58:09.277Z</time></trkpt><trkpt lat="42.703373" lon="11.1374547"><ele>15.5</ele><time>2026-04-06T07:58:10.277Z</time></trkpt><trkpt lat="42.7036175" lon="11.1375265"><ele>16.0</ele><time>2026-04-06T07:58:11.277Z</time></trkpt><trkpt lat="42.7038594" lon="11.1376195"><ele>16.0</ele><time>2026-04-06T07:58:12.277Z</time></trkpt><trkpt lat="42.7040982" lon="11.1377301"><ele>16.0</ele><time>2026-04-06T07:58:13.276Z</time></trkpt><trkpt lat="42.7043368" lon="11.1378548"><ele>16.0</ele><time>2026-04-06T07:58:14.276Z</time></trkpt><trkpt lat="42.7045683" lon="11.1379946"><ele>16.0</ele><time>2026-04-06T07:58:15.277Z</time></trkpt><trkpt lat="42.704793" lon="11.1381491"><ele>17.0</ele><time>2026-04-06T07:58:16.277Z</time></trkpt><trkpt lat="42.7050137" lon="11.1383211"><ele>18.0</ele><time>2026-04-06T07:58:17.277Z</time></trkpt><trkpt lat="42.705227" lon="11.1385068"><ele>18.0</ele><time>2026-04-06T07:58:18.277Z</time></trkpt><trkpt lat="42.7054299" lon="11.1387046"><ele>18.0</ele><time>2026-04-06T07:58:19.276Z</time></trkpt><trkpt lat="42.7056321" lon="11.1389064"><ele>17.5</ele><time>2026-04-06T07:58:20.276Z</time></trkpt><trkpt lat="42.7058291" lon="11.1391116"><ele>17.0</ele><time>2026-04-06T07:58:21.277Z</time></trkpt><trkpt lat="42.7060247" lon="11.1393132"><ele>17.0</ele><time>2026-04-06T07:58:22.277Z</time></trkpt><trkpt lat="42.7062202" lon="11.1395089"><ele>17.0</ele><time>2026-04-06T07:58:23.276Z</time></trkpt><trkpt lat="42.7064148" lon="11.1397074"><ele>17.0</ele><time>2026-04-06T07:58:24.276Z</time></trkpt><trkpt lat="42.7066096" lon="11.1399037"><ele>17.0</ele><time>2026-04-06T07:58:25.277Z</time></trkpt><trkpt lat="42.7067997" lon="11.1400994"><ele>17.0</ele><time>2026-04-06T07:58:26.277Z</time></trkpt><trkpt lat="42.7069924" lon="11.1402996"><ele>17.0</ele><time>2026-04-06T07:58:27.276Z</time></trkpt><trkpt lat="42.7071887" lon="11.1404988"><ele>17.0</ele><time>2026-04-06T07:58:28.277Z</time></trkpt><trkpt lat="42.7073838" lon="11.1406992"><ele>17.0</ele><time>2026-04-06T07:58:29.277Z</time></trkpt><trkpt lat="42.7075783" lon="11.1408989"><ele>15.5</ele><time>2026-04-06T07:58:30.276Z</time></trkpt><trkpt lat="42.7077763" lon="11.1410993"><ele>14.0</ele><time>2026-04-06T07:58:31.277Z</time></trkpt><trkpt lat="42.7079696" lon="11.1412963"><ele>14.0</ele><time>2026-04-06T07:58:32.277Z</time></trkpt><trkpt lat="42.7081644" lon="11.1414969"><ele>14.0</ele><time>2026-04-06T07:58:33.276Z</time></trkpt><trkpt lat="42.7083567" lon="11.1416937"><ele>14.0</ele><time>2026-04-06T07:58:34.277Z</time></trkpt><trkpt lat="42.7085458" lon="11.14189"><ele>14.0</ele><time>2026-04-06T07:58:35.277Z</time></trkpt><trkpt lat="42.7087346" lon="11.1420886"><ele>14.0</ele><time>2026-04-06T07:58:36.276Z</time></trkpt><trkpt lat="42.7089239" lon="11.1422879"><ele>14.0</ele><time>2026-04-06T07:58:37.277Z</time></trkpt><trkpt lat="42.7091151" lon="11.1424838"><ele>14.0</ele><time>2026-04-06T07:58:38.277Z</time></trkpt><trkpt lat="42.7093092" lon="11.1426796"><ele>14.0</ele><time>2026-04-06T07:58:39.277Z</time></trkpt><trkpt lat="42.7094999" lon="11.1428727"><ele>13.5</ele><time>2026-04-06T07:58:40.277Z</time></trkpt><trkpt lat="42.7096906" lon="11.1430655"><ele>13.0</ele><time>2026-04-06T07:58:41.277Z</time></trkpt><trkpt lat="42.7098829" lon="11.1432583"><ele>14.0</ele><time>2026-04-06T07:58:42.277Z</time></trkpt><trkpt lat="42.7100768" lon="11.1434437"><ele>15.0</ele><time>2026-04-06T07:58:43.276Z</time></trkpt><trkpt lat="42.7102735" lon="11.1436193"><ele>15.0</ele><time>2026-04-06T07:58:44.276Z</time></trkpt><trkpt lat="42.7104765" lon="11.143781"><ele>15.0</ele><time>2026-04-06T07:58:45.276Z</time></trkpt><trkpt lat="42.7106865" lon="11.1439293"><ele>15.0</ele><time>2026-04-06T07:58:46.277Z</time></trkpt><trkpt lat="42.710897" lon="11.1440703"><ele>15.0</ele><time>2026-04-06T07:58:47.277Z</time></trkpt><trkpt lat="42.7111147" lon="11.1441893"><ele>14.0</ele><time>2026-04-06T07:58:48.277Z</time></trkpt><trkpt lat="42.7113398" lon="11.1442964"><ele>13.0</ele><time>2026-04-06T07:58:49.276Z</time></trkpt><trkpt lat="42.71157" lon="11.1443918"><ele>13.0</ele><time>2026-04-06T07:58:50.277Z</time></trkpt><trkpt lat="42.7118018" lon="11.1444713"><ele>13.0</ele><time>2026-04-06T07:58:51.277Z</time></trkpt><trkpt lat="42.7120324" lon="11.1445356"><ele>12.5</ele><time>2026-04-06T07:58:52.277Z</time></trkpt><trkpt lat="42.7122689" lon="11.1445842"><ele>12.0</ele><time>2026-04-06T07:58:53.277Z</time></trkpt><trkpt lat="42.71251" lon="11.1446171"><ele>11.5</ele><time>2026-04-06T07:58:54.277Z</time></trkpt><trkpt lat="42.7127517" lon="11.1446265"><ele>11.0</ele><time>2026-04-06T07:58:55.276Z</time></trkpt><trkpt lat="42.7129941" lon="11.1446169"><ele>11.0</ele><time>2026-04-06T07:58:56.277Z</time></trkpt><trkpt lat="42.7132358" lon="11.1445893"><ele>11.0</ele><time>2026-04-06T07:58:57.276Z</time></trkpt><trkpt lat="42.7134785" lon="11.1445385"><ele>11.5</ele><time>2026-04-06T07:58:58.277Z</time></trkpt><trkpt lat="42.7137237" lon="11.1444724"><ele>12.0</ele><time>2026-04-06T07:58:59.277Z</time></trkpt><trkpt lat="42.7139711" lon="11.1443931"><ele>12.0</ele><time>2026-04-06T07:59:00.277Z</time></trkpt><trkpt lat="42.7142198" lon="11.1442982"><ele>12.0</ele><time>2026-04-06T07:59:01.277Z</time></trkpt><trkpt lat="42.7144602" lon="11.1441868"><ele>12.5</ele><time>2026-04-06T07:59:02.277Z</time></trkpt><trkpt lat="42.7146978" lon="11.1440578"><ele>13.0</ele><time>2026-04-06T07:59:03.277Z</time></trkpt><trkpt lat="42.7149344" lon="11.1439177"><ele>12.0</ele><time>2026-04-06T07:59:04.276Z</time></trkpt><trkpt lat="42.7151631" lon="11.1437602"><ele>11.0</ele><time>2026-04-06T07:59:05.277Z</time></trkpt><trkpt lat="42.715388" lon="11.1435966"><ele>13.0</ele><time>2026-04-06T07:59:06.277Z</time></trkpt><trkpt lat="42.7156108" lon="11.1434327"><ele>15.0</ele><time>2026-04-06T07:59:07.277Z</time></trkpt><trkpt lat="42.7158269" lon="11.143267"><ele>14.5</ele><time>2026-04-06T07:59:08.276Z</time></trkpt><trkpt lat="42.7160427" lon="11.1431075"><ele>14.0</ele><time>2026-04-06T07:59:09.277Z</time></trkpt><trkpt lat="42.7162563" lon="11.1429538"><ele>14.0</ele><time>2026-04-06T07:59:10.277Z</time></trkpt><trkpt lat="42.7164631" lon="11.1428022"><ele>14.0</ele><time>2026-04-06T07:59:11.277Z</time></trkpt><trkpt lat="42.716672" lon="11.1426453"><ele>14.0</ele><time>2026-04-06T07:59:12.277Z</time></trkpt><trkpt lat="42.7168827" lon="11.1424824"><ele>14.0</ele><time>2026-04-06T07:59:13.277Z</time></trkpt><trkpt lat="42.7170944" lon="11.1423205"><ele>14.0</ele><time>2026-04-06T07:59:14.277Z</time></trkpt><trkpt lat="42.7173056" lon="11.1421528"><ele>14.0</ele><time>2026-04-06T07:59:15.276Z</time></trkpt><trkpt lat="42.7175186" lon="11.1419825"><ele>14.0</ele><time>2026-04-06T07:59:16.276Z</time></trkpt><trkpt lat="42.7177308" lon="11.1418078"><ele>14.0</ele><time>2026-04-06T07:59:17.276Z</time></trkpt><trkpt lat="42.7179428" lon="11.1416329"><ele>12.5</ele><time>2026-04-06T07:59:18.277Z</time></trkpt><trkpt lat="42.7181602" lon="11.1414607"><ele>11.0</ele><time>2026-04-06T07:59:19.277Z</time></trkpt><trkpt lat="42.7183787" lon="11.1412878"><ele>12.0</ele><time>2026-04-06T07:59:20.277Z</time></trkpt><trkpt lat="42.7185973" lon="11.1411194"><ele>13.0</ele><time>2026-04-06T07:59:21.276Z</time></trkpt><trkpt lat="42.7188208" lon="11.1409515"><ele>13.0</ele><time>2026-04-06T07:59:22.277Z</time></trkpt><trkpt lat="42.7190471" lon="11.1407867"><ele>13.0</ele><time>2026-04-06T07:59:23.277Z</time></trkpt><trkpt lat="42.7192729" lon="11.1406185"><ele>13.5</ele><time>2026-04-06T07:59:24.277Z</time></trkpt><trkpt lat="42.7194998" lon="11.1404552"><ele>14.0</ele><time>2026-04-06T07:59:25.277Z</time></trkpt><trkpt lat="42.7197245" lon="11.1402886"><ele>14.0</ele><time>2026-04-06T07:59:26.277Z</time></trkpt><trkpt lat="42.7199466" lon="11.1401229"><ele>14.0</ele><time>2026-04-06T07:59:27.276Z</time></trkpt><trkpt lat="42.7201665" lon="11.1399537"><ele>14.0</ele><time>2026-04-06T07:59:28.277Z</time></trkpt><trkpt lat="42.720384" lon="11.1397822"><ele>14.0</ele><time>2026-04-06T07:59:29.277Z</time></trkpt><trkpt lat="42.7206021" lon="11.1396107"><ele>14.0</ele><time>2026-04-06T07:59:30.277Z</time></trkpt><trkpt lat="42.720818" lon="11.1394415"><ele>14.0</ele><time>2026-04-06T07:59:31.277Z</time></trkpt><trkpt lat="42.7210341" lon="11.1392785"><ele>13.5</ele><time>2026-04-06T07:59:32.277Z</time></trkpt><trkpt lat="42.721254" lon="11.1391156"><ele>13.0</ele><time>2026-04-06T07:59:33.277Z</time></trkpt><trkpt lat="42.7214703" lon="11.1389509"><ele>13.0</ele><time>2026-04-06T07:59:34.277Z</time></trkpt><trkpt lat="42.7216907" lon="11.138792"><ele>13.0</ele><time>2026-04-06T07:59:35.277Z</time></trkpt><trkpt lat="42.7219103" lon="11.1386426"><ele>13.0</ele><time>2026-04-06T07:59:36.276Z</time></trkpt><trkpt lat="42.7221364" lon="11.138501"><ele>13.0</ele><time>2026-04-06T07:59:37.277Z</time></trkpt><trkpt lat="42.7223639" lon="11.1383716"><ele>13.0</ele><time>2026-04-06T07:59:38.277Z</time></trkpt><trkpt lat="42.7225935" lon="11.1382523"><ele>13.0</ele><time>2026-04-06T07:59:39.277Z</time></trkpt><trkpt lat="42.722829" lon="11.1381476"><ele>14.5</ele><time>2026-04-06T07:59:40.277Z</time></trkpt><trkpt lat="42.7230661" lon="11.1380547"><ele>16.0</ele><time>2026-04-06T07:59:41.277Z</time></trkpt><trkpt lat="42.723305" lon="11.1379656"><ele>16.0</ele><time>2026-04-06T07:59:42.276Z</time></trkpt><trkpt lat="42.7235435" lon="11.1378802"><ele>16.0</ele><time>2026-04-06T07:59:43.277Z</time></trkpt><trkpt lat="42.7237834" lon="11.1377909"><ele>16.5</ele><time>2026-04-06T07:59:44.277Z</time></trkpt><trkpt lat="42.7240242" lon="11.137706"><ele>17.0</ele><time>2026-04-06T07:59:45.276Z</time></trkpt><trkpt lat="42.724266" lon="11.1376188"><ele>17.0</ele><time>2026-04-06T07:59:46.277Z</time></trkpt><trkpt lat="42.7245071" lon="11.1375297"><ele>17.0</ele><time>2026-04-06T07:59:47.277Z</time></trkpt><trkpt lat="42.7247475" lon="11.1374357"><ele>16.5</ele><time>2026-04-06T07:59:48.277Z</time></trkpt><trkpt lat="42.7249838" lon="11.1373491"><ele>16.0</ele><time>2026-04-06T07:59:49.276Z</time></trkpt><trkpt lat="42.7252131" lon="11.1372686"><ele>16.0</ele><time>2026-04-06T07:59:50.277Z</time></trkpt><trkpt lat="42.7254304" lon="11.1371883"><ele>16.0</ele><time>2026-04-06T07:59:51.277Z</time></trkpt><trkpt lat="42.7256428" lon="11.1371125"><ele>16.0</ele><time>2026-04-06T07:59:52.276Z</time></trkpt><trkpt lat="42.7258503" lon="11.137041"><ele>16.0</ele><time>2026-04-06T07:59:53.277Z</time></trkpt><trkpt lat="42.7260522" lon="11.1369733"><ele>16.0</ele><time>2026-04-06T07:59:54.277Z</time></trkpt><trkpt lat="42.7262537" lon="11.1369044"><ele>16.0</ele><time>2026-04-06T07:59:55.277Z</time></trkpt><trkpt lat="42.7264547" lon="11.1368355"><ele>15.666666666666666</ele><time>2026-04-06T07:59:56.276Z</time></trkpt><trkpt lat="42.7266547" lon="11.1367715"><ele>15.333333333333332</ele><time>2026-04-06T07:59:57.277Z</time></trkpt><trkpt lat="42.7268558" lon="11.1367112"><ele>15.0</ele><time>2026-04-06T07:59:58.276Z</time></trkpt><trkpt lat="42.7270615" lon="11.136651"><ele>15.0</ele><time>2026-04-06T07:59:59.277Z</time></trkpt><trkpt lat="42.7272643" lon="11.1365901"><ele>15.0</ele><time>2026-04-06T08:00:00.277Z</time></trkpt><trkpt lat="42.7274657" lon="11.1365297"><ele>15.0</ele><time>2026-04-06T08:00:01.276Z</time></trkpt><trkpt lat="42.7276589" lon="11.1364744"><ele>14.0</ele><time>2026-04-06T08:00:02.277Z</time></trkpt><trkpt lat="42.7278457" lon="11.1364228"><ele>13.0</ele><time>2026-04-06T08:00:03.276Z</time></trkpt><trkpt lat="42.7280262" lon="11.1363828"><ele>12.0</ele><time>2026-04-06T08:00:04.277Z</time></trkpt><trkpt lat="42.7282069" lon="11.136358"><ele>12.0</ele><time>2026-04-06T08:00:05.277Z</time></trkpt><trkpt lat="42.7283889" lon="11.1363526"><ele>12.0</ele><time>2026-04-06T08:00:06.277Z</time></trkpt><trkpt lat="42.7285708" lon="11.1363634"><ele>12.0</ele><time>2026-04-06T08:00:07.277Z</time></trkpt><trkpt lat="42.7287545" lon="11.136396"><ele>12.666666666666668</ele><time>2026-04-06T08:00:08.277Z</time></trkpt><trkpt lat="42.7289387" lon="11.1364475"><ele>13.333333333333334</ele><time>2026-04-06T08:00:09.277Z</time></trkpt><trkpt lat="42.729115" lon="11.1365284"><ele>14.0</ele><time>2026-04-06T08:00:10.277Z</time></trkpt><trkpt lat="42.7292834" lon="11.136634"><ele>14.666666666666668</ele><time>2026-04-06T08:00:11.277Z</time></trkpt><trkpt lat="42.7294414" lon="11.1367497"><ele>15.333333333333332</ele><time>2026-04-06T08:00:12.276Z</time></trkpt><trkpt lat="42.7295951" lon="11.1368678"><ele>16.0</ele><time>2026-04-06T08:00:13.276Z</time></trkpt><trkpt lat="42.7297454" lon="11.1369794"><ele>16.0</ele><time>2026-04-06T08:00:14.277Z</time></trkpt><trkpt lat="42.7298971" lon="11.1370808"><ele>16.0</ele><time>2026-04-06T08:00:15.276Z</time></trkpt><trkpt lat="42.7300536" lon="11.1371548"><ele>16.0</ele><time>2026-04-06T08:00:16.276Z</time></trkpt><trkpt lat="42.7302044" lon="11.137185"><ele>17.5</ele><time>2026-04-06T08:00:17.277Z</time></trkpt><trkpt lat="42.7303521" lon="11.137172"><ele>19.0</ele><time>2026-04-06T08:00:18.277Z</time></trkpt><trkpt lat="42.7304994" lon="11.1371204"><ele>20.5</ele><time>2026-04-06T08:00:19.277Z</time></trkpt><trkpt lat="42.7306347" lon="11.1370365"><ele>22.0</ele><time>2026-04-06T08:00:20.276Z</time></trkpt><trkpt lat="42.7307563" lon="11.1369144"><ele>22.0</ele><time>2026-04-06T08:00:21.277Z</time></trkpt><trkpt lat="42.7308614" lon="11.1367629"><ele>22.0</ele><time>2026-04-06T08:00:22.276Z</time></trkpt><trkpt lat="42.7309577" lon="11.1365944"><ele>22.0</ele><time>2026-04-06T08:00:23.277Z</time></trkpt><trkpt lat="42.7310457" lon="11.1364197"><ele>21.5</ele><time>2026-04-06T08:00:24.276Z</time></trkpt><trkpt lat="42.731125" lon="11.136257"><ele>21.0</ele><time>2026-04-06T08:00:25.277Z</time></trkpt><trkpt lat="42.7312008" lon="11.1361083"><ele>20.5</ele><time>2026-04-06T08:00:26.277Z</time></trkpt><trkpt lat="42.7312716" lon="11.1359709"><ele>20.0</ele><time>2026-04-06T08:00:27.276Z</time></trkpt><trkpt lat="42.7313435" lon="11.1358383"><ele>20.0</ele><time>2026-04-06T08:00:28.277Z</time></trkpt><trkpt lat="42.7314143" lon="11.1357019"><ele>20.0</ele><time>2026-04-06T08:00:29.276Z</time></trkpt><trkpt lat="42.731488" lon="11.135559"><ele>20.0</ele><time>2026-04-06T08:00:30.277Z</time></trkpt><trkpt lat="42.7315602" lon="11.1354128"><ele>20.0</ele><time>2026-04-06T08:00:31.277Z</time></trkpt><trkpt lat="42.7316366" lon="11.1352644"><ele>20.0</ele><time>2026-04-06T08:00:32.276Z</time></trkpt><trkpt lat="42.7317138" lon="11.1351153"><ele>20.0</ele><time>2026-04-06T08:00:33.277Z</time></trkpt><trkpt lat="42.7317942" lon="11.1349574"><ele>20.0</ele><time>2026-04-06T08:00:34.277Z</time></trkpt><trkpt lat="42.7318765" lon="11.1347966"><ele>20.0</ele><time>2026-04-06T08:00:35.277Z</time></trkpt><trkpt lat="42.7319644" lon="11.1346311"><ele>18.666666666666668</ele><time>2026-04-06T08:00:36.276Z</time></trkpt><trkpt lat="42.7320536" lon="11.134458"><ele>17.333333333333332</ele><time>2026-04-06T08:00:37.277Z</time></trkpt><trkpt lat="42.7321414" lon="11.1342867"><ele>16.0</ele><time>2026-04-06T08:00:38.277Z</time></trkpt><trkpt lat="42.7322288" lon="11.1341127"><ele>15.75</ele><time>2026-04-06T08:00:39.277Z</time></trkpt><trkpt lat="42.7323112" lon="11.1339492"><ele>15.5</ele><time>2026-04-06T08:00:40.276Z</time></trkpt><trkpt lat="42.732387" lon="11.1337983"><ele>15.25</ele><time>2026-04-06T08:00:41.277Z</time></trkpt><trkpt lat="42.7324616" lon="11.1336525"><ele>15.0</ele><time>2026-04-06T08:00:42.277Z</time></trkpt><trkpt lat="42.7325325" lon="11.1335176"><ele>15.0</ele><time>2026-04-06T08:00:43.276Z</time></trkpt><trkpt lat="42.7326008" lon="11.1333832"><ele>15.0</ele><time>2026-04-06T08:00:44.276Z</time></trkpt><trkpt lat="42.7326707" lon="11.1332488"><ele>15.0</ele><time>2026-04-06T08:00:45.277Z</time></trkpt><trkpt lat="42.7327366" lon="11.1331245"><ele>15.0</ele><time>2026-04-06T08:00:46.276Z</time></trkpt><trkpt lat="42.7327911" lon="11.1330095"><ele>14.166666666666666</ele><time>2026-04-06T08:00:47.277Z</time></trkpt><trkpt lat="42.732843" lon="11.1329014"><ele>13.333333333333334</ele><time>2026-04-06T08:00:48.277Z</time></trkpt><trkpt lat="42.7328928" lon="11.1328014"><ele>12.5</ele><time>2026-04-06T08:00:49.277Z</time></trkpt><trkpt lat="42.7329378" lon="11.1327058"><ele>11.666666666666668</ele><time>2026-04-06T08:00:50.277Z</time></trkpt><trkpt lat="42.7329866" lon="11.1326072"><ele>10.833333333333334</ele><time>2026-04-06T08:00:51.277Z</time></trkpt><trkpt lat="42.7330347" lon="11.1325036"><ele>10.0</ele><time>2026-04-06T08:00:52.277Z</time></trkpt><trkpt lat="42.7330865" lon="11.1323909"><ele>9.8</ele><time>2026-04-06T08:00:53.276Z</time></trkpt><trkpt lat="42.7331403" lon="11.1322697"><ele>9.6</ele><time>2026-04-06T08:00:54.277Z</time></trkpt><trkpt lat="42.7331976" lon="11.1321477"><ele>9.4</ele><time>2026-04-06T08:00:55.277Z</time></trkpt><trkpt lat="42.7332526" lon="11.1320267"><ele>9.2</ele><time>2026-04-06T08:00:56.277Z</time></trkpt><trkpt lat="42.7333028" lon="11.131913"><ele>9.0</ele><time>2026-04-06T08:00:57.276Z</time></trkpt><trkpt lat="42.7333489" lon="11.1318099"><ele>9.0</ele><time>2026-04-06T08:00:58.277Z</time></trkpt><trkpt lat="42.7333922" lon="11.1317167"><ele>9.0</ele><time>2026-04-06T08:00:59.277Z</time></trkpt><trkpt lat="42.7334303" lon="11.1316271"><ele>9.0</ele><time>2026-04-06T08:01:00.276Z</time></trkpt><trkpt lat="42.7334678" lon="11.1315354"><ele>9.0</ele><time>2026-04-06T08:01:01.277Z</time></trkpt><trkpt lat="42.7335053" lon="11.1314399"><ele>9.0</ele><time>2026-04-06T08:01:02.277Z</time></trkpt><trkpt lat="42.7335444" lon="11.1313531"><ele>9.0</ele><time>2026-04-06T08:01:03.277Z</time></trkpt><trkpt lat="42.7335795" lon="11.1312775"><ele>9.0</ele><time>2026-04-06T08:01:04.277Z</time></trkpt><trkpt lat="42.7336112" lon="11.1312022"><ele>9.0</ele><time>2026-04-06T08:01:05.277Z</time></trkpt><trkpt lat="42.7336668" lon="11.1310783"><ele>9.0</ele><time>2026-04-06T08:01:07.277Z</time></trkpt><trkpt lat="42.7337265" lon="11.1309492"><ele>9.0</ele><time>2026-04-06T08:01:09.277Z</time></trkpt><trkpt lat="42.7337924" lon="11.1308151"><ele>9.0</ele><time>2026-04-06T08:01:11.277Z</time></trkpt><trkpt lat="42.7338563" lon="11.1306655"><ele>9.0</ele><time>2026-04-06T08:01:13.277Z</time></trkpt><trkpt lat="42.7338943" lon="11.1305788"><ele>9.0</ele><time>2026-04-06T08:01:14.277Z</time></trkpt><trkpt lat="42.7339384" lon="11.1304801"><ele>9.0</ele><time>2026-04-06T08:01:15.276Z</time></trkpt><trkpt lat="42.7339849" lon="11.1303742"><ele>9.0</ele><time>2026-04-06T08:01:16.277Z</time></trkpt><trkpt lat="42.7340345" lon="11.1302659"><ele>9.0</ele><time>2026-04-06T08:01:17.277Z</time></trkpt><trkpt lat="42.7340819" lon="11.1301637"><ele>9.0</ele><time>2026-04-06T08:01:18.277Z</time></trkpt><trkpt lat="42.7341285" lon="11.1300612"><ele>9.0</ele><time>2026-04-06T08:01:19.276Z</time></trkpt><trkpt lat="42.7341798" lon="11.1299441"><ele>9.0</ele><time>2026-04-06T08:01:20.277Z</time></trkpt><trkpt lat="42.7342377" lon="11.1298157"><ele>9.0</ele><time>2026-04-06T08:01:21.277Z</time></trkpt><trkpt lat="42.7342965" lon="11.1296758"><ele>9.0</ele><time>2026-04-06T08:01:22.276Z</time></trkpt><trkpt lat="42.7343579" lon="11.1295407"><ele>9.0</ele><time>2026-04-06T08:01:23.276Z</time></trkpt><trkpt lat="42.734417" lon="11.1294043"><ele>8.8</ele><time>2026-04-06T08:01:24.277Z</time></trkpt><trkpt lat="42.7344744" lon="11.1292753"><ele>8.600000000000001</ele><time>2026-04-06T08:01:25.277Z</time></trkpt><trkpt lat="42.7345267" lon="11.1291537"><ele>8.4</ele><time>2026-04-06T08:01:26.277Z</time></trkpt><trkpt lat="42.7345797" lon="11.1290335"><ele>8.200000000000001</ele><time>2026-04-06T08:01:27.277Z</time></trkpt><trkpt lat="42.7346346" lon="11.1289214"><ele>8.0</ele><time>2026-04-06T08:01:28.277Z</time></trkpt><trkpt lat="42.734685" lon="11.1288177"><ele>7.999999999999999</ele><time>2026-04-06T08:01:29.277Z</time></trkpt><trkpt lat="42.7347293" lon="11.1287197"><ele>8.0</ele><time>2026-04-06T08:01:30.276Z</time></trkpt><trkpt lat="42.7347701" lon="11.1286232"><ele>8.0</ele><time>2026-04-06T08:01:31.277Z</time></trkpt><trkpt lat="42.7348151" lon="11.1285317"><ele>8.0</ele><time>2026-04-06T08:01:32.277Z</time></trkpt><trkpt lat="42.734856" lon="11.1284386"><ele>7.999999999999999</ele><time>2026-04-06T08:01:33.277Z</time></trkpt><trkpt lat="42.734897" lon="11.1283483"><ele>8.0</ele><time>2026-04-06T08:01:34.277Z</time></trkpt><trkpt lat="42.7349378" lon="11.1282593"><ele>7.833333333333333</ele><time>2026-04-06T08:01:35.276Z</time></trkpt><trkpt lat="42.7349816" lon="11.1281684"><ele>7.666666666666666</ele><time>2026-04-06T08:01:36.277Z</time></trkpt><trkpt lat="42.7350226" lon="11.1280718"><ele>7.5</ele><time>2026-04-06T08:01:37.277Z</time></trkpt><trkpt lat="42.7350643" lon="11.1279758"><ele>7.333333333333334</ele><time>2026-04-06T08:01:38.276Z</time></trkpt><trkpt lat="42.735108" lon="11.127879"><ele>7.166666666666667</ele><time>2026-04-06T08:01:39.277Z</time></trkpt><trkpt lat="42.7351519" lon="11.1277832"><ele>7.0</ele><time>2026-04-06T08:01:40.277Z</time></trkpt><trkpt lat="42.735198" lon="11.1276833"><ele>7.166666666666667</ele><time>2026-04-06T08:01:41.277Z</time></trkpt><trkpt lat="42.7352416" lon="11.1275789"><ele>7.333333333333334</ele><time>2026-04-06T08:01:42.277Z</time></trkpt><trkpt lat="42.7352864" lon="11.1274778"><ele>7.5</ele><time>2026-04-06T08:01:43.276Z</time></trkpt><trkpt lat="42.7353328" lon="11.127373"><ele>7.666666666666666</ele><time>2026-04-06T08:01:44.277Z</time></trkpt><trkpt lat="42.7353793" lon="11.1272671"><ele>7.833333333333333</ele><time>2026-04-06T08:01:45.277Z</time></trkpt><trkpt lat="42.7354268" lon="11.1271644"><ele>8.0</ele><time>2026-04-06T08:01:46.277Z</time></trkpt><trkpt lat="42.735478" lon="11.1270594"><ele>8.166666666666666</ele><time>2026-04-06T08:01:47.276Z</time></trkpt><trkpt lat="42.7355265" lon="11.1269685"><ele>8.333333333333332</ele><time>2026-04-06T08:01:48.276Z</time></trkpt><trkpt lat="42.7355689" lon="11.1268868"><ele>8.5</ele><time>2026-04-06T08:01:49.277Z</time></trkpt><trkpt lat="42.7356354" lon="11.126784"><ele>8.666666666666666</ele><time>2026-04-06T08:01:51.276Z</time></trkpt><trkpt lat="42.7357062" lon="11.1267234"><ele>8.833333333333334</ele><time>2026-04-06T08:01:54.277Z</time></trkpt><trkpt lat="42.7356941" lon="11.126606"><ele>9.0</ele><time>2026-04-06T08:03:16.277Z</time></trkpt><trkpt lat="42.7357435" lon="11.1264709"><ele>9.0</ele><time>2026-04-06T08:03:18.277Z</time></trkpt><trkpt lat="42.7357864" lon="11.1263745"><ele>9.0</ele><time>2026-04-06T08:03:19.276Z</time></trkpt><trkpt lat="42.7358382" lon="11.1262667"><ele>9.0</ele><time>2026-04-06T08:03:20.277Z</time></trkpt><trkpt lat="42.73589" lon="11.1261486"><ele>9.0</ele><time>2026-04-06T08:03:21.277Z</time></trkpt><trkpt lat="42.7359486" lon="11.1260122"><ele>9.0</ele><time>2026-04-06T08:03:22.276Z</time></trkpt><trkpt lat="42.736012" lon="11.1258673"><ele>8.75</ele><time>2026-04-06T08:03:23.276Z</time></trkpt><trkpt lat="42.7360824" lon="11.1257079"><ele>8.5</ele><time>2026-04-06T08:03:24.277Z</time></trkpt><trkpt lat="42.7361579" lon="11.125537"><ele>8.25</ele><time>2026-04-06T08:03:25.277Z</time></trkpt><trkpt lat="42.7362397" lon="11.1253602"><ele>8.0</ele><time>2026-04-06T08:03:26.276Z</time></trkpt><trkpt lat="42.7363192" lon="11.1251759"><ele>8.0</ele><time>2026-04-06T08:03:27.277Z</time></trkpt><trkpt lat="42.7364106" lon="11.1249945"><ele>8.0</ele><time>2026-04-06T08:03:28.277Z</time></trkpt><trkpt lat="42.7365131" lon="11.1248079"><ele>8.0</ele><time>2026-04-06T08:03:29.277Z</time></trkpt><trkpt lat="42.7366183" lon="11.1246235"><ele>8.0</ele><time>2026-04-06T08:03:30.276Z</time></trkpt><trkpt lat="42.7367302" lon="11.1244447"><ele>8.0</ele><time>2026-04-06T08:03:31.277Z</time></trkpt><trkpt lat="42.7368464" lon="11.1242634"><ele>8.0</ele><time>2026-04-06T08:03:32.277Z</time></trkpt><trkpt lat="42.7369703" lon="11.124083"><ele>8.333333333333332</ele><time>2026-04-06T08:03:33.276Z</time></trkpt><trkpt lat="42.7370947" lon="11.1239084"><ele>8.666666666666666</ele><time>2026-04-06T08:03:34.277Z</time></trkpt><trkpt lat="42.7372282" lon="11.1237334"><ele>9.0</ele><time>2026-04-06T08:03:35.277Z</time></trkpt><trkpt lat="42.7373683" lon="11.1235677"><ele>9.0</ele><time>2026-04-06T08:03:36.277Z</time></trkpt><trkpt lat="42.7375185" lon="11.1234058"><ele>9.0</ele><time>2026-04-06T08:03:37.276Z</time></trkpt><trkpt lat="42.7376783" lon="11.123253"><ele>9.0</ele><time>2026-04-06T08:03:38.277Z</time></trkpt><trkpt lat="42.737845" lon="11.1231002"><ele>8.333333333333334</ele><time>2026-04-06T08:03:39.277Z</time></trkpt><trkpt lat="42.7380165" lon="11.1229459"><ele>7.666666666666667</ele><time>2026-04-06T08:03:40.277Z</time></trkpt><trkpt lat="42.7381921" lon="11.1227933"><ele>7.0</ele><time>2026-04-06T08:03:41.276Z</time></trkpt><trkpt lat="42.7383693" lon="11.122633"><ele>8.0</ele><time>2026-04-06T08:03:42.277Z</time></trkpt><trkpt lat="42.7385531" lon="11.122474"><ele>9.0</ele><time>2026-04-06T08:03:43.277Z</time></trkpt><trkpt lat="42.7387384" lon="11.1223142"><ele>10.0</ele><time>2026-04-06T08:03:44.277Z</time></trkpt><trkpt lat="42.7389167" lon="11.1221492"><ele>10.0</ele><time>2026-04-06T08:03:45.277Z</time></trkpt><trkpt lat="42.7391" lon="11.1219833"><ele>10.0</ele><time>2026-04-06T08:03:46.277Z</time></trkpt><trkpt lat="42.739288" lon="11.1218155"><ele>10.0</ele><time>2026-04-06T08:03:47.277Z</time></trkpt><trkpt lat="42.7394748" lon="11.1216486"><ele>9.666666666666668</ele><time>2026-04-06T08:03:48.277Z</time></trkpt><trkpt lat="42.7396599" lon="11.1214857"><ele>9.333333333333334</ele><time>2026-04-06T08:03:49.277Z</time></trkpt><trkpt lat="42.739839" lon="11.121328"><ele>9.0</ele><time>2026-04-06T08:03:50.277Z</time></trkpt><trkpt lat="42.7400144" lon="11.1211709"><ele>9.0</ele><time>2026-04-06T08:03:51.277Z</time></trkpt><trkpt lat="42.74019" lon="11.1210124"><ele>9.0</ele><time>2026-04-06T08:03:52.276Z</time></trkpt><trkpt lat="42.7403624" lon="11.1208565"><ele>9.0</ele><time>2026-04-06T08:03:53.277Z</time></trkpt><trkpt lat="42.7405383" lon="11.1206988"><ele>9.0</ele><time>2026-04-06T08:03:54.277Z</time></trkpt><trkpt lat="42.7407124" lon="11.1205462"><ele>9.0</ele><time>2026-04-06T08:03:55.277Z</time></trkpt><trkpt lat="42.7408859" lon="11.1203921"><ele>9.0</ele><time>2026-04-06T08:03:56.277Z</time></trkpt><trkpt lat="42.7410574" lon="11.1202381"><ele>9.0</ele><time>2026-04-06T08:03:57.277Z</time></trkpt><trkpt lat="42.7412269" lon="11.1200877"><ele>9.0</ele><time>2026-04-06T08:03:58.277Z</time></trkpt><trkpt lat="42.7413944" lon="11.1199388"><ele>9.0</ele><time>2026-04-06T08:03:59.276Z</time></trkpt><trkpt lat="42.7415633" lon="11.1197929"><ele>9.0</ele><time>2026-04-06T08:04:00.276Z</time></trkpt><trkpt lat="42.7417316" lon="11.1196436"><ele>9.0</ele><time>2026-04-06T08:04:01.277Z</time></trkpt><trkpt lat="42.7419009" lon="11.1194913"><ele>9.0</ele><time>2026-04-06T08:04:02.277Z</time></trkpt><trkpt lat="42.7420677" lon="11.1193387"><ele>9.0</ele><time>2026-04-06T08:04:03.277Z</time></trkpt><trkpt lat="42.7422321" lon="11.1191911"><ele>9.0</ele><time>2026-04-06T08:04:04.277Z</time></trkpt><trkpt lat="42.7423948" lon="11.1190481"><ele>9.0</ele><time>2026-04-06T08:04:05.276Z</time></trkpt><trkpt lat="42.7425505" lon="11.1189062"><ele>9.0</ele><time>2026-04-06T08:04:06.277Z</time></trkpt><trkpt lat="42.742703" lon="11.1187652"><ele>9.0</ele><time>2026-04-06T08:04:07.277Z</time></trkpt><trkpt lat="42.7428533" lon="11.1186286"><ele>9.0</ele><time>2026-04-06T08:04:08.277Z</time></trkpt><trkpt lat="42.7430021" lon="11.1184974"><ele>9.0</ele><time>2026-04-06T08:04:09.277Z</time></trkpt><trkpt lat="42.7431504" lon="11.1183704"><ele>9.0</ele><time>2026-04-06T08:04:10.277Z</time></trkpt><trkpt lat="42.7432965" lon="11.1182374"><ele>9.0</ele><time>2026-04-06T08:04:11.277Z</time></trkpt><trkpt lat="42.7434419" lon="11.1181088"><ele>8.333333333333334</ele><time>2026-04-06T08:04:12.277Z</time></trkpt><trkpt lat="42.7435894" lon="11.1179781"><ele>7.666666666666667</ele><time>2026-04-06T08:04:13.277Z</time></trkpt><trkpt lat="42.7437364" lon="11.1178465"><ele>7.0</ele><time>2026-04-06T08:04:14.277Z</time></trkpt><trkpt lat="42.7438866" lon="11.1177118"><ele>7.0</ele><time>2026-04-06T08:04:15.277Z</time></trkpt><trkpt lat="42.7440363" lon="11.1175757"><ele>7.0</ele><time>2026-04-06T08:04:16.276Z</time></trkpt><trkpt lat="42.7441884" lon="11.1174417"><ele>7.0</ele><time>2026-04-06T08:04:17.277Z</time></trkpt><trkpt lat="42.7443405" lon="11.1173025"><ele>7.666666666666667</ele><time>2026-04-06T08:04:18.276Z</time></trkpt><trkpt lat="42.7444925" lon="11.1171647"><ele>8.333333333333334</ele><time>2026-04-06T08:04:19.277Z</time></trkpt><trkpt lat="42.7446452" lon="11.117028"><ele>9.0</ele><time>2026-04-06T08:04:20.277Z</time></trkpt><trkpt lat="42.7448026" lon="11.1168917"><ele>9.0</ele><time>2026-04-06T08:04:21.277Z</time></trkpt><trkpt lat="42.7449607" lon="11.1167559"><ele>9.0</ele><time>2026-04-06T08:04:22.276Z</time></trkpt><trkpt lat="42.7451162" lon="11.1166183"><ele>9.0</ele><time>2026-04-06T08:04:23.277Z</time></trkpt><trkpt lat="42.7452739" lon="11.1164814"><ele>8.333333333333334</ele><time>2026-04-06T08:04:24.277Z</time></trkpt><trkpt lat="42.7454294" lon="11.1163408"><ele>7.666666666666667</ele><time>2026-04-06T08:04:25.276Z</time></trkpt><trkpt lat="42.7455843" lon="11.1161952"><ele>7.0</ele><time>2026-04-06T08:04:26.276Z</time></trkpt><trkpt lat="42.7457402" lon="11.1160536"><ele>7.0</ele><time>2026-04-06T08:04:27.277Z</time></trkpt><trkpt lat="42.7458895" lon="11.1159133"><ele>7.0</ele><time>2026-04-06T08:04:28.277Z</time></trkpt><trkpt lat="42.7460397" lon="11.1157737"><ele>7.0</ele><time>2026-04-06T08:04:29.277Z</time></trkpt><trkpt lat="42.7461926" lon="11.1156418"><ele>7.0</ele><time>2026-04-06T08:04:30.277Z</time></trkpt><trkpt lat="42.7463426" lon="11.1155119"><ele>7.0</ele><time>2026-04-06T08:04:31.277Z</time></trkpt><trkpt lat="42.7464923" lon="11.1153823"><ele>7.0</ele><time>2026-04-06T08:04:32.276Z</time></trkpt><trkpt lat="42.7466415" lon="11.1152518"><ele>7.0</ele><time>2026-04-06T08:04:33.276Z</time></trkpt><trkpt lat="42.7467865" lon="11.1151234"><ele>7.0</ele><time>2026-04-06T08:04:34.276Z</time></trkpt><trkpt lat="42.7469325" lon="11.1149936"><ele>7.0</ele><time>2026-04-06T08:04:35.277Z</time></trkpt><trkpt lat="42.7470812" lon="11.114867"><ele>6.666666666666667</ele><time>2026-04-06T08:04:36.276Z</time></trkpt><trkpt lat="42.7472348" lon="11.1147416"><ele>6.333333333333334</ele><time>2026-04-06T08:04:37.277Z</time></trkpt><trkpt lat="42.747388" lon="11.1146214"><ele>6.0</ele><time>2026-04-06T08:04:38.276Z</time></trkpt><trkpt lat="42.7475445" lon="11.1145089"><ele>6.0</ele><time>2026-04-06T08:04:39.276Z</time></trkpt><trkpt lat="42.7477021" lon="11.1144031"><ele>6.0</ele><time>2026-04-06T08:04:40.277Z</time></trkpt><trkpt lat="42.7478591" lon="11.1143066"><ele>6.0</ele><time>2026-04-06T08:04:41.277Z</time></trkpt><trkpt lat="42.7480194" lon="11.1142141"><ele>6.333333333333334</ele><time>2026-04-06T08:04:42.276Z</time></trkpt><trkpt lat="42.7481799" lon="11.1141219"><ele>6.666666666666667</ele><time>2026-04-06T08:04:43.276Z</time></trkpt><trkpt lat="42.7483417" lon="11.1140355"><ele>7.0</ele><time>2026-04-06T08:04:44.277Z</time></trkpt><trkpt lat="42.748507" lon="11.1139607"><ele>7.0</ele><time>2026-04-06T08:04:45.277Z</time></trkpt><trkpt lat="42.7486704" lon="11.1138895"><ele>7.0</ele><time>2026-04-06T08:04:46.277Z</time></trkpt><trkpt lat="42.7488265" lon="11.1138259"><ele>7.0</ele><time>2026-04-06T08:04:47.277Z</time></trkpt><trkpt lat="42.7489787" lon="11.113772"><ele>7.0</ele><time>2026-04-06T08:04:48.277Z</time></trkpt><trkpt lat="42.749123" lon="11.1137243"><ele>7.0</ele><time>2026-04-06T08:04:49.277Z</time></trkpt><trkpt lat="42.7492612" lon="11.113678"><ele>7.0</ele><time>2026-04-06T08:04:50.277Z</time></trkpt><trkpt lat="42.7493938" lon="11.1136357"><ele>7.0</ele><time>2026-04-06T08:04:51.277Z</time></trkpt><trkpt lat="42.7495202" lon="11.1135974"><ele>7.25</ele><time>2026-04-06T08:04:52.277Z</time></trkpt><trkpt lat="42.7496461" lon="11.1135582"><ele>7.5</ele><time>2026-04-06T08:04:53.277Z</time></trkpt><trkpt lat="42.7497736" lon="11.1135279"><ele>7.75</ele><time>2026-04-06T08:04:54.277Z</time></trkpt><trkpt lat="42.7499029" lon="11.1135042"><ele>8.0</ele><time>2026-04-06T08:04:55.276Z</time></trkpt><trkpt lat="42.7500333" lon="11.1134877"><ele>8.0</ele><time>2026-04-06T08:04:56.277Z</time></trkpt><trkpt lat="42.7501628" lon="11.1134808"><ele>8.0</ele><time>2026-04-06T08:04:57.277Z</time></trkpt><trkpt lat="42.7502911" lon="11.1134705"><ele>8.0</ele><time>2026-04-06T08:04:58.276Z</time></trkpt><trkpt lat="42.7504157" lon="11.1134669"><ele>8.0</ele><time>2026-04-06T08:04:59.277Z</time></trkpt><trkpt lat="42.7505352" lon="11.1134554"><ele>7.800000000000001</ele><time>2026-04-06T08:05:00.277Z</time></trkpt><trkpt lat="42.7506495" lon="11.1134498"><ele>7.6000000000000005</ele><time>2026-04-06T08:05:01.277Z</time></trkpt><trkpt lat="42.7507534" lon="11.1134437"><ele>7.3999999999999995</ele><time>2026-04-06T08:05:02.277Z</time></trkpt><trkpt lat="42.7508513" lon="11.1134355"><ele>7.199999999999999</ele><time>2026-04-06T08:05:03.277Z</time></trkpt><trkpt lat="42.7509457" lon="11.1134254"><ele>7.0</ele><time>2026-04-06T08:05:04.276Z</time></trkpt><trkpt lat="42.7510421" lon="11.1134083"><ele>7.0</ele><time>2026-04-06T08:05:05.277Z</time></trkpt><trkpt lat="42.751142" lon="11.1133861"><ele>6.999999999999999</ele><time>2026-04-06T08:05:06.277Z</time></trkpt><trkpt lat="42.7512429" lon="11.1133536"><ele>6.999999999999999</ele><time>2026-04-06T08:05:07.277Z</time></trkpt><trkpt lat="42.7513465" lon="11.1133177"><ele>7.0</ele><time>2026-04-06T08:05:08.277Z</time></trkpt><trkpt lat="42.7514552" lon="11.1132807"><ele>7.0</ele><time>2026-04-06T08:05:09.276Z</time></trkpt><trkpt lat="42.751568" lon="11.1132413"><ele>7.0</ele><time>2026-04-06T08:05:10.277Z</time></trkpt><trkpt lat="42.7516851" lon="11.1131986"><ele>7.0</ele><time>2026-04-06T08:05:11.277Z</time></trkpt><trkpt lat="42.7518056" lon="11.1131483"><ele>7.0</ele><time>2026-04-06T08:05:12.277Z</time></trkpt><trkpt lat="42.7519278" lon="11.1131015"><ele>7.0</ele><time>2026-04-06T08:05:13.276Z</time></trkpt><trkpt lat="42.7520426" lon="11.1130579"><ele>7.000000000000001</ele><time>2026-04-06T08:05:14.277Z</time></trkpt><trkpt lat="42.7521464" lon="11.113022"><ele>7.0</ele><time>2026-04-06T08:05:15.277Z</time></trkpt><trkpt lat="42.7522404" lon="11.1129922"><ele>7.0</ele><time>2026-04-06T08:05:16.277Z</time></trkpt><trkpt lat="42.7523271" lon="11.1129727"><ele>7.0</ele><time>2026-04-06T08:05:17.277Z</time></trkpt><trkpt lat="42.7524087" lon="11.1129677"><ele>7.000000000000001</ele><time>2026-04-06T08:05:18.276Z</time></trkpt><trkpt lat="42.7524834" lon="11.1129774"><ele>7.0</ele><time>2026-04-06T08:05:19.276Z</time></trkpt><trkpt lat="42.7525488" lon="11.1130025"><ele>7.0</ele><time>2026-04-06T08:05:20.276Z</time></trkpt><trkpt lat="42.7526613" lon="11.1130723"><ele>6.999999999999999</ele><time>2026-04-06T08:05:22.277Z</time></trkpt><trkpt lat="42.7527724" lon="11.1131721"><ele>6.999999999999999</ele><time>2026-04-06T08:05:24.276Z</time></trkpt><trkpt lat="42.7528378" lon="11.1132407"><ele>7.0</ele><time>2026-04-06T08:05:25.277Z</time></trkpt><trkpt lat="42.7529067" lon="11.1133223"><ele>7.0</ele><time>2026-04-06T08:05:26.277Z</time></trkpt><trkpt lat="42.7529877" lon="11.1134149"><ele>7.75</ele><time>2026-04-06T08:05:27.276Z</time></trkpt><trkpt lat="42.7530697" lon="11.1135091"><ele>8.5</ele><time>2026-04-06T08:05:28.276Z</time></trkpt><trkpt lat="42.7531567" lon="11.1136103"><ele>9.25</ele><time>2026-04-06T08:05:29.276Z</time></trkpt><trkpt lat="42.7532503" lon="11.1137188"><ele>10.0</ele><time>2026-04-06T08:05:30.277Z</time></trkpt><trkpt lat="42.7533399" lon="11.1138213"><ele>10.0</ele><time>2026-04-06T08:05:31.277Z</time></trkpt><trkpt lat="42.7534276" lon="11.1139223"><ele>10.0</ele><time>2026-04-06T08:05:32.277Z</time></trkpt><trkpt lat="42.7535134" lon="11.1140195"><ele>10.0</ele><time>2026-04-06T08:05:33.277Z</time></trkpt><trkpt lat="42.7535997" lon="11.1141173"><ele>10.0</ele><time>2026-04-06T08:05:34.277Z</time></trkpt><trkpt lat="42.7536843" lon="11.1142176"><ele>10.2</ele><time>2026-04-06T08:05:35.277Z</time></trkpt><trkpt lat="42.7537716" lon="11.1143141"><ele>10.4</ele><time>2026-04-06T08:05:36.277Z</time></trkpt><trkpt lat="42.7538559" lon="11.114413"><ele>10.600000000000001</ele><time>2026-04-06T08:05:37.277Z</time></trkpt><trkpt lat="42.7539419" lon="11.1145092"><ele>10.8</ele><time>2026-04-06T08:05:38.277Z</time></trkpt><trkpt lat="42.7540223" lon="11.1146077"><ele>11.0</ele><time>2026-04-06T08:05:39.277Z</time></trkpt><trkpt lat="42.7541083" lon="11.1147032"><ele>11.0</ele><time>2026-04-06T08:05:40.277Z</time></trkpt><trkpt lat="42.7541888" lon="11.1148001"><ele>11.0</ele><time>2026-04-06T08:05:41.277Z</time></trkpt><trkpt lat="42.7542711" lon="11.1148968"><ele>11.0</ele><time>2026-04-06T08:05:42.277Z</time></trkpt><trkpt lat="42.7543525" lon="11.1149993"><ele>11.0</ele><time>2026-04-06T08:05:43.277Z</time></trkpt><trkpt lat="42.7544263" lon="11.1150941"><ele>11.0</ele><time>2026-04-06T08:05:44.277Z</time></trkpt><trkpt lat="42.754501" lon="11.1151758"><ele>11.25</ele><time>2026-04-06T08:05:45.276Z</time></trkpt><trkpt lat="42.7545673" lon="11.1152542"><ele>11.5</ele><time>2026-04-06T08:05:46.276Z</time></trkpt><trkpt lat="42.75463" lon="11.1153284"><ele>11.75</ele><time>2026-04-06T08:05:47.276Z</time></trkpt><trkpt lat="42.7546959" lon="11.1154032"><ele>12.0</ele><time>2026-04-06T08:05:48.276Z</time></trkpt><trkpt lat="42.7559326" lon="11.1164851"><ele>12.0</ele><time>2026-04-06T08:13:24.275Z</time></trkpt><trkpt lat="42.7559262" lon="11.1164794"><ele>12.0</ele><time>2026-04-06T08:21:06.271Z</time></trkpt><trkpt lat="42.7558297" lon="11.1164381"><ele>12.0</ele><time>2026-04-06T08:21:13.271Z</time></trkpt><trkpt lat="42.7557075" lon="11.1164458"><ele>12.0</ele><time>2026-04-06T08:21:15.271Z</time></trkpt><trkpt lat="42.7556234" lon="11.1165556"><ele>12.0</ele><time>2026-04-06T08:21:17.27Z</time></trkpt><trkpt lat="42.7556253" lon="11.1167108"><ele>12.166666666666666</ele><time>2026-04-06T08:21:19.271Z</time></trkpt><trkpt lat="42.7556632" lon="11.1167851"><ele>12.333333333333332</ele><time>2026-04-06T08:21:20.271Z</time></trkpt><trkpt lat="42.7557164" lon="11.1168468"><ele>12.5</ele><time>2026-04-06T08:21:21.271Z</time></trkpt><trkpt lat="42.7557864" lon="11.1169031"><ele>12.666666666666666</ele><time>2026-04-06T08:21:22.27Z</time></trkpt><trkpt lat="42.7558644" lon="11.1169652"><ele>12.833333333333332</ele><time>2026-04-06T08:21:23.271Z</time></trkpt><trkpt lat="42.7559333" lon="11.1170322"><ele>13.0</ele><time>2026-04-06T08:21:24.27Z</time></trkpt><trkpt lat="42.7559964" lon="11.1170962"><ele>12.999999999999998</ele><time>2026-04-06T08:21:25.271Z</time></trkpt><trkpt lat="42.7560567" lon="11.117165"><ele>13.0</ele><time>2026-04-06T08:21:26.271Z</time></trkpt><trkpt lat="42.7561077" lon="11.1172329"><ele>13.0</ele><time>2026-04-06T08:21:27.271Z</time></trkpt><trkpt lat="42.7561664" lon="11.1173195"><ele>13.0</ele><time>2026-04-06T08:21:29.27Z</time></trkpt><trkpt lat="42.7562331" lon="11.1173867"><ele>12.999999999999998</ele><time>2026-04-06T08:21:31.27Z</time></trkpt><trkpt lat="42.7563267" lon="11.1174848"><ele>13.0</ele><time>2026-04-06T08:21:33.27Z</time></trkpt><trkpt lat="42.7563831" lon="11.1175486"><ele>13.0</ele><time>2026-04-06T08:21:34.271Z</time></trkpt><trkpt lat="42.7564444" lon="11.1176297"><ele>13.0</ele><time>2026-04-06T08:21:35.27Z</time></trkpt><trkpt lat="42.7565166" lon="11.1177225"><ele>13.0</ele><time>2026-04-06T08:21:36.271Z</time></trkpt><trkpt lat="42.7565999" lon="11.1178243"><ele>13.0</ele><time>2026-04-06T08:21:37.271Z</time></trkpt><trkpt lat="42.7566871" lon="11.1179287"><ele>13.0</ele><time>2026-04-06T08:21:38.271Z</time></trkpt><trkpt lat="42.7567806" lon="11.1180373"><ele>13.0</ele><time>2026-04-06T08:21:39.271Z</time></trkpt><trkpt lat="42.7568724" lon="11.1181464"><ele>13.0</ele><time>2026-04-06T08:21:40.27Z</time></trkpt><trkpt lat="42.7569669" lon="11.1182577"><ele>13.0</ele><time>2026-04-06T08:21:41.271Z</time></trkpt><trkpt lat="42.7570527" lon="11.1183621"><ele>13.0</ele><time>2026-04-06T08:21:42.27Z</time></trkpt><trkpt lat="42.7571268" lon="11.1184531"><ele>12.999999999999998</ele><time>2026-04-06T08:21:43.271Z</time></trkpt><trkpt lat="42.7571896" lon="11.118533"><ele>13.0</ele><time>2026-04-06T08:21:44.271Z</time></trkpt><trkpt lat="42.7572428" lon="11.1185998"><ele>13.0</ele><time>2026-04-06T08:21:45.271Z</time></trkpt><trkpt lat="42.7572906" lon="11.1186596"><ele>13.0</ele><time>2026-04-06T08:21:46.271Z</time></trkpt><trkpt lat="42.7573646" lon="11.1187585"><ele>12.999999999999998</ele><time>2026-04-06T08:21:48.271Z</time></trkpt><trkpt lat="42.75743" lon="11.1188462"><ele>13.0</ele><time>2026-04-06T08:21:50.271Z</time></trkpt><trkpt lat="42.7574626" lon="11.1189221"><ele>12.999999999999998</ele><time>2026-04-06T08:21:52.271Z</time></trkpt><trkpt lat="42.7575711" lon="11.1190039"><ele>13.0</ele><time>2026-04-06T08:22:39.271Z</time></trkpt><trkpt lat="42.7576283" lon="11.1190708"><ele>13.0</ele><time>2026-04-06T08:22:40.27Z</time></trkpt><trkpt lat="42.757688" lon="11.1191483"><ele>13.0</ele><time>2026-04-06T08:22:41.27Z</time></trkpt><trkpt lat="42.7577471" lon="11.1192234"><ele>12.999999999999998</ele><time>2026-04-06T08:22:42.27Z</time></trkpt><trkpt lat="42.7578086" lon="11.1192959"><ele>13.0</ele><time>2026-04-06T08:22:43.27Z</time></trkpt><trkpt lat="42.7578687" lon="11.1193622"><ele>12.200000000000001</ele><time>2026-04-06T08:22:44.271Z</time></trkpt><trkpt lat="42.7579336" lon="11.1194381"><ele>11.4</ele><time>2026-04-06T08:22:45.271Z</time></trkpt><trkpt lat="42.7580021" lon="11.1195269"><ele>10.600000000000001</ele><time>2026-04-06T08:22:46.271Z</time></trkpt><trkpt lat="42.7580767" lon="11.1196163"><ele>9.8</ele><time>2026-04-06T08:22:47.27Z</time></trkpt><trkpt lat="42.7581551" lon="11.1197113"><ele>9.0</ele><time>2026-04-06T08:22:48.271Z</time></trkpt><trkpt lat="42.7582379" lon="11.1198044"><ele>9.0</ele><time>2026-04-06T08:22:49.271Z</time></trkpt><trkpt lat="42.7583198" lon="11.1198981"><ele>9.0</ele><time>2026-04-06T08:22:50.271Z</time></trkpt><trkpt lat="42.7583837" lon="11.1199802"><ele>9.0</ele><time>2026-04-06T08:22:51.271Z</time></trkpt><trkpt lat="42.758428" lon="11.1200606"><ele>9.0</ele><time>2026-04-06T08:22:52.271Z</time></trkpt><trkpt lat="42.7584541" lon="11.1201619"><ele>9.0</ele><time>2026-04-06T08:22:53.271Z</time></trkpt><trkpt lat="42.7584964" lon="11.1202498"><ele>9.0</ele><time>2026-04-06T08:22:54.27Z</time></trkpt><trkpt lat="42.7585583" lon="11.1203174"><ele>9.4</ele><time>2026-04-06T08:22:55.27Z</time></trkpt><trkpt lat="42.7586242" lon="11.1203672"><ele>9.8</ele><time>2026-04-06T08:22:56.271Z</time></trkpt><trkpt lat="42.7587024" lon="11.1204183"><ele>10.200000000000001</ele><time>2026-04-06T08:22:57.271Z</time></trkpt><trkpt lat="42.7587841" lon="11.1204879"><ele>10.600000000000001</ele><time>2026-04-06T08:22:58.271Z</time></trkpt><trkpt lat="42.7588597" lon="11.1205657"><ele>11.0</ele><time>2026-04-06T08:22:59.27Z</time></trkpt><trkpt lat="42.7589385" lon="11.120654"><ele>11.0</ele><time>2026-04-06T08:23:00.271Z</time></trkpt><trkpt lat="42.7590212" lon="11.120745"><ele>11.0</ele><time>2026-04-06T08:23:01.271Z</time></trkpt><trkpt lat="42.7591039" lon="11.1208425"><ele>11.0</ele><time>2026-04-06T08:23:02.27Z</time></trkpt><trkpt lat="42.759184" lon="11.1209377"><ele>11.0</ele><time>2026-04-06T08:23:03.271Z</time></trkpt><trkpt lat="42.7592665" lon="11.1210463"><ele>11.0</ele><time>2026-04-06T08:23:04.27Z</time></trkpt><trkpt lat="42.7593536" lon="11.1211476"><ele>11.25</ele><time>2026-04-06T08:23:05.27Z</time></trkpt><trkpt lat="42.7594442" lon="11.1212545"><ele>11.5</ele><time>2026-04-06T08:23:06.271Z</time></trkpt><trkpt lat="42.7595315" lon="11.1213657"><ele>11.75</ele><time>2026-04-06T08:23:07.27Z</time></trkpt><trkpt lat="42.7596067" lon="11.1214883"><ele>12.0</ele><time>2026-04-06T08:23:08.27Z</time></trkpt><trkpt lat="42.7596685" lon="11.121619"><ele>12.0</ele><time>2026-04-06T08:23:09.27Z</time></trkpt><trkpt lat="42.7597139" lon="11.1217458"><ele>12.0</ele><time>2026-04-06T08:23:10.27Z</time></trkpt><trkpt lat="42.7597459" lon="11.1218661"><ele>12.0</ele><time>2026-04-06T08:23:11.27Z</time></trkpt><trkpt lat="42.7597749" lon="11.1219729"><ele>12.0</ele><time>2026-04-06T08:23:12.27Z</time></trkpt><trkpt lat="42.7597992" lon="11.1220819"><ele>12.0</ele><time>2026-04-06T08:23:13.271Z</time></trkpt><trkpt lat="42.7598231" lon="11.1221885"><ele>12.0</ele><time>2026-04-06T08:23:14.271Z</time></trkpt><trkpt lat="42.7598433" lon="11.1222913"><ele>12.0</ele><time>2026-04-06T08:23:15.27Z</time></trkpt><trkpt lat="42.7598597" lon="11.1223986"><ele>12.0</ele><time>2026-04-06T08:23:16.271Z</time></trkpt><trkpt lat="42.7598837" lon="11.1225118"><ele>12.0</ele><time>2026-04-06T08:23:17.271Z</time></trkpt><trkpt lat="42.7599017" lon="11.1226314"><ele>12.0</ele><time>2026-04-06T08:23:18.271Z</time></trkpt><trkpt lat="42.7599287" lon="11.1227416"><ele>12.0</ele><time>2026-04-06T08:23:19.271Z</time></trkpt><trkpt lat="42.759949" lon="11.1228573"><ele>12.0</ele><time>2026-04-06T08:23:20.271Z</time></trkpt><trkpt lat="42.7599761" lon="11.1229811"><ele>12.0</ele><time>2026-04-06T08:23:21.271Z</time></trkpt><trkpt lat="42.7600029" lon="11.1231291"><ele>12.0</ele><time>2026-04-06T08:23:22.27Z</time></trkpt><trkpt lat="42.7600331" lon="11.1232872"><ele>12.0</ele><time>2026-04-06T08:23:23.27Z</time></trkpt><trkpt lat="42.7600616" lon="11.1234589"><ele>12.0</ele><time>2026-04-06T08:23:24.271Z</time></trkpt><trkpt lat="42.7600893" lon="11.1236306"><ele>12.0</ele><time>2026-04-06T08:23:25.27Z</time></trkpt><trkpt lat="42.7601229" lon="11.1238147"><ele>12.0</ele><time>2026-04-06T08:23:26.271Z</time></trkpt><trkpt lat="42.7601604" lon="11.123976"><ele>12.0</ele><time>2026-04-06T08:23:27.271Z</time></trkpt><trkpt lat="42.7601983" lon="11.1241483"><ele>12.0</ele><time>2026-04-06T08:23:28.27Z</time></trkpt><trkpt lat="42.7602209" lon="11.1243059"><ele>12.0</ele><time>2026-04-06T08:23:29.271Z</time></trkpt><trkpt lat="42.7602511" lon="11.124448"><ele>12.0</ele><time>2026-04-06T08:23:30.27Z</time></trkpt><trkpt lat="42.7602656" lon="11.1245477"><ele>12.0</ele><time>2026-04-06T08:23:31.271Z</time></trkpt><trkpt lat="42.7602735" lon="11.1246532"><ele>12.0</ele><time>2026-04-06T08:23:33.271Z</time></trkpt><trkpt lat="42.7602815" lon="11.1247741"><ele>12.0</ele><time>2026-04-06T08:23:36.271Z</time></trkpt><trkpt lat="42.760264" lon="11.1248801"><ele>12.0</ele><time>2026-04-06T08:23:38.271Z</time></trkpt><trkpt lat="42.7602308" lon="11.125057"><ele>11.833333333333334</ele><time>2026-04-06T08:23:40.271Z</time></trkpt><trkpt lat="42.7602281" lon="11.1251567"><ele>11.666666666666666</ele><time>2026-04-06T08:23:41.271Z</time></trkpt><trkpt lat="42.7602439" lon="11.1252401"><ele>11.5</ele><time>2026-04-06T08:23:42.27Z</time></trkpt><trkpt lat="42.7602418" lon="11.1254153"><ele>11.333333333333332</ele><time>2026-04-06T08:23:44.271Z</time></trkpt><trkpt lat="42.7602107" lon="11.1254942"><ele>11.166666666666666</ele><time>2026-04-06T08:23:45.271Z</time></trkpt><trkpt lat="42.760176" lon="11.1255706"><ele>11.0</ele><time>2026-04-06T08:23:46.27Z</time></trkpt><trkpt lat="42.7601442" lon="11.1256482"><ele>11.0</ele><time>2026-04-06T08:23:47.27Z</time></trkpt><trkpt lat="42.7600856" lon="11.1258011"><ele>11.0</ele><time>2026-04-06T08:23:49.27Z</time></trkpt><trkpt lat="42.7600242" lon="11.1259522"><ele>11.0</ele><time>2026-04-06T08:23:51.27Z</time></trkpt><trkpt lat="42.7599926" lon="11.1260301"><ele>11.0</ele><time>2026-04-06T08:23:52.271Z</time></trkpt><trkpt lat="42.7599626" lon="11.1261135"><ele>11.0</ele><time>2026-04-06T08:23:53.271Z</time></trkpt><trkpt lat="42.7599327" lon="11.1261975"><ele>11.0</ele><time>2026-04-06T08:23:54.271Z</time></trkpt><trkpt lat="42.7599042" lon="11.126284"><ele>11.0</ele><time>2026-04-06T08:23:55.271Z</time></trkpt><trkpt lat="42.7598679" lon="11.1263904"><ele>11.0</ele><time>2026-04-06T08:23:56.271Z</time></trkpt><trkpt lat="42.7598189" lon="11.126496"><ele>11.0</ele><time>2026-04-06T08:23:57.271Z</time></trkpt><trkpt lat="42.7597651" lon="11.1265998"><ele>11.0</ele><time>2026-04-06T08:23:58.271Z</time></trkpt><trkpt lat="42.7597131" lon="11.1267143"><ele>11.0</ele><time>2026-04-06T08:23:59.271Z</time></trkpt><trkpt lat="42.7596632" lon="11.1268343"><ele>11.0</ele><time>2026-04-06T08:24:00.27Z</time></trkpt><trkpt lat="42.7596201" lon="11.1269475"><ele>11.0</ele><time>2026-04-06T08:24:01.271Z</time></trkpt><trkpt lat="42.7595859" lon="11.1270419"><ele>11.0</ele><time>2026-04-06T08:24:02.271Z</time></trkpt><trkpt lat="42.759545" lon="11.1271275"><ele>11.0</ele><time>2026-04-06T08:24:03.271Z</time></trkpt><trkpt lat="42.7594866" lon="11.1271671"><ele>11.0</ele><time>2026-04-06T08:24:04.271Z</time></trkpt><trkpt lat="42.7594221" lon="11.1272077"><ele>11.0</ele><time>2026-04-06T08:24:05.271Z</time></trkpt><trkpt lat="42.7593447" lon="11.1272289"><ele>11.142857142857142</ele><time>2026-04-06T08:24:06.271Z</time></trkpt><trkpt lat="42.7592784" lon="11.1272491"><ele>11.285714285714285</ele><time>2026-04-06T08:24:07.271Z</time></trkpt><trkpt lat="42.7592115" lon="11.1272634"><ele>11.428571428571427</ele><time>2026-04-06T08:24:08.271Z</time></trkpt><trkpt lat="42.7591438" lon="11.1272656"><ele>11.571428571428571</ele><time>2026-04-06T08:24:09.271Z</time></trkpt><trkpt lat="42.759078" lon="11.1272496"><ele>11.714285714285714</ele><time>2026-04-06T08:24:10.271Z</time></trkpt><trkpt lat="42.7590152" lon="11.1272126"><ele>11.857142857142856</ele><time>2026-04-06T08:24:11.271Z</time></trkpt><trkpt lat="42.7589528" lon="11.1271627"><ele>12.0</ele><time>2026-04-06T08:24:12.271Z</time></trkpt><trkpt lat="42.7588877" lon="11.127116"><ele>12.0</ele><time>2026-04-06T08:24:13.27Z</time></trkpt><trkpt lat="42.7588247" lon="11.1270691"><ele>12.0</ele><time>2026-04-06T08:24:14.27Z</time></trkpt><trkpt lat="42.7586999" lon="11.1270503"><ele>12.0</ele><time>2026-04-06T08:24:16.271Z</time></trkpt><trkpt lat="42.7585868" lon="11.1270825"><ele>12.0</ele><time>2026-04-06T08:24:18.271Z</time></trkpt><trkpt lat="42.7584881" lon="11.1270244"><ele>12.0</ele><time>2026-04-06T08:24:20.27Z</time></trkpt><trkpt lat="42.758387" lon="11.1269904"><ele>12.0</ele><time>2026-04-06T08:24:22.27Z</time></trkpt><trkpt lat="42.758298" lon="11.1270716"><ele>12.0</ele><time>2026-04-06T08:24:24.271Z</time></trkpt><trkpt lat="42.7582628" lon="11.1271495"><ele>12.0</ele><time>2026-04-06T08:24:25.271Z</time></trkpt><trkpt lat="42.7582299" lon="11.127229"><ele>12.0</ele><time>2026-04-06T08:24:26.271Z</time></trkpt><trkpt lat="42.7581822" lon="11.1273456"><ele>12.0</ele><time>2026-04-06T08:24:28.27Z</time></trkpt><trkpt lat="42.7581804" lon="11.1274837"><ele>12.0</ele><time>2026-04-06T08:24:30.271Z</time></trkpt><trkpt lat="42.7581938" lon="11.1275713"><ele>11.6</ele><time>2026-04-06T08:24:31.271Z</time></trkpt><trkpt lat="42.7582125" lon="11.127681"><ele>11.2</ele><time>2026-04-06T08:24:32.271Z</time></trkpt><trkpt lat="42.7582297" lon="11.1278064"><ele>10.8</ele><time>2026-04-06T08:24:33.27Z</time></trkpt><trkpt lat="42.758242" lon="11.1279357"><ele>10.4</ele><time>2026-04-06T08:24:34.27Z</time></trkpt><trkpt lat="42.7582464" lon="11.1280707"><ele>10.0</ele><time>2026-04-06T08:24:35.271Z</time></trkpt><trkpt lat="42.7582399" lon="11.1281979"><ele>9.833333333333334</ele><time>2026-04-06T08:24:36.271Z</time></trkpt><trkpt lat="42.758224" lon="11.1283112"><ele>9.666666666666668</ele><time>2026-04-06T08:24:37.27Z</time></trkpt><trkpt lat="42.758201" lon="11.1284039"><ele>9.5</ele><time>2026-04-06T08:24:38.271Z</time></trkpt><trkpt lat="42.7581635" lon="11.1285155"><ele>9.333333333333334</ele><time>2026-04-06T08:24:40.271Z</time></trkpt><trkpt lat="42.7581566" lon="11.128603"><ele>9.166666666666666</ele><time>2026-04-06T08:24:44.271Z</time></trkpt><trkpt lat="42.7582021" lon="11.1284518"><ele>9.0</ele><time>2026-04-06T08:24:55.27Z</time></trkpt><trkpt lat="42.7582184" lon="11.1283654"><ele>9.0</ele><time>2026-04-06T08:24:56.271Z</time></trkpt><trkpt lat="42.7582357" lon="11.1282555"><ele>9.0</ele><time>2026-04-06T08:24:57.271Z</time></trkpt><trkpt lat="42.7582461" lon="11.1281227"><ele>9.0</ele><time>2026-04-06T08:24:58.27Z</time></trkpt><trkpt lat="42.758246" lon="11.1279813"><ele>9.0</ele><time>2026-04-06T08:24:59.271Z</time></trkpt><trkpt lat="42.758236" lon="11.1278343"><ele>9.0</ele><time>2026-04-06T08:25:00.271Z</time></trkpt><trkpt lat="42.7582237" lon="11.1277018"><ele>9.166666666666666</ele><time>2026-04-06T08:25:01.271Z</time></trkpt><trkpt lat="42.7582109" lon="11.1275773"><ele>9.333333333333334</ele><time>2026-04-06T08:25:02.271Z</time></trkpt><trkpt lat="42.7581995" lon="11.12747"><ele>9.5</ele><time>2026-04-06T08:25:03.271Z</time></trkpt><trkpt lat="42.758217" lon="11.1273391"><ele>9.666666666666668</ele><time>2026-04-06T08:25:05.271Z</time></trkpt><trkpt lat="42.7582822" lon="11.127311"><ele>9.833333333333334</ele><time>2026-04-06T08:25:07.27Z</time></trkpt><trkpt lat="42.7583749" lon="11.1273811"><ele>10.0</ele><time>2026-04-06T08:25:09.271Z</time></trkpt><trkpt lat="42.7584805" lon="11.1274639"><ele>10.2</ele><time>2026-04-06T08:25:11.271Z</time></trkpt><trkpt lat="42.758589" lon="11.1275486"><ele>10.4</ele><time>2026-04-06T08:25:13.27Z</time></trkpt><trkpt lat="42.7586868" lon="11.1276256"><ele>10.600000000000001</ele><time>2026-04-06T08:25:15.271Z</time></trkpt><trkpt lat="42.7587705" lon="11.1276914"><ele>10.8</ele><time>2026-04-06T08:25:17.271Z</time></trkpt><trkpt lat="42.7588569" lon="11.1277594"><ele>11.0</ele><time>2026-04-06T08:25:19.271Z</time></trkpt><trkpt lat="42.7589429" lon="11.1278241"><ele>11.0</ele><time>2026-04-06T08:25:21.271Z</time></trkpt><trkpt lat="42.7590155" lon="11.1278781"><ele>11.0</ele><time>2026-04-06T08:25:23.271Z</time></trkpt><trkpt lat="42.7590797" lon="11.1279232"><ele>11.0</ele><time>2026-04-06T08:25:25.271Z</time></trkpt><trkpt lat="42.759169" lon="11.1279882"><ele>11.0</ele><time>2026-04-06T08:25:27.271Z</time></trkpt><trkpt lat="42.7592351" lon="11.1280389"><ele>11.0</ele><time>2026-04-06T08:25:28.271Z</time></trkpt><trkpt lat="42.7593101" lon="11.1280917"><ele>11.0</ele><time>2026-04-06T08:25:29.271Z</time></trkpt><trkpt lat="42.7593919" lon="11.1281507"><ele>11.166666666666666</ele><time>2026-04-06T08:25:30.271Z</time></trkpt><trkpt lat="42.7594695" lon="11.1282161"><ele>11.333333333333332</ele><time>2026-04-06T08:25:31.271Z</time></trkpt><trkpt lat="42.7595375" lon="11.1282652"><ele>11.5</ele><time>2026-04-06T08:25:32.27Z</time></trkpt><trkpt lat="42.759601" lon="11.1283073"><ele>11.666666666666666</ele><time>2026-04-06T08:25:33.271Z</time></trkpt><trkpt lat="42.7597221" lon="11.1282874"><ele>11.833333333333334</ele><time>2026-04-06T08:25:35.27Z</time></trkpt><trkpt lat="42.7597869" lon="11.1282605"><ele>12.0</ele><time>2026-04-06T08:25:36.271Z</time></trkpt><trkpt lat="42.7598593" lon="11.1282297"><ele>12.2</ele><time>2026-04-06T08:25:37.271Z</time></trkpt><trkpt lat="42.7599259" lon="11.1282098"><ele>12.399999999999999</ele><time>2026-04-06T08:25:38.271Z</time></trkpt><trkpt lat="42.7600253" lon="11.1281533"><ele>12.600000000000001</ele><time>2026-04-06T08:25:40.271Z</time></trkpt><trkpt lat="42.7600621" lon="11.1280085"><ele>12.8</ele><time>2026-04-06T08:25:42.271Z</time></trkpt><trkpt lat="42.760037" lon="11.127847"><ele>13.0</ele><time>2026-04-06T08:25:44.271Z</time></trkpt><trkpt lat="42.7600178" lon="11.1277314"><ele>13.0</ele><time>2026-04-06T08:25:46.271Z</time></trkpt><trkpt lat="42.7600001" lon="11.1276467"><ele>13.0</ele><time>2026-04-06T08:25:49.271Z</time></trkpt><trkpt lat="42.759959" lon="11.1275069"><ele>13.0</ele><time>2026-04-06T08:25:51.27Z</time></trkpt><trkpt lat="42.7599475" lon="11.1273993"><ele>13.0</ele><time>2026-04-06T08:25:52.271Z</time></trkpt><trkpt lat="42.7599316" lon="11.1272644"><ele>13.0</ele><time>2026-04-06T08:25:53.271Z</time></trkpt><trkpt lat="42.7599154" lon="11.1271369"><ele>12.666666666666666</ele><time>2026-04-06T08:25:54.271Z</time></trkpt><trkpt lat="42.7598925" lon="11.1270221"><ele>12.333333333333332</ele><time>2026-04-06T08:25:55.271Z</time></trkpt><trkpt lat="42.7598644" lon="11.1269242"><ele>12.0</ele><time>2026-04-06T08:25:56.271Z</time></trkpt><trkpt lat="42.759828" lon="11.1268508"><ele>11.666666666666666</ele><time>2026-04-06T08:25:57.271Z</time></trkpt><trkpt lat="42.7597644" lon="11.1267553"><ele>11.333333333333332</ele><time>2026-04-06T08:25:59.27Z</time></trkpt><trkpt lat="42.7597808" lon="11.1266479"><ele>11.0</ele><time>2026-04-06T08:26:01.271Z</time></trkpt><trkpt lat="42.7598506" lon="11.126493"><ele>11.0</ele><time>2026-04-06T08:26:03.271Z</time></trkpt><trkpt lat="42.7598948" lon="11.1263859"><ele>11.0</ele><time>2026-04-06T08:26:04.271Z</time></trkpt><trkpt lat="42.7599415" lon="11.1262681"><ele>11.0</ele><time>2026-04-06T08:26:05.271Z</time></trkpt><trkpt lat="42.7599899" lon="11.1261429"><ele>11.0</ele><time>2026-04-06T08:26:06.271Z</time></trkpt><trkpt lat="42.7600369" lon="11.1260184"><ele>11.0</ele><time>2026-04-06T08:26:07.27Z</time></trkpt><trkpt lat="42.7600771" lon="11.1259031"><ele>11.0</ele><time>2026-04-06T08:26:08.271Z</time></trkpt><trkpt lat="42.7601223" lon="11.1257875"><ele>11.0</ele><time>2026-04-06T08:26:09.271Z</time></trkpt><trkpt lat="42.76017" lon="11.1256733"><ele>11.0</ele><time>2026-04-06T08:26:10.27Z</time></trkpt><trkpt lat="42.760211" lon="11.1255719"><ele>11.0</ele><time>2026-04-06T08:26:11.271Z</time></trkpt><trkpt lat="42.7602442" lon="11.1254921"><ele>11.0</ele><time>2026-04-06T08:26:12.27Z</time></trkpt><trkpt lat="42.7602887" lon="11.1253979"><ele>11.0</ele><time>2026-04-06T08:26:14.27Z</time></trkpt><trkpt lat="42.7603684" lon="11.1253761"><ele>10.833333333333332</ele><time>2026-04-06T08:26:19.271Z</time></trkpt><trkpt lat="42.7604789" lon="11.1253814"><ele>10.666666666666666</ele><time>2026-04-06T08:26:21.271Z</time></trkpt><trkpt lat="42.7605436" lon="11.1253504"><ele>10.5</ele><time>2026-04-06T08:26:22.271Z</time></trkpt><trkpt lat="42.7606008" lon="11.1253019"><ele>10.333333333333334</ele><time>2026-04-06T08:26:23.271Z</time></trkpt><trkpt lat="42.7606648" lon="11.1252208"><ele>10.166666666666668</ele><time>2026-04-06T08:26:24.271Z</time></trkpt><trkpt lat="42.7607271" lon="11.1251268"><ele>10.0</ele><time>2026-04-06T08:26:25.271Z</time></trkpt><trkpt lat="42.7607792" lon="11.1250411"><ele>10.0</ele><time>2026-04-06T08:26:26.27Z</time></trkpt><trkpt lat="42.7608282" lon="11.1249773"><ele>10.0</ele><time>2026-04-06T08:26:27.27Z</time></trkpt><trkpt lat="42.7609355" lon="11.1248802"><ele>10.0</ele><time>2026-04-06T08:26:29.27Z</time></trkpt><trkpt lat="42.7610005" lon="11.1248516"><ele>10.0</ele><time>2026-04-06T08:26:30.271Z</time></trkpt><trkpt lat="42.7610678" lon="11.1248309"><ele>10.0</ele><time>2026-04-06T08:26:31.271Z</time></trkpt><trkpt lat="42.7611436" lon="11.1248231"><ele>10.0</ele><time>2026-04-06T08:26:32.27Z</time></trkpt><trkpt lat="42.7612091" lon="11.1248134"><ele>10.4</ele><time>2026-04-06T08:26:34.271Z</time></trkpt><trkpt lat="42.7612971" lon="11.1247995"><ele>10.8</ele><time>2026-04-06T08:26:36.271Z</time></trkpt><trkpt lat="42.7614267" lon="11.1247883"><ele>11.2</ele><time>2026-04-06T08:26:38.271Z</time></trkpt><trkpt lat="42.7614901" lon="11.124785"><ele>11.6</ele><time>2026-04-06T08:26:39.271Z</time></trkpt><trkpt lat="42.7616265" lon="11.1248751"><ele>12.0</ele><time>2026-04-06T08:26:41.271Z</time></trkpt><trkpt lat="42.7617096" lon="11.1249652"><ele>12.0</ele><time>2026-04-06T08:26:42.271Z</time></trkpt><trkpt lat="42.7617915" lon="11.1250671"><ele>12.0</ele><time>2026-04-06T08:26:43.271Z</time></trkpt><trkpt lat="42.7618492" lon="11.1251758"><ele>12.0</ele><time>2026-04-06T08:26:44.27Z</time></trkpt><trkpt lat="42.7618842" lon="11.1252861"><ele>12.0</ele><time>2026-04-06T08:26:45.271Z</time></trkpt><trkpt lat="42.761899" lon="11.1254029"><ele>12.0</ele><time>2026-04-06T08:26:46.271Z</time></trkpt><trkpt lat="42.7619054" lon="11.125506"><ele>12.0</ele><time>2026-04-06T08:26:47.271Z</time></trkpt><trkpt lat="42.7619228" lon="11.1256084"><ele>12.0</ele><time>2026-04-06T08:26:48.27Z</time></trkpt><trkpt lat="42.7619339" lon="11.1257626"><ele>12.0</ele><time>2026-04-06T08:26:50.271Z</time></trkpt><trkpt lat="42.7619407" lon="11.1259017"><ele>12.0</ele><time>2026-04-06T08:26:52.271Z</time></trkpt><trkpt lat="42.7619575" lon="11.1260858"><ele>12.0</ele><time>2026-04-06T08:26:54.271Z</time></trkpt><trkpt lat="42.7619734" lon="11.1262015"><ele>11.8</ele><time>2026-04-06T08:26:55.27Z</time></trkpt><trkpt lat="42.7619877" lon="11.1263256"><ele>11.6</ele><time>2026-04-06T08:26:56.271Z</time></trkpt><trkpt lat="42.7620086" lon="11.1264568"><ele>11.4</ele><time>2026-04-06T08:26:57.271Z</time></trkpt><trkpt lat="42.7620253" lon="11.1265967"><ele>11.200000000000001</ele><time>2026-04-06T08:26:58.27Z</time></trkpt><trkpt lat="42.7620334" lon="11.1267423"><ele>11.0</ele><time>2026-04-06T08:26:59.271Z</time></trkpt><trkpt lat="42.7620524" lon="11.1268969"><ele>10.8</ele><time>2026-04-06T08:27:00.271Z</time></trkpt><trkpt lat="42.7620752" lon="11.1270598"><ele>10.600000000000001</ele><time>2026-04-06T08:27:01.27Z</time></trkpt><trkpt lat="42.7620944" lon="11.127212"><ele>10.4</ele><time>2026-04-06T08:27:02.271Z</time></trkpt><trkpt lat="42.7621049" lon="11.127349"><ele>10.2</ele><time>2026-04-06T08:27:03.27Z</time></trkpt><trkpt lat="42.7621166" lon="11.127478"><ele>10.0</ele><time>2026-04-06T08:27:04.271Z</time></trkpt><trkpt lat="42.7621264" lon="11.1275977"><ele>10.0</ele><time>2026-04-06T08:27:05.271Z</time></trkpt><trkpt lat="42.7621322" lon="11.1277093"><ele>10.0</ele><time>2026-04-06T08:27:06.27Z</time></trkpt><trkpt lat="42.76214" lon="11.1278121"><ele>10.0</ele><time>2026-04-06T08:27:07.27Z</time></trkpt><trkpt lat="42.7621542" lon="11.1279254"><ele>10.0</ele><time>2026-04-06T08:27:08.271Z</time></trkpt><trkpt lat="42.762166" lon="11.1280424"><ele>10.0</ele><time>2026-04-06T08:27:09.271Z</time></trkpt><trkpt lat="42.7621839" lon="11.1281706"><ele>10.0</ele><time>2026-04-06T08:27:10.271Z</time></trkpt><trkpt lat="42.7622011" lon="11.1283107"><ele>10.0</ele><time>2026-04-06T08:27:11.27Z</time></trkpt><trkpt lat="42.7622234" lon="11.128464"><ele>10.0</ele><time>2026-04-06T08:27:12.27Z</time></trkpt><trkpt lat="42.7622458" lon="11.1286326"><ele>10.0</ele><time>2026-04-06T08:27:13.271Z</time></trkpt><trkpt lat="42.7622666" lon="11.1288143"><ele>10.0</ele><time>2026-04-06T08:27:14.271Z</time></trkpt><trkpt lat="42.7622926" lon="11.1290056"><ele>10.25</ele><time>2026-04-06T08:27:15.271Z</time></trkpt><trkpt lat="42.7623192" lon="11.1292094"><ele>10.5</ele><time>2026-04-06T08:27:16.271Z</time></trkpt><trkpt lat="42.7623452" lon="11.1294022"><ele>10.75</ele><time>2026-04-06T08:27:17.27Z</time></trkpt><trkpt lat="42.7623673" lon="11.1295883"><ele>11.0</ele><time>2026-04-06T08:27:18.271Z</time></trkpt><trkpt lat="42.7623907" lon="11.1297815"><ele>10.75</ele><time>2026-04-06T08:27:19.271Z</time></trkpt><trkpt lat="42.7624183" lon="11.129977"><ele>10.5</ele><time>2026-04-06T08:27:20.271Z</time></trkpt><trkpt lat="42.7624433" lon="11.1301716"><ele>10.25</ele><time>2026-04-06T08:27:21.271Z</time></trkpt><trkpt lat="42.7624636" lon="11.1303634"><ele>10.0</ele><time>2026-04-06T08:27:22.27Z</time></trkpt><trkpt lat="42.7624865" lon="11.1305535"><ele>10.0</ele><time>2026-04-06T08:27:23.271Z</time></trkpt><trkpt lat="42.7625105" lon="11.1307489"><ele>10.0</ele><time>2026-04-06T08:27:24.27Z</time></trkpt><trkpt lat="42.7625322" lon="11.1309479"><ele>10.0</ele><time>2026-04-06T08:27:25.271Z</time></trkpt><trkpt lat="42.7625463" lon="11.1311393"><ele>10.0</ele><time>2026-04-06T08:27:26.271Z</time></trkpt><trkpt lat="42.7625618" lon="11.1313289"><ele>10.0</ele><time>2026-04-06T08:27:27.271Z</time></trkpt><trkpt lat="42.7625761" lon="11.1315179"><ele>10.0</ele><time>2026-04-06T08:27:28.271Z</time></trkpt><trkpt lat="42.7625916" lon="11.1316985"><ele>10.0</ele><time>2026-04-06T08:27:29.271Z</time></trkpt><trkpt lat="42.7626027" lon="11.1318608"><ele>10.0</ele><time>2026-04-06T08:27:30.271Z</time></trkpt><trkpt lat="42.7626191" lon="11.1320178"><ele>10.0</ele><time>2026-04-06T08:27:31.271Z</time></trkpt><trkpt lat="42.7626374" lon="11.1321598"><ele>10.0</ele><time>2026-04-06T08:27:32.27Z</time></trkpt><trkpt lat="42.7626612" lon="11.1322948"><ele>10.0</ele><time>2026-04-06T08:27:33.271Z</time></trkpt><trkpt lat="42.7626831" lon="11.1324214"><ele>10.0</ele><time>2026-04-06T08:27:34.271Z</time></trkpt><trkpt lat="42.7627056" lon="11.132536"><ele>10.0</ele><time>2026-04-06T08:27:35.27Z</time></trkpt><trkpt lat="42.7627153" lon="11.1326578"><ele>10.0</ele><time>2026-04-06T08:27:37.27Z</time></trkpt><trkpt lat="42.7626958" lon="11.1327654"><ele>10.0</ele><time>2026-04-06T08:27:40.271Z</time></trkpt><trkpt lat="42.7626921" lon="11.1329129"><ele>10.0</ele><time>2026-04-06T08:27:42.271Z</time></trkpt><trkpt lat="42.7627142" lon="11.1330746"><ele>10.0</ele><time>2026-04-06T08:27:44.271Z</time></trkpt><trkpt lat="42.7627203" lon="11.1331791"><ele>10.0</ele><time>2026-04-06T08:27:45.271Z</time></trkpt><trkpt lat="42.7627246" lon="11.1333077"><ele>10.0</ele><time>2026-04-06T08:27:46.271Z</time></trkpt><trkpt lat="42.7627329" lon="11.1334441"><ele>10.0</ele><time>2026-04-06T08:27:47.271Z</time></trkpt><trkpt lat="42.7627433" lon="11.1335757"><ele>10.0</ele><time>2026-04-06T08:27:48.27Z</time></trkpt><trkpt lat="42.7627529" lon="11.1337014"><ele>10.0</ele><time>2026-04-06T08:27:49.271Z</time></trkpt><trkpt lat="42.7627606" lon="11.1338222"><ele>10.0</ele><time>2026-04-06T08:27:50.27Z</time></trkpt><trkpt lat="42.7627644" lon="11.1339452"><ele>10.25</ele><time>2026-04-06T08:27:51.27Z</time></trkpt><trkpt lat="42.7627725" lon="11.1340786"><ele>10.5</ele><time>2026-04-06T08:27:52.271Z</time></trkpt><trkpt lat="42.7627832" lon="11.1342285"><ele>10.75</ele><time>2026-04-06T08:27:53.271Z</time></trkpt><trkpt lat="42.7627963" lon="11.1343931"><ele>11.0</ele><time>2026-04-06T08:27:54.271Z</time></trkpt><trkpt lat="42.7628116" lon="11.1345624"><ele>11.0</ele><time>2026-04-06T08:27:55.271Z</time></trkpt><trkpt lat="42.7628223" lon="11.1347331"><ele>11.0</ele><time>2026-04-06T08:27:56.271Z</time></trkpt><trkpt lat="42.7628354" lon="11.1349027"><ele>11.0</ele><time>2026-04-06T08:27:57.271Z</time></trkpt><trkpt lat="42.7628481" lon="11.1350812"><ele>11.0</ele><time>2026-04-06T08:27:58.271Z</time></trkpt><trkpt lat="42.762865" lon="11.135263"><ele>11.0</ele><time>2026-04-06T08:27:59.271Z</time></trkpt><trkpt lat="42.76288" lon="11.1354357"><ele>11.0</ele><time>2026-04-06T08:28:00.27Z</time></trkpt><trkpt lat="42.7628991" lon="11.1356149"><ele>11.0</ele><time>2026-04-06T08:28:01.271Z</time></trkpt><trkpt lat="42.7629235" lon="11.1357983"><ele>11.0</ele><time>2026-04-06T08:28:02.271Z</time></trkpt><trkpt lat="42.7629575" lon="11.1359917"><ele>10.75</ele><time>2026-04-06T08:28:03.271Z</time></trkpt><trkpt lat="42.7629929" lon="11.1361825"><ele>10.5</ele><time>2026-04-06T08:28:04.271Z</time></trkpt><trkpt lat="42.76303" lon="11.1363743"><ele>10.25</ele><time>2026-04-06T08:28:05.271Z</time></trkpt><trkpt lat="42.7630647" lon="11.1365613"><ele>10.0</ele><time>2026-04-06T08:28:06.271Z</time></trkpt><trkpt lat="42.7630998" lon="11.1367467"><ele>10.0</ele><time>2026-04-06T08:28:07.271Z</time></trkpt><trkpt lat="42.7631347" lon="11.1369221"><ele>10.0</ele><time>2026-04-06T08:28:08.27Z</time></trkpt><trkpt lat="42.7631681" lon="11.1370998"><ele>10.0</ele><time>2026-04-06T08:28:09.271Z</time></trkpt><trkpt lat="42.7632019" lon="11.1372773"><ele>10.0</ele><time>2026-04-06T08:28:10.271Z</time></trkpt><trkpt lat="42.7632357" lon="11.1374519"><ele>10.0</ele><time>2026-04-06T08:28:11.27Z</time></trkpt><trkpt lat="42.7632699" lon="11.1376252"><ele>10.0</ele><time>2026-04-06T08:28:12.271Z</time></trkpt><trkpt lat="42.7633042" lon="11.1377979"><ele>10.0</ele><time>2026-04-06T08:28:13.27Z</time></trkpt><trkpt lat="42.7633358" lon="11.1379648"><ele>10.0</ele><time>2026-04-06T08:28:14.27Z</time></trkpt><trkpt lat="42.7633718" lon="11.138121"><ele>10.0</ele><time>2026-04-06T08:28:15.271Z</time></trkpt><trkpt lat="42.7634059" lon="11.1382634"><ele>10.0</ele><time>2026-04-06T08:28:16.27Z</time></trkpt><trkpt lat="42.7634353" lon="11.1384026"><ele>10.0</ele><time>2026-04-06T08:28:17.27Z</time></trkpt><trkpt lat="42.7634628" lon="11.1385479"><ele>10.0</ele><time>2026-04-06T08:28:18.271Z</time></trkpt><trkpt lat="42.763488" lon="11.1386937"><ele>10.0</ele><time>2026-04-06T08:28:19.271Z</time></trkpt><trkpt lat="42.7635146" lon="11.1388452"><ele>9.75</ele><time>2026-04-06T08:28:20.271Z</time></trkpt><trkpt lat="42.7635419" lon="11.1390075"><ele>9.5</ele><time>2026-04-06T08:28:21.271Z</time></trkpt><trkpt lat="42.7635736" lon="11.1391809"><ele>9.25</ele><time>2026-04-06T08:28:22.271Z</time></trkpt><trkpt lat="42.7636043" lon="11.1393718"><ele>9.0</ele><time>2026-04-06T08:28:23.271Z</time></trkpt><trkpt lat="42.7636402" lon="11.1395695"><ele>9.0</ele><time>2026-04-06T08:28:24.271Z</time></trkpt><trkpt lat="42.7636812" lon="11.1397688"><ele>9.0</ele><time>2026-04-06T08:28:25.271Z</time></trkpt><trkpt lat="42.7637207" lon="11.1399681"><ele>9.0</ele><time>2026-04-06T08:28:26.271Z</time></trkpt><trkpt lat="42.7637531" lon="11.1401516"><ele>9.0</ele><time>2026-04-06T08:28:27.27Z</time></trkpt><trkpt lat="42.7637839" lon="11.1403189"><ele>9.2</ele><time>2026-04-06T08:28:28.271Z</time></trkpt><trkpt lat="42.7638091" lon="11.1404685"><ele>9.4</ele><time>2026-04-06T08:28:29.271Z</time></trkpt><trkpt lat="42.7638305" lon="11.140593"><ele>9.6</ele><time>2026-04-06T08:28:30.27Z</time></trkpt><trkpt lat="42.7638464" lon="11.1406937"><ele>9.8</ele><time>2026-04-06T08:28:31.271Z</time></trkpt><trkpt lat="42.7638507" lon="11.1407882"><ele>10.0</ele><time>2026-04-06T08:28:32.271Z</time></trkpt><trkpt lat="42.7638237" lon="11.140951"><ele>10.333333333333334</ele><time>2026-04-06T08:28:34.27Z</time></trkpt><trkpt lat="42.7638064" lon="11.141037"><ele>10.666666666666668</ele><time>2026-04-06T08:28:35.271Z</time></trkpt><trkpt lat="42.7637888" lon="11.1411221"><ele>11.0</ele><time>2026-04-06T08:28:36.271Z</time></trkpt><trkpt lat="42.7637701" lon="11.1412167"><ele>11.333333333333334</ele><time>2026-04-06T08:28:37.271Z</time></trkpt><trkpt lat="42.7637528" lon="11.1413217"><ele>11.666666666666666</ele><time>2026-04-06T08:28:38.271Z</time></trkpt><trkpt lat="42.7637362" lon="11.1414438"><ele>12.0</ele><time>2026-04-06T08:28:39.271Z</time></trkpt><trkpt lat="42.7637256" lon="11.1415896"><ele>12.25</ele><time>2026-04-06T08:28:40.271Z</time></trkpt><trkpt lat="42.7637268" lon="11.1417446"><ele>12.5</ele><time>2026-04-06T08:28:41.27Z</time></trkpt><trkpt lat="42.7637355" lon="11.1418972"><ele>12.75</ele><time>2026-04-06T08:28:42.271Z</time></trkpt><trkpt lat="42.7637481" lon="11.1420569"><ele>13.0</ele><time>2026-04-06T08:28:43.27Z</time></trkpt><trkpt lat="42.7637578" lon="11.1422224"><ele>13.75</ele><time>2026-04-06T08:28:44.271Z</time></trkpt><trkpt lat="42.7637652" lon="11.1423975"><ele>14.5</ele><time>2026-04-06T08:28:45.271Z</time></trkpt><trkpt lat="42.7637721" lon="11.1425624"><ele>15.25</ele><time>2026-04-06T08:28:46.271Z</time></trkpt><trkpt lat="42.7637776" lon="11.1427153"><ele>16.0</ele><time>2026-04-06T08:28:47.271Z</time></trkpt><trkpt lat="42.763783" lon="11.1428632"><ele>16.0</ele><time>2026-04-06T08:28:48.271Z</time></trkpt><trkpt lat="42.7637872" lon="11.1430152"><ele>16.0</ele><time>2026-04-06T08:28:49.271Z</time></trkpt><trkpt lat="42.7637889" lon="11.1431648"><ele>16.0</ele><time>2026-04-06T08:28:50.271Z</time></trkpt><trkpt lat="42.7637844" lon="11.1433089"><ele>16.0</ele><time>2026-04-06T08:28:51.271Z</time></trkpt><trkpt lat="42.7637677" lon="11.1434391"><ele>16.0</ele><time>2026-04-06T08:28:52.27Z</time></trkpt><trkpt lat="42.7637443" lon="11.143562"><ele>15.166666666666666</ele><time>2026-04-06T08:28:53.271Z</time></trkpt><trkpt lat="42.7637199" lon="11.1436736"><ele>14.333333333333332</ele><time>2026-04-06T08:28:54.271Z</time></trkpt><trkpt lat="42.7636977" lon="11.1437766"><ele>13.5</ele><time>2026-04-06T08:28:55.27Z</time></trkpt><trkpt lat="42.7636778" lon="11.1438907"><ele>12.666666666666666</ele><time>2026-04-06T08:28:56.27Z</time></trkpt><trkpt lat="42.7636666" lon="11.1440071"><ele>11.833333333333332</ele><time>2026-04-06T08:28:57.27Z</time></trkpt><trkpt lat="42.7636634" lon="11.1441177"><ele>11.0</ele><time>2026-04-06T08:28:58.271Z</time></trkpt><trkpt lat="42.7636703" lon="11.1442303"><ele>11.0</ele><time>2026-04-06T08:28:59.271Z</time></trkpt><trkpt lat="42.7636829" lon="11.144347"><ele>11.0</ele><time>2026-04-06T08:29:00.271Z</time></trkpt><trkpt lat="42.7636932" lon="11.1444582"><ele>11.0</ele><time>2026-04-06T08:29:01.271Z</time></trkpt><trkpt lat="42.7636958" lon="11.1445668"><ele>11.0</ele><time>2026-04-06T08:29:02.271Z</time></trkpt><trkpt lat="42.7636924" lon="11.1446717"><ele>11.0</ele><time>2026-04-06T08:29:03.27Z</time></trkpt><trkpt lat="42.7636781" lon="11.1447913"><ele>11.0</ele><time>2026-04-06T08:29:04.271Z</time></trkpt><trkpt lat="42.7636593" lon="11.1449124"><ele>10.8</ele><time>2026-04-06T08:29:05.271Z</time></trkpt><trkpt lat="42.7636381" lon="11.145036"><ele>10.600000000000001</ele><time>2026-04-06T08:29:06.271Z</time></trkpt><trkpt lat="42.7636204" lon="11.1451594"><ele>10.4</ele><time>2026-04-06T08:29:07.27Z</time></trkpt><trkpt lat="42.7636059" lon="11.1452687"><ele>10.2</ele><time>2026-04-06T08:29:08.27Z</time></trkpt><trkpt lat="42.7635916" lon="11.1453612"><ele>10.0</ele><time>2026-04-06T08:29:09.27Z</time></trkpt><trkpt lat="42.7635638" lon="11.1455215"><ele>10.0</ele><time>2026-04-06T08:29:11.271Z</time></trkpt><trkpt lat="42.7635506" lon="11.1456129"><ele>10.0</ele><time>2026-04-06T08:29:12.27Z</time></trkpt><trkpt lat="42.7635326" lon="11.1457253"><ele>10.0</ele><time>2026-04-06T08:29:13.271Z</time></trkpt><trkpt lat="42.7635119" lon="11.1458565"><ele>10.0</ele><time>2026-04-06T08:29:14.271Z</time></trkpt><trkpt lat="42.7634906" lon="11.1459911"><ele>10.0</ele><time>2026-04-06T08:29:15.27Z</time></trkpt><trkpt lat="42.7634705" lon="11.1461259"><ele>10.2</ele><time>2026-04-06T08:29:16.271Z</time></trkpt><trkpt lat="42.763452" lon="11.1462612"><ele>10.4</ele><time>2026-04-06T08:29:17.27Z</time></trkpt><trkpt lat="42.7634358" lon="11.1463988"><ele>10.600000000000001</ele><time>2026-04-06T08:29:18.271Z</time></trkpt><trkpt lat="42.7634195" lon="11.1465351"><ele>10.8</ele><time>2026-04-06T08:29:19.27Z</time></trkpt><trkpt lat="42.7634048" lon="11.1466777"><ele>11.0</ele><time>2026-04-06T08:29:20.271Z</time></trkpt><trkpt lat="42.7633898" lon="11.1468324"><ele>11.0</ele><time>2026-04-06T08:29:21.271Z</time></trkpt><trkpt lat="42.7633786" lon="11.1470011"><ele>11.0</ele><time>2026-04-06T08:29:22.271Z</time></trkpt><trkpt lat="42.7633664" lon="11.147179"><ele>11.0</ele><time>2026-04-06T08:29:23.271Z</time></trkpt><trkpt lat="42.7633509" lon="11.1473421"><ele>11.0</ele><time>2026-04-06T08:29:24.271Z</time></trkpt><trkpt lat="42.7633393" lon="11.1474828"><ele>11.166666666666666</ele><time>2026-04-06T08:29:25.27Z</time></trkpt><trkpt lat="42.7633284" lon="11.1476053"><ele>11.333333333333332</ele><time>2026-04-06T08:29:26.271Z</time></trkpt><trkpt lat="42.7633213" lon="11.1477159"><ele>11.5</ele><time>2026-04-06T08:29:27.271Z</time></trkpt><trkpt lat="42.7633151" lon="11.1478135"><ele>11.666666666666666</ele><time>2026-04-06T08:29:28.271Z</time></trkpt><trkpt lat="42.7633115" lon="11.1478992"><ele>11.833333333333334</ele><time>2026-04-06T08:29:29.271Z</time></trkpt><trkpt lat="42.7633044" lon="11.1480406"><ele>12.0</ele><time>2026-04-06T08:29:31.271Z</time></trkpt><trkpt lat="42.7632871" lon="11.1481461"><ele>12.0</ele><time>2026-04-06T08:29:34.271Z</time></trkpt><trkpt lat="42.7632964" lon="11.148231"><ele>12.0</ele><time>2026-04-06T08:29:43.271Z</time></trkpt><trkpt lat="42.7633306" lon="11.1481158"><ele>12.0</ele><time>2026-04-06T08:29:47.271Z</time></trkpt><trkpt lat="42.7633351" lon="11.1479982"><ele>12.0</ele><time>2026-04-06T08:29:49.271Z</time></trkpt><trkpt lat="42.7633414" lon="11.1478986"><ele>12.0</ele><time>2026-04-06T08:29:51.271Z</time></trkpt><trkpt lat="42.7633421" lon="11.1477978"><ele>12.0</ele><time>2026-04-06T08:29:53.271Z</time></trkpt><trkpt lat="42.7633458" lon="11.1476996"><ele>12.0</ele><time>2026-04-06T08:29:55.271Z</time></trkpt><trkpt lat="42.7633489" lon="11.1475821"><ele>12.0</ele><time>2026-04-06T08:29:57.271Z</time></trkpt><trkpt lat="42.7633539" lon="11.1474888"><ele>12.0</ele><time>2026-04-06T08:29:58.271Z</time></trkpt><trkpt lat="42.763363" lon="11.1473911"><ele>12.0</ele><time>2026-04-06T08:29:59.271Z</time></trkpt><trkpt lat="42.7633742" lon="11.147268"><ele>12.0</ele><time>2026-04-06T08:30:00.27Z</time></trkpt><trkpt lat="42.7633878" lon="11.1471247"><ele>12.0</ele><time>2026-04-06T08:30:01.271Z</time></trkpt><trkpt lat="42.7633991" lon="11.146968"><ele>11.75</ele><time>2026-04-06T08:30:02.27Z</time></trkpt><trkpt lat="42.7634138" lon="11.1467856"><ele>11.5</ele><time>2026-04-06T08:30:03.271Z</time></trkpt><trkpt lat="42.763433" lon="11.1465926"><ele>11.25</ele><time>2026-04-06T08:30:04.271Z</time></trkpt><trkpt lat="42.7634552" lon="11.1463927"><ele>11.0</ele><time>2026-04-06T08:30:05.271Z</time></trkpt><trkpt lat="42.7634847" lon="11.1461818"><ele>10.75</ele><time>2026-04-06T08:30:06.27Z</time></trkpt><trkpt lat="42.7635139" lon="11.145982"><ele>10.5</ele><time>2026-04-06T08:30:07.271Z</time></trkpt><trkpt lat="42.7635401" lon="11.1457998"><ele>10.25</ele><time>2026-04-06T08:30:08.271Z</time></trkpt><trkpt lat="42.7635683" lon="11.1456267"><ele>10.0</ele><time>2026-04-06T08:30:09.271Z</time></trkpt><trkpt lat="42.7635967" lon="11.1454633"><ele>10.0</ele><time>2026-04-06T08:30:10.27Z</time></trkpt><trkpt lat="42.7636222" lon="11.14531"><ele>10.0</ele><time>2026-04-06T08:30:11.271Z</time></trkpt><trkpt lat="42.7636437" lon="11.1451743"><ele>10.0</ele><time>2026-04-06T08:30:12.271Z</time></trkpt><trkpt lat="42.7636656" lon="11.1450471"><ele>10.0</ele><time>2026-04-06T08:30:13.271Z</time></trkpt><trkpt lat="42.7636851" lon="11.1449334"><ele>10.0</ele><time>2026-04-06T08:30:14.271Z</time></trkpt><trkpt lat="42.763701" lon="11.1448332"><ele>10.166666666666668</ele><time>2026-04-06T08:30:15.27Z</time></trkpt><trkpt lat="42.7637136" lon="11.1447416"><ele>10.333333333333334</ele><time>2026-04-06T08:30:16.27Z</time></trkpt><trkpt lat="42.763724" lon="11.1446532"><ele>10.5</ele><time>2026-04-06T08:30:17.271Z</time></trkpt><trkpt lat="42.7637291" lon="11.1445013"><ele>10.666666666666666</ele><time>2026-04-06T08:30:19.271Z</time></trkpt><trkpt lat="42.7637099" lon="11.1443731"><ele>10.833333333333332</ele><time>2026-04-06T08:30:21.271Z</time></trkpt><trkpt lat="42.7636853" lon="11.1442533"><ele>11.0</ele><time>2026-04-06T08:30:23.271Z</time></trkpt><trkpt lat="42.7636709" lon="11.1440923"><ele>11.0</ele><time>2026-04-06T08:30:25.27Z</time></trkpt><trkpt lat="42.7636753" lon="11.1439937"><ele>11.0</ele><time>2026-04-06T08:30:26.27Z</time></trkpt><trkpt lat="42.7636855" lon="11.143882"><ele>11.0</ele><time>2026-04-06T08:30:27.27Z</time></trkpt><trkpt lat="42.7637036" lon="11.1437672"><ele>11.0</ele><time>2026-04-06T08:30:28.271Z</time></trkpt><trkpt lat="42.7637242" lon="11.1436494"><ele>11.0</ele><time>2026-04-06T08:30:29.271Z</time></trkpt><trkpt lat="42.7637572" lon="11.1435196"><ele>11.0</ele><time>2026-04-06T08:30:30.271Z</time></trkpt><trkpt lat="42.7637809" lon="11.1433905"><ele>11.0</ele><time>2026-04-06T08:30:31.271Z</time></trkpt><trkpt lat="42.7637898" lon="11.1432432"><ele>11.0</ele><time>2026-04-06T08:30:32.271Z</time></trkpt><trkpt lat="42.7637883" lon="11.1430742"><ele>11.0</ele><time>2026-04-06T08:30:33.271Z</time></trkpt><trkpt lat="42.763784" lon="11.1429149"><ele>11.0</ele><time>2026-04-06T08:30:34.27Z</time></trkpt><trkpt lat="42.7637792" lon="11.1427641"><ele>11.4</ele><time>2026-04-06T08:30:35.271Z</time></trkpt><trkpt lat="42.7637757" lon="11.1426182"><ele>11.8</ele><time>2026-04-06T08:30:36.271Z</time></trkpt><trkpt lat="42.76377" lon="11.1424748"><ele>12.200000000000001</ele><time>2026-04-06T08:30:37.271Z</time></trkpt><trkpt lat="42.7637678" lon="11.1423361"><ele>12.600000000000001</ele><time>2026-04-06T08:30:38.27Z</time></trkpt><trkpt lat="42.7637654" lon="11.142199"><ele>13.0</ele><time>2026-04-06T08:30:39.271Z</time></trkpt><trkpt lat="42.7637623" lon="11.1420656"><ele>13.0</ele><time>2026-04-06T08:30:40.271Z</time></trkpt><trkpt lat="42.7637454" lon="11.1419279"><ele>13.0</ele><time>2026-04-06T08:30:41.271Z</time></trkpt><trkpt lat="42.7637323" lon="11.1417957"><ele>13.0</ele><time>2026-04-06T08:30:42.271Z</time></trkpt><trkpt lat="42.7637259" lon="11.1416514"><ele>13.0</ele><time>2026-04-06T08:30:43.271Z</time></trkpt><trkpt lat="42.7637322" lon="11.1415102"><ele>13.0</ele><time>2026-04-06T08:30:44.271Z</time></trkpt><trkpt lat="42.7637453" lon="11.1413852"><ele>12.833333333333332</ele><time>2026-04-06T08:30:45.271Z</time></trkpt><trkpt lat="42.7637604" lon="11.1412784"><ele>12.666666666666666</ele><time>2026-04-06T08:30:46.271Z</time></trkpt><trkpt lat="42.7637763" lon="11.1411845"><ele>12.5</ele><time>2026-04-06T08:30:47.27Z</time></trkpt><trkpt lat="42.7638257" lon="11.1410587"><ele>12.333333333333332</ele><time>2026-04-06T08:30:49.271Z</time></trkpt><trkpt lat="42.7638843" lon="11.1409977"><ele>12.166666666666666</ele><time>2026-04-06T08:31:03.27Z</time></trkpt><trkpt lat="42.7639303" lon="11.1410739"><ele>12.0</ele><time>2026-04-06T08:31:05.27Z</time></trkpt><trkpt lat="42.7639509" lon="11.1411602"><ele>12.0</ele><time>2026-04-06T08:31:06.27Z</time></trkpt><trkpt lat="42.7639645" lon="11.1412752"><ele>12.0</ele><time>2026-04-06T08:31:07.271Z</time></trkpt><trkpt lat="42.763983" lon="11.1414127"><ele>12.0</ele><time>2026-04-06T08:31:08.27Z</time></trkpt><trkpt lat="42.7640082" lon="11.1415548"><ele>12.0</ele><time>2026-04-06T08:31:09.27Z</time></trkpt><trkpt lat="42.7640448" lon="11.141712"><ele>12.0</ele><time>2026-04-06T08:31:10.271Z</time></trkpt><trkpt lat="42.7640986" lon="11.1418594"><ele>12.0</ele><time>2026-04-06T08:31:11.271Z</time></trkpt><trkpt lat="42.7641764" lon="11.1419941"><ele>12.0</ele><time>2026-04-06T08:31:12.271Z</time></trkpt><trkpt lat="42.7642799" lon="11.1420995"><ele>12.0</ele><time>2026-04-06T08:31:13.27Z</time></trkpt><trkpt lat="42.7643983" lon="11.1421826"><ele>12.0</ele><time>2026-04-06T08:31:14.27Z</time></trkpt><trkpt lat="42.7645279" lon="11.1422528"><ele>12.0</ele><time>2026-04-06T08:31:15.271Z</time></trkpt><trkpt lat="42.7646495" lon="11.1423185"><ele>12.0</ele><time>2026-04-06T08:31:16.271Z</time></trkpt><trkpt lat="42.7647662" lon="11.1423836"><ele>12.0</ele><time>2026-04-06T08:31:17.27Z</time></trkpt><trkpt lat="42.7648712" lon="11.1424446"><ele>12.0</ele><time>2026-04-06T08:31:18.271Z</time></trkpt><trkpt lat="42.7649655" lon="11.1425047"><ele>12.6</ele><time>2026-04-06T08:31:19.27Z</time></trkpt><trkpt lat="42.7650494" lon="11.1425813"><ele>13.2</ele><time>2026-04-06T08:31:20.271Z</time></trkpt><trkpt lat="42.7651109" lon="11.1426838"><ele>13.8</ele><time>2026-04-06T08:31:21.27Z</time></trkpt><trkpt lat="42.7651611" lon="11.1428021"><ele>14.4</ele><time>2026-04-06T08:31:22.271Z</time></trkpt><trkpt lat="42.7651843" lon="11.1429305"><ele>15.0</ele><time>2026-04-06T08:31:23.271Z</time></trkpt><trkpt lat="42.7651307" lon="11.143064"><ele>14.0</ele><time>2026-04-06T08:31:24.271Z</time></trkpt><trkpt lat="42.7650573" lon="11.143263"><ele>13.0</ele><time>2026-04-06T08:31:25.27Z</time></trkpt><trkpt lat="42.764989" lon="11.1434575"><ele>12.0</ele><time>2026-04-06T08:31:26.271Z</time></trkpt><trkpt lat="42.7649252" lon="11.1436544"><ele>12.0</ele><time>2026-04-06T08:31:27.271Z</time></trkpt><trkpt lat="42.7648565" lon="11.1438559"><ele>12.0</ele><time>2026-04-06T08:31:28.271Z</time></trkpt><trkpt lat="42.7647922" lon="11.1440477"><ele>12.0</ele><time>2026-04-06T08:31:29.271Z</time></trkpt><trkpt lat="42.7647367" lon="11.1442334"><ele>11.75</ele><time>2026-04-06T08:31:30.271Z</time></trkpt><trkpt lat="42.7646912" lon="11.1444158"><ele>11.5</ele><time>2026-04-06T08:31:31.271Z</time></trkpt><trkpt lat="42.7646591" lon="11.144601"><ele>11.25</ele><time>2026-04-06T08:31:32.271Z</time></trkpt><trkpt lat="42.7646415" lon="11.1447885"><ele>11.0</ele><time>2026-04-06T08:31:33.271Z</time></trkpt><trkpt lat="42.7646454" lon="11.1449539"><ele>11.4</ele><time>2026-04-06T08:31:34.271Z</time></trkpt><trkpt lat="42.7646622" lon="11.1451125"><ele>11.8</ele><time>2026-04-06T08:31:35.27Z</time></trkpt><trkpt lat="42.764683" lon="11.1452558"><ele>12.200000000000001</ele><time>2026-04-06T08:31:36.271Z</time></trkpt><trkpt lat="42.7647057" lon="11.1453869"><ele>12.600000000000001</ele><time>2026-04-06T08:31:37.271Z</time></trkpt><trkpt lat="42.7647251" lon="11.1455146"><ele>13.0</ele><time>2026-04-06T08:31:38.271Z</time></trkpt><trkpt lat="42.7647431" lon="11.1456375"><ele>13.166666666666666</ele><time>2026-04-06T08:31:39.271Z</time></trkpt><trkpt lat="42.7647568" lon="11.1457545"><ele>13.333333333333332</ele><time>2026-04-06T08:31:40.271Z</time></trkpt><trkpt lat="42.7647681" lon="11.1458654"><ele>13.5</ele><time>2026-04-06T08:31:41.27Z</time></trkpt><trkpt lat="42.7647802" lon="11.1459708"><ele>13.666666666666668</ele><time>2026-04-06T08:31:42.271Z</time></trkpt><trkpt lat="42.7647939" lon="11.1460806"><ele>13.833333333333334</ele><time>2026-04-06T08:31:43.27Z</time></trkpt><trkpt lat="42.7648098" lon="11.1461975"><ele>14.0</ele><time>2026-04-06T08:31:44.271Z</time></trkpt><trkpt lat="42.7648272" lon="11.1463189"><ele>14.0</ele><time>2026-04-06T08:31:45.271Z</time></trkpt><trkpt lat="42.764844" lon="11.1464493"><ele>13.999999999999998</ele><time>2026-04-06T08:31:46.27Z</time></trkpt><trkpt lat="42.7648635" lon="11.1465852"><ele>13.999999999999998</ele><time>2026-04-06T08:31:47.271Z</time></trkpt><trkpt lat="42.7648822" lon="11.1467312"><ele>14.0</ele><time>2026-04-06T08:31:48.27Z</time></trkpt><trkpt lat="42.764905" lon="11.146882"><ele>14.0</ele><time>2026-04-06T08:31:49.27Z</time></trkpt><trkpt lat="42.7649261" lon="11.1470309"><ele>13.6</ele><time>2026-04-06T08:31:50.271Z</time></trkpt><trkpt lat="42.7649439" lon="11.1471799"><ele>13.2</ele><time>2026-04-06T08:31:51.271Z</time></trkpt><trkpt lat="42.7649631" lon="11.1473265"><ele>12.799999999999999</ele><time>2026-04-06T08:31:52.27Z</time></trkpt><trkpt lat="42.7649854" lon="11.1474721"><ele>12.399999999999999</ele><time>2026-04-06T08:31:53.271Z</time></trkpt><trkpt lat="42.765004" lon="11.1476127"><ele>12.0</ele><time>2026-04-06T08:31:54.27Z</time></trkpt><trkpt lat="42.7650257" lon="11.1477556"><ele>11.75</ele><time>2026-04-06T08:31:55.27Z</time></trkpt><trkpt lat="42.7650463" lon="11.1479062"><ele>11.5</ele><time>2026-04-06T08:31:56.271Z</time></trkpt><trkpt lat="42.7650711" lon="11.1480627"><ele>11.25</ele><time>2026-04-06T08:31:57.27Z</time></trkpt><trkpt lat="42.7650926" lon="11.148221"><ele>11.0</ele><time>2026-04-06T08:31:58.271Z</time></trkpt><trkpt lat="42.76511" lon="11.1483594"><ele>11.0</ele><time>2026-04-06T08:31:59.271Z</time></trkpt><trkpt lat="42.7651234" lon="11.1484847"><ele>11.0</ele><time>2026-04-06T08:32:00.27Z</time></trkpt><trkpt lat="42.7651341" lon="11.1485939"><ele>11.0</ele><time>2026-04-06T08:32:01.271Z</time></trkpt><trkpt lat="42.7651472" lon="11.148691"><ele>11.0</ele><time>2026-04-06T08:32:02.271Z</time></trkpt><trkpt lat="42.7651601" lon="11.1487838"><ele>11.0</ele><time>2026-04-06T08:32:03.271Z</time></trkpt><trkpt lat="42.7651728" lon="11.1488837"><ele>11.0</ele><time>2026-04-06T08:32:04.27Z</time></trkpt><trkpt lat="42.7651881" lon="11.1489926"><ele>10.600000000000001</ele><time>2026-04-06T08:32:05.27Z</time></trkpt><trkpt lat="42.7652039" lon="11.1491122"><ele>10.200000000000001</ele><time>2026-04-06T08:32:06.271Z</time></trkpt><trkpt lat="42.7652204" lon="11.1492445"><ele>9.8</ele><time>2026-04-06T08:32:07.271Z</time></trkpt><trkpt lat="42.7652389" lon="11.1493895"><ele>9.4</ele><time>2026-04-06T08:32:08.271Z</time></trkpt><trkpt lat="42.7652606" lon="11.1495398"><ele>9.0</ele><time>2026-04-06T08:32:09.271Z</time></trkpt><trkpt lat="42.7652789" lon="11.1496976"><ele>9.0</ele><time>2026-04-06T08:32:10.27Z</time></trkpt><trkpt lat="42.7653058" lon="11.1498663"><ele>9.0</ele><time>2026-04-06T08:32:11.271Z</time></trkpt><trkpt lat="42.765334" lon="11.150033"><ele>9.0</ele><time>2026-04-06T08:32:12.271Z</time></trkpt><trkpt lat="42.7653586" lon="11.1502005"><ele>9.0</ele><time>2026-04-06T08:32:13.27Z</time></trkpt><trkpt lat="42.7653786" lon="11.1503542"><ele>9.2</ele><time>2026-04-06T08:32:14.271Z</time></trkpt><trkpt lat="42.7653995" lon="11.1504966"><ele>9.4</ele><time>2026-04-06T08:32:15.271Z</time></trkpt><trkpt lat="42.7654117" lon="11.1506245"><ele>9.6</ele><time>2026-04-06T08:32:16.271Z</time></trkpt><trkpt lat="42.7654245" lon="11.150747"><ele>9.8</ele><time>2026-04-06T08:32:17.271Z</time></trkpt><trkpt lat="42.7654393" lon="11.1508703"><ele>10.0</ele><time>2026-04-06T08:32:18.271Z</time></trkpt><trkpt lat="42.765457" lon="11.1510053"><ele>10.0</ele><time>2026-04-06T08:32:19.271Z</time></trkpt><trkpt lat="42.7654773" lon="11.1511481"><ele>10.0</ele><time>2026-04-06T08:32:20.27Z</time></trkpt><trkpt lat="42.7654987" lon="11.1513029"><ele>10.0</ele><time>2026-04-06T08:32:21.271Z</time></trkpt><trkpt lat="42.7655213" lon="11.1514674"><ele>10.0</ele><time>2026-04-06T08:32:22.271Z</time></trkpt><trkpt lat="42.765545" lon="11.1516381"><ele>10.25</ele><time>2026-04-06T08:32:23.271Z</time></trkpt><trkpt lat="42.7655685" lon="11.1518085"><ele>10.5</ele><time>2026-04-06T08:32:24.27Z</time></trkpt><trkpt lat="42.7655905" lon="11.151983"><ele>10.75</ele><time>2026-04-06T08:32:25.271Z</time></trkpt><trkpt lat="42.765612" lon="11.1521367"><ele>11.0</ele><time>2026-04-06T08:32:26.271Z</time></trkpt><trkpt lat="42.7656336" lon="11.1522797"><ele>11.166666666666666</ele><time>2026-04-06T08:32:27.27Z</time></trkpt><trkpt lat="42.7656608" lon="11.1524114"><ele>11.333333333333332</ele><time>2026-04-06T08:32:28.271Z</time></trkpt><trkpt lat="42.7656885" lon="11.1525289"><ele>11.5</ele><time>2026-04-06T08:32:29.271Z</time></trkpt><trkpt lat="42.7657186" lon="11.1526258"><ele>11.666666666666666</ele><time>2026-04-06T08:32:30.271Z</time></trkpt><trkpt lat="42.7657427" lon="11.1527309"><ele>11.833333333333334</ele><time>2026-04-06T08:32:31.27Z</time></trkpt><trkpt lat="42.7657593" lon="11.1528464"><ele>12.0</ele><time>2026-04-06T08:32:32.271Z</time></trkpt><trkpt lat="42.7657813" lon="11.1529654"><ele>12.0</ele><time>2026-04-06T08:32:33.271Z</time></trkpt><trkpt lat="42.7658095" lon="11.1530866"><ele>12.0</ele><time>2026-04-06T08:32:34.271Z</time></trkpt><trkpt lat="42.7658566" lon="11.1531964"><ele>12.0</ele><time>2026-04-06T08:32:35.271Z</time></trkpt><trkpt lat="42.765927" lon="11.1532911"><ele>12.0</ele><time>2026-04-06T08:32:36.271Z</time></trkpt><trkpt lat="42.7659998" lon="11.1533772"><ele>12.0</ele><time>2026-04-06T08:32:37.271Z</time></trkpt><trkpt lat="42.766064" lon="11.153478"><ele>12.0</ele><time>2026-04-06T08:32:38.27Z</time></trkpt><trkpt lat="42.7660919" lon="11.153588"><ele>12.0</ele><time>2026-04-06T08:32:39.271Z</time></trkpt><trkpt lat="42.766096" lon="11.1537101"><ele>12.0</ele><time>2026-04-06T08:32:40.271Z</time></trkpt><trkpt lat="42.766083" lon="11.1538564"><ele>12.0</ele><time>2026-04-06T08:32:41.27Z</time></trkpt><trkpt lat="42.7660679" lon="11.1540268"><ele>12.0</ele><time>2026-04-06T08:32:42.271Z</time></trkpt><trkpt lat="42.7660532" lon="11.1542225"><ele>12.0</ele><time>2026-04-06T08:32:43.271Z</time></trkpt><trkpt lat="42.7660388" lon="11.1544408"><ele>12.0</ele><time>2026-04-06T08:32:44.271Z</time></trkpt><trkpt lat="42.7660334" lon="11.1546761"><ele>12.0</ele><time>2026-04-06T08:32:45.271Z</time></trkpt><trkpt lat="42.7660331" lon="11.1549152"><ele>11.666666666666666</ele><time>2026-04-06T08:32:46.27Z</time></trkpt><trkpt lat="42.7660445" lon="11.155152"><ele>11.333333333333332</ele><time>2026-04-06T08:32:47.271Z</time></trkpt><trkpt lat="42.7660689" lon="11.1553906"><ele>11.0</ele><time>2026-04-06T08:32:48.271Z</time></trkpt><trkpt lat="42.7660997" lon="11.1556225"><ele>11.333333333333332</ele><time>2026-04-06T08:32:49.271Z</time></trkpt><trkpt lat="42.7661317" lon="11.155856"><ele>11.666666666666666</ele><time>2026-04-06T08:32:50.27Z</time></trkpt><trkpt lat="42.7661649" lon="11.1560846"><ele>12.0</ele><time>2026-04-06T08:32:51.271Z</time></trkpt><trkpt lat="42.7661973" lon="11.1563138"><ele>12.0</ele><time>2026-04-06T08:32:52.27Z</time></trkpt><trkpt lat="42.7662296" lon="11.156542"><ele>12.0</ele><time>2026-04-06T08:32:53.271Z</time></trkpt><trkpt lat="42.7662616" lon="11.1567685"><ele>12.0</ele><time>2026-04-06T08:32:54.27Z</time></trkpt><trkpt lat="42.7662949" lon="11.1569972"><ele>12.0</ele><time>2026-04-06T08:32:55.271Z</time></trkpt><trkpt lat="42.7663232" lon="11.1572155"><ele>12.0</ele><time>2026-04-06T08:32:56.271Z</time></trkpt><trkpt lat="42.7663498" lon="11.1574094"><ele>12.0</ele><time>2026-04-06T08:32:57.27Z</time></trkpt><trkpt lat="42.7663789" lon="11.1575882"><ele>12.0</ele><time>2026-04-06T08:32:58.271Z</time></trkpt><trkpt lat="42.7664066" lon="11.1577529"><ele>12.0</ele><time>2026-04-06T08:32:59.27Z</time></trkpt><trkpt lat="42.766422" lon="11.1578987"><ele>12.0</ele><time>2026-04-06T08:33:00.27Z</time></trkpt><trkpt lat="42.7664245" lon="11.1580443"><ele>12.0</ele><time>2026-04-06T08:33:01.27Z</time></trkpt><trkpt lat="42.7664342" lon="11.1582064"><ele>12.0</ele><time>2026-04-06T08:33:02.27Z</time></trkpt><trkpt lat="42.7664625" lon="11.1583681"><ele>12.333333333333332</ele><time>2026-04-06T08:33:03.271Z</time></trkpt><trkpt lat="42.7665071" lon="11.1585542"><ele>12.666666666666666</ele><time>2026-04-06T08:33:04.27Z</time></trkpt><trkpt lat="42.7665509" lon="11.1587557"><ele>13.0</ele><time>2026-04-06T08:33:05.271Z</time></trkpt><trkpt lat="42.7665988" lon="11.1589621"><ele>13.666666666666666</ele><time>2026-04-06T08:33:06.271Z</time></trkpt><trkpt lat="42.7666523" lon="11.1591787"><ele>14.333333333333332</ele><time>2026-04-06T08:33:07.271Z</time></trkpt><trkpt lat="42.7667311" lon="11.1594056"><ele>15.0</ele><time>2026-04-06T08:33:08.271Z</time></trkpt><trkpt lat="42.7668079" lon="11.1596169"><ele>14.75</ele><time>2026-04-06T08:33:09.271Z</time></trkpt><trkpt lat="42.7668848" lon="11.1598038"><ele>14.5</ele><time>2026-04-06T08:33:10.271Z</time></trkpt><trkpt lat="42.7669654" lon="11.1599697"><ele>14.25</ele><time>2026-04-06T08:33:11.271Z</time></trkpt><trkpt lat="42.7670472" lon="11.1601102"><ele>14.0</ele><time>2026-04-06T08:33:12.271Z</time></trkpt><trkpt lat="42.7671277" lon="11.1602343"><ele>14.6</ele><time>2026-04-06T08:33:13.271Z</time></trkpt><trkpt lat="42.7671959" lon="11.160336"><ele>15.2</ele><time>2026-04-06T08:33:14.271Z</time></trkpt><trkpt lat="42.7672544" lon="11.1604254"><ele>15.799999999999999</ele><time>2026-04-06T08:33:15.271Z</time></trkpt><trkpt lat="42.7672984" lon="11.1604901"><ele>16.4</ele><time>2026-04-06T08:33:16.271Z</time></trkpt><trkpt lat="42.7673642" lon="11.1605859"><ele>17.0</ele><time>2026-04-06T08:33:18.27Z</time></trkpt><trkpt lat="42.7674535" lon="11.1607047"><ele>17.57142857142857</ele><time>2026-04-06T08:33:20.271Z</time></trkpt><trkpt lat="42.767497" lon="11.160767"><ele>18.142857142857142</ele><time>2026-04-06T08:33:21.271Z</time></trkpt><trkpt lat="42.7675484" lon="11.1608526"><ele>18.714285714285715</ele><time>2026-04-06T08:33:23.271Z</time></trkpt><trkpt lat="42.7675239" lon="11.1609385"><ele>19.285714285714285</ele><time>2026-04-06T08:33:26.27Z</time></trkpt><trkpt lat="42.7674647" lon="11.1609941"><ele>19.857142857142858</ele><time>2026-04-06T08:33:29.271Z</time></trkpt><trkpt lat="42.7674117" lon="11.1610561"><ele>20.428571428571427</ele><time>2026-04-06T08:33:34.27Z</time></trkpt><trkpt lat="42.7673623" lon="11.1611165"><ele>21.0</ele><time>2026-04-06T08:33:36.271Z</time></trkpt><trkpt lat="42.7673018" lon="11.1612045"><ele>21.0</ele><time>2026-04-06T08:33:38.271Z</time></trkpt><trkpt lat="42.7672391" lon="11.1612874"><ele>21.0</ele><time>2026-04-06T08:33:40.271Z</time></trkpt><trkpt lat="42.7671846" lon="11.1613498"><ele>21.0</ele><time>2026-04-06T08:33:44.27Z</time></trkpt><trkpt lat="42.7672567" lon="11.1613355"><ele>21.0</ele><time>2026-04-06T08:33:50.271Z</time></trkpt><trkpt lat="42.7673021" lon="11.1612415"><ele>21.0</ele><time>2026-04-06T08:33:52.271Z</time></trkpt><trkpt lat="42.7673836" lon="11.1611198"><ele>21.0</ele><time>2026-04-06T08:33:54.271Z</time></trkpt><trkpt lat="42.7674323" lon="11.1610574"><ele>21.0</ele><time>2026-04-06T08:33:55.271Z</time></trkpt><trkpt lat="42.7675092" lon="11.1609616"><ele>21.0</ele><time>2026-04-06T08:33:57.271Z</time></trkpt><trkpt lat="42.7675661" lon="11.1609112"><ele>21.0</ele><time>2026-04-06T08:34:00.271Z</time></trkpt><trkpt lat="42.7676333" lon="11.1609419"><ele>21.0</ele><time>2026-04-06T08:34:05.271Z</time></trkpt><trkpt lat="42.7677253" lon="11.1610723"><ele>21.0</ele><time>2026-04-06T08:34:07.271Z</time></trkpt><trkpt lat="42.767779" lon="11.1611518"><ele>21.0</ele><time>2026-04-06T08:34:08.27Z</time></trkpt><trkpt lat="42.7678488" lon="11.1612533"><ele>21.0</ele><time>2026-04-06T08:34:09.271Z</time></trkpt><trkpt lat="42.7679276" lon="11.1613603"><ele>21.0</ele><time>2026-04-06T08:34:10.271Z</time></trkpt><trkpt lat="42.768016" lon="11.1614797"><ele>21.0</ele><time>2026-04-06T08:34:11.27Z</time></trkpt><trkpt lat="42.7681158" lon="11.1616106"><ele>21.333333333333332</ele><time>2026-04-06T08:34:12.27Z</time></trkpt><trkpt lat="42.7682187" lon="11.1617543"><ele>21.666666666666664</ele><time>2026-04-06T08:34:13.271Z</time></trkpt><trkpt lat="42.7683304" lon="11.1619083"><ele>22.0</ele><time>2026-04-06T08:34:14.271Z</time></trkpt><trkpt lat="42.768453" lon="11.162075"><ele>21.666666666666664</ele><time>2026-04-06T08:34:15.27Z</time></trkpt><trkpt lat="42.7685831" lon="11.162254"><ele>21.333333333333332</ele><time>2026-04-06T08:34:16.27Z</time></trkpt><trkpt lat="42.7687103" lon="11.1624304"><ele>21.0</ele><time>2026-04-06T08:34:17.271Z</time></trkpt><trkpt lat="42.768842" lon="11.1626073"><ele>21.0</ele><time>2026-04-06T08:34:18.271Z</time></trkpt><trkpt lat="42.768976" lon="11.1627894"><ele>21.0</ele><time>2026-04-06T08:34:19.271Z</time></trkpt><trkpt lat="42.7691114" lon="11.1629753"><ele>21.0</ele><time>2026-04-06T08:34:20.27Z</time></trkpt><trkpt lat="42.7692494" lon="11.163158"><ele>21.333333333333332</ele><time>2026-04-06T08:34:21.271Z</time></trkpt><trkpt lat="42.7693893" lon="11.1633473"><ele>21.666666666666664</ele><time>2026-04-06T08:34:22.27Z</time></trkpt><trkpt lat="42.7695266" lon="11.1635316"><ele>22.0</ele><time>2026-04-06T08:34:23.27Z</time></trkpt><trkpt lat="42.7696592" lon="11.163718"><ele>22.0</ele><time>2026-04-06T08:34:24.271Z</time></trkpt><trkpt lat="42.7697878" lon="11.1638956"><ele>22.0</ele><time>2026-04-06T08:34:25.271Z</time></trkpt><trkpt lat="42.7699092" lon="11.1640647"><ele>22.0</ele><time>2026-04-06T08:34:26.271Z</time></trkpt><trkpt lat="42.7700259" lon="11.1642232"><ele>21.333333333333332</ele><time>2026-04-06T08:34:27.271Z</time></trkpt><trkpt lat="42.7701356" lon="11.1643773"><ele>20.666666666666668</ele><time>2026-04-06T08:34:28.271Z</time></trkpt><trkpt lat="42.7702432" lon="11.1645269"><ele>20.0</ele><time>2026-04-06T08:34:29.271Z</time></trkpt><trkpt lat="42.770355" lon="11.1646787"><ele>21.333333333333336</ele><time>2026-04-06T08:34:30.27Z</time></trkpt><trkpt lat="42.7704664" lon="11.1648351"><ele>22.666666666666668</ele><time>2026-04-06T08:34:31.271Z</time></trkpt><trkpt lat="42.7705791" lon="11.1649957"><ele>24.0</ele><time>2026-04-06T08:34:32.271Z</time></trkpt><trkpt lat="42.7706957" lon="11.1651575"><ele>24.0</ele><time>2026-04-06T08:34:33.271Z</time></trkpt><trkpt lat="42.7708149" lon="11.1653172"><ele>24.0</ele><time>2026-04-06T08:34:34.271Z</time></trkpt><trkpt lat="42.7709412" lon="11.1654875"><ele>24.0</ele><time>2026-04-06T08:34:35.271Z</time></trkpt><trkpt lat="42.7710679" lon="11.1656609"><ele>25.0</ele><time>2026-04-06T08:34:36.271Z</time></trkpt><trkpt lat="42.7711956" lon="11.1658327"><ele>26.0</ele><time>2026-04-06T08:34:37.271Z</time></trkpt><trkpt lat="42.7713246" lon="11.1660073"><ele>27.0</ele><time>2026-04-06T08:34:38.27Z</time></trkpt><trkpt lat="42.7714519" lon="11.1661857"><ele>27.0</ele><time>2026-04-06T08:34:39.271Z</time></trkpt><trkpt lat="42.7715783" lon="11.1663632"><ele>27.0</ele><time>2026-04-06T08:34:40.27Z</time></trkpt><trkpt lat="42.7717064" lon="11.1665341"><ele>27.0</ele><time>2026-04-06T08:34:41.271Z</time></trkpt><trkpt lat="42.7718346" lon="11.1667089"><ele>27.666666666666664</ele><time>2026-04-06T08:34:42.271Z</time></trkpt><trkpt lat="42.7719616" lon="11.1668835"><ele>28.333333333333332</ele><time>2026-04-06T08:34:43.271Z</time></trkpt><trkpt lat="42.7720868" lon="11.1670568"><ele>29.0</ele><time>2026-04-06T08:34:44.27Z</time></trkpt><trkpt lat="42.7722168" lon="11.1672324"><ele>29.0</ele><time>2026-04-06T08:34:45.271Z</time></trkpt><trkpt lat="42.7723456" lon="11.1674119"><ele>29.0</ele><time>2026-04-06T08:34:46.27Z</time></trkpt><trkpt lat="42.7724772" lon="11.1675942"><ele>29.0</ele><time>2026-04-06T08:34:47.271Z</time></trkpt><trkpt lat="42.7726102" lon="11.1677818"><ele>28.666666666666664</ele><time>2026-04-06T08:34:48.27Z</time></trkpt><trkpt lat="42.7727455" lon="11.1679639"><ele>28.333333333333336</ele><time>2026-04-06T08:34:49.271Z</time></trkpt><trkpt lat="42.7728865" lon="11.1681519"><ele>28.0</ele><time>2026-04-06T08:34:50.27Z</time></trkpt><trkpt lat="42.7730259" lon="11.1683415"><ele>28.0</ele><time>2026-04-06T08:34:51.27Z</time></trkpt><trkpt lat="42.7731653" lon="11.1685302"><ele>28.0</ele><time>2026-04-06T08:34:52.271Z</time></trkpt><trkpt lat="42.7733023" lon="11.1687181"><ele>28.0</ele><time>2026-04-06T08:34:53.27Z</time></trkpt><trkpt lat="42.773439" lon="11.168906"><ele>28.333333333333336</ele><time>2026-04-06T08:34:54.271Z</time></trkpt><trkpt lat="42.7735773" lon="11.1690898"><ele>28.666666666666664</ele><time>2026-04-06T08:34:55.271Z</time></trkpt><trkpt lat="42.773711" lon="11.1692725"><ele>29.0</ele><time>2026-04-06T08:34:56.271Z</time></trkpt><trkpt lat="42.7738463" lon="11.1694556"><ele>29.0</ele><time>2026-04-06T08:34:57.271Z</time></trkpt><trkpt lat="42.7739787" lon="11.1696406"><ele>29.0</ele><time>2026-04-06T08:34:58.27Z</time></trkpt><trkpt lat="42.7741079" lon="11.1698243"><ele>29.0</ele><time>2026-04-06T08:34:59.271Z</time></trkpt><trkpt lat="42.7742429" lon="11.1700089"><ele>29.0</ele><time>2026-04-06T08:35:00.27Z</time></trkpt><trkpt lat="42.774375" lon="11.1701896"><ele>29.0</ele><time>2026-04-06T08:35:01.27Z</time></trkpt><trkpt lat="42.774505" lon="11.1703718"><ele>29.0</ele><time>2026-04-06T08:35:02.271Z</time></trkpt><trkpt lat="42.774636" lon="11.1705537"><ele>29.0</ele><time>2026-04-06T08:35:03.271Z</time></trkpt><trkpt lat="42.7747675" lon="11.1707349"><ele>29.0</ele><time>2026-04-06T08:35:04.271Z</time></trkpt><trkpt lat="42.774899" lon="11.1709173"><ele>29.0</ele><time>2026-04-06T08:35:05.271Z</time></trkpt><trkpt lat="42.7750333" lon="11.1711043"><ele>29.0</ele><time>2026-04-06T08:35:06.27Z</time></trkpt><trkpt lat="42.7751695" lon="11.1712897"><ele>29.0</ele><time>2026-04-06T08:35:07.271Z</time></trkpt><trkpt lat="42.7753039" lon="11.1714773"><ele>29.0</ele><time>2026-04-06T08:35:08.271Z</time></trkpt><trkpt lat="42.7754394" lon="11.1716632"><ele>29.666666666666664</ele><time>2026-04-06T08:35:09.271Z</time></trkpt><trkpt lat="42.7755761" lon="11.17185"><ele>30.333333333333336</ele><time>2026-04-06T08:35:10.271Z</time></trkpt><trkpt lat="42.7757093" lon="11.1720343"><ele>31.0</ele><time>2026-04-06T08:35:11.271Z</time></trkpt><trkpt lat="42.7758352" lon="11.1722088"><ele>31.0</ele><time>2026-04-06T08:35:12.271Z</time></trkpt><trkpt lat="42.7759551" lon="11.1723716"><ele>31.0</ele><time>2026-04-06T08:35:13.27Z</time></trkpt><trkpt lat="42.7760719" lon="11.1725283"><ele>31.0</ele><time>2026-04-06T08:35:14.271Z</time></trkpt><trkpt lat="42.7761845" lon="11.1726778"><ele>31.0</ele><time>2026-04-06T08:35:15.27Z</time></trkpt><trkpt lat="42.7762911" lon="11.1728219"><ele>31.0</ele><time>2026-04-06T08:35:16.271Z</time></trkpt><trkpt lat="42.7764001" lon="11.1729609"><ele>31.0</ele><time>2026-04-06T08:35:17.271Z</time></trkpt><trkpt lat="42.7765099" lon="11.1731069"><ele>32.0</ele><time>2026-04-06T08:35:18.271Z</time></trkpt><trkpt lat="42.7766204" lon="11.1732585"><ele>33.0</ele><time>2026-04-06T08:35:19.271Z</time></trkpt><trkpt lat="42.7767329" lon="11.1734144"><ele>34.0</ele><time>2026-04-06T08:35:20.271Z</time></trkpt><trkpt lat="42.7768488" lon="11.1735768"><ele>33.333333333333336</ele><time>2026-04-06T08:35:21.271Z</time></trkpt><trkpt lat="42.7769683" lon="11.1737397"><ele>32.666666666666664</ele><time>2026-04-06T08:35:22.271Z</time></trkpt><trkpt lat="42.777089" lon="11.1739063"><ele>32.0</ele><time>2026-04-06T08:35:23.271Z</time></trkpt><trkpt lat="42.7772121" lon="11.1740721"><ele>33.666666666666664</ele><time>2026-04-06T08:35:24.271Z</time></trkpt><trkpt lat="42.7773366" lon="11.1742425"><ele>35.333333333333336</ele><time>2026-04-06T08:35:25.271Z</time></trkpt><trkpt lat="42.7774644" lon="11.174414"><ele>37.0</ele><time>2026-04-06T08:35:26.271Z</time></trkpt><trkpt lat="42.7775886" lon="11.174585"><ele>37.0</ele><time>2026-04-06T08:35:27.271Z</time></trkpt><trkpt lat="42.7777116" lon="11.1747581"><ele>37.0</ele><time>2026-04-06T08:35:28.271Z</time></trkpt><trkpt lat="42.7778324" lon="11.1749306"><ele>37.0</ele><time>2026-04-06T08:35:29.271Z</time></trkpt><trkpt lat="42.7779543" lon="11.1750998"><ele>37.333333333333336</ele><time>2026-04-06T08:35:30.27Z</time></trkpt><trkpt lat="42.7780786" lon="11.1752697"><ele>37.666666666666664</ele><time>2026-04-06T08:35:31.27Z</time></trkpt><trkpt lat="42.7782035" lon="11.1754409"><ele>38.0</ele><time>2026-04-06T08:35:32.271Z</time></trkpt><trkpt lat="42.7783301" lon="11.1756137"><ele>37.33333333333333</ele><time>2026-04-06T08:35:33.271Z</time></trkpt><trkpt lat="42.7784568" lon="11.1757862"><ele>36.666666666666664</ele><time>2026-04-06T08:35:34.271Z</time></trkpt><trkpt lat="42.7785743" lon="11.175952"><ele>36.0</ele><time>2026-04-06T08:35:35.271Z</time></trkpt><trkpt lat="42.7786908" lon="11.1761075"><ele>36.333333333333336</ele><time>2026-04-06T08:35:36.271Z</time></trkpt><trkpt lat="42.7788005" lon="11.1762645"><ele>36.66666666666667</ele><time>2026-04-06T08:35:37.27Z</time></trkpt><trkpt lat="42.7789106" lon="11.1764162"><ele>37.0</ele><time>2026-04-06T08:35:38.271Z</time></trkpt><trkpt lat="42.7790222" lon="11.1765657"><ele>37.0</ele><time>2026-04-06T08:35:39.271Z</time></trkpt><trkpt lat="42.7791367" lon="11.1767172"><ele>37.0</ele><time>2026-04-06T08:35:40.27Z</time></trkpt><trkpt lat="42.7792463" lon="11.1768702"><ele>37.0</ele><time>2026-04-06T08:35:41.27Z</time></trkpt><trkpt lat="42.7793609" lon="11.1770238"><ele>36.66666666666667</ele><time>2026-04-06T08:35:42.271Z</time></trkpt><trkpt lat="42.7794724" lon="11.1771777"><ele>36.333333333333336</ele><time>2026-04-06T08:35:43.271Z</time></trkpt><trkpt lat="42.7795832" lon="11.1773304"><ele>36.0</ele><time>2026-04-06T08:35:44.271Z</time></trkpt><trkpt lat="42.779686" lon="11.1774737"><ele>36.75</ele><time>2026-04-06T08:35:45.27Z</time></trkpt><trkpt lat="42.7797794" lon="11.1776032"><ele>37.5</ele><time>2026-04-06T08:35:46.271Z</time></trkpt><trkpt lat="42.779871" lon="11.1777263"><ele>38.25</ele><time>2026-04-06T08:35:47.271Z</time></trkpt><trkpt lat="42.7799544" lon="11.1778391"><ele>39.0</ele><time>2026-04-06T08:35:48.271Z</time></trkpt><trkpt lat="42.7800321" lon="11.1779413"><ele>39.0</ele><time>2026-04-06T08:35:49.271Z</time></trkpt><trkpt lat="42.7801026" lon="11.1780346"><ele>39.0</ele><time>2026-04-06T08:35:50.27Z</time></trkpt><trkpt lat="42.7801696" lon="11.1781256"><ele>39.0</ele><time>2026-04-06T08:35:51.27Z</time></trkpt><trkpt lat="42.7802314" lon="11.1782091"><ele>39.0</ele><time>2026-04-06T08:35:52.271Z</time></trkpt><trkpt lat="42.7802901" lon="11.1782821"><ele>39.0</ele><time>2026-04-06T08:35:53.271Z</time></trkpt><trkpt lat="42.7803534" lon="11.1783383"><ele>39.0</ele><time>2026-04-06T08:35:54.271Z</time></trkpt><trkpt lat="42.7804276" lon="11.1783747"><ele>38.8</ele><time>2026-04-06T08:35:55.271Z</time></trkpt><trkpt lat="42.7805073" lon="11.1783863"><ele>38.599999999999994</ele><time>2026-04-06T08:35:56.271Z</time></trkpt><trkpt lat="42.7806081" lon="11.1783893"><ele>38.4</ele><time>2026-04-06T08:35:57.271Z</time></trkpt><trkpt lat="42.7807182" lon="11.1784038"><ele>38.199999999999996</ele><time>2026-04-06T08:35:58.271Z</time></trkpt><trkpt lat="42.7808421" lon="11.1784317"><ele>38.0</ele><time>2026-04-06T08:35:59.27Z</time></trkpt><trkpt lat="42.780971" lon="11.1784822"><ele>38.5</ele><time>2026-04-06T08:36:00.271Z</time></trkpt><trkpt lat="42.7811004" lon="11.1785553"><ele>39.0</ele><time>2026-04-06T08:36:01.27Z</time></trkpt><trkpt lat="42.7812289" lon="11.1786374"><ele>39.5</ele><time>2026-04-06T08:36:02.271Z</time></trkpt><trkpt lat="42.7813442" lon="11.1787257"><ele>40.0</ele><time>2026-04-06T08:36:03.27Z</time></trkpt><trkpt lat="42.7814427" lon="11.178809"><ele>40.0</ele><time>2026-04-06T08:36:04.27Z</time></trkpt><trkpt lat="42.7815215" lon="11.1789041"><ele>40.0</ele><time>2026-04-06T08:36:05.27Z</time></trkpt><trkpt lat="42.7815838" lon="11.1790003"><ele>40.0</ele><time>2026-04-06T08:36:06.271Z</time></trkpt><trkpt lat="42.7816505" lon="11.1790884"><ele>40.0</ele><time>2026-04-06T08:36:07.271Z</time></trkpt><trkpt lat="42.7817245" lon="11.1791341"><ele>40.0</ele><time>2026-04-06T08:36:08.27Z</time></trkpt><trkpt lat="42.7818122" lon="11.1791447"><ele>39.5</ele><time>2026-04-06T08:36:09.271Z</time></trkpt><trkpt lat="42.7819077" lon="11.1791575"><ele>39.0</ele><time>2026-04-06T08:36:10.271Z</time></trkpt><trkpt lat="42.7820189" lon="11.1792071"><ele>38.5</ele><time>2026-04-06T08:36:11.271Z</time></trkpt><trkpt lat="42.7821408" lon="11.1792764"><ele>38.0</ele><time>2026-04-06T08:36:12.271Z</time></trkpt><trkpt lat="42.7822694" lon="11.1793547"><ele>38.0</ele><time>2026-04-06T08:36:13.271Z</time></trkpt><trkpt lat="42.7824039" lon="11.1794379"><ele>38.0</ele><time>2026-04-06T08:36:14.27Z</time></trkpt><trkpt lat="42.7825493" lon="11.1795235"><ele>38.0</ele><time>2026-04-06T08:36:15.271Z</time></trkpt><trkpt lat="42.7827057" lon="11.1796123"><ele>39.33333333333333</ele><time>2026-04-06T08:36:16.271Z</time></trkpt><trkpt lat="42.782868" lon="11.1796963"><ele>40.666666666666664</ele><time>2026-04-06T08:36:17.271Z</time></trkpt><trkpt lat="42.7830381" lon="11.1797705"><ele>42.0</ele><time>2026-04-06T08:36:18.27Z</time></trkpt><trkpt lat="42.7832182" lon="11.1798345"><ele>40.0</ele><time>2026-04-06T08:36:19.27Z</time></trkpt><trkpt lat="42.7833999" lon="11.1798938"><ele>38.0</ele><time>2026-04-06T08:36:20.271Z</time></trkpt><trkpt lat="42.7835878" lon="11.1799432"><ele>36.0</ele><time>2026-04-06T08:36:21.271Z</time></trkpt><trkpt lat="42.7837823" lon="11.179985"><ele>35.333333333333336</ele><time>2026-04-06T08:36:22.271Z</time></trkpt><trkpt lat="42.7839841" lon="11.1800127"><ele>34.66666666666667</ele><time>2026-04-06T08:36:23.271Z</time></trkpt><trkpt lat="42.7841906" lon="11.1800238"><ele>34.0</ele><time>2026-04-06T08:36:24.271Z</time></trkpt><trkpt lat="42.7844022" lon="11.1800197"><ele>33.333333333333336</ele><time>2026-04-06T08:36:25.271Z</time></trkpt><trkpt lat="42.7846184" lon="11.1800085"><ele>32.666666666666664</ele><time>2026-04-06T08:36:26.271Z</time></trkpt><trkpt lat="42.7848343" lon="11.179995"><ele>32.0</ele><time>2026-04-06T08:36:27.271Z</time></trkpt><trkpt lat="42.7850531" lon="11.1799727"><ele>30.666666666666664</ele><time>2026-04-06T08:36:28.27Z</time></trkpt><trkpt lat="42.7852711" lon="11.1799477"><ele>29.333333333333336</ele><time>2026-04-06T08:36:29.271Z</time></trkpt><trkpt lat="42.7854905" lon="11.1799208"><ele>28.0</ele><time>2026-04-06T08:36:30.271Z</time></trkpt><trkpt lat="42.7857094" lon="11.179895"><ele>28.0</ele><time>2026-04-06T08:36:31.271Z</time></trkpt><trkpt lat="42.7859304" lon="11.1798729"><ele>28.0</ele><time>2026-04-06T08:36:32.271Z</time></trkpt><trkpt lat="42.7861489" lon="11.1798504"><ele>28.0</ele><time>2026-04-06T08:36:33.271Z</time></trkpt><trkpt lat="42.786368" lon="11.1798263"><ele>29.333333333333336</ele><time>2026-04-06T08:36:34.271Z</time></trkpt><trkpt lat="42.7865867" lon="11.1798021"><ele>30.666666666666664</ele><time>2026-04-06T08:36:35.27Z</time></trkpt><trkpt lat="42.786802" lon="11.1797774"><ele>32.0</ele><time>2026-04-06T08:36:36.271Z</time></trkpt><trkpt lat="42.7870169" lon="11.1797596"><ele>32.0</ele><time>2026-04-06T08:36:37.27Z</time></trkpt><trkpt lat="42.7872318" lon="11.1797519"><ele>32.0</ele><time>2026-04-06T08:36:38.271Z</time></trkpt><trkpt lat="42.7874484" lon="11.1797579"><ele>32.0</ele><time>2026-04-06T08:36:39.271Z</time></trkpt><trkpt lat="42.7876652" lon="11.1797765"><ele>32.33333333333333</ele><time>2026-04-06T08:36:40.271Z</time></trkpt><trkpt lat="42.7878796" lon="11.1798011"><ele>32.666666666666664</ele><time>2026-04-06T08:36:41.271Z</time></trkpt><trkpt lat="42.7880956" lon="11.1798402"><ele>33.0</ele><time>2026-04-06T08:36:42.27Z</time></trkpt><trkpt lat="42.7883136" lon="11.179888"><ele>32.333333333333336</ele><time>2026-04-06T08:36:43.271Z</time></trkpt><trkpt lat="42.7885292" lon="11.1799557"><ele>31.666666666666668</ele><time>2026-04-06T08:36:44.271Z</time></trkpt><trkpt lat="42.788739" lon="11.1800373"><ele>31.0</ele><time>2026-04-06T08:36:45.27Z</time></trkpt><trkpt lat="42.788946" lon="11.1801363"><ele>31.0</ele><time>2026-04-06T08:36:46.271Z</time></trkpt><trkpt lat="42.789149" lon="11.1802543"><ele>31.0</ele><time>2026-04-06T08:36:47.27Z</time></trkpt><trkpt lat="42.7893478" lon="11.1803854"><ele>31.0</ele><time>2026-04-06T08:36:48.271Z</time></trkpt><trkpt lat="42.7895456" lon="11.1805253"><ele>30.0</ele><time>2026-04-06T08:36:49.271Z</time></trkpt><trkpt lat="42.7897391" lon="11.1806817"><ele>29.0</ele><time>2026-04-06T08:36:50.27Z</time></trkpt><trkpt lat="42.7899306" lon="11.1808508"><ele>27.5</ele><time>2026-04-06T08:36:51.271Z</time></trkpt><trkpt lat="42.7901156" lon="11.1810353"><ele>26.0</ele><time>2026-04-06T08:36:52.271Z</time></trkpt><trkpt lat="42.7902954" lon="11.1812335"><ele>25.5</ele><time>2026-04-06T08:36:53.271Z</time></trkpt><trkpt lat="42.7904779" lon="11.1814365"><ele>25.0</ele><time>2026-04-06T08:36:54.271Z</time></trkpt><trkpt lat="42.790664" lon="11.1816401"><ele>24.5</ele><time>2026-04-06T08:36:55.271Z</time></trkpt><trkpt lat="42.7908465" lon="11.1818432"><ele>24.0</ele><time>2026-04-06T08:36:56.27Z</time></trkpt><trkpt lat="42.7910342" lon="11.1820533"><ele>25.5</ele><time>2026-04-06T08:36:57.27Z</time></trkpt><trkpt lat="42.7912222" lon="11.1822647"><ele>27.0</ele><time>2026-04-06T08:36:58.271Z</time></trkpt><trkpt lat="42.7914057" lon="11.1824703"><ele>27.0</ele><time>2026-04-06T08:36:59.27Z</time></trkpt><trkpt lat="42.7915889" lon="11.1826777"><ele>27.0</ele><time>2026-04-06T08:37:00.27Z</time></trkpt><trkpt lat="42.7917733" lon="11.1828835"><ele>27.5</ele><time>2026-04-06T08:37:01.27Z</time></trkpt><trkpt lat="42.7919552" lon="11.1830902"><ele>28.0</ele><time>2026-04-06T08:37:02.271Z</time></trkpt><trkpt lat="42.7921355" lon="11.183289"><ele>28.0</ele><time>2026-04-06T08:37:03.271Z</time></trkpt><trkpt lat="42.792309" lon="11.1834808"><ele>28.0</ele><time>2026-04-06T08:37:04.271Z</time></trkpt><trkpt lat="42.792467" lon="11.1836593"><ele>28.0</ele><time>2026-04-06T08:37:05.27Z</time></trkpt><trkpt lat="42.7926168" lon="11.1838448"><ele>27.333333333333336</ele><time>2026-04-06T08:37:06.27Z</time></trkpt><trkpt lat="42.7927579" lon="11.1840378"><ele>26.666666666666664</ele><time>2026-04-06T08:37:07.271Z</time></trkpt><trkpt lat="42.7928935" lon="11.1842415"><ele>26.0</ele><time>2026-04-06T08:37:08.271Z</time></trkpt><trkpt lat="42.7930265" lon="11.1844551"><ele>26.0</ele><time>2026-04-06T08:37:09.271Z</time></trkpt><trkpt lat="42.7931421" lon="11.1846877"><ele>26.0</ele><time>2026-04-06T08:37:10.271Z</time></trkpt><trkpt lat="42.7932548" lon="11.184931"><ele>26.0</ele><time>2026-04-06T08:37:11.271Z</time></trkpt><trkpt lat="42.7933617" lon="11.1851853"><ele>26.333333333333332</ele><time>2026-04-06T08:37:12.271Z</time></trkpt><trkpt lat="42.7934639" lon="11.1854479"><ele>26.666666666666664</ele><time>2026-04-06T08:37:13.271Z</time></trkpt><trkpt lat="42.793565" lon="11.1857055"><ele>27.0</ele><time>2026-04-06T08:37:14.271Z</time></trkpt><trkpt lat="42.7936647" lon="11.1859643"><ele>27.0</ele><time>2026-04-06T08:37:15.27Z</time></trkpt><trkpt lat="42.7937635" lon="11.1862226"><ele>27.0</ele><time>2026-04-06T08:37:16.271Z</time></trkpt><trkpt lat="42.7938627" lon="11.1864823"><ele>27.0</ele><time>2026-04-06T08:37:17.271Z</time></trkpt><trkpt lat="42.7939615" lon="11.186747"><ele>27.0</ele><time>2026-04-06T08:37:18.271Z</time></trkpt><trkpt lat="42.7940595" lon="11.1870105"><ele>27.0</ele><time>2026-04-06T08:37:19.27Z</time></trkpt><trkpt lat="42.7941612" lon="11.1872736"><ele>27.0</ele><time>2026-04-06T08:37:20.27Z</time></trkpt><trkpt lat="42.7942628" lon="11.187539"><ele>26.333333333333336</ele><time>2026-04-06T08:37:21.271Z</time></trkpt><trkpt lat="42.7943642" lon="11.1878052"><ele>25.666666666666668</ele><time>2026-04-06T08:37:22.271Z</time></trkpt><trkpt lat="42.7944658" lon="11.1880691"><ele>25.0</ele><time>2026-04-06T08:37:23.271Z</time></trkpt><trkpt lat="42.7945683" lon="11.1883329"><ele>24.333333333333336</ele><time>2026-04-06T08:37:24.271Z</time></trkpt><trkpt lat="42.7946703" lon="11.1885955"><ele>23.666666666666668</ele><time>2026-04-06T08:37:25.271Z</time></trkpt><trkpt lat="42.7947712" lon="11.1888573"><ele>23.0</ele><time>2026-04-06T08:37:26.271Z</time></trkpt><trkpt lat="42.794873" lon="11.1891232"><ele>22.333333333333336</ele><time>2026-04-06T08:37:27.27Z</time></trkpt><trkpt lat="42.7949721" lon="11.1893878"><ele>21.666666666666668</ele><time>2026-04-06T08:37:28.271Z</time></trkpt><trkpt lat="42.7950761" lon="11.1896562"><ele>21.0</ele><time>2026-04-06T08:37:29.271Z</time></trkpt><trkpt lat="42.7951791" lon="11.1899218"><ele>21.0</ele><time>2026-04-06T08:37:30.27Z</time></trkpt><trkpt lat="42.79528" lon="11.1901836"><ele>21.0</ele><time>2026-04-06T08:37:31.27Z</time></trkpt><trkpt lat="42.7953822" lon="11.1904416"><ele>21.0</ele><time>2026-04-06T08:37:32.271Z</time></trkpt><trkpt lat="42.7954853" lon="11.1907012"><ele>21.333333333333332</ele><time>2026-04-06T08:37:33.271Z</time></trkpt><trkpt lat="42.7955867" lon="11.1909587"><ele>21.666666666666664</ele><time>2026-04-06T08:37:34.27Z</time></trkpt><trkpt lat="42.7956857" lon="11.1912229"><ele>22.0</ele><time>2026-04-06T08:37:35.271Z</time></trkpt><trkpt lat="42.7957836" lon="11.1914856"><ele>21.666666666666664</ele><time>2026-04-06T08:37:36.271Z</time></trkpt><trkpt lat="42.7958821" lon="11.1917444"><ele>21.333333333333332</ele><time>2026-04-06T08:37:37.271Z</time></trkpt><trkpt lat="42.7959834" lon="11.1920064"><ele>21.0</ele><time>2026-04-06T08:37:38.271Z</time></trkpt><trkpt lat="42.7960827" lon="11.1922667"><ele>20.0</ele><time>2026-04-06T08:37:39.27Z</time></trkpt><trkpt lat="42.796183" lon="11.192528"><ele>19.0</ele><time>2026-04-06T08:37:40.271Z</time></trkpt><trkpt lat="42.796281" lon="11.1927857"><ele>18.0</ele><time>2026-04-06T08:37:41.271Z</time></trkpt><trkpt lat="42.7963721" lon="11.1930269"><ele>18.0</ele><time>2026-04-06T08:37:42.27Z</time></trkpt><trkpt lat="42.7964547" lon="11.1932508"><ele>18.0</ele><time>2026-04-06T08:37:43.271Z</time></trkpt><trkpt lat="42.7965283" lon="11.1934445"><ele>18.0</ele><time>2026-04-06T08:37:44.271Z</time></trkpt><trkpt lat="42.7965948" lon="11.1936148"><ele>18.0</ele><time>2026-04-06T08:37:45.271Z</time></trkpt><trkpt lat="42.7966534" lon="11.1937699"><ele>18.0</ele><time>2026-04-06T08:37:46.271Z</time></trkpt><trkpt lat="42.7967062" lon="11.1939033"><ele>18.0</ele><time>2026-04-06T08:37:47.27Z</time></trkpt><trkpt lat="42.7967503" lon="11.1940172"><ele>18.0</ele><time>2026-04-06T08:37:48.271Z</time></trkpt><trkpt lat="42.7967849" lon="11.1941121"><ele>18.0</ele><time>2026-04-06T08:37:49.27Z</time></trkpt><trkpt lat="42.7968693" lon="11.1942224"><ele>18.8</ele><time>2026-04-06T08:37:51.27Z</time></trkpt><trkpt lat="42.7969386" lon="11.1942436"><ele>19.6</ele><time>2026-04-06T08:37:52.27Z</time></trkpt><trkpt lat="42.7970187" lon="11.1942393"><ele>20.400000000000002</ele><time>2026-04-06T08:37:53.271Z</time></trkpt><trkpt lat="42.7971181" lon="11.1942126"><ele>21.200000000000003</ele><time>2026-04-06T08:37:54.271Z</time></trkpt><trkpt lat="42.7972361" lon="11.1941672"><ele>22.0</ele><time>2026-04-06T08:37:55.27Z</time></trkpt><trkpt lat="42.7973712" lon="11.1941136"><ele>22.0</ele><time>2026-04-06T08:37:56.271Z</time></trkpt><trkpt lat="42.7975145" lon="11.1940545"><ele>22.0</ele><time>2026-04-06T08:37:57.27Z</time></trkpt><trkpt lat="42.7976706" lon="11.1939902"><ele>22.0</ele><time>2026-04-06T08:37:58.271Z</time></trkpt><trkpt lat="42.7978368" lon="11.1939315"><ele>22.0</ele><time>2026-04-06T08:37:59.27Z</time></trkpt><trkpt lat="42.7979834" lon="11.193893"><ele>22.0</ele><time>2026-04-06T08:38:00.271Z</time></trkpt><trkpt lat="42.7981267" lon="11.1938901"><ele>22.0</ele><time>2026-04-06T08:38:01.271Z</time></trkpt><trkpt lat="42.7982763" lon="11.1939255"><ele>22.0</ele><time>2026-04-06T08:38:02.271Z</time></trkpt><trkpt lat="42.798437" lon="11.1939837"><ele>23.666666666666664</ele><time>2026-04-06T08:38:03.271Z</time></trkpt><trkpt lat="42.7986034" lon="11.1940412"><ele>25.333333333333332</ele><time>2026-04-06T08:38:04.27Z</time></trkpt><trkpt lat="42.7987748" lon="11.1941012"><ele>27.0</ele><time>2026-04-06T08:38:05.271Z</time></trkpt><trkpt lat="42.7989528" lon="11.1941602"><ele>27.0</ele><time>2026-04-06T08:38:06.271Z</time></trkpt><trkpt lat="42.7991332" lon="11.1942286"><ele>27.0</ele><time>2026-04-06T08:38:07.271Z</time></trkpt><trkpt lat="42.799321" lon="11.1942908"><ele>27.0</ele><time>2026-04-06T08:38:08.271Z</time></trkpt><trkpt lat="42.7995113" lon="11.194357"><ele>27.333333333333336</ele><time>2026-04-06T08:38:09.27Z</time></trkpt><trkpt lat="42.799705" lon="11.1944244"><ele>27.666666666666668</ele><time>2026-04-06T08:38:10.271Z</time></trkpt><trkpt lat="42.7999017" lon="11.1944985"><ele>28.0</ele><time>2026-04-06T08:38:11.271Z</time></trkpt><trkpt lat="42.8000998" lon="11.1945682"><ele>29.0</ele><time>2026-04-06T08:38:12.271Z</time></trkpt><trkpt lat="42.8002943" lon="11.1946387"><ele>30.0</ele><time>2026-04-06T08:38:13.27Z</time></trkpt><trkpt lat="42.8004891" lon="11.1947091"><ele>31.0</ele><time>2026-04-06T08:38:14.27Z</time></trkpt><trkpt lat="42.8006774" lon="11.1947769"><ele>31.0</ele><time>2026-04-06T08:38:15.271Z</time></trkpt><trkpt lat="42.8008639" lon="11.1948455"><ele>31.0</ele><time>2026-04-06T08:38:16.27Z</time></trkpt><trkpt lat="42.8010458" lon="11.1949102"><ele>31.0</ele><time>2026-04-06T08:38:17.271Z</time></trkpt><trkpt lat="42.8012242" lon="11.1949753"><ele>32.333333333333336</ele><time>2026-04-06T08:38:18.271Z</time></trkpt><trkpt lat="42.8014004" lon="11.1950403"><ele>33.666666666666664</ele><time>2026-04-06T08:38:19.27Z</time></trkpt><trkpt lat="42.8015748" lon="11.1951047"><ele>35.0</ele><time>2026-04-06T08:38:20.271Z</time></trkpt><trkpt lat="42.8017475" lon="11.1951685"><ele>35.666666666666664</ele><time>2026-04-06T08:38:21.271Z</time></trkpt><trkpt lat="42.801911" lon="11.1952297"><ele>36.333333333333336</ele><time>2026-04-06T08:38:22.271Z</time></trkpt><trkpt lat="42.8020635" lon="11.1952844"><ele>37.0</ele><time>2026-04-06T08:38:23.271Z</time></trkpt><trkpt lat="42.8022106" lon="11.1953425"><ele>37.0</ele><time>2026-04-06T08:38:24.271Z</time></trkpt><trkpt lat="42.8023471" lon="11.1953906"><ele>37.0</ele><time>2026-04-06T08:38:25.271Z</time></trkpt><trkpt lat="42.8024904" lon="11.1954231"><ele>37.0</ele><time>2026-04-06T08:38:26.271Z</time></trkpt><trkpt lat="42.8026304" lon="11.1954324"><ele>37.0</ele><time>2026-04-06T08:38:27.271Z</time></trkpt><trkpt lat="42.802746" lon="11.195426"><ele>37.5</ele><time>2026-04-06T08:38:28.271Z</time></trkpt><trkpt lat="42.8028558" lon="11.1954154"><ele>38.0</ele><time>2026-04-06T08:38:29.271Z</time></trkpt><trkpt lat="42.8029668" lon="11.1953852"><ele>38.5</ele><time>2026-04-06T08:38:30.271Z</time></trkpt><trkpt lat="42.8030931" lon="11.195359"><ele>39.0</ele><time>2026-04-06T08:38:31.27Z</time></trkpt><trkpt lat="42.8032284" lon="11.1953146"><ele>39.0</ele><time>2026-04-06T08:38:32.271Z</time></trkpt><trkpt lat="42.8033707" lon="11.1952636"><ele>39.0</ele><time>2026-04-06T08:38:33.27Z</time></trkpt><trkpt lat="42.803508" lon="11.195216"><ele>39.0</ele><time>2026-04-06T08:38:34.271Z</time></trkpt><trkpt lat="42.803644" lon="11.1951818"><ele>39.0</ele><time>2026-04-06T08:38:35.271Z</time></trkpt><trkpt lat="42.8037874" lon="11.1951762"><ele>39.333333333333336</ele><time>2026-04-06T08:38:36.271Z</time></trkpt><trkpt lat="42.8039425" lon="11.1952065"><ele>39.66666666666667</ele><time>2026-04-06T08:38:37.271Z</time></trkpt><trkpt lat="42.8040998" lon="11.1952546"><ele>40.0</ele><time>2026-04-06T08:38:38.271Z</time></trkpt><trkpt lat="42.8042664" lon="11.1953156"><ele>41.0</ele><time>2026-04-06T08:38:39.27Z</time></trkpt><trkpt lat="42.8044413" lon="11.1953864"><ele>42.0</ele><time>2026-04-06T08:38:40.27Z</time></trkpt><trkpt lat="42.8046162" lon="11.1954637"><ele>43.0</ele><time>2026-04-06T08:38:41.271Z</time></trkpt><trkpt lat="42.8047913" lon="11.1955368"><ele>43.0</ele><time>2026-04-06T08:38:42.271Z</time></trkpt><trkpt lat="42.8049678" lon="11.1956047"><ele>43.0</ele><time>2026-04-06T08:38:43.27Z</time></trkpt><trkpt lat="42.8051437" lon="11.1956761"><ele>43.0</ele><time>2026-04-06T08:38:44.271Z</time></trkpt><trkpt lat="42.8053246" lon="11.1957485"><ele>44.66666666666667</ele><time>2026-04-06T08:38:45.271Z</time></trkpt><trkpt lat="42.8055037" lon="11.1958256"><ele>46.333333333333336</ele><time>2026-04-06T08:38:46.271Z</time></trkpt><trkpt lat="42.8056859" lon="11.1959016"><ele>48.0</ele><time>2026-04-06T08:38:47.27Z</time></trkpt><trkpt lat="42.8058625" lon="11.1959871"><ele>49.66666666666667</ele><time>2026-04-06T08:38:48.271Z</time></trkpt><trkpt lat="42.8060338" lon="11.1960826"><ele>51.333333333333336</ele><time>2026-04-06T08:38:49.271Z</time></trkpt><trkpt lat="42.8062005" lon="11.1961846"><ele>53.0</ele><time>2026-04-06T08:38:50.271Z</time></trkpt><trkpt lat="42.8063628" lon="11.1962861"><ele>53.0</ele><time>2026-04-06T08:38:51.27Z</time></trkpt><trkpt lat="42.8065125" lon="11.1963884"><ele>53.0</ele><time>2026-04-06T08:38:52.271Z</time></trkpt><trkpt lat="42.8066571" lon="11.1964841"><ele>53.0</ele><time>2026-04-06T08:38:53.271Z</time></trkpt><trkpt lat="42.8067978" lon="11.1965721"><ele>55.66666666666667</ele><time>2026-04-06T08:38:54.271Z</time></trkpt><trkpt lat="42.8069396" lon="11.1966525"><ele>58.33333333333333</ele><time>2026-04-06T08:38:55.271Z</time></trkpt><trkpt lat="42.8070834" lon="11.1967187"><ele>61.0</ele><time>2026-04-06T08:38:56.271Z</time></trkpt><trkpt lat="42.8072324" lon="11.1967733"><ele>61.0</ele><time>2026-04-06T08:38:57.271Z</time></trkpt><trkpt lat="42.8073845" lon="11.1968273"><ele>61.0</ele><time>2026-04-06T08:38:58.271Z</time></trkpt><trkpt lat="42.8075401" lon="11.1968737"><ele>61.0</ele><time>2026-04-06T08:38:59.27Z</time></trkpt><trkpt lat="42.807698" lon="11.1969255"><ele>60.33333333333333</ele><time>2026-04-06T08:39:00.271Z</time></trkpt><trkpt lat="42.8078604" lon="11.1969764"><ele>59.66666666666667</ele><time>2026-04-06T08:39:01.27Z</time></trkpt><trkpt lat="42.8080239" lon="11.1970336"><ele>59.0</ele><time>2026-04-06T08:39:02.271Z</time></trkpt><trkpt lat="42.8081934" lon="11.1970905"><ele>59.0</ele><time>2026-04-06T08:39:03.271Z</time></trkpt><trkpt lat="42.8083555" lon="11.19715"><ele>59.0</ele><time>2026-04-06T08:39:04.271Z</time></trkpt><trkpt lat="42.8085068" lon="11.197216"><ele>59.0</ele><time>2026-04-06T08:39:05.271Z</time></trkpt><trkpt lat="42.8086512" lon="11.1972814"><ele>61.0</ele><time>2026-04-06T08:39:06.271Z</time></trkpt><trkpt lat="42.8087866" lon="11.1973485"><ele>63.0</ele><time>2026-04-06T08:39:07.271Z</time></trkpt><trkpt lat="42.8089246" lon="11.1974083"><ele>65.0</ele><time>2026-04-06T08:39:08.27Z</time></trkpt><trkpt lat="42.8090622" lon="11.1974766"><ele>67.0</ele><time>2026-04-06T08:39:09.271Z</time></trkpt><trkpt lat="42.8091999" lon="11.197551"><ele>66.33333333333333</ele><time>2026-04-06T08:39:10.271Z</time></trkpt><trkpt lat="42.8093344" lon="11.1976473"><ele>65.66666666666667</ele><time>2026-04-06T08:39:11.271Z</time></trkpt><trkpt lat="42.8094675" lon="11.1977741"><ele>65.0</ele><time>2026-04-06T08:39:12.271Z</time></trkpt><trkpt lat="42.809598" lon="11.197913"><ele>65.0</ele><time>2026-04-06T08:39:13.271Z</time></trkpt><trkpt lat="42.8097193" lon="11.1980535"><ele>65.0</ele><time>2026-04-06T08:39:14.271Z</time></trkpt><trkpt lat="42.8098192" lon="11.1981896"><ele>65.0</ele><time>2026-04-06T08:39:15.271Z</time></trkpt><trkpt lat="42.8099076" lon="11.1983107"><ele>65.0</ele><time>2026-04-06T08:39:16.271Z</time></trkpt><trkpt lat="42.8100047" lon="11.1984149"><ele>66.25</ele><time>2026-04-06T08:39:17.271Z</time></trkpt><trkpt lat="42.8101163" lon="11.1985106"><ele>67.5</ele><time>2026-04-06T08:39:18.27Z</time></trkpt><trkpt lat="42.8102425" lon="11.1986042"><ele>68.75</ele><time>2026-04-06T08:39:19.271Z</time></trkpt><trkpt lat="42.8103841" lon="11.1986954"><ele>70.0</ele><time>2026-04-06T08:39:20.271Z</time></trkpt><trkpt lat="42.8105267" lon="11.1987834"><ele>70.33333333333333</ele><time>2026-04-06T08:39:21.27Z</time></trkpt><trkpt lat="42.8106729" lon="11.1988747"><ele>70.66666666666667</ele><time>2026-04-06T08:39:22.271Z</time></trkpt><trkpt lat="42.8108209" lon="11.1989684"><ele>71.0</ele><time>2026-04-06T08:39:23.27Z</time></trkpt><trkpt lat="42.8109686" lon="11.1990627"><ele>74.33333333333334</ele><time>2026-04-06T08:39:24.271Z</time></trkpt><trkpt lat="42.811114" lon="11.1991551"><ele>77.66666666666667</ele><time>2026-04-06T08:39:25.27Z</time></trkpt><trkpt lat="42.8112432" lon="11.1992394"><ele>81.0</ele><time>2026-04-06T08:39:26.271Z</time></trkpt><trkpt lat="42.8113796" lon="11.1993172"><ele>81.0</ele><time>2026-04-06T08:39:27.27Z</time></trkpt><trkpt lat="42.8115297" lon="11.1993799"><ele>81.0</ele><time>2026-04-06T08:39:28.271Z</time></trkpt><trkpt lat="42.8116938" lon="11.1994195"><ele>81.0</ele><time>2026-04-06T08:39:29.271Z</time></trkpt><trkpt lat="42.8118671" lon="11.1994435"><ele>81.33333333333333</ele><time>2026-04-06T08:39:30.271Z</time></trkpt><trkpt lat="42.8120506" lon="11.1994764"><ele>81.66666666666666</ele><time>2026-04-06T08:39:31.27Z</time></trkpt><trkpt lat="42.8122367" lon="11.1995095"><ele>82.0</ele><time>2026-04-06T08:39:32.27Z</time></trkpt><trkpt lat="42.812429" lon="11.199544"><ele>82.0</ele><time>2026-04-06T08:39:33.271Z</time></trkpt><trkpt lat="42.8126261" lon="11.1995788"><ele>82.0</ele><time>2026-04-06T08:39:34.271Z</time></trkpt><trkpt lat="42.8128277" lon="11.1996132"><ele>82.0</ele><time>2026-04-06T08:39:35.271Z</time></trkpt><trkpt lat="42.8130283" lon="11.199643"><ele>82.66666666666666</ele><time>2026-04-06T08:39:36.271Z</time></trkpt><trkpt lat="42.8132305" lon="11.1996788"><ele>83.33333333333333</ele><time>2026-04-06T08:39:37.27Z</time></trkpt><trkpt lat="42.8134292" lon="11.1997186"><ele>84.0</ele><time>2026-04-06T08:39:38.271Z</time></trkpt><trkpt lat="42.8136225" lon="11.1997541"><ele>86.33333333333333</ele><time>2026-04-06T08:39:39.271Z</time></trkpt><trkpt lat="42.8138154" lon="11.199789"><ele>88.66666666666666</ele><time>2026-04-06T08:39:40.271Z</time></trkpt><trkpt lat="42.8140087" lon="11.1998222"><ele>91.0</ele><time>2026-04-06T08:39:41.271Z</time></trkpt><trkpt lat="42.8141938" lon="11.199852"><ele>93.33333333333333</ele><time>2026-04-06T08:39:42.271Z</time></trkpt><trkpt lat="42.8143761" lon="11.1998901"><ele>95.66666666666666</ele><time>2026-04-06T08:39:43.27Z</time></trkpt><trkpt lat="42.8145502" lon="11.1999225"><ele>98.0</ele><time>2026-04-06T08:39:44.271Z</time></trkpt><trkpt lat="42.8147225" lon="11.1999532"><ele>98.0</ele><time>2026-04-06T08:39:45.271Z</time></trkpt><trkpt lat="42.8148945" lon="11.1999734"><ele>98.0</ele><time>2026-04-06T08:39:46.271Z</time></trkpt><trkpt lat="42.8150621" lon="11.1999669"><ele>98.0</ele><time>2026-04-06T08:39:47.271Z</time></trkpt><trkpt lat="42.8152328" lon="11.1999378"><ele>98.33333333333333</ele><time>2026-04-06T08:39:48.27Z</time></trkpt><trkpt lat="42.8154081" lon="11.1998994"><ele>98.66666666666666</ele><time>2026-04-06T08:39:49.271Z</time></trkpt><trkpt lat="42.8155866" lon="11.1998496"><ele>99.0</ele><time>2026-04-06T08:39:50.271Z</time></trkpt><trkpt lat="42.8157607" lon="11.1998006"><ele>98.0</ele><time>2026-04-06T08:39:51.271Z</time></trkpt><trkpt lat="42.8159261" lon="11.199756"><ele>97.0</ele><time>2026-04-06T08:39:52.271Z</time></trkpt><trkpt lat="42.8160899" lon="11.199718"><ele>96.0</ele><time>2026-04-06T08:39:53.271Z</time></trkpt><trkpt lat="42.8162459" lon="11.1996753"><ele>96.0</ele><time>2026-04-06T08:39:54.271Z</time></trkpt><trkpt lat="42.8163953" lon="11.1996384"><ele>96.0</ele><time>2026-04-06T08:39:55.27Z</time></trkpt><trkpt lat="42.8165476" lon="11.1995955"><ele>96.0</ele><time>2026-04-06T08:39:56.271Z</time></trkpt><trkpt lat="42.816703" lon="11.1995514"><ele>97.0</ele><time>2026-04-06T08:39:57.271Z</time></trkpt><trkpt lat="42.8168626" lon="11.1995059"><ele>98.0</ele><time>2026-04-06T08:39:58.271Z</time></trkpt><trkpt lat="42.8170224" lon="11.1994631"><ele>99.0</ele><time>2026-04-06T08:39:59.271Z</time></trkpt><trkpt lat="42.8171838" lon="11.1994191"><ele>99.0</ele><time>2026-04-06T08:40:00.271Z</time></trkpt><trkpt lat="42.8173447" lon="11.1993739"><ele>99.0</ele><time>2026-04-06T08:40:01.271Z</time></trkpt><trkpt lat="42.8175107" lon="11.1993297"><ele>99.0</ele><time>2026-04-06T08:40:02.271Z</time></trkpt><trkpt lat="42.8176819" lon="11.1992867"><ele>100.33333333333334</ele><time>2026-04-06T08:40:03.27Z</time></trkpt><trkpt lat="42.8178508" lon="11.1992404"><ele>101.66666666666667</ele><time>2026-04-06T08:40:04.271Z</time></trkpt><trkpt lat="42.8180249" lon="11.1991955"><ele>103.0</ele><time>2026-04-06T08:40:05.271Z</time></trkpt><trkpt lat="42.818197" lon="11.1991501"><ele>103.0</ele><time>2026-04-06T08:40:06.271Z</time></trkpt><trkpt lat="42.818372" lon="11.199101"><ele>103.0</ele><time>2026-04-06T08:40:07.271Z</time></trkpt><trkpt lat="42.818546" lon="11.1990541"><ele>103.0</ele><time>2026-04-06T08:40:08.27Z</time></trkpt><trkpt lat="42.8187194" lon="11.1990097"><ele>106.0</ele><time>2026-04-06T08:40:09.271Z</time></trkpt><trkpt lat="42.8188949" lon="11.198966"><ele>109.0</ele><time>2026-04-06T08:40:10.271Z</time></trkpt><trkpt lat="42.819072" lon="11.1989189"><ele>112.0</ele><time>2026-04-06T08:40:11.271Z</time></trkpt><trkpt lat="42.8192475" lon="11.1988718"><ele>114.0</ele><time>2026-04-06T08:40:12.271Z</time></trkpt><trkpt lat="42.8194257" lon="11.198822"><ele>116.0</ele><time>2026-04-06T08:40:13.27Z</time></trkpt><trkpt lat="42.8196059" lon="11.198774"><ele>118.0</ele><time>2026-04-06T08:40:14.271Z</time></trkpt><trkpt lat="42.8197855" lon="11.1987235"><ele>118.0</ele><time>2026-04-06T08:40:15.27Z</time></trkpt><trkpt lat="42.8199635" lon="11.1986763"><ele>118.0</ele><time>2026-04-06T08:40:16.271Z</time></trkpt><trkpt lat="42.8201394" lon="11.1986297"><ele>118.0</ele><time>2026-04-06T08:40:17.271Z</time></trkpt><trkpt lat="42.8203114" lon="11.1985855"><ele>121.66666666666667</ele><time>2026-04-06T08:40:18.271Z</time></trkpt><trkpt lat="42.8204797" lon="11.1985385"><ele>125.33333333333334</ele><time>2026-04-06T08:40:19.27Z</time></trkpt><trkpt lat="42.8206421" lon="11.1984946"><ele>129.0</ele><time>2026-04-06T08:40:20.271Z</time></trkpt><trkpt lat="42.8207973" lon="11.1984538"><ele>129.0</ele><time>2026-04-06T08:40:21.271Z</time></trkpt><trkpt lat="42.8209409" lon="11.1984172"><ele>129.0</ele><time>2026-04-06T08:40:22.271Z</time></trkpt><trkpt lat="42.8210596" lon="11.1983897"><ele>129.0</ele><time>2026-04-06T08:40:23.271Z</time></trkpt><trkpt lat="42.8211548" lon="11.1983645"><ele>129.0</ele><time>2026-04-06T08:40:24.271Z</time></trkpt><trkpt lat="42.8212317" lon="11.1983477"><ele>129.0</ele><time>2026-04-06T08:40:25.271Z</time></trkpt><trkpt lat="42.8213375" lon="11.1983562"><ele>131.4</ele><time>2026-04-06T08:40:27.271Z</time></trkpt><trkpt lat="42.8213954" lon="11.1984882"><ele>133.8</ele><time>2026-04-06T08:40:29.27Z</time></trkpt><trkpt lat="42.8214214" lon="11.1985816"><ele>136.2</ele><time>2026-04-06T08:40:30.271Z</time></trkpt><trkpt lat="42.8214481" lon="11.198687"><ele>138.6</ele><time>2026-04-06T08:40:31.271Z</time></trkpt><trkpt lat="42.8214848" lon="11.1987977"><ele>141.0</ele><time>2026-04-06T08:40:32.271Z</time></trkpt><trkpt lat="42.8215203" lon="11.1989167"><ele>139.4</ele><time>2026-04-06T08:40:33.271Z</time></trkpt><trkpt lat="42.8215498" lon="11.1990332"><ele>137.8</ele><time>2026-04-06T08:40:34.271Z</time></trkpt><trkpt lat="42.8215725" lon="11.199148"><ele>136.20000000000002</ele><time>2026-04-06T08:40:35.271Z</time></trkpt><trkpt lat="42.8215747" lon="11.1992712"><ele>134.6</ele><time>2026-04-06T08:40:36.271Z</time></trkpt><trkpt lat="42.8215562" lon="11.1994045"><ele>133.0</ele><time>2026-04-06T08:40:37.27Z</time></trkpt><trkpt lat="42.8215171" lon="11.1995454"><ele>133.0</ele><time>2026-04-06T08:40:38.271Z</time></trkpt><trkpt lat="42.82147" lon="11.1996901"><ele>133.0</ele><time>2026-04-06T08:40:39.27Z</time></trkpt><trkpt lat="42.8214272" lon="11.1998273"><ele>133.0</ele><time>2026-04-06T08:40:40.271Z</time></trkpt><trkpt lat="42.8213867" lon="11.1999538"><ele>133.0</ele><time>2026-04-06T08:40:41.271Z</time></trkpt><trkpt lat="42.8213513" lon="11.2000736"><ele>133.0</ele><time>2026-04-06T08:40:42.271Z</time></trkpt><trkpt lat="42.8213143" lon="11.2001852"><ele>132.0</ele><time>2026-04-06T08:40:43.271Z</time></trkpt><trkpt lat="42.8212807" lon="11.2002858"><ele>131.0</ele><time>2026-04-06T08:40:44.271Z</time></trkpt><trkpt lat="42.8212591" lon="11.2003781"><ele>130.0</ele><time>2026-04-06T08:40:45.271Z</time></trkpt><trkpt lat="42.8212633" lon="11.2004718"><ele>129.0</ele><time>2026-04-06T08:40:46.27Z</time></trkpt><trkpt lat="42.8212943" lon="11.2005523"><ele>128.0</ele><time>2026-04-06T08:40:47.271Z</time></trkpt><trkpt lat="42.8213452" lon="11.2006073"><ele>127.0</ele><time>2026-04-06T08:40:48.271Z</time></trkpt><trkpt lat="42.8214154" lon="11.2006549"><ele>126.0</ele><time>2026-04-06T08:40:49.27Z</time></trkpt><trkpt lat="42.8214985" lon="11.2006924"><ele>125.5</ele><time>2026-04-06T08:40:50.271Z</time></trkpt><trkpt lat="42.8215828" lon="11.2007326"><ele>125.0</ele><time>2026-04-06T08:40:51.271Z</time></trkpt><trkpt lat="42.8216643" lon="11.200771"><ele>124.5</ele><time>2026-04-06T08:40:52.271Z</time></trkpt><trkpt lat="42.8217394" lon="11.2008045"><ele>124.0</ele><time>2026-04-06T08:40:53.271Z</time></trkpt><trkpt lat="42.8218179" lon="11.2008266"><ele>123.5</ele><time>2026-04-06T08:40:54.271Z</time></trkpt><trkpt lat="42.8218959" lon="11.2008236"><ele>123.0</ele><time>2026-04-06T08:40:55.271Z</time></trkpt><trkpt lat="42.8219831" lon="11.200785"><ele>121.5</ele><time>2026-04-06T08:40:56.271Z</time></trkpt><trkpt lat="42.8220832" lon="11.2007292"><ele>120.0</ele><time>2026-04-06T08:40:57.27Z</time></trkpt><trkpt lat="42.8221956" lon="11.2006631"><ele>118.5</ele><time>2026-04-06T08:40:58.271Z</time></trkpt><trkpt lat="42.822314" lon="11.2005923"><ele>117.0</ele><time>2026-04-06T08:40:59.271Z</time></trkpt><trkpt lat="42.8224433" lon="11.2005147"><ele>117.0</ele><time>2026-04-06T08:41:00.27Z</time></trkpt><trkpt lat="42.8225819" lon="11.2004313"><ele>117.0</ele><time>2026-04-06T08:41:01.271Z</time></trkpt><trkpt lat="42.8227252" lon="11.2003468"><ele>117.0</ele><time>2026-04-06T08:41:02.27Z</time></trkpt><trkpt lat="42.8228686" lon="11.200256"><ele>115.0</ele><time>2026-04-06T08:41:03.27Z</time></trkpt><trkpt lat="42.823015" lon="11.2001654"><ele>113.0</ele><time>2026-04-06T08:41:04.271Z</time></trkpt><trkpt lat="42.823161" lon="11.2000762"><ele>111.0</ele><time>2026-04-06T08:41:05.271Z</time></trkpt><trkpt lat="42.8233015" lon="11.1999944"><ele>111.0</ele><time>2026-04-06T08:41:06.271Z</time></trkpt><trkpt lat="42.823428" lon="11.1999172"><ele>111.0</ele><time>2026-04-06T08:41:07.27Z</time></trkpt><trkpt lat="42.8235451" lon="11.1998439"><ele>111.0</ele><time>2026-04-06T08:41:08.271Z</time></trkpt><trkpt lat="42.8236524" lon="11.1997778"><ele>111.0</ele><time>2026-04-06T08:41:09.27Z</time></trkpt><trkpt lat="42.8237522" lon="11.1997158"><ele>111.19999999999999</ele><time>2026-04-06T08:41:10.271Z</time></trkpt><trkpt lat="42.8238453" lon="11.1996611"><ele>111.39999999999999</ele><time>2026-04-06T08:41:11.271Z</time></trkpt><trkpt lat="42.8239423" lon="11.1996037"><ele>111.6</ele><time>2026-04-06T08:41:12.27Z</time></trkpt><trkpt lat="42.8240456" lon="11.1995329"><ele>111.8</ele><time>2026-04-06T08:41:13.27Z</time></trkpt><trkpt lat="42.8241545" lon="11.1994601"><ele>112.0</ele><time>2026-04-06T08:41:14.27Z</time></trkpt><trkpt lat="42.8242735" lon="11.1993792"><ele>111.75</ele><time>2026-04-06T08:41:15.27Z</time></trkpt><trkpt lat="42.8243989" lon="11.199286"><ele>111.5</ele><time>2026-04-06T08:41:16.271Z</time></trkpt><trkpt lat="42.8245257" lon="11.1991834"><ele>111.25</ele><time>2026-04-06T08:41:17.27Z</time></trkpt><trkpt lat="42.824659" lon="11.1990728"><ele>111.0</ele><time>2026-04-06T08:41:18.271Z</time></trkpt><trkpt lat="42.8247932" lon="11.1989569"><ele>111.0</ele><time>2026-04-06T08:41:19.271Z</time></trkpt><trkpt lat="42.8249339" lon="11.1988488"><ele>111.0</ele><time>2026-04-06T08:41:20.271Z</time></trkpt><trkpt lat="42.8250672" lon="11.1987417"><ele>111.0</ele><time>2026-04-06T08:41:21.271Z</time></trkpt><trkpt lat="42.8251955" lon="11.1986343"><ele>108.5</ele><time>2026-04-06T08:41:22.271Z</time></trkpt><trkpt lat="42.8253187" lon="11.1985366"><ele>106.0</ele><time>2026-04-06T08:41:23.271Z</time></trkpt><trkpt lat="42.8254309" lon="11.1984479"><ele>103.5</ele><time>2026-04-06T08:41:24.27Z</time></trkpt><trkpt lat="42.8255361" lon="11.1983634"><ele>101.0</ele><time>2026-04-06T08:41:25.271Z</time></trkpt><trkpt lat="42.8256383" lon="11.1982734"><ele>101.0</ele><time>2026-04-06T08:41:26.271Z</time></trkpt><trkpt lat="42.8257501" lon="11.1981833"><ele>101.0</ele><time>2026-04-06T08:41:27.271Z</time></trkpt><trkpt lat="42.8258591" lon="11.198097"><ele>101.0</ele><time>2026-04-06T08:41:28.271Z</time></trkpt><trkpt lat="42.8259666" lon="11.198012"><ele>101.0</ele><time>2026-04-06T08:41:29.27Z</time></trkpt><trkpt lat="42.8260707" lon="11.1979317"><ele>100.5</ele><time>2026-04-06T08:41:30.271Z</time></trkpt><trkpt lat="42.8261661" lon="11.1978571"><ele>100.0</ele><time>2026-04-06T08:41:31.271Z</time></trkpt><trkpt lat="42.8262644" lon="11.1977813"><ele>99.5</ele><time>2026-04-06T08:41:32.271Z</time></trkpt><trkpt lat="42.8263636" lon="11.1976902"><ele>99.0</ele><time>2026-04-06T08:41:33.271Z</time></trkpt><trkpt lat="42.8264463" lon="11.1975878"><ele>99.0</ele><time>2026-04-06T08:41:34.27Z</time></trkpt><trkpt lat="42.8265174" lon="11.1974755"><ele>99.0</ele><time>2026-04-06T08:41:35.271Z</time></trkpt><trkpt lat="42.826576" lon="11.1973463"><ele>99.0</ele><time>2026-04-06T08:41:36.271Z</time></trkpt><trkpt lat="42.8266335" lon="11.1971877"><ele>99.0</ele><time>2026-04-06T08:41:37.271Z</time></trkpt><trkpt lat="42.8266881" lon="11.1970136"><ele>100.25</ele><time>2026-04-06T08:41:38.271Z</time></trkpt><trkpt lat="42.8267482" lon="11.1968325"><ele>101.5</ele><time>2026-04-06T08:41:39.271Z</time></trkpt><trkpt lat="42.8268052" lon="11.196648"><ele>102.75</ele><time>2026-04-06T08:41:40.271Z</time></trkpt><trkpt lat="42.8268555" lon="11.1964717"><ele>104.0</ele><time>2026-04-06T08:41:41.27Z</time></trkpt><trkpt lat="42.8269065" lon="11.1963081"><ele>105.5</ele><time>2026-04-06T08:41:42.271Z</time></trkpt><trkpt lat="42.8269655" lon="11.1961479"><ele>107.0</ele><time>2026-04-06T08:41:43.27Z</time></trkpt><trkpt lat="42.8270378" lon="11.1959937"><ele>108.5</ele><time>2026-04-06T08:41:44.27Z</time></trkpt><trkpt lat="42.8271134" lon="11.1958464"><ele>110.0</ele><time>2026-04-06T08:41:45.271Z</time></trkpt><trkpt lat="42.8271881" lon="11.1956964"><ele>110.0</ele><time>2026-04-06T08:41:46.27Z</time></trkpt><trkpt lat="42.8272654" lon="11.1955469"><ele>110.0</ele><time>2026-04-06T08:41:47.27Z</time></trkpt><trkpt lat="42.8273349" lon="11.1954077"><ele>110.0</ele><time>2026-04-06T08:41:48.271Z</time></trkpt><trkpt lat="42.8273958" lon="11.1952795"><ele>110.0</ele><time>2026-04-06T08:41:49.271Z</time></trkpt><trkpt lat="42.8274521" lon="11.1951624"><ele>109.99999999999999</ele><time>2026-04-06T08:41:50.271Z</time></trkpt><trkpt lat="42.8275049" lon="11.1950712"><ele>110.0</ele><time>2026-04-06T08:41:51.271Z</time></trkpt><trkpt lat="42.8275651" lon="11.1950096"><ele>110.0</ele><time>2026-04-06T08:41:52.271Z</time></trkpt><trkpt lat="42.8276399" lon="11.1949732"><ele>110.0</ele><time>2026-04-06T08:41:53.271Z</time></trkpt><trkpt lat="42.827721" lon="11.1949672"><ele>109.99999999999999</ele><time>2026-04-06T08:41:54.271Z</time></trkpt><trkpt lat="42.8278123" lon="11.1949876"><ele>110.0</ele><time>2026-04-06T08:41:55.271Z</time></trkpt><trkpt lat="42.8279066" lon="11.1950218"><ele>112.0</ele><time>2026-04-06T08:41:56.271Z</time></trkpt><trkpt lat="42.8279944" lon="11.1950733"><ele>114.0</ele><time>2026-04-06T08:41:57.27Z</time></trkpt><trkpt lat="42.8280739" lon="11.1951483"><ele>116.0</ele><time>2026-04-06T08:41:58.271Z</time></trkpt><trkpt lat="42.8281438" lon="11.1952456"><ele>118.0</ele><time>2026-04-06T08:41:59.271Z</time></trkpt><trkpt lat="42.8281995" lon="11.1953674"><ele>120.0</ele><time>2026-04-06T08:42:00.271Z</time></trkpt><trkpt lat="42.8282367" lon="11.1954982"><ele>120.0</ele><time>2026-04-06T08:42:01.271Z</time></trkpt><trkpt lat="42.8282758" lon="11.1956199"><ele>120.0</ele><time>2026-04-06T08:42:02.271Z</time></trkpt><trkpt lat="42.8283294" lon="11.1957349"><ele>120.0</ele><time>2026-04-06T08:42:03.271Z</time></trkpt><trkpt lat="42.8284173" lon="11.1958274"><ele>120.0</ele><time>2026-04-06T08:42:04.271Z</time></trkpt><trkpt lat="42.8285154" lon="11.1958986"><ele>120.0</ele><time>2026-04-06T08:42:05.271Z</time></trkpt><trkpt lat="42.8286282" lon="11.1959521"><ele>123.5</ele><time>2026-04-06T08:42:06.271Z</time></trkpt><trkpt lat="42.8287374" lon="11.1959908"><ele>127.0</ele><time>2026-04-06T08:42:07.27Z</time></trkpt><trkpt lat="42.828855" lon="11.1960247"><ele>130.5</ele><time>2026-04-06T08:42:08.271Z</time></trkpt><trkpt lat="42.8289761" lon="11.1960604"><ele>134.0</ele><time>2026-04-06T08:42:09.271Z</time></trkpt><trkpt lat="42.8291009" lon="11.1960998"><ele>134.0</ele><time>2026-04-06T08:42:10.271Z</time></trkpt><trkpt lat="42.8292207" lon="11.1961444"><ele>134.0</ele><time>2026-04-06T08:42:11.271Z</time></trkpt><trkpt lat="42.8293435" lon="11.1961863"><ele>134.0</ele><time>2026-04-06T08:42:12.27Z</time></trkpt><trkpt lat="42.8294662" lon="11.1962309"><ele>134.0</ele><time>2026-04-06T08:42:13.271Z</time></trkpt><trkpt lat="42.8295828" lon="11.1962751"><ele>135.4</ele><time>2026-04-06T08:42:14.271Z</time></trkpt><trkpt lat="42.8296841" lon="11.1963319"><ele>136.8</ele><time>2026-04-06T08:42:15.271Z</time></trkpt><trkpt lat="42.829783" lon="11.1964079"><ele>138.2</ele><time>2026-04-06T08:42:16.271Z</time></trkpt><trkpt lat="42.8298771" lon="11.1964821"><ele>139.6</ele><time>2026-04-06T08:42:17.271Z</time></trkpt><trkpt lat="42.8299789" lon="11.1965288"><ele>141.0</ele><time>2026-04-06T08:42:18.271Z</time></trkpt><trkpt lat="42.830094" lon="11.1965596"><ele>144.25</ele><time>2026-04-06T08:42:19.27Z</time></trkpt><trkpt lat="42.8302164" lon="11.1965656"><ele>147.5</ele><time>2026-04-06T08:42:20.27Z</time></trkpt><trkpt lat="42.8303514" lon="11.1965596"><ele>150.75</ele><time>2026-04-06T08:42:21.27Z</time></trkpt><trkpt lat="42.8304912" lon="11.1965549"><ele>154.0</ele><time>2026-04-06T08:42:22.27Z</time></trkpt><trkpt lat="42.8306296" lon="11.1965602"><ele>154.0</ele><time>2026-04-06T08:42:23.271Z</time></trkpt><trkpt lat="42.8307687" lon="11.1965727"><ele>154.0</ele><time>2026-04-06T08:42:24.271Z</time></trkpt><trkpt lat="42.830895" lon="11.1965977"><ele>154.0</ele><time>2026-04-06T08:42:25.271Z</time></trkpt><trkpt lat="42.8310083" lon="11.1966196"><ele>154.0</ele><time>2026-04-06T08:42:26.271Z</time></trkpt><trkpt lat="42.8311043" lon="11.1966225"><ele>155.5</ele><time>2026-04-06T08:42:27.27Z</time></trkpt><trkpt lat="42.8312" lon="11.196598"><ele>157.0</ele><time>2026-04-06T08:42:28.271Z</time></trkpt><trkpt lat="42.8312998" lon="11.1965298"><ele>158.5</ele><time>2026-04-06T08:42:29.27Z</time></trkpt><trkpt lat="42.8314067" lon="11.1964456"><ele>160.0</ele><time>2026-04-06T08:42:30.27Z</time></trkpt><trkpt lat="42.8315145" lon="11.1963508"><ele>160.5</ele><time>2026-04-06T08:42:31.271Z</time></trkpt><trkpt lat="42.8316294" lon="11.1962749"><ele>161.0</ele><time>2026-04-06T08:42:32.271Z</time></trkpt><trkpt lat="42.8317556" lon="11.1962223"><ele>161.5</ele><time>2026-04-06T08:42:33.27Z</time></trkpt><trkpt lat="42.8318925" lon="11.1961795"><ele>162.0</ele><time>2026-04-06T08:42:34.271Z</time></trkpt><trkpt lat="42.8320281" lon="11.1961603"><ele>164.75</ele><time>2026-04-06T08:42:35.271Z</time></trkpt><trkpt lat="42.8321611" lon="11.1961254"><ele>167.5</ele><time>2026-04-06T08:42:36.271Z</time></trkpt><trkpt lat="42.8322811" lon="11.1961008"><ele>170.25</ele><time>2026-04-06T08:42:37.271Z</time></trkpt><trkpt lat="42.8323833" lon="11.1960686"><ele>173.0</ele><time>2026-04-06T08:42:38.271Z</time></trkpt><trkpt lat="42.8324973" lon="11.196044"><ele>173.0</ele><time>2026-04-06T08:42:39.27Z</time></trkpt><trkpt lat="42.8326245" lon="11.1960509"><ele>173.0</ele><time>2026-04-06T08:42:40.271Z</time></trkpt><trkpt lat="42.8327604" lon="11.1960826"><ele>173.0</ele><time>2026-04-06T08:42:41.271Z</time></trkpt><trkpt lat="42.832897" lon="11.1961198"><ele>173.0</ele><time>2026-04-06T08:42:42.27Z</time></trkpt><trkpt lat="42.8330377" lon="11.1961548"><ele>174.25</ele><time>2026-04-06T08:42:43.271Z</time></trkpt><trkpt lat="42.8331895" lon="11.1961846"><ele>175.5</ele><time>2026-04-06T08:42:44.271Z</time></trkpt><trkpt lat="42.8333276" lon="11.1962158"><ele>176.75</ele><time>2026-04-06T08:42:45.271Z</time></trkpt><trkpt lat="42.8334755" lon="11.1962328"><ele>178.0</ele><time>2026-04-06T08:42:46.271Z</time></trkpt><trkpt lat="42.8336193" lon="11.1962401"><ele>180.75</ele><time>2026-04-06T08:42:47.27Z</time></trkpt><trkpt lat="42.8337638" lon="11.1962386"><ele>183.5</ele><time>2026-04-06T08:42:48.271Z</time></trkpt><trkpt lat="42.8338912" lon="11.196221"><ele>186.25</ele><time>2026-04-06T08:42:49.271Z</time></trkpt><trkpt lat="42.8340144" lon="11.1961871"><ele>189.0</ele><time>2026-04-06T08:42:50.271Z</time></trkpt><trkpt lat="42.834138" lon="11.196149"><ele>189.0</ele><time>2026-04-06T08:42:51.271Z</time></trkpt><trkpt lat="42.8342373" lon="11.1960706"><ele>189.0</ele><time>2026-04-06T08:42:52.271Z</time></trkpt><trkpt lat="42.8343361" lon="11.1960178"><ele>189.0</ele><time>2026-04-06T08:42:53.271Z</time></trkpt><trkpt lat="42.834435" lon="11.1959765"><ele>189.0</ele><time>2026-04-06T08:42:54.271Z</time></trkpt><trkpt lat="42.8345324" lon="11.1959592"><ele>189.0</ele><time>2026-04-06T08:42:55.27Z</time></trkpt><trkpt lat="42.8346301" lon="11.1959652"><ele>190.5</ele><time>2026-04-06T08:42:56.271Z</time></trkpt><trkpt lat="42.8347176" lon="11.1959965"><ele>192.0</ele><time>2026-04-06T08:42:57.271Z</time></trkpt><trkpt lat="42.8348055" lon="11.1960224"><ele>193.5</ele><time>2026-04-06T08:42:58.271Z</time></trkpt><trkpt lat="42.8348768" lon="11.1960457"><ele>195.0</ele><time>2026-04-06T08:42:59.271Z</time></trkpt><trkpt lat="42.8349528" lon="11.196069"><ele>196.5</ele><time>2026-04-06T08:43:00.27Z</time></trkpt><trkpt lat="42.8350425" lon="11.1960704"><ele>198.0</ele><time>2026-04-06T08:43:01.271Z</time></trkpt><trkpt lat="42.8351302" lon="11.1960687"><ele>198.0</ele><time>2026-04-06T08:43:02.27Z</time></trkpt><trkpt lat="42.8352017" lon="11.1960623"><ele>198.0</ele><time>2026-04-06T08:43:03.27Z</time></trkpt><trkpt lat="42.835298" lon="11.1960535"><ele>198.0</ele><time>2026-04-06T08:43:05.27Z</time></trkpt><trkpt lat="42.8353883" lon="11.1960489"><ele>198.0</ele><time>2026-04-06T08:43:21.27Z</time></trkpt><trkpt lat="42.8355257" lon="11.1960412"><ele>198.0</ele><time>2026-04-06T08:43:23.271Z</time></trkpt><trkpt lat="42.8356098" lon="11.1960407"><ele>198.0</ele><time>2026-04-06T08:43:24.271Z</time></trkpt><trkpt lat="42.8357028" lon="11.1960427"><ele>198.0</ele><time>2026-04-06T08:43:25.271Z</time></trkpt><trkpt lat="42.8358069" lon="11.1960359"><ele>198.0</ele><time>2026-04-06T08:43:26.271Z</time></trkpt><trkpt lat="42.8359108" lon="11.196029"><ele>198.0</ele><time>2026-04-06T08:43:27.27Z</time></trkpt><trkpt lat="42.8359895" lon="11.1960271"><ele>198.0</ele><time>2026-04-06T08:43:28.271Z</time></trkpt><trkpt lat="42.8360594" lon="11.1960352"><ele>198.14285714285714</ele><time>2026-04-06T08:43:29.271Z</time></trkpt><trkpt lat="42.8361239" lon="11.1960507"><ele>198.28571428571428</ele><time>2026-04-06T08:43:30.271Z</time></trkpt><trkpt lat="42.8361884" lon="11.1960657"><ele>198.42857142857142</ele><time>2026-04-06T08:43:31.271Z</time></trkpt><trkpt lat="42.8362573" lon="11.196066"><ele>198.57142857142856</ele><time>2026-04-06T08:43:32.27Z</time></trkpt><trkpt lat="42.8363355" lon="11.1960526"><ele>198.71428571428572</ele><time>2026-04-06T08:43:33.271Z</time></trkpt><trkpt lat="42.8364162" lon="11.196012"><ele>198.85714285714283</ele><time>2026-04-06T08:43:34.271Z</time></trkpt><trkpt lat="42.8364857" lon="11.1959532"><ele>199.0</ele><time>2026-04-06T08:43:35.271Z</time></trkpt><trkpt lat="42.8365561" lon="11.19588"><ele>198.99999999999997</ele><time>2026-04-06T08:43:36.271Z</time></trkpt><trkpt lat="42.8366119" lon="11.195799"><ele>199.0</ele><time>2026-04-06T08:43:37.27Z</time></trkpt><trkpt lat="42.8366609" lon="11.1957305"><ele>199.0</ele><time>2026-04-06T08:43:38.27Z</time></trkpt><trkpt lat="42.8367024" lon="11.1956583"><ele>199.0</ele><time>2026-04-06T08:43:39.271Z</time></trkpt><trkpt lat="42.8367363" lon="11.1955844"><ele>198.99999999999997</ele><time>2026-04-06T08:43:40.271Z</time></trkpt><trkpt lat="42.8367756" lon="11.1954113"><ele>199.0</ele><time>2026-04-06T08:43:42.271Z</time></trkpt><trkpt lat="42.8367941" lon="11.1953088"><ele>198.33333333333331</ele><time>2026-04-06T08:43:43.271Z</time></trkpt><trkpt lat="42.8368117" lon="11.1952012"><ele>197.66666666666666</ele><time>2026-04-06T08:43:44.271Z</time></trkpt><trkpt lat="42.8368306" lon="11.1950927"><ele>197.0</ele><time>2026-04-06T08:43:45.27Z</time></trkpt><trkpt lat="42.8368485" lon="11.1949926"><ele>196.33333333333331</ele><time>2026-04-06T08:43:46.271Z</time></trkpt><trkpt lat="42.8368633" lon="11.1949009"><ele>195.66666666666666</ele><time>2026-04-06T08:43:47.271Z</time></trkpt><trkpt lat="42.8368742" lon="11.1948093"><ele>195.0</ele><time>2026-04-06T08:43:48.271Z</time></trkpt><trkpt lat="42.8368889" lon="11.1947091"><ele>195.0</ele><time>2026-04-06T08:43:49.271Z</time></trkpt><trkpt lat="42.8369096" lon="11.1946034"><ele>195.0</ele><time>2026-04-06T08:43:50.271Z</time></trkpt><trkpt lat="42.8369387" lon="11.1944839"><ele>195.0</ele><time>2026-04-06T08:43:51.271Z</time></trkpt><trkpt lat="42.8369821" lon="11.1943839"><ele>195.0</ele><time>2026-04-06T08:43:52.27Z</time></trkpt><trkpt lat="42.8370339" lon="11.194284"><ele>195.0</ele><time>2026-04-06T08:43:53.271Z</time></trkpt><trkpt lat="42.8370949" lon="11.1941976"><ele>195.0</ele><time>2026-04-06T08:43:54.271Z</time></trkpt><trkpt lat="42.8371605" lon="11.1941277"><ele>195.0</ele><time>2026-04-06T08:43:55.271Z</time></trkpt><trkpt lat="42.8372209" lon="11.1940701"><ele>195.0</ele><time>2026-04-06T08:43:56.271Z</time></trkpt><trkpt lat="42.8372772" lon="11.1940116"><ele>195.0</ele><time>2026-04-06T08:43:57.27Z</time></trkpt><trkpt lat="42.8373715" lon="11.1939104"><ele>195.0</ele><time>2026-04-06T08:43:59.27Z</time></trkpt><trkpt lat="42.8374043" lon="11.193835"><ele>195.0</ele><time>2026-04-06T08:44:00.271Z</time></trkpt><trkpt lat="42.8374315" lon="11.1937475"><ele>195.0</ele><time>2026-04-06T08:44:01.271Z</time></trkpt><trkpt lat="42.8374564" lon="11.1936579"><ele>195.33333333333334</ele><time>2026-04-06T08:44:02.27Z</time></trkpt><trkpt lat="42.8374829" lon="11.1935512"><ele>195.66666666666669</ele><time>2026-04-06T08:44:03.271Z</time></trkpt><trkpt lat="42.837507" lon="11.1934447"><ele>196.0</ele><time>2026-04-06T08:44:04.271Z</time></trkpt><trkpt lat="42.8375316" lon="11.1933425"><ele>196.33333333333334</ele><time>2026-04-06T08:44:05.271Z</time></trkpt><trkpt lat="42.8375727" lon="11.1932515"><ele>196.66666666666669</ele><time>2026-04-06T08:44:06.27Z</time></trkpt><trkpt lat="42.8376283" lon="11.1931833"><ele>197.0</ele><time>2026-04-06T08:44:07.27Z</time></trkpt><trkpt lat="42.8377008" lon="11.1931414"><ele>197.00000000000003</ele><time>2026-04-06T08:44:08.27Z</time></trkpt><trkpt lat="42.8377801" lon="11.1931181"><ele>197.0</ele><time>2026-04-06T08:44:09.271Z</time></trkpt><trkpt lat="42.8378552" lon="11.1931216"><ele>197.0</ele><time>2026-04-06T08:44:10.271Z</time></trkpt><trkpt lat="42.837933" lon="11.1931181"><ele>197.0</ele><time>2026-04-06T08:44:11.27Z</time></trkpt><trkpt lat="42.8380079" lon="11.1931014"><ele>197.00000000000003</ele><time>2026-04-06T08:44:12.271Z</time></trkpt><trkpt lat="42.8380759" lon="11.1930654"><ele>197.0</ele><time>2026-04-06T08:44:13.271Z</time></trkpt><trkpt lat="42.8381415" lon="11.1929995"><ele>197.00000000000003</ele><time>2026-04-06T08:44:14.271Z</time></trkpt><trkpt lat="42.8382026" lon="11.1929437"><ele>197.0</ele><time>2026-04-06T08:44:15.271Z</time></trkpt><trkpt lat="42.8382571" lon="11.1928777"><ele>197.0</ele><time>2026-04-06T08:44:16.27Z</time></trkpt><trkpt lat="42.8382958" lon="11.1928059"><ele>197.0</ele><time>2026-04-06T08:44:17.27Z</time></trkpt><trkpt lat="42.8383263" lon="11.1927294"><ele>197.00000000000003</ele><time>2026-04-06T08:44:18.271Z</time></trkpt><trkpt lat="42.8383493" lon="11.1926475"><ele>197.0</ele><time>2026-04-06T08:44:19.271Z</time></trkpt><trkpt lat="42.8383422" lon="11.1924936"><ele>197.00000000000003</ele><time>2026-04-06T08:44:21.271Z</time></trkpt><trkpt lat="42.8383113" lon="11.1924138"><ele>197.0</ele><time>2026-04-06T08:44:22.27Z</time></trkpt><trkpt lat="42.8382826" lon="11.1923249"><ele>197.0</ele><time>2026-04-06T08:44:23.271Z</time></trkpt><trkpt lat="42.8382277" lon="11.1922366"><ele>197.0</ele><time>2026-04-06T08:44:24.271Z</time></trkpt><trkpt lat="42.8381776" lon="11.1921497"><ele>197.00000000000003</ele><time>2026-04-06T08:44:25.271Z</time></trkpt><trkpt lat="42.8381271" lon="11.1920635"><ele>197.0</ele><time>2026-04-06T08:44:26.271Z</time></trkpt><trkpt lat="42.8380701" lon="11.191987"><ele>196.50000000000003</ele><time>2026-04-06T08:44:27.271Z</time></trkpt><trkpt lat="42.8380108" lon="11.1919109"><ele>196.0</ele><time>2026-04-06T08:44:28.271Z</time></trkpt><trkpt lat="42.8379341" lon="11.1918412"><ele>195.5</ele><time>2026-04-06T08:44:29.27Z</time></trkpt><trkpt lat="42.8378559" lon="11.1917774"><ele>195.0</ele><time>2026-04-06T08:44:30.27Z</time></trkpt><trkpt lat="42.8377845" lon="11.1917236"><ele>194.50000000000003</ele><time>2026-04-06T08:44:31.271Z</time></trkpt><trkpt lat="42.837714" lon="11.1916645"><ele>194.0</ele><time>2026-04-06T08:44:32.271Z</time></trkpt><trkpt lat="42.8376589" lon="11.1915985"><ele>196.83333333333334</ele><time>2026-04-06T08:44:33.271Z</time></trkpt><trkpt lat="42.8375993" lon="11.1915212"><ele>199.66666666666669</ele><time>2026-04-06T08:44:34.271Z</time></trkpt><trkpt lat="42.8375734" lon="11.1913532"><ele>202.5</ele><time>2026-04-06T08:44:36.271Z</time></trkpt><trkpt lat="42.8375702" lon="11.1912576"><ele>205.33333333333331</ele><time>2026-04-06T08:44:37.271Z</time></trkpt><trkpt lat="42.8375781" lon="11.1911533"><ele>208.16666666666666</ele><time>2026-04-06T08:44:38.27Z</time></trkpt><trkpt lat="42.8375865" lon="11.1910315"><ele>211.0</ele><time>2026-04-06T08:44:39.27Z</time></trkpt><trkpt lat="42.8375919" lon="11.1909107"><ele>211.33333333333331</ele><time>2026-04-06T08:44:40.27Z</time></trkpt><trkpt lat="42.837598" lon="11.1907919"><ele>211.66666666666666</ele><time>2026-04-06T08:44:41.271Z</time></trkpt><trkpt lat="42.8376068" lon="11.19068"><ele>212.0</ele><time>2026-04-06T08:44:42.271Z</time></trkpt><trkpt lat="42.8376166" lon="11.1905724"><ele>212.33333333333331</ele><time>2026-04-06T08:44:43.271Z</time></trkpt><trkpt lat="42.8375944" lon="11.1904442"><ele>212.66666666666666</ele><time>2026-04-06T08:44:44.27Z</time></trkpt><trkpt lat="42.8375663" lon="11.190321"><ele>213.0</ele><time>2026-04-06T08:44:45.271Z</time></trkpt><trkpt lat="42.8375294" lon="11.1902"><ele>213.66666666666666</ele><time>2026-04-06T08:44:46.27Z</time></trkpt><trkpt lat="42.8374995" lon="11.1900903"><ele>214.33333333333331</ele><time>2026-04-06T08:44:47.271Z</time></trkpt><trkpt lat="42.8374826" lon="11.1899791"><ele>215.0</ele><time>2026-04-06T08:44:48.27Z</time></trkpt><trkpt lat="42.8374842" lon="11.1898749"><ele>215.66666666666666</ele><time>2026-04-06T08:44:49.271Z</time></trkpt><trkpt lat="42.8375017" lon="11.1897745"><ele>216.33333333333331</ele><time>2026-04-06T08:44:50.271Z</time></trkpt><trkpt lat="42.8375376" lon="11.1896967"><ele>217.0</ele><time>2026-04-06T08:44:51.271Z</time></trkpt><trkpt lat="42.8375954" lon="11.1896281"><ele>216.8</ele><time>2026-04-06T08:44:52.27Z</time></trkpt><trkpt lat="42.8376752" lon="11.1895679"><ele>216.6</ele><time>2026-04-06T08:44:53.271Z</time></trkpt><trkpt lat="42.8377555" lon="11.189502"><ele>216.40000000000003</ele><time>2026-04-06T08:44:54.27Z</time></trkpt><trkpt lat="42.8378286" lon="11.1894204"><ele>216.20000000000002</ele><time>2026-04-06T08:44:55.271Z</time></trkpt><trkpt lat="42.8378878" lon="11.1893264"><ele>216.0</ele><time>2026-04-06T08:44:56.271Z</time></trkpt><trkpt lat="42.8379346" lon="11.1891993"><ele>216.0</ele><time>2026-04-06T08:44:57.27Z</time></trkpt><trkpt lat="42.8379728" lon="11.1890871"><ele>216.00000000000003</ele><time>2026-04-06T08:44:58.27Z</time></trkpt><trkpt lat="42.8379999" lon="11.1889622"><ele>216.00000000000003</ele><time>2026-04-06T08:44:59.27Z</time></trkpt><trkpt lat="42.83804" lon="11.1888388"><ele>216.0</ele><time>2026-04-06T08:45:00.271Z</time></trkpt><trkpt lat="42.8381022" lon="11.1887194"><ele>216.0</ele><time>2026-04-06T08:45:01.27Z</time></trkpt><trkpt lat="42.8381708" lon="11.1886142"><ele>215.25</ele><time>2026-04-06T08:45:02.271Z</time></trkpt><trkpt lat="42.8382525" lon="11.1885026"><ele>214.5</ele><time>2026-04-06T08:45:03.271Z</time></trkpt><trkpt lat="42.8383459" lon="11.1883927"><ele>213.75</ele><time>2026-04-06T08:45:04.271Z</time></trkpt><trkpt lat="42.8384382" lon="11.1882753"><ele>213.0</ele><time>2026-04-06T08:45:05.27Z</time></trkpt><trkpt lat="42.8385327" lon="11.188155"><ele>211.0</ele><time>2026-04-06T08:45:06.271Z</time></trkpt><trkpt lat="42.8386305" lon="11.1880377"><ele>209.0</ele><time>2026-04-06T08:45:07.271Z</time></trkpt><trkpt lat="42.8387213" lon="11.1879257"><ele>207.0</ele><time>2026-04-06T08:45:08.271Z</time></trkpt><trkpt lat="42.8387988" lon="11.1878285"><ele>205.0</ele><time>2026-04-06T08:45:09.27Z</time></trkpt><trkpt lat="42.8388698" lon="11.1877399"><ele>205.0</ele><time>2026-04-06T08:45:10.27Z</time></trkpt><trkpt lat="42.8389469" lon="11.1876568"><ele>205.0</ele><time>2026-04-06T08:45:11.271Z</time></trkpt><trkpt lat="42.8390317" lon="11.1875947"><ele>205.0</ele><time>2026-04-06T08:45:12.271Z</time></trkpt><trkpt lat="42.8391229" lon="11.1875415"><ele>205.0</ele><time>2026-04-06T08:45:13.271Z</time></trkpt><trkpt lat="42.8392218" lon="11.1874956"><ele>205.0</ele><time>2026-04-06T08:45:14.27Z</time></trkpt><trkpt lat="42.8393186" lon="11.1874508"><ele>204.8</ele><time>2026-04-06T08:45:15.271Z</time></trkpt><trkpt lat="42.8394224" lon="11.1873971"><ele>204.6</ele><time>2026-04-06T08:45:16.271Z</time></trkpt><trkpt lat="42.839528" lon="11.1873382"><ele>204.39999999999998</ele><time>2026-04-06T08:45:17.271Z</time></trkpt><trkpt lat="42.8396218" lon="11.187276"><ele>204.2</ele><time>2026-04-06T08:45:18.271Z</time></trkpt><trkpt lat="42.8397074" lon="11.1872227"><ele>204.0</ele><time>2026-04-06T08:45:19.271Z</time></trkpt><trkpt lat="42.8397961" lon="11.1871676"><ele>204.0</ele><time>2026-04-06T08:45:20.27Z</time></trkpt><trkpt lat="42.8398872" lon="11.1871115"><ele>204.0</ele><time>2026-04-06T08:45:21.271Z</time></trkpt><trkpt lat="42.8399879" lon="11.1870514"><ele>204.0</ele><time>2026-04-06T08:45:22.27Z</time></trkpt><trkpt lat="42.8400846" lon="11.1869927"><ele>204.0</ele><time>2026-04-06T08:45:23.27Z</time></trkpt><trkpt lat="42.8401766" lon="11.1869258"><ele>204.0</ele><time>2026-04-06T08:45:24.27Z</time></trkpt><trkpt lat="42.8402568" lon="11.1868544"><ele>207.79999999999998</ele><time>2026-04-06T08:45:25.27Z</time></trkpt><trkpt lat="42.8403315" lon="11.1867801"><ele>211.6</ele><time>2026-04-06T08:45:26.271Z</time></trkpt><trkpt lat="42.8404069" lon="11.1866875"><ele>215.4</ele><time>2026-04-06T08:45:27.27Z</time></trkpt><trkpt lat="42.8404752" lon="11.186585"><ele>219.2</ele><time>2026-04-06T08:45:28.27Z</time></trkpt><trkpt lat="42.8405322" lon="11.1864871"><ele>223.0</ele><time>2026-04-06T08:45:29.27Z</time></trkpt><trkpt lat="42.8405736" lon="11.186389"><ele>223.16666666666666</ele><time>2026-04-06T08:45:30.271Z</time></trkpt><trkpt lat="42.8406025" lon="11.1862889"><ele>223.33333333333331</ele><time>2026-04-06T08:45:31.271Z</time></trkpt><trkpt lat="42.8406224" lon="11.1861904"><ele>223.5</ele><time>2026-04-06T08:45:32.271Z</time></trkpt><trkpt lat="42.840635" lon="11.1860936"><ele>223.66666666666669</ele><time>2026-04-06T08:45:33.271Z</time></trkpt><trkpt lat="42.840653" lon="11.1859528"><ele>223.83333333333334</ele><time>2026-04-06T08:45:35.27Z</time></trkpt><trkpt lat="42.8406243" lon="11.1858263"><ele>224.0</ele><time>2026-04-06T08:45:37.27Z</time></trkpt><trkpt lat="42.840554" lon="11.1857362"><ele>224.2</ele><time>2026-04-06T08:45:39.271Z</time></trkpt><trkpt lat="42.8404504" lon="11.1856407"><ele>224.39999999999998</ele><time>2026-04-06T08:45:41.271Z</time></trkpt><trkpt lat="42.8403914" lon="11.1855846"><ele>224.6</ele><time>2026-04-06T08:45:42.271Z</time></trkpt><trkpt lat="42.8403348" lon="11.1855433"><ele>224.8</ele><time>2026-04-06T08:45:43.271Z</time></trkpt><trkpt lat="42.8402383" lon="11.1854715"><ele>225.0</ele><time>2026-04-06T08:45:45.27Z</time></trkpt><trkpt lat="42.8401733" lon="11.1853895"><ele>225.0</ele><time>2026-04-06T08:45:47.271Z</time></trkpt><trkpt lat="42.8401843" lon="11.1852741"><ele>225.0</ele><time>2026-04-06T08:45:49.271Z</time></trkpt><trkpt lat="42.840251" lon="11.1851819"><ele>225.0</ele><time>2026-04-06T08:45:51.27Z</time></trkpt><trkpt lat="42.8403553" lon="11.1851487"><ele>225.0</ele><time>2026-04-06T08:45:53.27Z</time></trkpt><trkpt lat="42.8404176" lon="11.1851292"><ele>225.0</ele><time>2026-04-06T08:45:54.271Z</time></trkpt><trkpt lat="42.8404839" lon="11.1851073"><ele>225.0</ele><time>2026-04-06T08:45:55.27Z</time></trkpt><trkpt lat="42.8405536" lon="11.1850804"><ele>225.00000000000003</ele><time>2026-04-06T08:45:56.27Z</time></trkpt><trkpt lat="42.8406232" lon="11.1850573"><ele>225.0</ele><time>2026-04-06T08:45:57.271Z</time></trkpt><trkpt lat="42.8406937" lon="11.1850387"><ele>225.00000000000003</ele><time>2026-04-06T08:45:58.271Z</time></trkpt><trkpt lat="42.8407615" lon="11.1850209"><ele>225.00000000000003</ele><time>2026-04-06T08:45:59.27Z</time></trkpt><trkpt lat="42.8408324" lon="11.1850049"><ele>225.0</ele><time>2026-04-06T08:46:00.27Z</time></trkpt><trkpt lat="42.8409023" lon="11.1849877"><ele>225.00000000000003</ele><time>2026-04-06T08:46:01.271Z</time></trkpt><trkpt lat="42.8409683" lon="11.1849799"><ele>225.00000000000003</ele><time>2026-04-06T08:46:02.271Z</time></trkpt><trkpt lat="42.8410346" lon="11.1849657"><ele>226.2</ele><time>2026-04-06T08:46:03.271Z</time></trkpt><trkpt lat="42.8410983" lon="11.1849409"><ele>227.4</ele><time>2026-04-06T08:46:04.271Z</time></trkpt><trkpt lat="42.8411593" lon="11.1849103"><ele>228.60000000000002</ele><time>2026-04-06T08:46:05.27Z</time></trkpt><trkpt lat="42.8412717" lon="11.1848481"><ele>229.8</ele><time>2026-04-06T08:46:07.271Z</time></trkpt><trkpt lat="42.8413811" lon="11.1848292"><ele>231.0</ele><time>2026-04-06T08:46:09.271Z</time></trkpt><trkpt lat="42.8414927" lon="11.1848162"><ele>231.0</ele><time>2026-04-06T08:46:11.271Z</time></trkpt><trkpt lat="42.8415894" lon="11.1848035"><ele>231.00000000000003</ele><time>2026-04-06T08:46:13.27Z</time></trkpt><trkpt lat="42.8416638" lon="11.184783"><ele>231.00000000000003</ele><time>2026-04-06T08:46:15.271Z</time></trkpt><trkpt lat="42.8417519" lon="11.1847634"><ele>231.0</ele><time>2026-04-06T08:46:17.271Z</time></trkpt><trkpt lat="42.8418668" lon="11.1847451"><ele>231.0</ele><time>2026-04-06T08:46:19.27Z</time></trkpt><trkpt lat="42.841981" lon="11.1847317"><ele>234.0</ele><time>2026-04-06T08:46:21.271Z</time></trkpt><trkpt lat="42.8420971" lon="11.1847272"><ele>237.00000000000003</ele><time>2026-04-06T08:46:23.271Z</time></trkpt><trkpt lat="42.8422022" lon="11.1847246"><ele>240.00000000000003</ele><time>2026-04-06T08:46:25.27Z</time></trkpt><trkpt lat="42.8422779" lon="11.1847006"><ele>243.0</ele><time>2026-04-06T08:46:27.271Z</time></trkpt><trkpt lat="42.8423535" lon="11.1846406"><ele>246.0</ele><time>2026-04-06T08:46:29.271Z</time></trkpt><trkpt lat="42.8424402" lon="11.1845838"><ele>246.00000000000003</ele><time>2026-04-06T08:46:31.27Z</time></trkpt><trkpt lat="42.842552" lon="11.1845474"><ele>246.0</ele><time>2026-04-06T08:46:33.271Z</time></trkpt><trkpt lat="42.8426198" lon="11.1845307"><ele>246.00000000000003</ele><time>2026-04-06T08:46:34.271Z</time></trkpt><trkpt lat="42.8426867" lon="11.1845166"><ele>246.00000000000003</ele><time>2026-04-06T08:46:35.271Z</time></trkpt><trkpt lat="42.8427534" lon="11.1845052"><ele>246.0</ele><time>2026-04-06T08:46:36.271Z</time></trkpt><trkpt lat="42.8428168" lon="11.1844925"><ele>246.00000000000003</ele><time>2026-04-06T08:46:37.271Z</time></trkpt><trkpt lat="42.8428789" lon="11.1844716"><ele>246.00000000000003</ele><time>2026-04-06T08:46:38.271Z</time></trkpt><trkpt lat="42.8429454" lon="11.1844397"><ele>246.5</ele><time>2026-04-06T08:46:39.271Z</time></trkpt><trkpt lat="42.8430142" lon="11.1844048"><ele>247.0</ele><time>2026-04-06T08:46:40.271Z</time></trkpt><trkpt lat="42.8430783" lon="11.1843677"><ele>247.5</ele><time>2026-04-06T08:46:41.271Z</time></trkpt><trkpt lat="42.8431382" lon="11.1843257"><ele>248.0</ele><time>2026-04-06T08:46:42.271Z</time></trkpt><trkpt lat="42.8432018" lon="11.1842791"><ele>248.5</ele><time>2026-04-06T08:46:43.27Z</time></trkpt><trkpt lat="42.8433004" lon="11.1842017"><ele>249.0</ele><time>2026-04-06T08:46:45.271Z</time></trkpt><trkpt lat="42.8433895" lon="11.1841279"><ele>249.0</ele><time>2026-04-06T08:46:47.271Z</time></trkpt><trkpt lat="42.8434636" lon="11.1840638"><ele>249.0</ele><time>2026-04-06T08:46:49.271Z</time></trkpt><trkpt lat="42.843543" lon="11.1840138"><ele>249.0</ele><time>2026-04-06T08:46:52.271Z</time></trkpt><trkpt lat="42.8436096" lon="11.1839409"><ele>249.0</ele><time>2026-04-06T08:46:55.271Z</time></trkpt><trkpt lat="42.8436658" lon="11.1838822"><ele>249.0</ele><time>2026-04-06T08:46:59.271Z</time></trkpt><trkpt lat="42.843728" lon="11.1838524"><ele>249.0</ele><time>2026-04-06T08:48:05.271Z</time></trkpt><trkpt lat="42.8437671" lon="11.1837472"><ele>249.83333333333334</ele><time>2026-04-06T08:48:09.271Z</time></trkpt><trkpt lat="42.8438061" lon="11.1836524"><ele>250.66666666666669</ele><time>2026-04-06T08:48:12.271Z</time></trkpt><trkpt lat="42.8438451" lon="11.1835519"><ele>251.5</ele><time>2026-04-06T08:48:15.271Z</time></trkpt><trkpt lat="42.8438767" lon="11.1834564"><ele>252.33333333333334</ele><time>2026-04-06T08:48:17.271Z</time></trkpt><trkpt lat="42.8439041" lon="11.1833546"><ele>253.16666666666669</ele><time>2026-04-06T08:48:19.271Z</time></trkpt><trkpt lat="42.8439438" lon="11.1832611"><ele>254.0</ele><time>2026-04-06T08:48:21.271Z</time></trkpt><trkpt lat="42.8439734" lon="11.1831571"><ele>254.16666666666669</ele><time>2026-04-06T08:48:23.271Z</time></trkpt><trkpt lat="42.8439837" lon="11.1830452"><ele>254.33333333333334</ele><time>2026-04-06T08:48:25.271Z</time></trkpt><trkpt lat="42.8440071" lon="11.1829128"><ele>254.5</ele><time>2026-04-06T08:48:27.27Z</time></trkpt><trkpt lat="42.8440571" lon="11.1827531"><ele>254.66666666666669</ele><time>2026-04-06T08:48:29.271Z</time></trkpt><trkpt lat="42.8440847" lon="11.182666"><ele>254.83333333333334</ele><time>2026-04-06T08:48:30.27Z</time></trkpt><trkpt lat="42.8441175" lon="11.1825847"><ele>255.0</ele><time>2026-04-06T08:48:31.27Z</time></trkpt><trkpt lat="42.8441478" lon="11.1824931"><ele>255.0</ele><time>2026-04-06T08:48:32.27Z</time></trkpt><trkpt lat="42.8441753" lon="11.1824103"><ele>255.0</ele><time>2026-04-06T08:48:33.27Z</time></trkpt><trkpt lat="42.8442087" lon="11.1823306"><ele>255.0</ele><time>2026-04-06T08:48:34.27Z</time></trkpt><trkpt lat="42.8442409" lon="11.182249"><ele>255.0</ele><time>2026-04-06T08:48:35.271Z</time></trkpt><trkpt lat="42.8442701" lon="11.1821713"><ele>255.0</ele><time>2026-04-06T08:48:36.271Z</time></trkpt><trkpt lat="42.8443042" lon="11.1820892"><ele>255.0</ele><time>2026-04-06T08:48:37.271Z</time></trkpt><trkpt lat="42.8443704" lon="11.1819617"><ele>255.16666666666666</ele><time>2026-04-06T08:48:39.271Z</time></trkpt><trkpt lat="42.8444596" lon="11.1818569"><ele>255.33333333333331</ele><time>2026-04-06T08:48:41.271Z</time></trkpt><trkpt lat="42.8445658" lon="11.1817646"><ele>255.5</ele><time>2026-04-06T08:48:43.271Z</time></trkpt><trkpt lat="42.844621" lon="11.1817177"><ele>255.66666666666666</ele><time>2026-04-06T08:48:44.271Z</time></trkpt><trkpt lat="42.8446739" lon="11.1816616"><ele>255.83333333333331</ele><time>2026-04-06T08:48:45.271Z</time></trkpt><trkpt lat="42.8447239" lon="11.1816085"><ele>256.0</ele><time>2026-04-06T08:48:46.271Z</time></trkpt><trkpt lat="42.8447774" lon="11.1815395"><ele>255.99999999999997</ele><time>2026-04-06T08:48:47.27Z</time></trkpt><trkpt lat="42.8448201" lon="11.181468"><ele>256.0</ele><time>2026-04-06T08:48:48.27Z</time></trkpt><trkpt lat="42.844893" lon="11.1813294"><ele>256.0</ele><time>2026-04-06T08:48:50.271Z</time></trkpt><trkpt lat="42.8449119" lon="11.1812458"><ele>256.0</ele><time>2026-04-06T08:48:51.271Z</time></trkpt><trkpt lat="42.8449239" lon="11.1811589"><ele>255.99999999999997</ele><time>2026-04-06T08:48:52.271Z</time></trkpt><trkpt lat="42.8449339" lon="11.1810616"><ele>256.0</ele><time>2026-04-06T08:48:53.271Z</time></trkpt><trkpt lat="42.8449262" lon="11.1809652"><ele>256.0</ele><time>2026-04-06T08:48:54.271Z</time></trkpt><trkpt lat="42.8448963" lon="11.1808211"><ele>256.0</ele><time>2026-04-06T08:48:56.27Z</time></trkpt><trkpt lat="42.8448431" lon="11.1806911"><ele>256.0</ele><time>2026-04-06T08:48:58.27Z</time></trkpt><trkpt lat="42.8447888" lon="11.1805616"><ele>256.0</ele><time>2026-04-06T08:49:00.271Z</time></trkpt><trkpt lat="42.8447264" lon="11.180431"><ele>256.0</ele><time>2026-04-06T08:49:02.27Z</time></trkpt><trkpt lat="42.8446781" lon="11.1803163"><ele>254.85714285714283</ele><time>2026-04-06T08:49:04.271Z</time></trkpt><trkpt lat="42.8446314" lon="11.1802222"><ele>253.7142857142857</ele><time>2026-04-06T08:49:06.271Z</time></trkpt><trkpt lat="42.844591" lon="11.1801355"><ele>252.57142857142856</ele><time>2026-04-06T08:49:09.271Z</time></trkpt><trkpt lat="42.8446081" lon="11.1800498"><ele>251.42857142857144</ele><time>2026-04-06T08:49:15.27Z</time></trkpt><trkpt lat="42.8446643" lon="11.1799771"><ele>250.2857142857143</ele><time>2026-04-06T08:49:18.27Z</time></trkpt><trkpt lat="42.8447275" lon="11.1799396"><ele>249.14285714285717</ele><time>2026-04-06T08:49:23.271Z</time></trkpt><trkpt lat="42.8447934" lon="11.1799276"><ele>248.0</ele><time>2026-04-06T08:49:25.27Z</time></trkpt><trkpt lat="42.844876" lon="11.1799326"><ele>248.00000000000003</ele><time>2026-04-06T08:49:27.271Z</time></trkpt><trkpt lat="42.8449671" lon="11.1799002"><ele>248.0</ele><time>2026-04-06T08:49:29.27Z</time></trkpt><trkpt lat="42.8450634" lon="11.1798843"><ele>248.0</ele><time>2026-04-06T08:49:31.27Z</time></trkpt><trkpt lat="42.8451477" lon="11.1798984"><ele>248.0</ele><time>2026-04-06T08:49:33.27Z</time></trkpt><trkpt lat="42.8452255" lon="11.1799156"><ele>248.00000000000003</ele><time>2026-04-06T08:49:35.27Z</time></trkpt><trkpt lat="42.8453057" lon="11.1799216"><ele>248.0</ele><time>2026-04-06T08:49:37.271Z</time></trkpt><trkpt lat="42.8453821" lon="11.1799182"><ele>248.83333333333334</ele><time>2026-04-06T08:49:39.271Z</time></trkpt><trkpt lat="42.8454564" lon="11.1798888"><ele>249.66666666666669</ele><time>2026-04-06T08:49:41.271Z</time></trkpt><trkpt lat="42.8455216" lon="11.1798649"><ele>250.5</ele><time>2026-04-06T08:49:43.271Z</time></trkpt><trkpt lat="42.8456094" lon="11.1798477"><ele>251.33333333333331</ele><time>2026-04-06T08:49:46.27Z</time></trkpt><trkpt lat="42.8456728" lon="11.1798372"><ele>252.16666666666666</ele><time>2026-04-06T08:49:48.27Z</time></trkpt><trkpt lat="42.8457596" lon="11.1797848"><ele>253.0</ele><time>2026-04-06T08:49:51.271Z</time></trkpt><trkpt lat="42.8458037" lon="11.1796922"><ele>249.16666666666666</ele><time>2026-04-06T08:49:53.271Z</time></trkpt><trkpt lat="42.8458319" lon="11.17958"><ele>245.33333333333331</ele><time>2026-04-06T08:49:55.271Z</time></trkpt><trkpt lat="42.8458637" lon="11.1794793"><ele>241.5</ele><time>2026-04-06T08:49:57.27Z</time></trkpt><trkpt lat="42.8458771" lon="11.1793779"><ele>237.66666666666669</ele><time>2026-04-06T08:49:59.27Z</time></trkpt><trkpt lat="42.8458905" lon="11.1792751"><ele>233.83333333333334</ele><time>2026-04-06T08:50:01.27Z</time></trkpt><trkpt lat="42.8459607" lon="11.1792026"><ele>230.0</ele><time>2026-04-06T08:50:04.27Z</time></trkpt><trkpt lat="42.84604" lon="11.1792505"><ele>229.99999999999997</ele><time>2026-04-06T08:50:07.27Z</time></trkpt><trkpt lat="42.8460786" lon="11.1793247"><ele>230.0</ele><time>2026-04-06T08:50:09.271Z</time></trkpt><trkpt lat="42.8461232" lon="11.1793966"><ele>229.99999999999997</ele><time>2026-04-06T08:50:11.271Z</time></trkpt><trkpt lat="42.8461681" lon="11.1794623"><ele>229.99999999999997</ele><time>2026-04-06T08:50:13.27Z</time></trkpt><trkpt lat="42.846223" lon="11.1795106"><ele>230.0</ele><time>2026-04-06T08:50:15.27Z</time></trkpt><trkpt lat="42.846302" lon="11.179536"><ele>229.99999999999997</ele><time>2026-04-06T08:50:17.27Z</time></trkpt><trkpt lat="42.8463792" lon="11.179547"><ele>229.99999999999997</ele><time>2026-04-06T08:50:19.271Z</time></trkpt><trkpt lat="42.8464522" lon="11.179561"><ele>230.00000000000003</ele><time>2026-04-06T08:50:21.271Z</time></trkpt><trkpt lat="42.8465227" lon="11.1795801"><ele>230.0</ele><time>2026-04-06T08:50:23.271Z</time></trkpt><trkpt lat="42.8465995" lon="11.1795895"><ele>230.0</ele><time>2026-04-06T08:50:25.271Z</time></trkpt><trkpt lat="42.8466674" lon="11.1795479"><ele>230.0</ele><time>2026-04-06T08:50:27.271Z</time></trkpt><trkpt lat="42.8467043" lon="11.17944"><ele>230.00000000000003</ele><time>2026-04-06T08:50:29.271Z</time></trkpt><trkpt lat="42.8467357" lon="11.1793278"><ele>230.0</ele><time>2026-04-06T08:50:31.271Z</time></trkpt><trkpt lat="42.8467666" lon="11.1792134"><ele>230.0</ele><time>2026-04-06T08:50:33.271Z</time></trkpt><trkpt lat="42.8467877" lon="11.1791034"><ele>230.0</ele><time>2026-04-06T08:50:35.27Z</time></trkpt><trkpt lat="42.8468149" lon="11.1789878"><ele>230.0</ele><time>2026-04-06T08:50:37.271Z</time></trkpt><trkpt lat="42.8468473" lon="11.178857"><ele>230.0</ele><time>2026-04-06T08:50:39.27Z</time></trkpt><trkpt lat="42.8468754" lon="11.1787252"><ele>230.0</ele><time>2026-04-06T08:50:41.27Z</time></trkpt><trkpt lat="42.8469047" lon="11.1785903"><ele>226.66666666666669</ele><time>2026-04-06T08:50:43.271Z</time></trkpt><trkpt lat="42.8469377" lon="11.1784722"><ele>223.33333333333334</ele><time>2026-04-06T08:50:45.271Z</time></trkpt><trkpt lat="42.8469626" lon="11.1783603"><ele>220.0</ele><time>2026-04-06T08:50:47.271Z</time></trkpt><trkpt lat="42.8469832" lon="11.1782522"><ele>216.66666666666669</ele><time>2026-04-06T08:50:49.27Z</time></trkpt><trkpt lat="42.8470121" lon="11.1781501"><ele>213.33333333333334</ele><time>2026-04-06T08:50:51.27Z</time></trkpt><trkpt lat="42.8470575" lon="11.178077"><ele>210.0</ele><time>2026-04-06T08:50:53.271Z</time></trkpt><trkpt lat="42.8471205" lon="11.1780455"><ele>210.0</ele><time>2026-04-06T08:50:55.271Z</time></trkpt><trkpt lat="42.8471858" lon="11.1780668"><ele>210.0</ele><time>2026-04-06T08:50:57.27Z</time></trkpt><trkpt lat="42.8472373" lon="11.1781423"><ele>210.0</ele><time>2026-04-06T08:50:59.271Z</time></trkpt><trkpt lat="42.8472975" lon="11.178224"><ele>210.0</ele><time>2026-04-06T08:51:01.27Z</time></trkpt><trkpt lat="42.8473511" lon="11.1783349"><ele>210.0</ele><time>2026-04-06T08:51:03.271Z</time></trkpt><trkpt lat="42.8473889" lon="11.1784484"><ele>210.0</ele><time>2026-04-06T08:51:05.271Z</time></trkpt><trkpt lat="42.847408" lon="11.1785663"><ele>210.0</ele><time>2026-04-06T08:51:07.27Z</time></trkpt><trkpt lat="42.847426" lon="11.1786886"><ele>210.0</ele><time>2026-04-06T08:51:09.271Z</time></trkpt><trkpt lat="42.8474457" lon="11.1787927"><ele>210.0</ele><time>2026-04-06T08:51:11.27Z</time></trkpt><trkpt lat="42.8474686" lon="11.1788905"><ele>210.0</ele><time>2026-04-06T08:51:13.27Z</time></trkpt><trkpt lat="42.8475041" lon="11.1789638"><ele>210.0</ele><time>2026-04-06T08:51:15.27Z</time></trkpt><trkpt lat="42.8475575" lon="11.1790191"><ele>210.0</ele><time>2026-04-06T08:51:17.271Z</time></trkpt><trkpt lat="42.8476444" lon="11.1790183"><ele>209.42857142857142</ele><time>2026-04-06T08:51:20.271Z</time></trkpt><trkpt lat="42.847684" lon="11.1789382"><ele>208.85714285714286</ele><time>2026-04-06T08:51:23.271Z</time></trkpt><trkpt lat="42.8477199" lon="11.1788439"><ele>208.28571428571428</ele><time>2026-04-06T08:51:26.271Z</time></trkpt><trkpt lat="42.8477748" lon="11.178765"><ele>207.71428571428572</ele><time>2026-04-06T08:51:29.27Z</time></trkpt><trkpt lat="42.8478191" lon="11.1787004"><ele>207.14285714285714</ele><time>2026-04-06T08:51:31.27Z</time></trkpt><trkpt lat="42.8478689" lon="11.1786278"><ele>206.57142857142856</ele><time>2026-04-06T08:51:33.271Z</time></trkpt><trkpt lat="42.8479137" lon="11.178552"><ele>206.0</ele><time>2026-04-06T08:51:35.27Z</time></trkpt><trkpt lat="42.8479674" lon="11.1784763"><ele>206.00000000000003</ele><time>2026-04-06T08:51:37.271Z</time></trkpt><trkpt lat="42.8480148" lon="11.178384"><ele>206.0</ele><time>2026-04-06T08:51:39.271Z</time></trkpt><trkpt lat="42.8480544" lon="11.1782888"><ele>206.0</ele><time>2026-04-06T08:51:41.27Z</time></trkpt><trkpt lat="42.8481032" lon="11.1782145"><ele>206.0</ele><time>2026-04-06T08:51:43.27Z</time></trkpt><trkpt lat="42.8481675" lon="11.1781505"><ele>206.00000000000003</ele><time>2026-04-06T08:51:45.27Z</time></trkpt><trkpt lat="42.8482524" lon="11.1781254"><ele>206.0</ele><time>2026-04-06T08:51:47.271Z</time></trkpt><trkpt lat="42.8483453" lon="11.1781245"><ele>202.16666666666669</ele><time>2026-04-06T08:51:49.271Z</time></trkpt><trkpt lat="42.8484375" lon="11.1781332"><ele>198.33333333333334</ele><time>2026-04-06T08:51:51.271Z</time></trkpt><trkpt lat="42.8485227" lon="11.178148"><ele>194.5</ele><time>2026-04-06T08:51:53.27Z</time></trkpt><trkpt lat="42.84861" lon="11.1781574"><ele>190.66666666666669</ele><time>2026-04-06T08:51:55.271Z</time></trkpt><trkpt lat="42.8486869" lon="11.1781501"><ele>186.83333333333334</ele><time>2026-04-06T08:51:57.27Z</time></trkpt><trkpt lat="42.848761" lon="11.1781317"><ele>183.0</ele><time>2026-04-06T08:51:59.271Z</time></trkpt><trkpt lat="42.8488366" lon="11.1781129"><ele>181.5</ele><time>2026-04-06T08:52:01.271Z</time></trkpt><trkpt lat="42.848909" lon="11.1781109"><ele>180.0</ele><time>2026-04-06T08:52:03.27Z</time></trkpt><trkpt lat="42.848983" lon="11.1781478"><ele>178.5</ele><time>2026-04-06T08:52:05.271Z</time></trkpt><trkpt lat="42.8490515" lon="11.1782066"><ele>177.0</ele><time>2026-04-06T08:52:07.271Z</time></trkpt><trkpt lat="42.8491065" lon="11.1782737"><ele>175.5</ele><time>2026-04-06T08:52:09.271Z</time></trkpt><trkpt lat="42.8491563" lon="11.1783639"><ele>174.0</ele><time>2026-04-06T08:52:11.27Z</time></trkpt><trkpt lat="42.8492009" lon="11.1784761"><ele>175.16666666666666</ele><time>2026-04-06T08:52:13.271Z</time></trkpt><trkpt lat="42.8492423" lon="11.178582"><ele>176.33333333333334</ele><time>2026-04-06T08:52:15.271Z</time></trkpt><trkpt lat="42.849278" lon="11.1786905"><ele>177.5</ele><time>2026-04-06T08:52:17.271Z</time></trkpt><trkpt lat="42.8493016" lon="11.1787825"><ele>178.66666666666669</ele><time>2026-04-06T08:52:19.27Z</time></trkpt><trkpt lat="42.8493327" lon="11.1788908"><ele>179.83333333333334</ele><time>2026-04-06T08:52:22.271Z</time></trkpt><trkpt lat="42.8494085" lon="11.1789456"><ele>181.0</ele><time>2026-04-06T08:52:25.271Z</time></trkpt><trkpt lat="42.8494799" lon="11.1788933"><ele>181.0</ele><time>2026-04-06T08:52:28.27Z</time></trkpt><trkpt lat="42.8495256" lon="11.1788256"><ele>181.0</ele><time>2026-04-06T08:52:30.271Z</time></trkpt><trkpt lat="42.8495554" lon="11.1787396"><ele>181.0</ele><time>2026-04-06T08:52:32.271Z</time></trkpt><trkpt lat="42.8495917" lon="11.1786287"><ele>181.0</ele><time>2026-04-06T08:52:35.271Z</time></trkpt><trkpt lat="42.8496284" lon="11.1785219"><ele>181.0</ele><time>2026-04-06T08:52:38.27Z</time></trkpt><trkpt lat="42.8496696" lon="11.1784506"><ele>181.0</ele><time>2026-04-06T08:52:40.271Z</time></trkpt><trkpt lat="42.8497446" lon="11.1784031"><ele>181.0</ele><time>2026-04-06T08:52:42.271Z</time></trkpt><trkpt lat="42.8498251" lon="11.1783848"><ele>181.0</ele><time>2026-04-06T08:52:44.271Z</time></trkpt><trkpt lat="42.8499164" lon="11.1783976"><ele>181.0</ele><time>2026-04-06T08:52:46.27Z</time></trkpt><trkpt lat="42.8500076" lon="11.1784121"><ele>181.0</ele><time>2026-04-06T08:52:48.271Z</time></trkpt><trkpt lat="42.8500849" lon="11.1784389"><ele>181.0</ele><time>2026-04-06T08:52:50.271Z</time></trkpt><trkpt lat="42.8501644" lon="11.1784644"><ele>181.0</ele><time>2026-04-06T08:52:52.271Z</time></trkpt><trkpt lat="42.8502387" lon="11.1784718"><ele>181.66666666666669</ele><time>2026-04-06T08:52:54.271Z</time></trkpt><trkpt lat="42.8503174" lon="11.1784685"><ele>182.33333333333334</ele><time>2026-04-06T08:52:56.271Z</time></trkpt><trkpt lat="42.8503911" lon="11.1784395"><ele>183.0</ele><time>2026-04-06T08:52:58.271Z</time></trkpt><trkpt lat="42.8504601" lon="11.1783824"><ele>183.66666666666666</ele><time>2026-04-06T08:53:00.271Z</time></trkpt><trkpt lat="42.8505406" lon="11.1783102"><ele>184.33333333333331</ele><time>2026-04-06T08:53:02.271Z</time></trkpt><trkpt lat="42.8506164" lon="11.1782456"><ele>185.0</ele><time>2026-04-06T08:53:04.271Z</time></trkpt><trkpt lat="42.8506782" lon="11.1782018"><ele>181.42857142857142</ele><time>2026-04-06T08:53:06.27Z</time></trkpt><trkpt lat="42.8507444" lon="11.1781613"><ele>177.85714285714286</ele><time>2026-04-06T08:53:08.271Z</time></trkpt><trkpt lat="42.8508082" lon="11.1781045"><ele>174.28571428571428</ele><time>2026-04-06T08:53:10.27Z</time></trkpt><trkpt lat="42.850871" lon="11.1780476"><ele>170.71428571428572</ele><time>2026-04-06T08:53:12.271Z</time></trkpt><trkpt lat="42.8509346" lon="11.177994"><ele>167.14285714285714</ele><time>2026-04-06T08:53:14.271Z</time></trkpt><trkpt lat="42.8509981" lon="11.177945"><ele>163.57142857142856</ele><time>2026-04-06T08:53:16.271Z</time></trkpt><trkpt lat="42.8510588" lon="11.1778801"><ele>160.0</ele><time>2026-04-06T08:53:18.27Z</time></trkpt><trkpt lat="42.8511454" lon="11.1778425"><ele>160.0</ele><time>2026-04-06T08:53:20.27Z</time></trkpt><trkpt lat="42.8512334" lon="11.1778196"><ele>160.0</ele><time>2026-04-06T08:53:22.271Z</time></trkpt><trkpt lat="42.8513171" lon="11.1778045"><ele>160.0</ele><time>2026-04-06T08:53:24.271Z</time></trkpt><trkpt lat="42.8514009" lon="11.1777672"><ele>160.0</ele><time>2026-04-06T08:53:26.271Z</time></trkpt><trkpt lat="42.8514931" lon="11.177755"><ele>160.0</ele><time>2026-04-06T08:53:28.271Z</time></trkpt><trkpt lat="42.851558" lon="11.1777449"><ele>160.0</ele><time>2026-04-06T08:53:30.271Z</time></trkpt><trkpt lat="42.8516348" lon="11.1777427"><ele>160.0</ele><time>2026-04-06T08:53:32.271Z</time></trkpt><trkpt lat="42.8517139" lon="11.177748"><ele>160.0</ele><time>2026-04-06T08:53:34.27Z</time></trkpt><trkpt lat="42.8517923" lon="11.1777552"><ele>160.0</ele><time>2026-04-06T08:53:36.271Z</time></trkpt><trkpt lat="42.851873" lon="11.1777644"><ele>160.0</ele><time>2026-04-06T08:53:38.271Z</time></trkpt><trkpt lat="42.8519498" lon="11.1777772"><ele>160.0</ele><time>2026-04-06T08:53:40.27Z</time></trkpt><trkpt lat="42.8520231" lon="11.1778012"><ele>160.0</ele><time>2026-04-06T08:53:42.271Z</time></trkpt><trkpt lat="42.8521131" lon="11.1777978"><ele>158.8</ele><time>2026-04-06T08:53:44.271Z</time></trkpt><trkpt lat="42.8522179" lon="11.1777821"><ele>157.6</ele><time>2026-04-06T08:53:46.271Z</time></trkpt><trkpt lat="42.8523143" lon="11.1777787"><ele>156.4</ele><time>2026-04-06T08:53:48.271Z</time></trkpt><trkpt lat="42.8524093" lon="11.1777734"><ele>155.2</ele><time>2026-04-06T08:53:50.27Z</time></trkpt><trkpt lat="42.8524947" lon="11.1777664"><ele>154.0</ele><time>2026-04-06T08:53:52.271Z</time></trkpt><trkpt lat="42.8525793" lon="11.1777576"><ele>153.0</ele><time>2026-04-06T08:53:54.271Z</time></trkpt><trkpt lat="42.8526504" lon="11.1777464"><ele>152.0</ele><time>2026-04-06T08:53:56.271Z</time></trkpt><trkpt lat="42.8527228" lon="11.1777468"><ele>151.0</ele><time>2026-04-06T08:53:58.27Z</time></trkpt><trkpt lat="42.8527992" lon="11.1777154"><ele>150.0</ele><time>2026-04-06T08:54:00.27Z</time></trkpt><trkpt lat="42.8528725" lon="11.1776491"><ele>149.0</ele><time>2026-04-06T08:54:02.271Z</time></trkpt><trkpt lat="42.8529436" lon="11.1775892"><ele>148.0</ele><time>2026-04-06T08:54:04.27Z</time></trkpt><trkpt lat="42.8530129" lon="11.1775425"><ele>148.0</ele><time>2026-04-06T08:54:06.271Z</time></trkpt><trkpt lat="42.853086" lon="11.1775198"><ele>148.0</ele><time>2026-04-06T08:54:08.271Z</time></trkpt><trkpt lat="42.8531577" lon="11.17749"><ele>148.0</ele><time>2026-04-06T08:54:10.271Z</time></trkpt><trkpt lat="42.8532361" lon="11.1774722"><ele>148.0</ele><time>2026-04-06T08:54:12.271Z</time></trkpt><trkpt lat="42.8533114" lon="11.1774774"><ele>148.0</ele><time>2026-04-06T08:54:14.27Z</time></trkpt><trkpt lat="42.8533807" lon="11.1774864"><ele>148.0</ele><time>2026-04-06T08:54:16.271Z</time></trkpt><trkpt lat="42.8534523" lon="11.1775246"><ele>144.20000000000002</ele><time>2026-04-06T08:54:18.271Z</time></trkpt><trkpt lat="42.8535362" lon="11.1776015"><ele>140.4</ele><time>2026-04-06T08:54:20.27Z</time></trkpt><trkpt lat="42.853618" lon="11.1776844"><ele>136.60000000000002</ele><time>2026-04-06T08:54:22.271Z</time></trkpt><trkpt lat="42.8536968" lon="11.1777778"><ele>132.8</ele><time>2026-04-06T08:54:24.271Z</time></trkpt><trkpt lat="42.8537722" lon="11.1778643"><ele>129.0</ele><time>2026-04-06T08:54:26.271Z</time></trkpt><trkpt lat="42.8538433" lon="11.17795"><ele>129.0</ele><time>2026-04-06T08:54:28.27Z</time></trkpt><trkpt lat="42.8539108" lon="11.1780248"><ele>129.0</ele><time>2026-04-06T08:54:30.271Z</time></trkpt><trkpt lat="42.8539743" lon="11.1781027"><ele>129.0</ele><time>2026-04-06T08:54:32.271Z</time></trkpt><trkpt lat="42.8540318" lon="11.1781784"><ele>129.0</ele><time>2026-04-06T08:54:34.27Z</time></trkpt><trkpt lat="42.854089" lon="11.1782245"><ele>129.0</ele><time>2026-04-06T08:54:36.27Z</time></trkpt><trkpt lat="42.8541741" lon="11.1782626"><ele>129.0</ele><time>2026-04-06T08:54:39.27Z</time></trkpt><trkpt lat="42.8542665" lon="11.1783151"><ele>129.16666666666666</ele><time>2026-04-06T08:54:42.271Z</time></trkpt><trkpt lat="42.8543708" lon="11.178367"><ele>129.33333333333334</ele><time>2026-04-06T08:54:44.271Z</time></trkpt><trkpt lat="42.8544609" lon="11.1784057"><ele>129.5</ele><time>2026-04-06T08:54:46.271Z</time></trkpt><trkpt lat="42.8545374" lon="11.1784341"><ele>129.66666666666669</ele><time>2026-04-06T08:54:48.271Z</time></trkpt><trkpt lat="42.854615" lon="11.1784707"><ele>129.83333333333334</ele><time>2026-04-06T08:54:50.27Z</time></trkpt><trkpt lat="42.8546817" lon="11.178512"><ele>130.0</ele><time>2026-04-06T08:54:52.271Z</time></trkpt><trkpt lat="42.8547472" lon="11.1785551"><ele>130.0</ele><time>2026-04-06T08:54:55.271Z</time></trkpt><trkpt lat="42.8548177" lon="11.1786014"><ele>130.0</ele><time>2026-04-06T08:54:58.271Z</time></trkpt><trkpt lat="42.8548892" lon="11.178669"><ele>130.0</ele><time>2026-04-06T08:55:01.271Z</time></trkpt><trkpt lat="42.8549411" lon="11.1787511"><ele>130.0</ele><time>2026-04-06T08:55:03.271Z</time></trkpt><trkpt lat="42.854976" lon="11.1788929"><ele>130.0</ele><time>2026-04-06T08:55:05.27Z</time></trkpt><trkpt lat="42.8550035" lon="11.1790104"><ele>130.0</ele><time>2026-04-06T08:55:07.271Z</time></trkpt><trkpt lat="42.8550534" lon="11.1791231"><ele>128.0</ele><time>2026-04-06T08:55:09.27Z</time></trkpt><trkpt lat="42.8551339" lon="11.1792404"><ele>126.0</ele><time>2026-04-06T08:55:11.27Z</time></trkpt><trkpt lat="42.8551895" lon="11.179295"><ele>124.0</ele><time>2026-04-06T08:55:12.271Z</time></trkpt><trkpt lat="42.8552482" lon="11.1793503"><ele>122.0</ele><time>2026-04-06T08:55:13.271Z</time></trkpt><trkpt lat="42.8552982" lon="11.1794044"><ele>120.00000000000001</ele><time>2026-04-06T08:55:14.271Z</time></trkpt><trkpt lat="42.8553528" lon="11.179457"><ele>118.0</ele><time>2026-04-06T08:55:15.271Z</time></trkpt><trkpt lat="42.8554316" lon="11.1795591"><ele>118.0</ele><time>2026-04-06T08:55:17.271Z</time></trkpt><trkpt lat="42.8554988" lon="11.1796458"><ele>118.00000000000001</ele><time>2026-04-06T08:55:19.271Z</time></trkpt><trkpt lat="42.8555654" lon="11.1797678"><ele>118.00000000000001</ele><time>2026-04-06T08:55:21.27Z</time></trkpt><trkpt lat="42.85562" lon="11.1798804"><ele>118.0</ele><time>2026-04-06T08:55:23.27Z</time></trkpt><trkpt lat="42.8556729" lon="11.1799971"><ele>118.0</ele><time>2026-04-06T08:55:25.27Z</time></trkpt><trkpt lat="42.8557252" lon="11.1801088"><ele>120.00000000000001</ele><time>2026-04-06T08:55:27.27Z</time></trkpt><trkpt lat="42.8557684" lon="11.1802164"><ele>122.0</ele><time>2026-04-06T08:55:29.271Z</time></trkpt><trkpt lat="42.8558115" lon="11.1803059"><ele>124.0</ele><time>2026-04-06T08:55:31.27Z</time></trkpt><trkpt lat="42.8558451" lon="11.180405"><ele>126.0</ele><time>2026-04-06T08:55:33.271Z</time></trkpt><trkpt lat="42.8558721" lon="11.1805224"><ele>128.0</ele><time>2026-04-06T08:55:35.271Z</time></trkpt><trkpt lat="42.8558946" lon="11.1806407"><ele>130.0</ele><time>2026-04-06T08:55:37.271Z</time></trkpt><trkpt lat="42.8559138" lon="11.180767"><ele>130.16666666666669</ele><time>2026-04-06T08:55:39.27Z</time></trkpt><trkpt lat="42.8559244" lon="11.1808799"><ele>130.33333333333334</ele><time>2026-04-06T08:55:41.271Z</time></trkpt><trkpt lat="42.8559271" lon="11.1809882"><ele>130.5</ele><time>2026-04-06T08:55:43.271Z</time></trkpt><trkpt lat="42.8558997" lon="11.1810879"><ele>130.66666666666666</ele><time>2026-04-06T08:55:45.271Z</time></trkpt><trkpt lat="42.8558513" lon="11.1811687"><ele>130.83333333333331</ele><time>2026-04-06T08:55:47.27Z</time></trkpt><trkpt lat="42.8557816" lon="11.1812378"><ele>131.0</ele><time>2026-04-06T08:55:50.27Z</time></trkpt><trkpt lat="42.8557404" lon="11.1813036"><ele>131.0</ele><time>2026-04-06T08:55:52.27Z</time></trkpt><trkpt lat="42.8557785" lon="11.1813827"><ele>131.0</ele><time>2026-04-06T08:56:01.27Z</time></trkpt><trkpt lat="42.8558623" lon="11.1813465"><ele>131.0</ele><time>2026-04-06T08:56:04.271Z</time></trkpt><trkpt lat="42.8559305" lon="11.1812855"><ele>131.0</ele><time>2026-04-06T08:56:07.271Z</time></trkpt><trkpt lat="42.8559764" lon="11.1812209"><ele>131.0</ele><time>2026-04-06T08:56:09.271Z</time></trkpt><trkpt lat="42.8560459" lon="11.1811471"><ele>131.0</ele><time>2026-04-06T08:56:12.271Z</time></trkpt><trkpt lat="42.8561148" lon="11.1810987"><ele>127.16666666666666</ele><time>2026-04-06T08:56:15.271Z</time></trkpt><trkpt lat="42.8561878" lon="11.181037"><ele>123.33333333333333</ele><time>2026-04-06T08:56:18.27Z</time></trkpt><trkpt lat="42.8562595" lon="11.1809719"><ele>119.5</ele><time>2026-04-06T08:56:21.271Z</time></trkpt><trkpt lat="42.8563134" lon="11.1809252"><ele>115.66666666666666</ele><time>2026-04-06T08:56:23.271Z</time></trkpt><trkpt lat="42.8563811" lon="11.1808565"><ele>111.83333333333333</ele><time>2026-04-06T08:56:26.27Z</time></trkpt><trkpt lat="42.8564701" lon="11.1808468"><ele>108.0</ele><time>2026-04-06T08:56:29.271Z</time></trkpt><trkpt lat="42.8565434" lon="11.1808772"><ele>108.0</ele><time>2026-04-06T08:56:31.271Z</time></trkpt><trkpt lat="42.8566108" lon="11.1809209"><ele>108.00000000000001</ele><time>2026-04-06T08:56:33.271Z</time></trkpt><trkpt lat="42.8566545" lon="11.1810195"><ele>108.00000000000001</ele><time>2026-04-06T08:56:35.271Z</time></trkpt><trkpt lat="42.8567035" lon="11.1811567"><ele>108.0</ele><time>2026-04-06T08:56:37.271Z</time></trkpt><trkpt lat="42.8567454" lon="11.1812857"><ele>108.0</ele><time>2026-04-06T08:56:39.271Z</time></trkpt><trkpt lat="42.8567827" lon="11.1814258"><ele>109.80000000000001</ele><time>2026-04-06T08:56:41.27Z</time></trkpt><trkpt lat="42.856829" lon="11.1815736"><ele>111.60000000000001</ele><time>2026-04-06T08:56:43.27Z</time></trkpt><trkpt lat="42.8568699" lon="11.1816954"><ele>113.39999999999999</ele><time>2026-04-06T08:56:45.271Z</time></trkpt><trkpt lat="42.8568996" lon="11.1818281"><ele>115.19999999999999</ele><time>2026-04-06T08:56:47.271Z</time></trkpt><trkpt lat="42.8569249" lon="11.1819865"><ele>117.0</ele><time>2026-04-06T08:56:49.271Z</time></trkpt><trkpt lat="42.8569412" lon="11.1820743"><ele>117.0</ele><time>2026-04-06T08:56:50.271Z</time></trkpt><trkpt lat="42.8569518" lon="11.1822424"><ele>116.99999999999999</ele><time>2026-04-06T08:56:52.271Z</time></trkpt><trkpt lat="42.8569545" lon="11.1823348"><ele>116.99999999999999</ele><time>2026-04-06T08:56:53.271Z</time></trkpt><trkpt lat="42.8569582" lon="11.1824273"><ele>117.0</ele><time>2026-04-06T08:56:54.271Z</time></trkpt><trkpt lat="42.8569713" lon="11.1825988"><ele>117.0</ele><time>2026-04-06T08:56:56.271Z</time></trkpt><trkpt lat="42.8569866" lon="11.1826854"><ele>117.0</ele><time>2026-04-06T08:56:57.271Z</time></trkpt><trkpt lat="42.8570292" lon="11.1828413"><ele>116.99999999999999</ele><time>2026-04-06T08:56:59.271Z</time></trkpt><trkpt lat="42.857077" lon="11.1829793"><ele>116.99999999999999</ele><time>2026-04-06T08:57:01.271Z</time></trkpt><trkpt lat="42.8571132" lon="11.1830899"><ele>117.0</ele><time>2026-04-06T08:57:03.27Z</time></trkpt><trkpt lat="42.8571769" lon="11.1831556"><ele>117.0</ele><time>2026-04-06T08:57:05.271Z</time></trkpt><trkpt lat="42.8572612" lon="11.18321"><ele>117.0</ele><time>2026-04-06T08:57:07.271Z</time></trkpt><trkpt lat="42.8573599" lon="11.1832667"><ele>116.99999999999999</ele><time>2026-04-06T08:57:09.271Z</time></trkpt><trkpt lat="42.8574399" lon="11.1833403"><ele>116.99999999999999</ele><time>2026-04-06T08:57:11.271Z</time></trkpt><trkpt lat="42.8575018" lon="11.1834602"><ele>117.0</ele><time>2026-04-06T08:57:13.27Z</time></trkpt><trkpt lat="42.8575497" lon="11.1836157"><ele>117.0</ele><time>2026-04-06T08:57:15.271Z</time></trkpt><trkpt lat="42.8575744" lon="11.1837043"><ele>117.0</ele><time>2026-04-06T08:57:16.271Z</time></trkpt><trkpt lat="42.8576018" lon="11.1837897"><ele>117.0</ele><time>2026-04-06T08:57:17.271Z</time></trkpt><trkpt lat="42.8576316" lon="11.1838739"><ele>117.0</ele><time>2026-04-06T08:57:18.271Z</time></trkpt><trkpt lat="42.8576597" lon="11.1839547"><ele>117.0</ele><time>2026-04-06T08:57:19.271Z</time></trkpt><trkpt lat="42.8577005" lon="11.1840835"><ele>117.0</ele><time>2026-04-06T08:57:21.27Z</time></trkpt><trkpt lat="42.8577281" lon="11.1841746"><ele>117.0</ele><time>2026-04-06T08:57:23.271Z</time></trkpt><trkpt lat="42.8577896" lon="11.1842385"><ele>119.39999999999999</ele><time>2026-04-06T08:57:26.27Z</time></trkpt><trkpt lat="42.8578797" lon="11.1841985"><ele>121.79999999999998</ele><time>2026-04-06T08:57:29.271Z</time></trkpt><trkpt lat="42.8579658" lon="11.1841028"><ele>124.2</ele><time>2026-04-06T08:57:31.271Z</time></trkpt><trkpt lat="42.8580538" lon="11.1840222"><ele>126.6</ele><time>2026-04-06T08:57:33.27Z</time></trkpt><trkpt lat="42.8581382" lon="11.1839576"><ele>129.0</ele><time>2026-04-06T08:57:35.271Z</time></trkpt><trkpt lat="42.8581429" lon="11.1838509"><ele>129.0</ele><time>2026-04-06T08:57:37.271Z</time></trkpt><trkpt lat="42.8581691" lon="11.1837621"><ele>129.0</ele><time>2026-04-06T08:57:39.271Z</time></trkpt><trkpt lat="42.8581444" lon="11.1836651"><ele>129.0</ele><time>2026-04-06T08:57:41.271Z</time></trkpt><trkpt lat="42.8581361" lon="11.1835396"><ele>129.0</ele><time>2026-04-06T08:57:44.27Z</time></trkpt><trkpt lat="42.8581368" lon="11.1834053"><ele>129.0</ele><time>2026-04-06T08:57:46.271Z</time></trkpt><trkpt lat="42.8581272" lon="11.1832468"><ele>128.0</ele><time>2026-04-06T08:57:48.271Z</time></trkpt><trkpt lat="42.85813" lon="11.1830782"><ele>127.0</ele><time>2026-04-06T08:57:50.271Z</time></trkpt><trkpt lat="42.8581427" lon="11.182908"><ele>126.0</ele><time>2026-04-06T08:57:52.27Z</time></trkpt><trkpt lat="42.8581556" lon="11.1828239"><ele>125.0</ele><time>2026-04-06T08:57:53.27Z</time></trkpt><trkpt lat="42.8581772" lon="11.1827403"><ele>124.0</ele><time>2026-04-06T08:57:54.271Z</time></trkpt><trkpt lat="42.858209" lon="11.18266"><ele>123.0</ele><time>2026-04-06T08:57:55.27Z</time></trkpt><trkpt lat="42.8582299" lon="11.1825651"><ele>123.0</ele><time>2026-04-06T08:57:56.271Z</time></trkpt><trkpt lat="42.8582659" lon="11.1824088"><ele>123.0</ele><time>2026-04-06T08:57:58.271Z</time></trkpt><trkpt lat="42.8582334" lon="11.1820562"><ele>123.0</ele><time>2026-04-06T09:00:49.266Z</time></trkpt><trkpt lat="42.858235" lon="11.181969"><ele>123.0</ele><time>2026-04-06T09:00:54.267Z</time></trkpt><trkpt lat="42.8581886" lon="11.1819022"><ele>122.42857142857144</ele><time>2026-04-06T09:00:59.267Z</time></trkpt><trkpt lat="42.8581493" lon="11.181814"><ele>121.85714285714286</ele><time>2026-04-06T09:01:05.254Z</time></trkpt><trkpt lat="42.8581122" lon="11.1817367"><ele>121.28571428571429</ele><time>2026-04-06T09:01:12.267Z</time></trkpt><trkpt lat="42.8580448" lon="11.1817303"><ele>120.71428571428572</ele><time>2026-04-06T09:01:30.267Z</time></trkpt><trkpt lat="42.8580197" lon="11.1818092"><ele>120.14285714285714</ele><time>2026-04-06T09:01:51.298Z</time></trkpt><trkpt lat="42.8580814" lon="11.1818467"><ele>119.57142857142857</ele><time>2026-04-06T09:01:57.219Z</time></trkpt><trkpt lat="42.8581426" lon="11.1818043"><ele>119.0</ele><time>2026-04-06T09:02:04.284Z</time></trkpt><trkpt lat="42.8581947" lon="11.1818539"><ele>119.0</ele><time>2026-04-06T09:02:09.287Z</time></trkpt><trkpt lat="42.8582379" lon="11.1819249"><ele>119.0</ele><time>2026-04-06T09:02:16.267Z</time></trkpt><trkpt lat="42.8582652" lon="11.1820106"><ele>119.0</ele><time>2026-04-06T09:02:22.274Z</time></trkpt><trkpt lat="42.8582697" lon="11.1821069"><ele>119.0</ele><time>2026-04-06T09:02:28.267Z</time></trkpt><trkpt lat="42.8582436" lon="11.1819929"><ele>119.0</ele><time>2026-04-06T09:06:31.265Z</time></trkpt><trkpt lat="42.8581959" lon="11.1819093"><ele>119.0</ele><time>2026-04-06T09:06:51.266Z</time></trkpt><trkpt lat="42.8581643" lon="11.1818224"><ele>119.0</ele><time>2026-04-06T09:06:53.266Z</time></trkpt><trkpt lat="42.8581687" lon="11.1817345"><ele>119.0</ele><time>2026-04-06T09:06:55.266Z</time></trkpt><trkpt lat="42.8582037" lon="11.1816378"><ele>119.0</ele><time>2026-04-06T09:06:57.266Z</time></trkpt><trkpt lat="42.8582176" lon="11.1815305"><ele>119.0</ele><time>2026-04-06T09:06:59.266Z</time></trkpt><trkpt lat="42.8581786" lon="11.1814081"><ele>119.0</ele><time>2026-04-06T09:07:01.265Z</time></trkpt><trkpt lat="42.8581338" lon="11.181261"><ele>119.0</ele><time>2026-04-06T09:07:03.265Z</time></trkpt><trkpt lat="42.8581122" lon="11.1811236"><ele>119.4</ele><time>2026-04-06T09:07:05.266Z</time></trkpt><trkpt lat="42.8581244" lon="11.1809555"><ele>119.80000000000001</ele><time>2026-04-06T09:07:07.266Z</time></trkpt><trkpt lat="42.8581442" lon="11.1808062"><ele>120.19999999999999</ele><time>2026-04-06T09:07:09.266Z</time></trkpt><trkpt lat="42.8581775" lon="11.1806634"><ele>120.6</ele><time>2026-04-06T09:07:11.266Z</time></trkpt><trkpt lat="42.8581941" lon="11.1805774"><ele>121.0</ele><time>2026-04-06T09:07:12.266Z</time></trkpt><trkpt lat="42.8582208" lon="11.1804873"><ele>119.83333333333334</ele><time>2026-04-06T09:07:13.266Z</time></trkpt><trkpt lat="42.8582467" lon="11.1803893"><ele>118.66666666666667</ele><time>2026-04-06T09:07:14.266Z</time></trkpt><trkpt lat="42.8582769" lon="11.1802947"><ele>117.5</ele><time>2026-04-06T09:07:15.266Z</time></trkpt><trkpt lat="42.858314" lon="11.1801995"><ele>116.33333333333334</ele><time>2026-04-06T09:07:16.265Z</time></trkpt><trkpt lat="42.8583506" lon="11.1801138"><ele>115.16666666666667</ele><time>2026-04-06T09:07:17.266Z</time></trkpt><trkpt lat="42.8584097" lon="11.1799638"><ele>114.0</ele><time>2026-04-06T09:07:19.266Z</time></trkpt><trkpt lat="42.8584374" lon="11.1798826"><ele>115.42857142857142</ele><time>2026-04-06T09:07:20.265Z</time></trkpt><trkpt lat="42.85846" lon="11.1797854"><ele>116.85714285714285</ele><time>2026-04-06T09:07:21.265Z</time></trkpt><trkpt lat="42.8584805" lon="11.1796983"><ele>118.28571428571428</ele><time>2026-04-06T09:07:22.265Z</time></trkpt><trkpt lat="42.858499" lon="11.1796106"><ele>119.71428571428572</ele><time>2026-04-06T09:07:23.266Z</time></trkpt><trkpt lat="42.8585132" lon="11.1795224"><ele>121.14285714285715</ele><time>2026-04-06T09:07:24.265Z</time></trkpt><trkpt lat="42.8585297" lon="11.1794383"><ele>122.57142857142858</ele><time>2026-04-06T09:07:25.266Z</time></trkpt><trkpt lat="42.8585471" lon="11.1793546"><ele>124.0</ele><time>2026-04-06T09:07:26.265Z</time></trkpt><trkpt lat="42.8585724" lon="11.1792679"><ele>124.0</ele><time>2026-04-06T09:07:27.265Z</time></trkpt><trkpt lat="42.8586124" lon="11.1791812"><ele>124.0</ele><time>2026-04-06T09:07:28.266Z</time></trkpt><trkpt lat="42.8586734" lon="11.1790663"><ele>124.0</ele><time>2026-04-06T09:07:30.266Z</time></trkpt><trkpt lat="42.8587303" lon="11.1789272"><ele>124.0</ele><time>2026-04-06T09:07:32.266Z</time></trkpt><trkpt lat="42.858791" lon="11.1787814"><ele>124.0</ele><time>2026-04-06T09:07:34.265Z</time></trkpt><trkpt lat="42.8588458" lon="11.1786219"><ele>122.0</ele><time>2026-04-06T09:07:36.266Z</time></trkpt><trkpt lat="42.8588866" lon="11.1784715"><ele>120.0</ele><time>2026-04-06T09:07:38.266Z</time></trkpt><trkpt lat="42.858937" lon="11.1783369"><ele>118.0</ele><time>2026-04-06T09:07:40.266Z</time></trkpt><trkpt lat="42.8589602" lon="11.1781869"><ele>116.0</ele><time>2026-04-06T09:07:42.266Z</time></trkpt><trkpt lat="42.8589969" lon="11.1780539"><ele>114.0</ele><time>2026-04-06T09:07:44.266Z</time></trkpt><trkpt lat="42.8590389" lon="11.1779172"><ele>114.6</ele><time>2026-04-06T09:07:46.265Z</time></trkpt><trkpt lat="42.8591071" lon="11.1777797"><ele>115.2</ele><time>2026-04-06T09:07:48.266Z</time></trkpt><trkpt lat="42.8591777" lon="11.1776504"><ele>115.79999999999998</ele><time>2026-04-06T09:07:50.266Z</time></trkpt><trkpt lat="42.8592519" lon="11.1775285"><ele>116.39999999999999</ele><time>2026-04-06T09:07:52.266Z</time></trkpt><trkpt lat="42.8592991" lon="11.1774655"><ele>117.0</ele><time>2026-04-06T09:07:53.265Z</time></trkpt><trkpt lat="42.8593493" lon="11.1773996"><ele>115.16666666666667</ele><time>2026-04-06T09:07:54.266Z</time></trkpt><trkpt lat="42.8594041" lon="11.1773336"><ele>113.33333333333334</ele><time>2026-04-06T09:07:55.266Z</time></trkpt><trkpt lat="42.8594567" lon="11.177273"><ele>111.5</ele><time>2026-04-06T09:07:56.266Z</time></trkpt><trkpt lat="42.8595082" lon="11.1772059"><ele>109.66666666666667</ele><time>2026-04-06T09:07:57.266Z</time></trkpt><trkpt lat="42.8595575" lon="11.1771487"><ele>107.83333333333334</ele><time>2026-04-06T09:07:58.265Z</time></trkpt><trkpt lat="42.859606" lon="11.1770923"><ele>106.0</ele><time>2026-04-06T09:07:59.266Z</time></trkpt><trkpt lat="42.8597024" lon="11.1769744"><ele>106.0</ele><time>2026-04-06T09:08:01.266Z</time></trkpt><trkpt lat="42.8597863" lon="11.1768538"><ele>106.0</ele><time>2026-04-06T09:08:03.266Z</time></trkpt><trkpt lat="42.8598134" lon="11.176775"><ele>106.0</ele><time>2026-04-06T09:08:04.266Z</time></trkpt><trkpt lat="42.8598628" lon="11.1766306"><ele>106.0</ele><time>2026-04-06T09:08:06.266Z</time></trkpt><trkpt lat="42.8599152" lon="11.1765161"><ele>106.0</ele><time>2026-04-06T09:08:08.266Z</time></trkpt><trkpt lat="42.8599631" lon="11.1764352"><ele>105.19999999999999</ele><time>2026-04-06T09:08:10.266Z</time></trkpt><trkpt lat="42.8599994" lon="11.1763397"><ele>104.39999999999999</ele><time>2026-04-06T09:08:15.266Z</time></trkpt><trkpt lat="42.860017" lon="11.1762038"><ele>103.6</ele><time>2026-04-06T09:08:18.266Z</time></trkpt><trkpt lat="42.8600274" lon="11.176115"><ele>102.8</ele><time>2026-04-06T09:08:20.266Z</time></trkpt><trkpt lat="42.8600436" lon="11.1759919"><ele>102.0</ele><time>2026-04-06T09:08:22.266Z</time></trkpt><trkpt lat="42.8600694" lon="11.1758289"><ele>102.0</ele><time>2026-04-06T09:08:24.266Z</time></trkpt><trkpt lat="42.8600834" lon="11.175739"><ele>102.0</ele><time>2026-04-06T09:08:25.266Z</time></trkpt><trkpt lat="42.8601139" lon="11.1755781"><ele>102.0</ele><time>2026-04-06T09:08:27.266Z</time></trkpt><trkpt lat="42.86013" lon="11.1754863"><ele>102.0</ele><time>2026-04-06T09:08:28.266Z</time></trkpt><trkpt lat="42.8601469" lon="11.1753993"><ele>102.0</ele><time>2026-04-06T09:08:29.266Z</time></trkpt><trkpt lat="42.8601691" lon="11.1753158"><ele>102.0</ele><time>2026-04-06T09:08:30.266Z</time></trkpt><trkpt lat="42.8601992" lon="11.175233"><ele>101.71428571428572</ele><time>2026-04-06T09:08:31.266Z</time></trkpt><trkpt lat="42.8602352" lon="11.1751439"><ele>101.42857142857143</ele><time>2026-04-06T09:08:32.265Z</time></trkpt><trkpt lat="42.8602753" lon="11.1750605"><ele>101.14285714285714</ele><time>2026-04-06T09:08:33.265Z</time></trkpt><trkpt lat="42.8603179" lon="11.1749826"><ele>100.85714285714286</ele><time>2026-04-06T09:08:34.265Z</time></trkpt><trkpt lat="42.8603516" lon="11.1749083"><ele>100.57142857142857</ele><time>2026-04-06T09:08:35.266Z</time></trkpt><trkpt lat="42.8603825" lon="11.1748208"><ele>100.28571428571429</ele><time>2026-04-06T09:08:36.265Z</time></trkpt><trkpt lat="42.8604111" lon="11.1747314"><ele>100.0</ele><time>2026-04-06T09:08:37.266Z</time></trkpt><trkpt lat="42.8604379" lon="11.1746381"><ele>100.0</ele><time>2026-04-06T09:08:38.266Z</time></trkpt><trkpt lat="42.8604675" lon="11.1745612"><ele>100.0</ele><time>2026-04-06T09:08:39.266Z</time></trkpt><trkpt lat="42.8605173" lon="11.1744066"><ele>100.0</ele><time>2026-04-06T09:08:41.266Z</time></trkpt><trkpt lat="42.8605586" lon="11.174249"><ele>100.0</ele><time>2026-04-06T09:08:43.266Z</time></trkpt><trkpt lat="42.8606012" lon="11.1740935"><ele>100.0</ele><time>2026-04-06T09:08:45.266Z</time></trkpt><trkpt lat="42.8606372" lon="11.1739319"><ele>99.50000000000001</ele><time>2026-04-06T09:08:47.265Z</time></trkpt><trkpt lat="42.8606397" lon="11.1737523"><ele>99.0</ele><time>2026-04-06T09:08:49.266Z</time></trkpt><trkpt lat="42.8606237" lon="11.1736575"><ele>98.5</ele><time>2026-04-06T09:08:50.266Z</time></trkpt><trkpt lat="42.8606095" lon="11.173555"><ele>98.0</ele><time>2026-04-06T09:08:51.266Z</time></trkpt><trkpt lat="42.8605988" lon="11.1734516"><ele>97.50000000000001</ele><time>2026-04-06T09:08:52.266Z</time></trkpt><trkpt lat="42.8605869" lon="11.1733494"><ele>97.0</ele><time>2026-04-06T09:08:53.266Z</time></trkpt><trkpt lat="42.860578" lon="11.1732535"><ele>97.39999999999999</ele><time>2026-04-06T09:08:54.266Z</time></trkpt><trkpt lat="42.8605529" lon="11.1730961"><ele>97.8</ele><time>2026-04-06T09:08:56.265Z</time></trkpt><trkpt lat="42.860559" lon="11.1729674"><ele>98.2</ele><time>2026-04-06T09:08:58.266Z</time></trkpt><trkpt lat="42.860587" lon="11.1728254"><ele>98.6</ele><time>2026-04-06T09:09:00.266Z</time></trkpt><trkpt lat="42.8606156" lon="11.172693"><ele>99.0</ele><time>2026-04-06T09:09:02.266Z</time></trkpt><trkpt lat="42.8606437" lon="11.1725621"><ele>99.0</ele><time>2026-04-06T09:09:04.266Z</time></trkpt><trkpt lat="42.860663" lon="11.1724265"><ele>99.0</ele><time>2026-04-06T09:09:06.266Z</time></trkpt><trkpt lat="42.8606806" lon="11.1722926"><ele>99.0</ele><time>2026-04-06T09:09:08.266Z</time></trkpt><trkpt lat="42.8606902" lon="11.1721522"><ele>99.0</ele><time>2026-04-06T09:09:10.265Z</time></trkpt><trkpt lat="42.8607037" lon="11.1720194"><ele>99.0</ele><time>2026-04-06T09:09:12.266Z</time></trkpt><trkpt lat="42.8607191" lon="11.1719006"><ele>98.6</ele><time>2026-04-06T09:09:14.266Z</time></trkpt><trkpt lat="42.8607218" lon="11.1717735"><ele>98.2</ele><time>2026-04-06T09:09:16.265Z</time></trkpt><trkpt lat="42.8607171" lon="11.171646"><ele>97.8</ele><time>2026-04-06T09:09:18.266Z</time></trkpt><trkpt lat="42.8607371" lon="11.171512"><ele>97.39999999999999</ele><time>2026-04-06T09:09:20.265Z</time></trkpt><trkpt lat="42.8607792" lon="11.1713515"><ele>97.0</ele><time>2026-04-06T09:09:22.265Z</time></trkpt><trkpt lat="42.8608094" lon="11.1712547"><ele>97.16666666666667</ele><time>2026-04-06T09:09:23.266Z</time></trkpt><trkpt lat="42.8608438" lon="11.1711524"><ele>97.33333333333334</ele><time>2026-04-06T09:09:24.266Z</time></trkpt><trkpt lat="42.8608788" lon="11.171059"><ele>97.5</ele><time>2026-04-06T09:09:25.266Z</time></trkpt><trkpt lat="42.8609203" lon="11.1709592"><ele>97.66666666666666</ele><time>2026-04-06T09:09:26.266Z</time></trkpt><trkpt lat="42.860966" lon="11.1708667"><ele>97.83333333333333</ele><time>2026-04-06T09:09:27.266Z</time></trkpt><trkpt lat="42.8610164" lon="11.170776"><ele>98.0</ele><time>2026-04-06T09:09:28.265Z</time></trkpt><trkpt lat="42.8610702" lon="11.1706891"><ele>97.99999999999999</ele><time>2026-04-06T09:09:29.265Z</time></trkpt><trkpt lat="42.8611169" lon="11.1706171"><ele>98.0</ele><time>2026-04-06T09:09:30.266Z</time></trkpt><trkpt lat="42.8611657" lon="11.1705418"><ele>98.0</ele><time>2026-04-06T09:09:31.265Z</time></trkpt><trkpt lat="42.8612047" lon="11.170446"><ele>98.0</ele><time>2026-04-06T09:09:32.266Z</time></trkpt><trkpt lat="42.8612397" lon="11.1703471"><ele>97.99999999999999</ele><time>2026-04-06T09:09:33.266Z</time></trkpt><trkpt lat="42.8612707" lon="11.1702493"><ele>98.0</ele><time>2026-04-06T09:09:34.265Z</time></trkpt><trkpt lat="42.8612992" lon="11.1701489"><ele>98.0</ele><time>2026-04-06T09:09:35.266Z</time></trkpt><trkpt lat="42.861329" lon="11.1700521"><ele>98.0</ele><time>2026-04-06T09:09:36.266Z</time></trkpt><trkpt lat="42.8613622" lon="11.1699727"><ele>98.0</ele><time>2026-04-06T09:09:37.266Z</time></trkpt><trkpt lat="42.861398" lon="11.1698953"><ele>98.0</ele><time>2026-04-06T09:09:38.266Z</time></trkpt><trkpt lat="42.8614435" lon="11.1698219"><ele>98.0</ele><time>2026-04-06T09:09:39.266Z</time></trkpt><trkpt lat="42.8614986" lon="11.1697561"><ele>98.0</ele><time>2026-04-06T09:09:40.266Z</time></trkpt><trkpt lat="42.8615563" lon="11.1696874"><ele>98.0</ele><time>2026-04-06T09:09:41.266Z</time></trkpt><trkpt lat="42.8616266" lon="11.1696323"><ele>97.85714285714286</ele><time>2026-04-06T09:09:42.266Z</time></trkpt><trkpt lat="42.8616879" lon="11.1695847"><ele>97.71428571428572</ele><time>2026-04-06T09:09:43.266Z</time></trkpt><trkpt lat="42.8617557" lon="11.1695487"><ele>97.57142857142857</ele><time>2026-04-06T09:09:44.266Z</time></trkpt><trkpt lat="42.8618277" lon="11.1695205"><ele>97.42857142857143</ele><time>2026-04-06T09:09:45.266Z</time></trkpt><trkpt lat="42.8619104" lon="11.1694977"><ele>97.28571428571429</ele><time>2026-04-06T09:09:46.266Z</time></trkpt><trkpt lat="42.8619798" lon="11.1694846"><ele>97.14285714285714</ele><time>2026-04-06T09:09:47.266Z</time></trkpt><trkpt lat="42.8620551" lon="11.1694731"><ele>97.0</ele><time>2026-04-06T09:09:48.266Z</time></trkpt><trkpt lat="42.8621303" lon="11.1694618"><ele>97.00000000000001</ele><time>2026-04-06T09:09:49.266Z</time></trkpt><trkpt lat="42.8621984" lon="11.1694528"><ele>97.0</ele><time>2026-04-06T09:09:50.266Z</time></trkpt><trkpt lat="42.8622669" lon="11.1694313"><ele>97.0</ele><time>2026-04-06T09:09:51.266Z</time></trkpt><trkpt lat="42.8623436" lon="11.1693914"><ele>97.0</ele><time>2026-04-06T09:09:52.266Z</time></trkpt><trkpt lat="42.8624151" lon="11.16934"><ele>97.00000000000001</ele><time>2026-04-06T09:09:53.266Z</time></trkpt><trkpt lat="42.8624756" lon="11.1692866"><ele>97.0</ele><time>2026-04-06T09:09:54.265Z</time></trkpt><trkpt lat="42.862542" lon="11.1692212"><ele>97.00000000000001</ele><time>2026-04-06T09:09:55.266Z</time></trkpt><trkpt lat="42.8626049" lon="11.1691649"><ele>97.0</ele><time>2026-04-06T09:09:56.265Z</time></trkpt><trkpt lat="42.8626711" lon="11.1691184"><ele>97.0</ele><time>2026-04-06T09:09:57.266Z</time></trkpt><trkpt lat="42.8627382" lon="11.1690872"><ele>97.0</ele><time>2026-04-06T09:09:58.265Z</time></trkpt><trkpt lat="42.8628135" lon="11.1690679"><ele>97.00000000000001</ele><time>2026-04-06T09:09:59.266Z</time></trkpt><trkpt lat="42.8628941" lon="11.1690525"><ele>97.0</ele><time>2026-04-06T09:10:00.266Z</time></trkpt><trkpt lat="42.8629787" lon="11.1690414"><ele>97.16666666666667</ele><time>2026-04-06T09:10:01.265Z</time></trkpt><trkpt lat="42.8630702" lon="11.169039"><ele>97.33333333333334</ele><time>2026-04-06T09:10:02.266Z</time></trkpt><trkpt lat="42.8631596" lon="11.1690417"><ele>97.5</ele><time>2026-04-06T09:10:03.266Z</time></trkpt><trkpt lat="42.8632495" lon="11.1690447"><ele>97.66666666666666</ele><time>2026-04-06T09:10:04.266Z</time></trkpt><trkpt lat="42.8633387" lon="11.1690259"><ele>97.83333333333333</ele><time>2026-04-06T09:10:05.266Z</time></trkpt><trkpt lat="42.863421" lon="11.169011"><ele>98.0</ele><time>2026-04-06T09:10:06.266Z</time></trkpt><trkpt lat="42.8635026" lon="11.1690032"><ele>98.83333333333333</ele><time>2026-04-06T09:10:07.265Z</time></trkpt><trkpt lat="42.863587" lon="11.1690116"><ele>99.66666666666666</ele><time>2026-04-06T09:10:08.266Z</time></trkpt><trkpt lat="42.8636761" lon="11.169013"><ele>100.5</ele><time>2026-04-06T09:10:09.266Z</time></trkpt><trkpt lat="42.8637522" lon="11.1690098"><ele>101.33333333333334</ele><time>2026-04-06T09:10:10.266Z</time></trkpt><trkpt lat="42.8638272" lon="11.1689999"><ele>102.16666666666667</ele><time>2026-04-06T09:10:11.266Z</time></trkpt><trkpt lat="42.8639012" lon="11.1689622"><ele>103.0</ele><time>2026-04-06T09:10:12.266Z</time></trkpt><trkpt lat="42.8639621" lon="11.1689071"><ele>103.00000000000001</ele><time>2026-04-06T09:10:13.265Z</time></trkpt><trkpt lat="42.864026" lon="11.1688314"><ele>103.0</ele><time>2026-04-06T09:10:14.266Z</time></trkpt><trkpt lat="42.8640807" lon="11.1687494"><ele>103.0</ele><time>2026-04-06T09:10:15.266Z</time></trkpt><trkpt lat="42.8641308" lon="11.1686621"><ele>103.0</ele><time>2026-04-06T09:10:16.266Z</time></trkpt><trkpt lat="42.8641774" lon="11.1685709"><ele>103.00000000000001</ele><time>2026-04-06T09:10:17.266Z</time></trkpt><trkpt lat="42.8642203" lon="11.1684733"><ele>103.0</ele><time>2026-04-06T09:10:18.266Z</time></trkpt><trkpt lat="42.8642537" lon="11.1683865"><ele>104.28571428571428</ele><time>2026-04-06T09:10:19.266Z</time></trkpt><trkpt lat="42.8642831" lon="11.1682954"><ele>105.57142857142857</ele><time>2026-04-06T09:10:20.266Z</time></trkpt><trkpt lat="42.864312" lon="11.1682048"><ele>106.85714285714286</ele><time>2026-04-06T09:10:21.266Z</time></trkpt><trkpt lat="42.8643353" lon="11.1681145"><ele>108.14285714285714</ele><time>2026-04-06T09:10:22.265Z</time></trkpt><trkpt lat="42.86436" lon="11.1680287"><ele>109.42857142857143</ele><time>2026-04-06T09:10:23.265Z</time></trkpt><trkpt lat="42.8643943" lon="11.1679405"><ele>110.71428571428571</ele><time>2026-04-06T09:10:24.266Z</time></trkpt><trkpt lat="42.864428" lon="11.1678453"><ele>112.0</ele><time>2026-04-06T09:10:25.266Z</time></trkpt><trkpt lat="42.8644562" lon="11.1677423"><ele>111.83333333333334</ele><time>2026-04-06T09:10:26.266Z</time></trkpt><trkpt lat="42.8644798" lon="11.1676352"><ele>111.66666666666667</ele><time>2026-04-06T09:10:27.266Z</time></trkpt><trkpt lat="42.8645025" lon="11.1675294"><ele>111.5</ele><time>2026-04-06T09:10:28.266Z</time></trkpt><trkpt lat="42.8645344" lon="11.167424"><ele>111.33333333333334</ele><time>2026-04-06T09:10:29.265Z</time></trkpt><trkpt lat="42.8645701" lon="11.1673164"><ele>111.16666666666667</ele><time>2026-04-06T09:10:30.266Z</time></trkpt><trkpt lat="42.864601" lon="11.167211"><ele>111.0</ele><time>2026-04-06T09:10:31.265Z</time></trkpt><trkpt lat="42.8646239" lon="11.1670986"><ele>111.0</ele><time>2026-04-06T09:10:32.265Z</time></trkpt><trkpt lat="42.8646477" lon="11.166985"><ele>111.0</ele><time>2026-04-06T09:10:33.266Z</time></trkpt><trkpt lat="42.8646731" lon="11.166868"><ele>111.0</ele><time>2026-04-06T09:10:34.265Z</time></trkpt><trkpt lat="42.8646939" lon="11.1667442"><ele>111.0</ele><time>2026-04-06T09:10:35.266Z</time></trkpt><trkpt lat="42.8647147" lon="11.1666267"><ele>111.0</ele><time>2026-04-06T09:10:36.266Z</time></trkpt><trkpt lat="42.8647328" lon="11.1665128"><ele>111.0</ele><time>2026-04-06T09:10:37.266Z</time></trkpt><trkpt lat="42.8647546" lon="11.1664044"><ele>111.5</ele><time>2026-04-06T09:10:38.266Z</time></trkpt><trkpt lat="42.864784" lon="11.1663046"><ele>112.0</ele><time>2026-04-06T09:10:39.266Z</time></trkpt><trkpt lat="42.8648275" lon="11.1662008"><ele>112.5</ele><time>2026-04-06T09:10:40.266Z</time></trkpt><trkpt lat="42.86488" lon="11.1661004"><ele>113.0</ele><time>2026-04-06T09:10:41.266Z</time></trkpt><trkpt lat="42.8649321" lon="11.1660063"><ele>113.5</ele><time>2026-04-06T09:10:42.266Z</time></trkpt><trkpt lat="42.8649875" lon="11.1659144"><ele>114.0</ele><time>2026-04-06T09:10:43.266Z</time></trkpt><trkpt lat="42.8650391" lon="11.1658369"><ele>114.0</ele><time>2026-04-06T09:10:44.266Z</time></trkpt><trkpt lat="42.8650908" lon="11.1657645"><ele>114.0</ele><time>2026-04-06T09:10:45.265Z</time></trkpt><trkpt lat="42.8651429" lon="11.1656958"><ele>114.0</ele><time>2026-04-06T09:10:46.266Z</time></trkpt><trkpt lat="42.8651904" lon="11.1656327"><ele>114.0</ele><time>2026-04-06T09:10:47.266Z</time></trkpt><trkpt lat="42.8652569" lon="11.1654947"><ele>114.0</ele><time>2026-04-06T09:10:49.265Z</time></trkpt><trkpt lat="42.8652846" lon="11.1653529"><ele>114.0</ele><time>2026-04-06T09:10:51.265Z</time></trkpt><trkpt lat="42.8652933" lon="11.1652585"><ele>116.2</ele><time>2026-04-06T09:10:54.265Z</time></trkpt><trkpt lat="42.8653894" lon="11.1651919"><ele>118.4</ele><time>2026-04-06T09:10:57.266Z</time></trkpt><trkpt lat="42.8654677" lon="11.1651901"><ele>120.6</ele><time>2026-04-06T09:10:58.266Z</time></trkpt><trkpt lat="42.8655513" lon="11.1651708"><ele>122.8</ele><time>2026-04-06T09:10:59.266Z</time></trkpt><trkpt lat="42.8656492" lon="11.1651217"><ele>125.0</ele><time>2026-04-06T09:11:00.266Z</time></trkpt><trkpt lat="42.8657503" lon="11.1650529"><ele>125.0</ele><time>2026-04-06T09:11:01.266Z</time></trkpt><trkpt lat="42.8658592" lon="11.1649725"><ele>125.0</ele><time>2026-04-06T09:11:02.266Z</time></trkpt><trkpt lat="42.8659749" lon="11.1648856"><ele>125.0</ele><time>2026-04-06T09:11:03.266Z</time></trkpt><trkpt lat="42.8661011" lon="11.164794"><ele>125.0</ele><time>2026-04-06T09:11:04.265Z</time></trkpt><trkpt lat="42.8662323" lon="11.1647103"><ele>124.5</ele><time>2026-04-06T09:11:05.266Z</time></trkpt><trkpt lat="42.8663681" lon="11.1646391"><ele>124.0</ele><time>2026-04-06T09:11:06.265Z</time></trkpt><trkpt lat="42.8665042" lon="11.1645851"><ele>123.5</ele><time>2026-04-06T09:11:07.266Z</time></trkpt><trkpt lat="42.8666422" lon="11.1645503"><ele>123.0</ele><time>2026-04-06T09:11:08.266Z</time></trkpt><trkpt lat="42.8667793" lon="11.1645447"><ele>123.0</ele><time>2026-04-06T09:11:09.266Z</time></trkpt><trkpt lat="42.86692" lon="11.1645598"><ele>123.0</ele><time>2026-04-06T09:11:10.265Z</time></trkpt><trkpt lat="42.867061" lon="11.1645835"><ele>123.0</ele><time>2026-04-06T09:11:11.266Z</time></trkpt><trkpt lat="42.8671935" lon="11.1646266"><ele>123.0</ele><time>2026-04-06T09:11:12.265Z</time></trkpt><trkpt lat="42.8673116" lon="11.1646776"><ele>123.0</ele><time>2026-04-06T09:11:13.266Z</time></trkpt><trkpt lat="42.8674269" lon="11.1647584"><ele>123.0</ele><time>2026-04-06T09:11:14.266Z</time></trkpt><trkpt lat="42.8675445" lon="11.1648625"><ele>123.0</ele><time>2026-04-06T09:11:15.265Z</time></trkpt><trkpt lat="42.8676578" lon="11.1649859"><ele>123.0</ele><time>2026-04-06T09:11:16.266Z</time></trkpt><trkpt lat="42.867776" lon="11.1651212"><ele>123.0</ele><time>2026-04-06T09:11:17.266Z</time></trkpt><trkpt lat="42.8678932" lon="11.1652696"><ele>123.0</ele><time>2026-04-06T09:11:18.266Z</time></trkpt><trkpt lat="42.86801" lon="11.165422"><ele>123.0</ele><time>2026-04-06T09:11:19.266Z</time></trkpt><trkpt lat="42.8681279" lon="11.1655804"><ele>123.5</ele><time>2026-04-06T09:11:20.266Z</time></trkpt><trkpt lat="42.8682373" lon="11.1657233"><ele>124.0</ele><time>2026-04-06T09:11:21.266Z</time></trkpt><trkpt lat="42.868334" lon="11.1658613"><ele>124.5</ele><time>2026-04-06T09:11:22.266Z</time></trkpt><trkpt lat="42.868427" lon="11.1659806"><ele>125.0</ele><time>2026-04-06T09:11:23.265Z</time></trkpt><trkpt lat="42.8685082" lon="11.1660885"><ele>125.0</ele><time>2026-04-06T09:11:24.266Z</time></trkpt><trkpt lat="42.8685882" lon="11.1661951"><ele>125.0</ele><time>2026-04-06T09:11:25.266Z</time></trkpt><trkpt lat="42.868664" lon="11.1662974"><ele>125.0</ele><time>2026-04-06T09:11:26.266Z</time></trkpt><trkpt lat="42.868737" lon="11.1663914"><ele>125.0</ele><time>2026-04-06T09:11:27.266Z</time></trkpt><trkpt lat="42.8688157" lon="11.1664968"><ele>125.0</ele><time>2026-04-06T09:11:28.266Z</time></trkpt><trkpt lat="42.8688975" lon="11.1666216"><ele>127.5</ele><time>2026-04-06T09:11:29.265Z</time></trkpt><trkpt lat="42.8689708" lon="11.1667616"><ele>130.0</ele><time>2026-04-06T09:11:30.266Z</time></trkpt><trkpt lat="42.8690379" lon="11.1669189"><ele>132.5</ele><time>2026-04-06T09:11:31.266Z</time></trkpt><trkpt lat="42.8691026" lon="11.1670814"><ele>135.0</ele><time>2026-04-06T09:11:32.266Z</time></trkpt><trkpt lat="42.8691578" lon="11.1672569"><ele>137.5</ele><time>2026-04-06T09:11:33.266Z</time></trkpt><trkpt lat="42.8692027" lon="11.1674267"><ele>140.0</ele><time>2026-04-06T09:11:34.265Z</time></trkpt><trkpt lat="42.8692306" lon="11.1675975"><ele>142.5</ele><time>2026-04-06T09:11:35.266Z</time></trkpt><trkpt lat="42.869251" lon="11.1677628"><ele>145.0</ele><time>2026-04-06T09:11:36.265Z</time></trkpt><trkpt lat="42.8692681" lon="11.1679276"><ele>142.25</ele><time>2026-04-06T09:11:37.266Z</time></trkpt><trkpt lat="42.8692868" lon="11.1680877"><ele>139.5</ele><time>2026-04-06T09:11:38.266Z</time></trkpt><trkpt lat="42.8693135" lon="11.1682536"><ele>136.75</ele><time>2026-04-06T09:11:39.265Z</time></trkpt><trkpt lat="42.8693436" lon="11.1684205"><ele>134.0</ele><time>2026-04-06T09:11:40.265Z</time></trkpt><trkpt lat="42.8693759" lon="11.1685895"><ele>134.0</ele><time>2026-04-06T09:11:41.266Z</time></trkpt><trkpt lat="42.8694157" lon="11.1687631"><ele>134.0</ele><time>2026-04-06T09:11:42.265Z</time></trkpt><trkpt lat="42.8694762" lon="11.1689342"><ele>134.0</ele><time>2026-04-06T09:11:43.266Z</time></trkpt><trkpt lat="42.8695559" lon="11.1690992"><ele>134.0</ele><time>2026-04-06T09:11:44.266Z</time></trkpt><trkpt lat="42.8696539" lon="11.169252"><ele>137.0</ele><time>2026-04-06T09:11:45.266Z</time></trkpt><trkpt lat="42.8697667" lon="11.1693927"><ele>140.0</ele><time>2026-04-06T09:11:46.266Z</time></trkpt><trkpt lat="42.8698838" lon="11.1695338"><ele>143.0</ele><time>2026-04-06T09:11:47.266Z</time></trkpt><trkpt lat="42.8700036" lon="11.1696756"><ele>144.33333333333331</ele><time>2026-04-06T09:11:48.266Z</time></trkpt><trkpt lat="42.8701248" lon="11.1698229"><ele>145.66666666666666</ele><time>2026-04-06T09:11:49.266Z</time></trkpt><trkpt lat="42.8702425" lon="11.1699717"><ele>147.0</ele><time>2026-04-06T09:11:50.266Z</time></trkpt><trkpt lat="42.8703628" lon="11.1701274"><ele>147.0</ele><time>2026-04-06T09:11:51.266Z</time></trkpt><trkpt lat="42.8704847" lon="11.1702837"><ele>147.0</ele><time>2026-04-06T09:11:52.266Z</time></trkpt><trkpt lat="42.8706131" lon="11.1704328"><ele>147.0</ele><time>2026-04-06T09:11:53.265Z</time></trkpt><trkpt lat="42.8707459" lon="11.1705804"><ele>147.66666666666666</ele><time>2026-04-06T09:11:54.265Z</time></trkpt><trkpt lat="42.8708727" lon="11.1707387"><ele>148.33333333333331</ele><time>2026-04-06T09:11:55.266Z</time></trkpt><trkpt lat="42.8709959" lon="11.1709005"><ele>149.0</ele><time>2026-04-06T09:11:56.266Z</time></trkpt><trkpt lat="42.87111" lon="11.1710846"><ele>149.0</ele><time>2026-04-06T09:11:57.266Z</time></trkpt><trkpt lat="42.8712093" lon="11.171281"><ele>149.0</ele><time>2026-04-06T09:11:58.265Z</time></trkpt><trkpt lat="42.871287" lon="11.1714903"><ele>149.0</ele><time>2026-04-06T09:11:59.265Z</time></trkpt><trkpt lat="42.8713354" lon="11.1717006"><ele>152.0</ele><time>2026-04-06T09:12:00.265Z</time></trkpt><trkpt lat="42.8713723" lon="11.1719139"><ele>155.0</ele><time>2026-04-06T09:12:01.265Z</time></trkpt><trkpt lat="42.871378" lon="11.1721126"><ele>158.0</ele><time>2026-04-06T09:12:02.266Z</time></trkpt><trkpt lat="42.871366" lon="11.1723139"><ele>160.33333333333331</ele><time>2026-04-06T09:12:03.266Z</time></trkpt><trkpt lat="42.8713368" lon="11.1725241"><ele>162.66666666666666</ele><time>2026-04-06T09:12:04.266Z</time></trkpt><trkpt lat="42.8713064" lon="11.1727374"><ele>165.0</ele><time>2026-04-06T09:12:05.266Z</time></trkpt><trkpt lat="42.8712873" lon="11.1729629"><ele>167.33333333333334</ele><time>2026-04-06T09:12:06.266Z</time></trkpt><trkpt lat="42.8712732" lon="11.1731969"><ele>169.66666666666669</ele><time>2026-04-06T09:12:07.265Z</time></trkpt><trkpt lat="42.8712614" lon="11.1734273"><ele>172.0</ele><time>2026-04-06T09:12:08.265Z</time></trkpt><trkpt lat="42.8712542" lon="11.1736386"><ele>172.0</ele><time>2026-04-06T09:12:09.266Z</time></trkpt><trkpt lat="42.8712571" lon="11.1738399"><ele>172.0</ele><time>2026-04-06T09:12:10.266Z</time></trkpt><trkpt lat="42.8712733" lon="11.1740498"><ele>172.0</ele><time>2026-04-06T09:12:11.266Z</time></trkpt><trkpt lat="42.8713193" lon="11.1742633"><ele>172.33333333333334</ele><time>2026-04-06T09:12:12.266Z</time></trkpt><trkpt lat="42.8713945" lon="11.1744744"><ele>172.66666666666666</ele><time>2026-04-06T09:12:13.266Z</time></trkpt><trkpt lat="42.8714942" lon="11.1746761"><ele>173.0</ele><time>2026-04-06T09:12:14.265Z</time></trkpt><trkpt lat="42.8716051" lon="11.1748895"><ele>171.33333333333331</ele><time>2026-04-06T09:12:15.266Z</time></trkpt><trkpt lat="42.8717294" lon="11.1751024"><ele>169.66666666666666</ele><time>2026-04-06T09:12:16.266Z</time></trkpt><trkpt lat="42.8718552" lon="11.1753158"><ele>168.0</ele><time>2026-04-06T09:12:17.266Z</time></trkpt><trkpt lat="42.8719857" lon="11.1755345"><ele>170.0</ele><time>2026-04-06T09:12:18.266Z</time></trkpt><trkpt lat="42.8721162" lon="11.1757622"><ele>172.0</ele><time>2026-04-06T09:12:19.266Z</time></trkpt><trkpt lat="42.8722422" lon="11.175988"><ele>174.0</ele><time>2026-04-06T09:12:20.265Z</time></trkpt><trkpt lat="42.8723709" lon="11.1762156"><ele>174.0</ele><time>2026-04-06T09:12:21.265Z</time></trkpt><trkpt lat="42.8724995" lon="11.1764472"><ele>174.0</ele><time>2026-04-06T09:12:22.265Z</time></trkpt><trkpt lat="42.8726257" lon="11.1766764"><ele>174.0</ele><time>2026-04-06T09:12:23.266Z</time></trkpt><trkpt lat="42.8727499" lon="11.1768947"><ele>175.0</ele><time>2026-04-06T09:12:24.266Z</time></trkpt><trkpt lat="42.8728649" lon="11.177109"><ele>176.0</ele><time>2026-04-06T09:12:25.266Z</time></trkpt><trkpt lat="42.8729701" lon="11.1773051"><ele>177.0</ele><time>2026-04-06T09:12:26.266Z</time></trkpt><trkpt lat="42.8730648" lon="11.1774876"><ele>177.0</ele><time>2026-04-06T09:12:27.265Z</time></trkpt><trkpt lat="42.8731429" lon="11.1776634"><ele>177.0</ele><time>2026-04-06T09:12:28.266Z</time></trkpt><trkpt lat="42.8731929" lon="11.1778462"><ele>177.0</ele><time>2026-04-06T09:12:29.266Z</time></trkpt><trkpt lat="42.8732113" lon="11.1780343"><ele>177.0</ele><time>2026-04-06T09:12:30.265Z</time></trkpt><trkpt lat="42.8731938" lon="11.1782147"><ele>177.75</ele><time>2026-04-06T09:12:31.266Z</time></trkpt><trkpt lat="42.873146" lon="11.1783735"><ele>178.5</ele><time>2026-04-06T09:12:32.266Z</time></trkpt><trkpt lat="42.8730651" lon="11.1785041"><ele>179.25</ele><time>2026-04-06T09:12:33.266Z</time></trkpt><trkpt lat="42.8729522" lon="11.1786202"><ele>180.0</ele><time>2026-04-06T09:12:34.265Z</time></trkpt><trkpt lat="42.8728234" lon="11.1787303"><ele>180.0</ele><time>2026-04-06T09:12:35.266Z</time></trkpt><trkpt lat="42.872674" lon="11.1788507"><ele>180.0</ele><time>2026-04-06T09:12:36.266Z</time></trkpt><trkpt lat="42.8725379" lon="11.1789798"><ele>180.0</ele><time>2026-04-06T09:12:37.265Z</time></trkpt><trkpt lat="42.8724171" lon="11.179098"><ele>182.75</ele><time>2026-04-06T09:12:38.266Z</time></trkpt><trkpt lat="42.8723117" lon="11.1792187"><ele>185.5</ele><time>2026-04-06T09:12:39.265Z</time></trkpt><trkpt lat="42.8722197" lon="11.179352"><ele>188.25</ele><time>2026-04-06T09:12:40.265Z</time></trkpt><trkpt lat="42.872138" lon="11.1794957"><ele>191.0</ele><time>2026-04-06T09:12:41.266Z</time></trkpt><trkpt lat="42.8720766" lon="11.1796461"><ele>191.0</ele><time>2026-04-06T09:12:42.266Z</time></trkpt><trkpt lat="42.8720396" lon="11.1798117"><ele>191.0</ele><time>2026-04-06T09:12:43.266Z</time></trkpt><trkpt lat="42.8720355" lon="11.1799875"><ele>191.0</ele><time>2026-04-06T09:12:44.265Z</time></trkpt><trkpt lat="42.8720682" lon="11.1801643"><ele>191.0</ele><time>2026-04-06T09:12:45.266Z</time></trkpt><trkpt lat="42.8721289" lon="11.1803437"><ele>193.0</ele><time>2026-04-06T09:12:46.266Z</time></trkpt><trkpt lat="42.8722037" lon="11.1805342"><ele>195.0</ele><time>2026-04-06T09:12:47.265Z</time></trkpt><trkpt lat="42.8722832" lon="11.1807398"><ele>197.0</ele><time>2026-04-06T09:12:48.266Z</time></trkpt><trkpt lat="42.8723684" lon="11.1809581"><ele>197.0</ele><time>2026-04-06T09:12:49.266Z</time></trkpt><trkpt lat="42.8724604" lon="11.1811916"><ele>197.0</ele><time>2026-04-06T09:12:50.266Z</time></trkpt><trkpt lat="42.8725511" lon="11.1814355"><ele>197.0</ele><time>2026-04-06T09:12:51.266Z</time></trkpt><trkpt lat="42.8726443" lon="11.1816841"><ele>198.66666666666669</ele><time>2026-04-06T09:12:52.266Z</time></trkpt><trkpt lat="42.8727279" lon="11.1819297"><ele>200.33333333333331</ele><time>2026-04-06T09:12:53.266Z</time></trkpt><trkpt lat="42.8728077" lon="11.1821616"><ele>202.0</ele><time>2026-04-06T09:12:54.266Z</time></trkpt><trkpt lat="42.8728701" lon="11.1823795"><ele>202.66666666666666</ele><time>2026-04-06T09:12:55.265Z</time></trkpt><trkpt lat="42.8729218" lon="11.1825957"><ele>203.33333333333331</ele><time>2026-04-06T09:12:56.266Z</time></trkpt><trkpt lat="42.8729605" lon="11.1828222"><ele>204.0</ele><time>2026-04-06T09:12:57.266Z</time></trkpt><trkpt lat="42.8729945" lon="11.1830516"><ele>202.66666666666669</ele><time>2026-04-06T09:12:58.265Z</time></trkpt><trkpt lat="42.8730313" lon="11.1832767"><ele>201.33333333333334</ele><time>2026-04-06T09:12:59.266Z</time></trkpt><trkpt lat="42.8730664" lon="11.1835035"><ele>200.0</ele><time>2026-04-06T09:13:00.266Z</time></trkpt><trkpt lat="42.8731039" lon="11.1837403"><ele>200.0</ele><time>2026-04-06T09:13:01.266Z</time></trkpt><trkpt lat="42.8731555" lon="11.1839872"><ele>200.0</ele><time>2026-04-06T09:13:02.265Z</time></trkpt><trkpt lat="42.8732198" lon="11.1842371"><ele>200.0</ele><time>2026-04-06T09:13:03.266Z</time></trkpt><trkpt lat="42.8732838" lon="11.1844881"><ele>198.33333333333334</ele><time>2026-04-06T09:13:04.266Z</time></trkpt><trkpt lat="42.8733514" lon="11.1847384"><ele>196.66666666666669</ele><time>2026-04-06T09:13:05.266Z</time></trkpt><trkpt lat="42.8734186" lon="11.1849926"><ele>195.0</ele><time>2026-04-06T09:13:06.265Z</time></trkpt><trkpt lat="42.873486" lon="11.1852497"><ele>195.0</ele><time>2026-04-06T09:13:07.266Z</time></trkpt><trkpt lat="42.8735588" lon="11.1855051"><ele>195.0</ele><time>2026-04-06T09:13:08.266Z</time></trkpt><trkpt lat="42.8736284" lon="11.1857611"><ele>195.0</ele><time>2026-04-06T09:13:09.266Z</time></trkpt><trkpt lat="42.8736967" lon="11.1860209"><ele>194.0</ele><time>2026-04-06T09:13:10.266Z</time></trkpt><trkpt lat="42.8737621" lon="11.1862722"><ele>193.0</ele><time>2026-04-06T09:13:11.266Z</time></trkpt><trkpt lat="42.8738196" lon="11.1865096"><ele>192.0</ele><time>2026-04-06T09:13:12.266Z</time></trkpt><trkpt lat="42.8738642" lon="11.1867366"><ele>191.33333333333334</ele><time>2026-04-06T09:13:13.266Z</time></trkpt><trkpt lat="42.8738829" lon="11.1869679"><ele>190.66666666666669</ele><time>2026-04-06T09:13:14.266Z</time></trkpt><trkpt lat="42.8738787" lon="11.1872094"><ele>190.0</ele><time>2026-04-06T09:13:15.266Z</time></trkpt><trkpt lat="42.8738514" lon="11.1874511"><ele>191.33333333333334</ele><time>2026-04-06T09:13:16.265Z</time></trkpt><trkpt lat="42.8738173" lon="11.1876742"><ele>192.66666666666669</ele><time>2026-04-06T09:13:17.265Z</time></trkpt><trkpt lat="42.8738013" lon="11.1878834"><ele>194.0</ele><time>2026-04-06T09:13:18.266Z</time></trkpt><trkpt lat="42.8738103" lon="11.1881048"><ele>194.66666666666669</ele><time>2026-04-06T09:13:19.266Z</time></trkpt><trkpt lat="42.8738463" lon="11.1883298"><ele>195.33333333333331</ele><time>2026-04-06T09:13:20.265Z</time></trkpt><trkpt lat="42.8739017" lon="11.1885637"><ele>196.0</ele><time>2026-04-06T09:13:21.266Z</time></trkpt><trkpt lat="42.8739697" lon="11.1888022"><ele>195.0</ele><time>2026-04-06T09:13:22.265Z</time></trkpt><trkpt lat="42.8740399" lon="11.1890476"><ele>194.0</ele><time>2026-04-06T09:13:23.266Z</time></trkpt><trkpt lat="42.8741123" lon="11.1892953"><ele>193.0</ele><time>2026-04-06T09:13:24.266Z</time></trkpt><trkpt lat="42.874181" lon="11.189541"><ele>193.0</ele><time>2026-04-06T09:13:25.266Z</time></trkpt><trkpt lat="42.8742432" lon="11.1897716"><ele>193.0</ele><time>2026-04-06T09:13:26.266Z</time></trkpt><trkpt lat="42.8743038" lon="11.1899906"><ele>193.0</ele><time>2026-04-06T09:13:27.265Z</time></trkpt><trkpt lat="42.8743554" lon="11.1901988"><ele>194.25</ele><time>2026-04-06T09:13:28.265Z</time></trkpt><trkpt lat="42.8744011" lon="11.1903874"><ele>195.5</ele><time>2026-04-06T09:13:29.266Z</time></trkpt><trkpt lat="42.8744391" lon="11.1905622"><ele>196.75</ele><time>2026-04-06T09:13:30.266Z</time></trkpt><trkpt lat="42.874474" lon="11.1907213"><ele>198.0</ele><time>2026-04-06T09:13:31.266Z</time></trkpt><trkpt lat="42.8745049" lon="11.19087"><ele>202.0</ele><time>2026-04-06T09:13:32.266Z</time></trkpt><trkpt lat="42.8745362" lon="11.1909992"><ele>202.0</ele><time>2026-04-06T09:13:33.265Z</time></trkpt><trkpt lat="42.8745637" lon="11.1911238"><ele>202.0</ele><time>2026-04-06T09:13:34.265Z</time></trkpt><trkpt lat="42.8745813" lon="11.1912196"><ele>202.0</ele><time>2026-04-06T09:13:35.266Z</time></trkpt><trkpt lat="42.8745902" lon="11.1913282"><ele>202.0</ele><time>2026-04-06T09:13:37.265Z</time></trkpt></trkseg></trk></gpx>